<?xml version="1.0" encoding="UTF-8" standalone="no" ?>
<gpx xmlns="http://www.topografix.com/GPX/1/1" xmlns:xsi="http://www.w3.org/2001/XMLSchema-instance" xsi:schemaLocation="http://www.topografix.com/GPX/1/1 http://www.topografix.com/GPX/1/1/gpx.xsd" version="1.1" creator="VisuGPX - https://www.visugpx.com">
  <metadata>
    <name>Col de l' ouillat</name>
    <desc><![CDATA[Très froid et mauvais temps]]></desc>
  </metadata>
  <trk>
    <name><![CDATA[Col de l' ouillat]]></name>
    <trkseg>
      <trkpt lat="42.46695" lon="2.86317">
        <ele>266.1</ele>
        <time>2021-11-14T14:03:08Z</time>
      </trkpt>
      <trkpt lat="42.46695" lon="2.8632">
        <ele>266.1</ele>
        <time>2021-11-14T14:03:10Z</time>
      </trkpt>
      <trkpt lat="42.46695" lon="2.86321">
        <ele>266.1</ele>
        <time>2021-11-14T14:03:12Z</time>
      </trkpt>
      <trkpt lat="42.46695" lon="2.8632">
        <ele>266.1</ele>
        <time>2021-11-14T14:03:13Z</time>
      </trkpt>
      <trkpt lat="42.46695" lon="2.8632">
        <ele>266.1</ele>
        <time>2021-11-14T14:03:14Z</time>
      </trkpt>
      <trkpt lat="42.46695" lon="2.8632">
        <ele>266.1</ele>
        <time>2021-11-14T14:03:15Z</time>
      </trkpt>
      <trkpt lat="42.46695" lon="2.86319">
        <ele>266.1</ele>
        <time>2021-11-14T14:03:17Z</time>
      </trkpt>
      <trkpt lat="42.46694" lon="2.86319">
        <ele>266.1</ele>
        <time>2021-11-14T14:03:18Z</time>
      </trkpt>
      <trkpt lat="42.46694" lon="2.8632">
        <ele>266.1</ele>
        <time>2021-11-14T14:03:20Z</time>
      </trkpt>
      <trkpt lat="42.46694" lon="2.8632">
        <ele>266.1</ele>
        <time>2021-11-14T14:03:21Z</time>
      </trkpt>
      <trkpt lat="42.46694" lon="2.8632">
        <ele>266.1</ele>
        <time>2021-11-14T14:03:23Z</time>
      </trkpt>
      <trkpt lat="42.46694" lon="2.86321">
        <ele>266.1</ele>
        <time>2021-11-14T14:03:24Z</time>
      </trkpt>
      <trkpt lat="42.46694" lon="2.86321">
        <ele>266.1</ele>
        <time>2021-11-14T14:03:26Z</time>
      </trkpt>
      <trkpt lat="42.46694" lon="2.86321">
        <ele>266.1</ele>
        <time>2021-11-14T14:03:28Z</time>
      </trkpt>
      <trkpt lat="42.46694" lon="2.86322">
        <ele>266.1</ele>
        <time>2021-11-14T14:03:30Z</time>
      </trkpt>
      <trkpt lat="42.46694" lon="2.86322">
        <ele>266.1</ele>
        <time>2021-11-14T14:03:32Z</time>
      </trkpt>
      <trkpt lat="42.46694" lon="2.86322">
        <ele>266.1</ele>
        <time>2021-11-14T14:03:34Z</time>
      </trkpt>
      <trkpt lat="42.46694" lon="2.86322">
        <ele>266.1</ele>
        <time>2021-11-14T14:03:36Z</time>
      </trkpt>
      <trkpt lat="42.4669" lon="2.86322">
        <ele>265.9</ele>
        <time>2021-11-14T14:03:57Z</time>
      </trkpt>
      <trkpt lat="42.46689" lon="2.86323">
        <ele>265.9</ele>
        <time>2021-11-14T14:03:58Z</time>
      </trkpt>
      <trkpt lat="42.46687" lon="2.86323">
        <ele>265.9</ele>
        <time>2021-11-14T14:03:59Z</time>
      </trkpt>
      <trkpt lat="42.46684" lon="2.86321">
        <ele>265.9</ele>
        <time>2021-11-14T14:04:00Z</time>
      </trkpt>
      <trkpt lat="42.46683" lon="2.8632">
        <ele>265.9</ele>
        <time>2021-11-14T14:04:01Z</time>
      </trkpt>
      <trkpt lat="42.46679" lon="2.86315">
        <ele>266.6</ele>
        <time>2021-11-14T14:04:03Z</time>
      </trkpt>
      <trkpt lat="42.46675" lon="2.86312">
        <ele>269.5</ele>
        <time>2021-11-14T14:04:05Z</time>
      </trkpt>
      <trkpt lat="42.46668" lon="2.86311">
        <ele>273.9</ele>
        <time>2021-11-14T14:04:07Z</time>
      </trkpt>
      <trkpt lat="42.46662" lon="2.86312">
        <ele>274.1</ele>
        <time>2021-11-14T14:04:09Z</time>
      </trkpt>
      <trkpt lat="42.46657" lon="2.86312">
        <ele>274.7</ele>
        <time>2021-11-14T14:04:11Z</time>
      </trkpt>
      <trkpt lat="42.46656" lon="2.86312">
        <ele>274.1</ele>
        <time>2021-11-14T14:04:12Z</time>
      </trkpt>
      <trkpt lat="42.46654" lon="2.86311">
        <ele>274.1</ele>
        <time>2021-11-14T14:04:14Z</time>
      </trkpt>
      <trkpt lat="42.46654" lon="2.86311">
        <ele>274.1</ele>
        <time>2021-11-14T14:04:16Z</time>
      </trkpt>
      <trkpt lat="42.46654" lon="2.86313">
        <ele>274.2</ele>
        <time>2021-11-14T14:04:18Z</time>
      </trkpt>
      <trkpt lat="42.46655" lon="2.86314">
        <ele>274.2</ele>
        <time>2021-11-14T14:04:20Z</time>
      </trkpt>
      <trkpt lat="42.46655" lon="2.86314">
        <ele>274.2</ele>
        <time>2021-11-14T14:04:21Z</time>
      </trkpt>
      <trkpt lat="42.46655" lon="2.86314">
        <ele>274.2</ele>
        <time>2021-11-14T14:04:22Z</time>
      </trkpt>
      <trkpt lat="42.46655" lon="2.86314">
        <ele>274.2</ele>
        <time>2021-11-14T14:04:24Z</time>
      </trkpt>
      <trkpt lat="42.46655" lon="2.86314">
        <ele>274.2</ele>
        <time>2021-11-14T14:04:25Z</time>
      </trkpt>
      <trkpt lat="42.46656" lon="2.86314">
        <ele>274.2</ele>
        <time>2021-11-14T14:04:26Z</time>
      </trkpt>
      <trkpt lat="42.46656" lon="2.86314">
        <ele>274.2</ele>
        <time>2021-11-14T14:04:28Z</time>
      </trkpt>
      <trkpt lat="42.46656" lon="2.86314">
        <ele>274.2</ele>
        <time>2021-11-14T14:04:29Z</time>
      </trkpt>
      <trkpt lat="42.46656" lon="2.86314">
        <ele>274.2</ele>
        <time>2021-11-14T14:04:30Z</time>
      </trkpt>
      <trkpt lat="42.46651" lon="2.86315">
        <ele>274.2</ele>
        <time>2021-11-14T14:04:35Z</time>
      </trkpt>
      <trkpt lat="42.46652" lon="2.86319">
        <ele>274.3</ele>
        <time>2021-11-14T14:04:37Z</time>
      </trkpt>
      <trkpt lat="42.46655" lon="2.86323">
        <ele>274.3</ele>
        <time>2021-11-14T14:04:38Z</time>
      </trkpt>
      <trkpt lat="42.46655" lon="2.86327">
        <ele>274.3</ele>
        <time>2021-11-14T14:04:40Z</time>
      </trkpt>
      <trkpt lat="42.4666" lon="2.86333">
        <ele>274.4</ele>
        <time>2021-11-14T14:04:42Z</time>
      </trkpt>
      <trkpt lat="42.46663" lon="2.86334">
        <ele>274.5</ele>
        <time>2021-11-14T14:04:43Z</time>
      </trkpt>
      <trkpt lat="42.46667" lon="2.86339">
        <ele>274.6</ele>
        <time>2021-11-14T14:04:45Z</time>
      </trkpt>
      <trkpt lat="42.4667" lon="2.86341">
        <ele>274.6</ele>
        <time>2021-11-14T14:04:46Z</time>
      </trkpt>
      <trkpt lat="42.46675" lon="2.86344">
        <ele>274.7</ele>
        <time>2021-11-14T14:04:48Z</time>
      </trkpt>
      <trkpt lat="42.46677" lon="2.86346">
        <ele>274.8</ele>
        <time>2021-11-14T14:04:49Z</time>
      </trkpt>
      <trkpt lat="42.46681" lon="2.86349">
        <ele>274.9</ele>
        <time>2021-11-14T14:04:51Z</time>
      </trkpt>
      <trkpt lat="42.46684" lon="2.86351">
        <ele>275</ele>
        <time>2021-11-14T14:04:52Z</time>
      </trkpt>
      <trkpt lat="42.46687" lon="2.86354">
        <ele>275.1</ele>
        <time>2021-11-14T14:04:54Z</time>
      </trkpt>
      <trkpt lat="42.46689" lon="2.86356">
        <ele>275.2</ele>
        <time>2021-11-14T14:04:55Z</time>
      </trkpt>
      <trkpt lat="42.46691" lon="2.86361">
        <ele>275.4</ele>
        <time>2021-11-14T14:04:57Z</time>
      </trkpt>
      <trkpt lat="42.46692" lon="2.86365">
        <ele>275.5</ele>
        <time>2021-11-14T14:04:58Z</time>
      </trkpt>
      <trkpt lat="42.46693" lon="2.86367">
        <ele>275.6</ele>
        <time>2021-11-14T14:04:59Z</time>
      </trkpt>
      <trkpt lat="42.46693" lon="2.86371">
        <ele>275.8</ele>
        <time>2021-11-14T14:05:00Z</time>
      </trkpt>
      <trkpt lat="42.46693" lon="2.86375">
        <ele>275.9</ele>
        <time>2021-11-14T14:05:01Z</time>
      </trkpt>
      <trkpt lat="42.46692" lon="2.86383">
        <ele>276.2</ele>
        <time>2021-11-14T14:05:03Z</time>
      </trkpt>
      <trkpt lat="42.46691" lon="2.86386">
        <ele>276.4</ele>
        <time>2021-11-14T14:05:04Z</time>
      </trkpt>
      <trkpt lat="42.46685" lon="2.86404">
        <ele>277.1</ele>
        <time>2021-11-14T14:05:08Z</time>
      </trkpt>
      <trkpt lat="42.46684" lon="2.86406">
        <ele>277.2</ele>
        <time>2021-11-14T14:05:09Z</time>
      </trkpt>
      <trkpt lat="42.46682" lon="2.86413">
        <ele>277.5</ele>
        <time>2021-11-14T14:05:11Z</time>
      </trkpt>
      <trkpt lat="42.46681" lon="2.86421">
        <ele>277.8</ele>
        <time>2021-11-14T14:05:13Z</time>
      </trkpt>
      <trkpt lat="42.4668" lon="2.86425">
        <ele>278</ele>
        <time>2021-11-14T14:05:14Z</time>
      </trkpt>
      <trkpt lat="42.46678" lon="2.86432">
        <ele>278.3</ele>
        <time>2021-11-14T14:05:16Z</time>
      </trkpt>
      <trkpt lat="42.46677" lon="2.8644">
        <ele>278.7</ele>
        <time>2021-11-14T14:05:18Z</time>
      </trkpt>
      <trkpt lat="42.46677" lon="2.86444">
        <ele>278.9</ele>
        <time>2021-11-14T14:05:19Z</time>
      </trkpt>
      <trkpt lat="42.46677" lon="2.86452">
        <ele>279.3</ele>
        <time>2021-11-14T14:05:21Z</time>
      </trkpt>
      <trkpt lat="42.46677" lon="2.86459">
        <ele>279.7</ele>
        <time>2021-11-14T14:05:23Z</time>
      </trkpt>
      <trkpt lat="42.46677" lon="2.86462">
        <ele>279.8</ele>
        <time>2021-11-14T14:05:24Z</time>
      </trkpt>
      <trkpt lat="42.46676" lon="2.86471">
        <ele>280.2</ele>
        <time>2021-11-14T14:05:26Z</time>
      </trkpt>
      <trkpt lat="42.46676" lon="2.86475">
        <ele>280.4</ele>
        <time>2021-11-14T14:05:27Z</time>
      </trkpt>
      <trkpt lat="42.46676" lon="2.86478">
        <ele>280.6</ele>
        <time>2021-11-14T14:05:28Z</time>
      </trkpt>
      <trkpt lat="42.46675" lon="2.86485">
        <ele>281</ele>
        <time>2021-11-14T14:05:30Z</time>
      </trkpt>
      <trkpt lat="42.46674" lon="2.86492">
        <ele>281.3</ele>
        <time>2021-11-14T14:05:32Z</time>
      </trkpt>
      <trkpt lat="42.46674" lon="2.86495">
        <ele>281.5</ele>
        <time>2021-11-14T14:05:33Z</time>
      </trkpt>
      <trkpt lat="42.46674" lon="2.86502">
        <ele>281.8</ele>
        <time>2021-11-14T14:05:35Z</time>
      </trkpt>
      <trkpt lat="42.46675" lon="2.86506">
        <ele>282</ele>
        <time>2021-11-14T14:05:36Z</time>
      </trkpt>
      <trkpt lat="42.46674" lon="2.86513">
        <ele>282.4</ele>
        <time>2021-11-14T14:05:38Z</time>
      </trkpt>
      <trkpt lat="42.46672" lon="2.8652">
        <ele>282.8</ele>
        <time>2021-11-14T14:05:40Z</time>
      </trkpt>
      <trkpt lat="42.46671" lon="2.86524">
        <ele>283</ele>
        <time>2021-11-14T14:05:41Z</time>
      </trkpt>
      <trkpt lat="42.46669" lon="2.86527">
        <ele>283.2</ele>
        <time>2021-11-14T14:05:43Z</time>
      </trkpt>
      <trkpt lat="42.46668" lon="2.86528">
        <ele>283.3</ele>
        <time>2021-11-14T14:05:44Z</time>
      </trkpt>
      <trkpt lat="42.46666" lon="2.86531">
        <ele>283.5</ele>
        <time>2021-11-14T14:05:45Z</time>
      </trkpt>
      <trkpt lat="42.46663" lon="2.86536">
        <ele>283.8</ele>
        <time>2021-11-14T14:05:47Z</time>
      </trkpt>
      <trkpt lat="42.4666" lon="2.86542">
        <ele>284.1</ele>
        <time>2021-11-14T14:05:49Z</time>
      </trkpt>
      <trkpt lat="42.46659" lon="2.86547">
        <ele>284.3</ele>
        <time>2021-11-14T14:05:50Z</time>
      </trkpt>
      <trkpt lat="42.46657" lon="2.86551">
        <ele>284.5</ele>
        <time>2021-11-14T14:05:51Z</time>
      </trkpt>
      <trkpt lat="42.46655" lon="2.86556">
        <ele>284.8</ele>
        <time>2021-11-14T14:05:53Z</time>
      </trkpt>
      <trkpt lat="42.46655" lon="2.86558">
        <ele>284.9</ele>
        <time>2021-11-14T14:05:54Z</time>
      </trkpt>
      <trkpt lat="42.46655" lon="2.8656">
        <ele>284.9</ele>
        <time>2021-11-14T14:05:55Z</time>
      </trkpt>
      <trkpt lat="42.46655" lon="2.86562">
        <ele>285</ele>
        <time>2021-11-14T14:05:56Z</time>
      </trkpt>
      <trkpt lat="42.46653" lon="2.86568">
        <ele>285.4</ele>
        <time>2021-11-14T14:05:58Z</time>
      </trkpt>
      <trkpt lat="42.46651" lon="2.86572">
        <ele>285.6</ele>
        <time>2021-11-14T14:05:59Z</time>
      </trkpt>
      <trkpt lat="42.4665" lon="2.86576">
        <ele>285.7</ele>
        <time>2021-11-14T14:06:00Z</time>
      </trkpt>
      <trkpt lat="42.46648" lon="2.86582">
        <ele>286</ele>
        <time>2021-11-14T14:06:02Z</time>
      </trkpt>
      <trkpt lat="42.46646" lon="2.86588">
        <ele>286.3</ele>
        <time>2021-11-14T14:06:04Z</time>
      </trkpt>
      <trkpt lat="42.46646" lon="2.86592">
        <ele>286.5</ele>
        <time>2021-11-14T14:06:05Z</time>
      </trkpt>
      <trkpt lat="42.46645" lon="2.86599">
        <ele>286.8</ele>
        <time>2021-11-14T14:06:07Z</time>
      </trkpt>
      <trkpt lat="42.46645" lon="2.86603">
        <ele>287</ele>
        <time>2021-11-14T14:06:08Z</time>
      </trkpt>
      <trkpt lat="42.46646" lon="2.86609">
        <ele>287.3</ele>
        <time>2021-11-14T14:06:10Z</time>
      </trkpt>
      <trkpt lat="42.46647" lon="2.86612">
        <ele>287.5</ele>
        <time>2021-11-14T14:06:11Z</time>
      </trkpt>
      <trkpt lat="42.46649" lon="2.86618">
        <ele>287.8</ele>
        <time>2021-11-14T14:06:13Z</time>
      </trkpt>
      <trkpt lat="42.46651" lon="2.86621">
        <ele>288</ele>
        <time>2021-11-14T14:06:14Z</time>
      </trkpt>
      <trkpt lat="42.46653" lon="2.86623">
        <ele>288.2</ele>
        <time>2021-11-14T14:06:15Z</time>
      </trkpt>
      <trkpt lat="42.46658" lon="2.86628">
        <ele>288.5</ele>
        <time>2021-11-14T14:06:17Z</time>
      </trkpt>
      <trkpt lat="42.4666" lon="2.8663">
        <ele>288.7</ele>
        <time>2021-11-14T14:06:18Z</time>
      </trkpt>
      <trkpt lat="42.46663" lon="2.86632">
        <ele>288.9</ele>
        <time>2021-11-14T14:06:19Z</time>
      </trkpt>
      <trkpt lat="42.46665" lon="2.86634">
        <ele>289.1</ele>
        <time>2021-11-14T14:06:20Z</time>
      </trkpt>
      <trkpt lat="42.46668" lon="2.86635">
        <ele>289.3</ele>
        <time>2021-11-14T14:06:21Z</time>
      </trkpt>
      <trkpt lat="42.46672" lon="2.86638">
        <ele>289.5</ele>
        <time>2021-11-14T14:06:23Z</time>
      </trkpt>
      <trkpt lat="42.46675" lon="2.8664">
        <ele>289.8</ele>
        <time>2021-11-14T14:06:24Z</time>
      </trkpt>
      <trkpt lat="42.46679" lon="2.86642">
        <ele>290</ele>
        <time>2021-11-14T14:06:25Z</time>
      </trkpt>
      <trkpt lat="42.4668" lon="2.86643">
        <ele>290.1</ele>
        <time>2021-11-14T14:06:26Z</time>
      </trkpt>
      <trkpt lat="42.46683" lon="2.86645">
        <ele>290.3</ele>
        <time>2021-11-14T14:06:27Z</time>
      </trkpt>
      <trkpt lat="42.46684" lon="2.86646">
        <ele>290.4</ele>
        <time>2021-11-14T14:06:28Z</time>
      </trkpt>
      <trkpt lat="42.46689" lon="2.86648">
        <ele>290.7</ele>
        <time>2021-11-14T14:06:30Z</time>
      </trkpt>
      <trkpt lat="42.46691" lon="2.86649">
        <ele>290.8</ele>
        <time>2021-11-14T14:06:31Z</time>
      </trkpt>
      <trkpt lat="42.46696" lon="2.86651">
        <ele>291.1</ele>
        <time>2021-11-14T14:06:33Z</time>
      </trkpt>
      <trkpt lat="42.467" lon="2.86653">
        <ele>291.4</ele>
        <time>2021-11-14T14:06:35Z</time>
      </trkpt>
      <trkpt lat="42.46702" lon="2.86653">
        <ele>291.5</ele>
        <time>2021-11-14T14:06:36Z</time>
      </trkpt>
      <trkpt lat="42.46705" lon="2.86654">
        <ele>291.7</ele>
        <time>2021-11-14T14:06:38Z</time>
      </trkpt>
      <trkpt lat="42.46708" lon="2.86655">
        <ele>291.8</ele>
        <time>2021-11-14T14:06:39Z</time>
      </trkpt>
      <trkpt lat="42.4671" lon="2.86656">
        <ele>292</ele>
        <time>2021-11-14T14:06:40Z</time>
      </trkpt>
      <trkpt lat="42.46715" lon="2.86657">
        <ele>292.2</ele>
        <time>2021-11-14T14:06:42Z</time>
      </trkpt>
      <trkpt lat="42.46718" lon="2.86657">
        <ele>292.5</ele>
        <time>2021-11-14T14:06:43Z</time>
      </trkpt>
      <trkpt lat="42.46719" lon="2.86658">
        <ele>292.5</ele>
        <time>2021-11-14T14:06:44Z</time>
      </trkpt>
      <trkpt lat="42.46724" lon="2.86658">
        <ele>292.8</ele>
        <time>2021-11-14T14:06:46Z</time>
      </trkpt>
      <trkpt lat="42.46729" lon="2.8666">
        <ele>293.1</ele>
        <time>2021-11-14T14:06:48Z</time>
      </trkpt>
      <trkpt lat="42.46733" lon="2.8666">
        <ele>293.3</ele>
        <time>2021-11-14T14:06:49Z</time>
      </trkpt>
      <trkpt lat="42.46737" lon="2.8666">
        <ele>293.5</ele>
        <time>2021-11-14T14:06:51Z</time>
      </trkpt>
      <trkpt lat="42.46741" lon="2.8666">
        <ele>293.8</ele>
        <time>2021-11-14T14:06:52Z</time>
      </trkpt>
      <trkpt lat="42.46742" lon="2.8666">
        <ele>293.9</ele>
        <time>2021-11-14T14:06:53Z</time>
      </trkpt>
      <trkpt lat="42.46746" lon="2.86661">
        <ele>294.1</ele>
        <time>2021-11-14T14:06:55Z</time>
      </trkpt>
      <trkpt lat="42.46749" lon="2.86661">
        <ele>294.3</ele>
        <time>2021-11-14T14:06:56Z</time>
      </trkpt>
      <trkpt lat="42.46754" lon="2.86662">
        <ele>294.6</ele>
        <time>2021-11-14T14:06:58Z</time>
      </trkpt>
      <trkpt lat="42.46757" lon="2.86663">
        <ele>294.8</ele>
        <time>2021-11-14T14:06:59Z</time>
      </trkpt>
      <trkpt lat="42.46762" lon="2.86664">
        <ele>295.1</ele>
        <time>2021-11-14T14:07:01Z</time>
      </trkpt>
      <trkpt lat="42.46767" lon="2.86667">
        <ele>295.4</ele>
        <time>2021-11-14T14:07:03Z</time>
      </trkpt>
      <trkpt lat="42.46771" lon="2.86669">
        <ele>295.7</ele>
        <time>2021-11-14T14:07:05Z</time>
      </trkpt>
      <trkpt lat="42.46774" lon="2.86672">
        <ele>296</ele>
        <time>2021-11-14T14:07:06Z</time>
      </trkpt>
      <trkpt lat="42.46777" lon="2.86676">
        <ele>296.3</ele>
        <time>2021-11-14T14:07:08Z</time>
      </trkpt>
      <trkpt lat="42.4678" lon="2.8668">
        <ele>296.6</ele>
        <time>2021-11-14T14:07:10Z</time>
      </trkpt>
      <trkpt lat="42.46782" lon="2.86682">
        <ele>296.8</ele>
        <time>2021-11-14T14:07:11Z</time>
      </trkpt>
      <trkpt lat="42.46786" lon="2.86687">
        <ele>297.1</ele>
        <time>2021-11-14T14:07:13Z</time>
      </trkpt>
      <trkpt lat="42.46787" lon="2.86689">
        <ele>297.3</ele>
        <time>2021-11-14T14:07:14Z</time>
      </trkpt>
      <trkpt lat="42.46791" lon="2.86692">
        <ele>297.6</ele>
        <time>2021-11-14T14:07:16Z</time>
      </trkpt>
      <trkpt lat="42.46793" lon="2.86694">
        <ele>297.8</ele>
        <time>2021-11-14T14:07:17Z</time>
      </trkpt>
      <trkpt lat="42.46797" lon="2.86696">
        <ele>298.1</ele>
        <time>2021-11-14T14:07:19Z</time>
      </trkpt>
      <trkpt lat="42.46803" lon="2.86696">
        <ele>298.5</ele>
        <time>2021-11-14T14:07:21Z</time>
      </trkpt>
      <trkpt lat="42.46806" lon="2.86695">
        <ele>298.8</ele>
        <time>2021-11-14T14:07:22Z</time>
      </trkpt>
      <trkpt lat="42.46807" lon="2.86695">
        <ele>298.9</ele>
        <time>2021-11-14T14:07:23Z</time>
      </trkpt>
      <trkpt lat="42.46812" lon="2.86693">
        <ele>299.2</ele>
        <time>2021-11-14T14:07:25Z</time>
      </trkpt>
      <trkpt lat="42.46816" lon="2.8669">
        <ele>299.5</ele>
        <time>2021-11-14T14:07:27Z</time>
      </trkpt>
      <trkpt lat="42.46821" lon="2.86688">
        <ele>299.8</ele>
        <time>2021-11-14T14:07:29Z</time>
      </trkpt>
      <trkpt lat="42.46825" lon="2.86685">
        <ele>300.1</ele>
        <time>2021-11-14T14:07:31Z</time>
      </trkpt>
      <trkpt lat="42.46827" lon="2.86684">
        <ele>300.3</ele>
        <time>2021-11-14T14:07:32Z</time>
      </trkpt>
      <trkpt lat="42.46832" lon="2.86682">
        <ele>300.6</ele>
        <time>2021-11-14T14:07:34Z</time>
      </trkpt>
      <trkpt lat="42.46835" lon="2.86682">
        <ele>300.8</ele>
        <time>2021-11-14T14:07:35Z</time>
      </trkpt>
      <trkpt lat="42.46839" lon="2.86682">
        <ele>301.1</ele>
        <time>2021-11-14T14:07:37Z</time>
      </trkpt>
      <trkpt lat="42.46841" lon="2.86682">
        <ele>301.2</ele>
        <time>2021-11-14T14:07:38Z</time>
      </trkpt>
      <trkpt lat="42.46845" lon="2.86684">
        <ele>301.5</ele>
        <time>2021-11-14T14:07:40Z</time>
      </trkpt>
      <trkpt lat="42.46848" lon="2.86686">
        <ele>301.7</ele>
        <time>2021-11-14T14:07:41Z</time>
      </trkpt>
      <trkpt lat="42.46849" lon="2.86686">
        <ele>301.8</ele>
        <time>2021-11-14T14:07:42Z</time>
      </trkpt>
      <trkpt lat="42.46853" lon="2.86688">
        <ele>302.1</ele>
        <time>2021-11-14T14:07:44Z</time>
      </trkpt>
      <trkpt lat="42.46857" lon="2.8669">
        <ele>302.4</ele>
        <time>2021-11-14T14:07:46Z</time>
      </trkpt>
      <trkpt lat="42.46861" lon="2.86691">
        <ele>302.7</ele>
        <time>2021-11-14T14:07:47Z</time>
      </trkpt>
      <trkpt lat="42.46862" lon="2.86691">
        <ele>302.8</ele>
        <time>2021-11-14T14:07:48Z</time>
      </trkpt>
      <trkpt lat="42.46866" lon="2.8669">
        <ele>303.1</ele>
        <time>2021-11-14T14:07:50Z</time>
      </trkpt>
      <trkpt lat="42.46869" lon="2.8669">
        <ele>303.3</ele>
        <time>2021-11-14T14:07:51Z</time>
      </trkpt>
      <trkpt lat="42.46873" lon="2.8669">
        <ele>303.6</ele>
        <time>2021-11-14T14:07:53Z</time>
      </trkpt>
      <trkpt lat="42.46877" lon="2.86691">
        <ele>303.9</ele>
        <time>2021-11-14T14:07:54Z</time>
      </trkpt>
      <trkpt lat="42.46879" lon="2.86691">
        <ele>304</ele>
        <time>2021-11-14T14:07:55Z</time>
      </trkpt>
      <trkpt lat="42.46882" lon="2.86692">
        <ele>304.2</ele>
        <time>2021-11-14T14:07:57Z</time>
      </trkpt>
      <trkpt lat="42.46886" lon="2.86692">
        <ele>304.5</ele>
        <time>2021-11-14T14:07:59Z</time>
      </trkpt>
      <trkpt lat="42.46889" lon="2.86692">
        <ele>304.6</ele>
        <time>2021-11-14T14:08:00Z</time>
      </trkpt>
      <trkpt lat="42.46892" lon="2.86691">
        <ele>304.9</ele>
        <time>2021-11-14T14:08:01Z</time>
      </trkpt>
      <trkpt lat="42.46893" lon="2.86691">
        <ele>305</ele>
        <time>2021-11-14T14:08:02Z</time>
      </trkpt>
      <trkpt lat="42.46898" lon="2.86691">
        <ele>305.3</ele>
        <time>2021-11-14T14:08:04Z</time>
      </trkpt>
      <trkpt lat="42.46902" lon="2.8669">
        <ele>305.6</ele>
        <time>2021-11-14T14:08:05Z</time>
      </trkpt>
      <trkpt lat="42.46904" lon="2.8669">
        <ele>305.8</ele>
        <time>2021-11-14T14:08:06Z</time>
      </trkpt>
      <trkpt lat="42.46907" lon="2.8669">
        <ele>306</ele>
        <time>2021-11-14T14:08:08Z</time>
      </trkpt>
      <trkpt lat="42.46911" lon="2.8669">
        <ele>306.3</ele>
        <time>2021-11-14T14:08:09Z</time>
      </trkpt>
      <trkpt lat="42.46912" lon="2.8669">
        <ele>306.3</ele>
        <time>2021-11-14T14:08:10Z</time>
      </trkpt>
      <trkpt lat="42.46916" lon="2.86691">
        <ele>306.7</ele>
        <time>2021-11-14T14:08:12Z</time>
      </trkpt>
      <trkpt lat="42.4692" lon="2.86691">
        <ele>307</ele>
        <time>2021-11-14T14:08:14Z</time>
      </trkpt>
      <trkpt lat="42.46923" lon="2.86692">
        <ele>307.2</ele>
        <time>2021-11-14T14:08:15Z</time>
      </trkpt>
      <trkpt lat="42.46926" lon="2.86692">
        <ele>307.5</ele>
        <time>2021-11-14T14:08:17Z</time>
      </trkpt>
      <trkpt lat="42.4693" lon="2.86693">
        <ele>307.7</ele>
        <time>2021-11-14T14:08:18Z</time>
      </trkpt>
      <trkpt lat="42.46931" lon="2.86693">
        <ele>307.8</ele>
        <time>2021-11-14T14:08:19Z</time>
      </trkpt>
      <trkpt lat="42.46935" lon="2.86694">
        <ele>308.1</ele>
        <time>2021-11-14T14:08:21Z</time>
      </trkpt>
      <trkpt lat="42.46937" lon="2.86695">
        <ele>308.3</ele>
        <time>2021-11-14T14:08:22Z</time>
      </trkpt>
      <trkpt lat="42.4694" lon="2.86696">
        <ele>308.6</ele>
        <time>2021-11-14T14:08:24Z</time>
      </trkpt>
      <trkpt lat="42.46944" lon="2.86699">
        <ele>308.9</ele>
        <time>2021-11-14T14:08:26Z</time>
      </trkpt>
      <trkpt lat="42.46947" lon="2.86701">
        <ele>309.2</ele>
        <time>2021-11-14T14:08:27Z</time>
      </trkpt>
      <trkpt lat="42.46948" lon="2.86701">
        <ele>309.3</ele>
        <time>2021-11-14T14:08:28Z</time>
      </trkpt>
      <trkpt lat="42.4695" lon="2.86703">
        <ele>309.4</ele>
        <time>2021-11-14T14:08:29Z</time>
      </trkpt>
      <trkpt lat="42.46954" lon="2.86706">
        <ele>309.8</ele>
        <time>2021-11-14T14:08:31Z</time>
      </trkpt>
      <trkpt lat="42.46957" lon="2.86707">
        <ele>309.9</ele>
        <time>2021-11-14T14:08:32Z</time>
      </trkpt>
      <trkpt lat="42.46961" lon="2.86709">
        <ele>310.2</ele>
        <time>2021-11-14T14:08:34Z</time>
      </trkpt>
      <trkpt lat="42.46964" lon="2.8671">
        <ele>310.4</ele>
        <time>2021-11-14T14:08:35Z</time>
      </trkpt>
      <trkpt lat="42.46966" lon="2.86711">
        <ele>310.5</ele>
        <time>2021-11-14T14:08:36Z</time>
      </trkpt>
      <trkpt lat="42.46969" lon="2.86712">
        <ele>310.7</ele>
        <time>2021-11-14T14:08:38Z</time>
      </trkpt>
      <trkpt lat="42.46971" lon="2.86713">
        <ele>310.9</ele>
        <time>2021-11-14T14:08:39Z</time>
      </trkpt>
      <trkpt lat="42.46976" lon="2.86714">
        <ele>311.2</ele>
        <time>2021-11-14T14:08:41Z</time>
      </trkpt>
      <trkpt lat="42.46978" lon="2.86714">
        <ele>311.3</ele>
        <time>2021-11-14T14:08:42Z</time>
      </trkpt>
      <trkpt lat="42.46984" lon="2.86715">
        <ele>311.6</ele>
        <time>2021-11-14T14:08:44Z</time>
      </trkpt>
      <trkpt lat="42.46988" lon="2.86716">
        <ele>311.8</ele>
        <time>2021-11-14T14:08:46Z</time>
      </trkpt>
      <trkpt lat="42.46991" lon="2.86717">
        <ele>312</ele>
        <time>2021-11-14T14:08:47Z</time>
      </trkpt>
      <trkpt lat="42.46994" lon="2.86718">
        <ele>312.2</ele>
        <time>2021-11-14T14:08:48Z</time>
      </trkpt>
      <trkpt lat="42.46998" lon="2.86723">
        <ele>312.5</ele>
        <time>2021-11-14T14:08:50Z</time>
      </trkpt>
      <trkpt lat="42.46999" lon="2.86726">
        <ele>312.7</ele>
        <time>2021-11-14T14:08:51Z</time>
      </trkpt>
      <trkpt lat="42.47001" lon="2.86731">
        <ele>313</ele>
        <time>2021-11-14T14:08:53Z</time>
      </trkpt>
      <trkpt lat="42.47001" lon="2.86734">
        <ele>313.1</ele>
        <time>2021-11-14T14:08:54Z</time>
      </trkpt>
      <trkpt lat="42.47" lon="2.86739">
        <ele>313.4</ele>
        <time>2021-11-14T14:08:56Z</time>
      </trkpt>
      <trkpt lat="42.46999" lon="2.86744">
        <ele>313.6</ele>
        <time>2021-11-14T14:08:57Z</time>
      </trkpt>
      <trkpt lat="42.46997" lon="2.86748">
        <ele>313.9</ele>
        <time>2021-11-14T14:08:59Z</time>
      </trkpt>
      <trkpt lat="42.46995" lon="2.86752">
        <ele>314.1</ele>
        <time>2021-11-14T14:09:00Z</time>
      </trkpt>
      <trkpt lat="42.46993" lon="2.86754">
        <ele>314.3</ele>
        <time>2021-11-14T14:09:01Z</time>
      </trkpt>
      <trkpt lat="42.4699" lon="2.86758">
        <ele>314.6</ele>
        <time>2021-11-14T14:09:03Z</time>
      </trkpt>
      <trkpt lat="42.46988" lon="2.86761">
        <ele>314.8</ele>
        <time>2021-11-14T14:09:04Z</time>
      </trkpt>
      <trkpt lat="42.46985" lon="2.86765">
        <ele>315.1</ele>
        <time>2021-11-14T14:09:06Z</time>
      </trkpt>
      <trkpt lat="42.46983" lon="2.86769">
        <ele>315.3</ele>
        <time>2021-11-14T14:09:07Z</time>
      </trkpt>
      <trkpt lat="42.46983" lon="2.86771">
        <ele>315.4</ele>
        <time>2021-11-14T14:09:08Z</time>
      </trkpt>
      <trkpt lat="42.46982" lon="2.86774">
        <ele>315.6</ele>
        <time>2021-11-14T14:09:09Z</time>
      </trkpt>
      <trkpt lat="42.4698" lon="2.86778">
        <ele>315.9</ele>
        <time>2021-11-14T14:09:11Z</time>
      </trkpt>
      <trkpt lat="42.46979" lon="2.86782">
        <ele>316.1</ele>
        <time>2021-11-14T14:09:12Z</time>
      </trkpt>
      <trkpt lat="42.46978" lon="2.86785">
        <ele>316.2</ele>
        <time>2021-11-14T14:09:13Z</time>
      </trkpt>
      <trkpt lat="42.46977" lon="2.86791">
        <ele>316.5</ele>
        <time>2021-11-14T14:09:15Z</time>
      </trkpt>
      <trkpt lat="42.46976" lon="2.86795">
        <ele>316.8</ele>
        <time>2021-11-14T14:09:16Z</time>
      </trkpt>
      <trkpt lat="42.46976" lon="2.86796">
        <ele>316.8</ele>
        <time>2021-11-14T14:09:17Z</time>
      </trkpt>
      <trkpt lat="42.46975" lon="2.86801">
        <ele>317.1</ele>
        <time>2021-11-14T14:09:18Z</time>
      </trkpt>
      <trkpt lat="42.46974" lon="2.86804">
        <ele>317.3</ele>
        <time>2021-11-14T14:09:20Z</time>
      </trkpt>
      <trkpt lat="42.46973" lon="2.8681">
        <ele>317.6</ele>
        <time>2021-11-14T14:09:22Z</time>
      </trkpt>
      <trkpt lat="42.46973" lon="2.86813">
        <ele>317.8</ele>
        <time>2021-11-14T14:09:23Z</time>
      </trkpt>
      <trkpt lat="42.46973" lon="2.86819">
        <ele>318.1</ele>
        <time>2021-11-14T14:09:25Z</time>
      </trkpt>
      <trkpt lat="42.46973" lon="2.86822">
        <ele>318.2</ele>
        <time>2021-11-14T14:09:26Z</time>
      </trkpt>
      <trkpt lat="42.46973" lon="2.86827">
        <ele>318.5</ele>
        <time>2021-11-14T14:09:28Z</time>
      </trkpt>
      <trkpt lat="42.46973" lon="2.86833">
        <ele>318.8</ele>
        <time>2021-11-14T14:09:30Z</time>
      </trkpt>
      <trkpt lat="42.46974" lon="2.86838">
        <ele>319</ele>
        <time>2021-11-14T14:09:31Z</time>
      </trkpt>
      <trkpt lat="42.46975" lon="2.86842">
        <ele>319.3</ele>
        <time>2021-11-14T14:09:33Z</time>
      </trkpt>
      <trkpt lat="42.46975" lon="2.86844">
        <ele>319.3</ele>
        <time>2021-11-14T14:09:34Z</time>
      </trkpt>
      <trkpt lat="42.46975" lon="2.86848">
        <ele>319.5</ele>
        <time>2021-11-14T14:09:35Z</time>
      </trkpt>
      <trkpt lat="42.46976" lon="2.86852">
        <ele>319.8</ele>
        <time>2021-11-14T14:09:37Z</time>
      </trkpt>
      <trkpt lat="42.46976" lon="2.86856">
        <ele>320</ele>
        <time>2021-11-14T14:09:38Z</time>
      </trkpt>
      <trkpt lat="42.46977" lon="2.86862">
        <ele>320.2</ele>
        <time>2021-11-14T14:09:40Z</time>
      </trkpt>
      <trkpt lat="42.46977" lon="2.86867">
        <ele>320.5</ele>
        <time>2021-11-14T14:09:41Z</time>
      </trkpt>
      <trkpt lat="42.46977" lon="2.86869">
        <ele>320.6</ele>
        <time>2021-11-14T14:09:42Z</time>
      </trkpt>
      <trkpt lat="42.46978" lon="2.86873">
        <ele>320.8</ele>
        <time>2021-11-14T14:09:43Z</time>
      </trkpt>
      <trkpt lat="42.46978" lon="2.86876">
        <ele>320.9</ele>
        <time>2021-11-14T14:09:44Z</time>
      </trkpt>
      <trkpt lat="42.46978" lon="2.86881">
        <ele>321.1</ele>
        <time>2021-11-14T14:09:46Z</time>
      </trkpt>
      <trkpt lat="42.46978" lon="2.86885">
        <ele>321.3</ele>
        <time>2021-11-14T14:09:47Z</time>
      </trkpt>
      <trkpt lat="42.46977" lon="2.86889">
        <ele>321.5</ele>
        <time>2021-11-14T14:09:48Z</time>
      </trkpt>
      <trkpt lat="42.46977" lon="2.86891">
        <ele>321.6</ele>
        <time>2021-11-14T14:09:49Z</time>
      </trkpt>
      <trkpt lat="42.46975" lon="2.86897">
        <ele>321.9</ele>
        <time>2021-11-14T14:09:51Z</time>
      </trkpt>
      <trkpt lat="42.46974" lon="2.869">
        <ele>322.1</ele>
        <time>2021-11-14T14:09:52Z</time>
      </trkpt>
      <trkpt lat="42.46972" lon="2.86906">
        <ele>322.4</ele>
        <time>2021-11-14T14:09:54Z</time>
      </trkpt>
      <trkpt lat="42.4697" lon="2.8691">
        <ele>322.6</ele>
        <time>2021-11-14T14:09:55Z</time>
      </trkpt>
      <trkpt lat="42.4697" lon="2.86912">
        <ele>322.7</ele>
        <time>2021-11-14T14:09:56Z</time>
      </trkpt>
      <trkpt lat="42.46967" lon="2.86917">
        <ele>323</ele>
        <time>2021-11-14T14:09:58Z</time>
      </trkpt>
      <trkpt lat="42.46965" lon="2.86919">
        <ele>323.1</ele>
        <time>2021-11-14T14:09:59Z</time>
      </trkpt>
      <trkpt lat="42.46962" lon="2.86924">
        <ele>323.4</ele>
        <time>2021-11-14T14:10:01Z</time>
      </trkpt>
      <trkpt lat="42.4696" lon="2.86926">
        <ele>323.6</ele>
        <time>2021-11-14T14:10:02Z</time>
      </trkpt>
      <trkpt lat="42.46958" lon="2.8693">
        <ele>323.9</ele>
        <time>2021-11-14T14:10:04Z</time>
      </trkpt>
      <trkpt lat="42.46956" lon="2.86934">
        <ele>324.1</ele>
        <time>2021-11-14T14:10:05Z</time>
      </trkpt>
      <trkpt lat="42.46955" lon="2.86936">
        <ele>324.2</ele>
        <time>2021-11-14T14:10:06Z</time>
      </trkpt>
      <trkpt lat="42.46953" lon="2.86938">
        <ele>324.4</ele>
        <time>2021-11-14T14:10:07Z</time>
      </trkpt>
      <trkpt lat="42.46951" lon="2.86941">
        <ele>324.6</ele>
        <time>2021-11-14T14:10:08Z</time>
      </trkpt>
      <trkpt lat="42.46948" lon="2.86945">
        <ele>324.9</ele>
        <time>2021-11-14T14:10:10Z</time>
      </trkpt>
      <trkpt lat="42.46947" lon="2.86947">
        <ele>325</ele>
        <time>2021-11-14T14:10:11Z</time>
      </trkpt>
      <trkpt lat="42.46946" lon="2.86949">
        <ele>325.1</ele>
        <time>2021-11-14T14:10:12Z</time>
      </trkpt>
      <trkpt lat="42.46944" lon="2.86952">
        <ele>325.3</ele>
        <time>2021-11-14T14:10:13Z</time>
      </trkpt>
      <trkpt lat="42.46942" lon="2.86956">
        <ele>325.6</ele>
        <time>2021-11-14T14:10:15Z</time>
      </trkpt>
      <trkpt lat="42.4694" lon="2.86959">
        <ele>325.8</ele>
        <time>2021-11-14T14:10:16Z</time>
      </trkpt>
      <trkpt lat="42.46938" lon="2.86962">
        <ele>326</ele>
        <time>2021-11-14T14:10:17Z</time>
      </trkpt>
      <trkpt lat="42.46936" lon="2.86966">
        <ele>326.2</ele>
        <time>2021-11-14T14:10:19Z</time>
      </trkpt>
      <trkpt lat="42.46933" lon="2.86971">
        <ele>326.5</ele>
        <time>2021-11-14T14:10:20Z</time>
      </trkpt>
      <trkpt lat="42.46931" lon="2.86975">
        <ele>326.8</ele>
        <time>2021-11-14T14:10:22Z</time>
      </trkpt>
      <trkpt lat="42.46929" lon="2.86979">
        <ele>327.1</ele>
        <time>2021-11-14T14:10:23Z</time>
      </trkpt>
      <trkpt lat="42.46928" lon="2.86981">
        <ele>327.2</ele>
        <time>2021-11-14T14:10:24Z</time>
      </trkpt>
      <trkpt lat="42.46927" lon="2.86984">
        <ele>327.3</ele>
        <time>2021-11-14T14:10:26Z</time>
      </trkpt>
      <trkpt lat="42.46926" lon="2.86987">
        <ele>327.5</ele>
        <time>2021-11-14T14:10:27Z</time>
      </trkpt>
      <trkpt lat="42.46923" lon="2.86992">
        <ele>327.8</ele>
        <time>2021-11-14T14:10:29Z</time>
      </trkpt>
      <trkpt lat="42.46922" lon="2.86995">
        <ele>328</ele>
        <time>2021-11-14T14:10:30Z</time>
      </trkpt>
      <trkpt lat="42.46918" lon="2.87001">
        <ele>328.4</ele>
        <time>2021-11-14T14:10:32Z</time>
      </trkpt>
      <trkpt lat="42.46915" lon="2.87006">
        <ele>328.8</ele>
        <time>2021-11-14T14:10:34Z</time>
      </trkpt>
      <trkpt lat="42.46912" lon="2.8701">
        <ele>329</ele>
        <time>2021-11-14T14:10:35Z</time>
      </trkpt>
      <trkpt lat="42.46909" lon="2.87015">
        <ele>329.3</ele>
        <time>2021-11-14T14:10:37Z</time>
      </trkpt>
      <trkpt lat="42.46908" lon="2.87018">
        <ele>329.5</ele>
        <time>2021-11-14T14:10:38Z</time>
      </trkpt>
      <trkpt lat="42.46905" lon="2.87024">
        <ele>329.8</ele>
        <time>2021-11-14T14:10:40Z</time>
      </trkpt>
      <trkpt lat="42.46904" lon="2.87027">
        <ele>330</ele>
        <time>2021-11-14T14:10:41Z</time>
      </trkpt>
      <trkpt lat="42.46901" lon="2.87034">
        <ele>330.4</ele>
        <time>2021-11-14T14:10:43Z</time>
      </trkpt>
      <trkpt lat="42.469" lon="2.87037">
        <ele>330.6</ele>
        <time>2021-11-14T14:10:44Z</time>
      </trkpt>
      <trkpt lat="42.46898" lon="2.87043">
        <ele>330.9</ele>
        <time>2021-11-14T14:10:46Z</time>
      </trkpt>
      <trkpt lat="42.46896" lon="2.8705">
        <ele>331.2</ele>
        <time>2021-11-14T14:10:48Z</time>
      </trkpt>
      <trkpt lat="42.46895" lon="2.87053">
        <ele>331.4</ele>
        <time>2021-11-14T14:10:49Z</time>
      </trkpt>
      <trkpt lat="42.46893" lon="2.87059">
        <ele>331.7</ele>
        <time>2021-11-14T14:10:51Z</time>
      </trkpt>
      <trkpt lat="42.46892" lon="2.87063">
        <ele>331.9</ele>
        <time>2021-11-14T14:10:52Z</time>
      </trkpt>
      <trkpt lat="42.4689" lon="2.8707">
        <ele>332.3</ele>
        <time>2021-11-14T14:10:54Z</time>
      </trkpt>
      <trkpt lat="42.46889" lon="2.87073">
        <ele>332.4</ele>
        <time>2021-11-14T14:10:55Z</time>
      </trkpt>
      <trkpt lat="42.46887" lon="2.87076">
        <ele>332.6</ele>
        <time>2021-11-14T14:10:56Z</time>
      </trkpt>
      <trkpt lat="42.46885" lon="2.87082">
        <ele>332.9</ele>
        <time>2021-11-14T14:10:57Z</time>
      </trkpt>
      <trkpt lat="42.46884" lon="2.87084">
        <ele>333.1</ele>
        <time>2021-11-14T14:10:58Z</time>
      </trkpt>
      <trkpt lat="42.46882" lon="2.87088">
        <ele>333.3</ele>
        <time>2021-11-14T14:11:00Z</time>
      </trkpt>
      <trkpt lat="42.4688" lon="2.87092">
        <ele>333.5</ele>
        <time>2021-11-14T14:11:01Z</time>
      </trkpt>
      <trkpt lat="42.46877" lon="2.87099">
        <ele>333.9</ele>
        <time>2021-11-14T14:11:03Z</time>
      </trkpt>
      <trkpt lat="42.46875" lon="2.87102">
        <ele>334.1</ele>
        <time>2021-11-14T14:11:04Z</time>
      </trkpt>
      <trkpt lat="42.46874" lon="2.87106">
        <ele>334.3</ele>
        <time>2021-11-14T14:11:05Z</time>
      </trkpt>
      <trkpt lat="42.4687" lon="2.87112">
        <ele>334.7</ele>
        <time>2021-11-14T14:11:07Z</time>
      </trkpt>
      <trkpt lat="42.46869" lon="2.87115">
        <ele>334.9</ele>
        <time>2021-11-14T14:11:08Z</time>
      </trkpt>
      <trkpt lat="42.46867" lon="2.87122">
        <ele>335.2</ele>
        <time>2021-11-14T14:11:10Z</time>
      </trkpt>
      <trkpt lat="42.46866" lon="2.87127">
        <ele>335.4</ele>
        <time>2021-11-14T14:11:11Z</time>
      </trkpt>
      <trkpt lat="42.46866" lon="2.87128">
        <ele>335.5</ele>
        <time>2021-11-14T14:11:12Z</time>
      </trkpt>
      <trkpt lat="42.46865" lon="2.87136">
        <ele>335.9</ele>
        <time>2021-11-14T14:11:14Z</time>
      </trkpt>
      <trkpt lat="42.46865" lon="2.87139">
        <ele>336.1</ele>
        <time>2021-11-14T14:11:15Z</time>
      </trkpt>
      <trkpt lat="42.46865" lon="2.87145">
        <ele>336.4</ele>
        <time>2021-11-14T14:11:17Z</time>
      </trkpt>
      <trkpt lat="42.46864" lon="2.8715">
        <ele>336.7</ele>
        <time>2021-11-14T14:11:18Z</time>
      </trkpt>
      <trkpt lat="42.46864" lon="2.87155">
        <ele>336.9</ele>
        <time>2021-11-14T14:11:19Z</time>
      </trkpt>
      <trkpt lat="42.46864" lon="2.8716">
        <ele>337.2</ele>
        <time>2021-11-14T14:11:21Z</time>
      </trkpt>
      <trkpt lat="42.46864" lon="2.87164">
        <ele>337.4</ele>
        <time>2021-11-14T14:11:22Z</time>
      </trkpt>
      <trkpt lat="42.46863" lon="2.8717">
        <ele>337.7</ele>
        <time>2021-11-14T14:11:24Z</time>
      </trkpt>
      <trkpt lat="42.46862" lon="2.87173">
        <ele>337.9</ele>
        <time>2021-11-14T14:11:25Z</time>
      </trkpt>
      <trkpt lat="42.46859" lon="2.87179">
        <ele>338.2</ele>
        <time>2021-11-14T14:11:27Z</time>
      </trkpt>
      <trkpt lat="42.46859" lon="2.87182">
        <ele>338.4</ele>
        <time>2021-11-14T14:11:28Z</time>
      </trkpt>
      <trkpt lat="42.4686" lon="2.87187">
        <ele>338.7</ele>
        <time>2021-11-14T14:11:30Z</time>
      </trkpt>
      <trkpt lat="42.46862" lon="2.87192">
        <ele>338.9</ele>
        <time>2021-11-14T14:11:31Z</time>
      </trkpt>
      <trkpt lat="42.46862" lon="2.87194">
        <ele>339</ele>
        <time>2021-11-14T14:11:32Z</time>
      </trkpt>
      <trkpt lat="42.46864" lon="2.872">
        <ele>339.3</ele>
        <time>2021-11-14T14:11:34Z</time>
      </trkpt>
      <trkpt lat="42.46865" lon="2.87204">
        <ele>339.6</ele>
        <time>2021-11-14T14:11:35Z</time>
      </trkpt>
      <trkpt lat="42.46866" lon="2.87206">
        <ele>339.7</ele>
        <time>2021-11-14T14:11:36Z</time>
      </trkpt>
      <trkpt lat="42.46868" lon="2.87212">
        <ele>340</ele>
        <time>2021-11-14T14:11:38Z</time>
      </trkpt>
      <trkpt lat="42.4687" lon="2.87218">
        <ele>340.3</ele>
        <time>2021-11-14T14:11:40Z</time>
      </trkpt>
      <trkpt lat="42.46871" lon="2.87221">
        <ele>340.5</ele>
        <time>2021-11-14T14:11:41Z</time>
      </trkpt>
      <trkpt lat="42.46871" lon="2.87228">
        <ele>340.8</ele>
        <time>2021-11-14T14:11:43Z</time>
      </trkpt>
      <trkpt lat="42.46871" lon="2.87232">
        <ele>341</ele>
        <time>2021-11-14T14:11:44Z</time>
      </trkpt>
      <trkpt lat="42.46868" lon="2.87238">
        <ele>341.4</ele>
        <time>2021-11-14T14:11:46Z</time>
      </trkpt>
      <trkpt lat="42.46866" lon="2.8724">
        <ele>341.5</ele>
        <time>2021-11-14T14:11:47Z</time>
      </trkpt>
      <trkpt lat="42.46865" lon="2.87243">
        <ele>341.7</ele>
        <time>2021-11-14T14:11:48Z</time>
      </trkpt>
      <trkpt lat="42.46861" lon="2.87248">
        <ele>342.1</ele>
        <time>2021-11-14T14:11:50Z</time>
      </trkpt>
      <trkpt lat="42.46858" lon="2.87251">
        <ele>342.3</ele>
        <time>2021-11-14T14:11:51Z</time>
      </trkpt>
      <trkpt lat="42.46856" lon="2.87254">
        <ele>342.6</ele>
        <time>2021-11-14T14:11:53Z</time>
      </trkpt>
      <trkpt lat="42.46854" lon="2.87256">
        <ele>342.7</ele>
        <time>2021-11-14T14:11:54Z</time>
      </trkpt>
      <trkpt lat="42.46851" lon="2.8726">
        <ele>343</ele>
        <time>2021-11-14T14:11:56Z</time>
      </trkpt>
      <trkpt lat="42.46849" lon="2.87262">
        <ele>343.3</ele>
        <time>2021-11-14T14:11:57Z</time>
      </trkpt>
      <trkpt lat="42.46847" lon="2.87266">
        <ele>343.6</ele>
        <time>2021-11-14T14:11:58Z</time>
      </trkpt>
      <trkpt lat="42.46846" lon="2.87268">
        <ele>343.7</ele>
        <time>2021-11-14T14:11:59Z</time>
      </trkpt>
      <trkpt lat="42.46844" lon="2.87271">
        <ele>343.9</ele>
        <time>2021-11-14T14:12:01Z</time>
      </trkpt>
      <trkpt lat="42.4684" lon="2.87276">
        <ele>344.2</ele>
        <time>2021-11-14T14:12:03Z</time>
      </trkpt>
      <trkpt lat="42.46838" lon="2.87281">
        <ele>344.5</ele>
        <time>2021-11-14T14:12:05Z</time>
      </trkpt>
      <trkpt lat="42.46835" lon="2.87286">
        <ele>344.8</ele>
        <time>2021-11-14T14:12:07Z</time>
      </trkpt>
      <trkpt lat="42.46834" lon="2.87289">
        <ele>345</ele>
        <time>2021-11-14T14:12:08Z</time>
      </trkpt>
      <trkpt lat="42.46832" lon="2.87295">
        <ele>345.2</ele>
        <time>2021-11-14T14:12:10Z</time>
      </trkpt>
      <trkpt lat="42.46831" lon="2.87299">
        <ele>345.5</ele>
        <time>2021-11-14T14:12:11Z</time>
      </trkpt>
      <trkpt lat="42.4683" lon="2.873">
        <ele>345.6</ele>
        <time>2021-11-14T14:12:12Z</time>
      </trkpt>
      <trkpt lat="42.46829" lon="2.87303">
        <ele>345.7</ele>
        <time>2021-11-14T14:12:13Z</time>
      </trkpt>
      <trkpt lat="42.46827" lon="2.87308">
        <ele>346</ele>
        <time>2021-11-14T14:12:15Z</time>
      </trkpt>
      <trkpt lat="42.46826" lon="2.87311">
        <ele>346.2</ele>
        <time>2021-11-14T14:12:16Z</time>
      </trkpt>
      <trkpt lat="42.46824" lon="2.87315">
        <ele>346.4</ele>
        <time>2021-11-14T14:12:17Z</time>
      </trkpt>
      <trkpt lat="42.46823" lon="2.87316">
        <ele>346.5</ele>
        <time>2021-11-14T14:12:18Z</time>
      </trkpt>
      <trkpt lat="42.46821" lon="2.87321">
        <ele>346.8</ele>
        <time>2021-11-14T14:12:20Z</time>
      </trkpt>
      <trkpt lat="42.46819" lon="2.87325">
        <ele>346.9</ele>
        <time>2021-11-14T14:12:21Z</time>
      </trkpt>
      <trkpt lat="42.46817" lon="2.8733">
        <ele>347.2</ele>
        <time>2021-11-14T14:12:23Z</time>
      </trkpt>
      <trkpt lat="42.46816" lon="2.87334">
        <ele>347.4</ele>
        <time>2021-11-14T14:12:24Z</time>
      </trkpt>
      <trkpt lat="42.46814" lon="2.87339">
        <ele>347.6</ele>
        <time>2021-11-14T14:12:25Z</time>
      </trkpt>
      <trkpt lat="42.46813" lon="2.87343">
        <ele>347.8</ele>
        <time>2021-11-14T14:12:27Z</time>
      </trkpt>
      <trkpt lat="42.46812" lon="2.87347">
        <ele>348</ele>
        <time>2021-11-14T14:12:28Z</time>
      </trkpt>
      <trkpt lat="42.46812" lon="2.87352">
        <ele>348.2</ele>
        <time>2021-11-14T14:12:29Z</time>
      </trkpt>
      <trkpt lat="42.46811" lon="2.87357">
        <ele>348.5</ele>
        <time>2021-11-14T14:12:31Z</time>
      </trkpt>
      <trkpt lat="42.46811" lon="2.8736">
        <ele>348.6</ele>
        <time>2021-11-14T14:12:32Z</time>
      </trkpt>
      <trkpt lat="42.4681" lon="2.87367">
        <ele>348.9</ele>
        <time>2021-11-14T14:12:34Z</time>
      </trkpt>
      <trkpt lat="42.4681" lon="2.87374">
        <ele>349.2</ele>
        <time>2021-11-14T14:12:36Z</time>
      </trkpt>
      <trkpt lat="42.46809" lon="2.87377">
        <ele>349.4</ele>
        <time>2021-11-14T14:12:37Z</time>
      </trkpt>
      <trkpt lat="42.46808" lon="2.87384">
        <ele>349.7</ele>
        <time>2021-11-14T14:12:39Z</time>
      </trkpt>
      <trkpt lat="42.46808" lon="2.87389">
        <ele>349.9</ele>
        <time>2021-11-14T14:12:40Z</time>
      </trkpt>
      <trkpt lat="42.46807" lon="2.87396">
        <ele>350.2</ele>
        <time>2021-11-14T14:12:42Z</time>
      </trkpt>
      <trkpt lat="42.46806" lon="2.874">
        <ele>350.4</ele>
        <time>2021-11-14T14:12:43Z</time>
      </trkpt>
      <trkpt lat="42.46806" lon="2.87404">
        <ele>350.6</ele>
        <time>2021-11-14T14:12:44Z</time>
      </trkpt>
      <trkpt lat="42.46806" lon="2.87407">
        <ele>350.7</ele>
        <time>2021-11-14T14:12:45Z</time>
      </trkpt>
      <trkpt lat="42.46805" lon="2.87411">
        <ele>350.9</ele>
        <time>2021-11-14T14:12:46Z</time>
      </trkpt>
      <trkpt lat="42.46804" lon="2.87419">
        <ele>351.3</ele>
        <time>2021-11-14T14:12:48Z</time>
      </trkpt>
      <trkpt lat="42.46803" lon="2.87422">
        <ele>351.4</ele>
        <time>2021-11-14T14:12:49Z</time>
      </trkpt>
      <trkpt lat="42.46803" lon="2.87429">
        <ele>351.7</ele>
        <time>2021-11-14T14:12:50Z</time>
      </trkpt>
      <trkpt lat="42.46803" lon="2.87431">
        <ele>351.9</ele>
        <time>2021-11-14T14:12:51Z</time>
      </trkpt>
      <trkpt lat="42.46802" lon="2.87436">
        <ele>352</ele>
        <time>2021-11-14T14:12:53Z</time>
      </trkpt>
      <trkpt lat="42.46803" lon="2.87441">
        <ele>352.3</ele>
        <time>2021-11-14T14:12:54Z</time>
      </trkpt>
      <trkpt lat="42.46803" lon="2.87446">
        <ele>352.5</ele>
        <time>2021-11-14T14:12:56Z</time>
      </trkpt>
      <trkpt lat="42.46803" lon="2.8745">
        <ele>352.7</ele>
        <time>2021-11-14T14:12:57Z</time>
      </trkpt>
      <trkpt lat="42.46803" lon="2.87455">
        <ele>352.9</ele>
        <time>2021-11-14T14:12:58Z</time>
      </trkpt>
      <trkpt lat="42.46804" lon="2.8746">
        <ele>353.1</ele>
        <time>2021-11-14T14:12:59Z</time>
      </trkpt>
      <trkpt lat="42.46804" lon="2.87465">
        <ele>353.3</ele>
        <time>2021-11-14T14:13:01Z</time>
      </trkpt>
      <trkpt lat="42.46806" lon="2.87473">
        <ele>353.5</ele>
        <time>2021-11-14T14:13:03Z</time>
      </trkpt>
      <trkpt lat="42.46806" lon="2.87477">
        <ele>353.7</ele>
        <time>2021-11-14T14:13:04Z</time>
      </trkpt>
      <trkpt lat="42.46808" lon="2.87484">
        <ele>353.9</ele>
        <time>2021-11-14T14:13:06Z</time>
      </trkpt>
      <trkpt lat="42.46809" lon="2.87488">
        <ele>354</ele>
        <time>2021-11-14T14:13:07Z</time>
      </trkpt>
      <trkpt lat="42.4681" lon="2.87492">
        <ele>354.1</ele>
        <time>2021-11-14T14:13:08Z</time>
      </trkpt>
      <trkpt lat="42.46812" lon="2.87497">
        <ele>354.3</ele>
        <time>2021-11-14T14:13:09Z</time>
      </trkpt>
      <trkpt lat="42.46814" lon="2.87501">
        <ele>354.4</ele>
        <time>2021-11-14T14:13:11Z</time>
      </trkpt>
      <trkpt lat="42.46815" lon="2.87506">
        <ele>354.6</ele>
        <time>2021-11-14T14:13:12Z</time>
      </trkpt>
      <trkpt lat="42.46816" lon="2.87512">
        <ele>354.7</ele>
        <time>2021-11-14T14:13:14Z</time>
      </trkpt>
      <trkpt lat="42.46816" lon="2.87517">
        <ele>354.9</ele>
        <time>2021-11-14T14:13:15Z</time>
      </trkpt>
      <trkpt lat="42.46817" lon="2.87523">
        <ele>355.1</ele>
        <time>2021-11-14T14:13:16Z</time>
      </trkpt>
      <trkpt lat="42.46818" lon="2.87529">
        <ele>355.3</ele>
        <time>2021-11-14T14:13:18Z</time>
      </trkpt>
      <trkpt lat="42.46818" lon="2.87535">
        <ele>355.5</ele>
        <time>2021-11-14T14:13:20Z</time>
      </trkpt>
      <trkpt lat="42.46819" lon="2.87539">
        <ele>355.6</ele>
        <time>2021-11-14T14:13:21Z</time>
      </trkpt>
      <trkpt lat="42.46821" lon="2.87543">
        <ele>355.7</ele>
        <time>2021-11-14T14:13:22Z</time>
      </trkpt>
      <trkpt lat="42.46822" lon="2.87547">
        <ele>355.9</ele>
        <time>2021-11-14T14:13:23Z</time>
      </trkpt>
      <trkpt lat="42.46825" lon="2.87552">
        <ele>356.1</ele>
        <time>2021-11-14T14:13:25Z</time>
      </trkpt>
      <trkpt lat="42.46827" lon="2.87555">
        <ele>356.2</ele>
        <time>2021-11-14T14:13:26Z</time>
      </trkpt>
      <trkpt lat="42.4683" lon="2.8756">
        <ele>356.4</ele>
        <time>2021-11-14T14:13:28Z</time>
      </trkpt>
      <trkpt lat="42.46833" lon="2.87563">
        <ele>356.6</ele>
        <time>2021-11-14T14:13:29Z</time>
      </trkpt>
      <trkpt lat="42.46834" lon="2.87565">
        <ele>356.7</ele>
        <time>2021-11-14T14:13:30Z</time>
      </trkpt>
      <trkpt lat="42.46838" lon="2.8757">
        <ele>357</ele>
        <time>2021-11-14T14:13:32Z</time>
      </trkpt>
      <trkpt lat="42.46841" lon="2.87576">
        <ele>357.2</ele>
        <time>2021-11-14T14:13:33Z</time>
      </trkpt>
      <trkpt lat="42.46842" lon="2.8758">
        <ele>357.4</ele>
        <time>2021-11-14T14:13:34Z</time>
      </trkpt>
      <trkpt lat="42.46843" lon="2.87584">
        <ele>357.6</ele>
        <time>2021-11-14T14:13:36Z</time>
      </trkpt>
      <trkpt lat="42.46843" lon="2.87588">
        <ele>357.8</ele>
        <time>2021-11-14T14:13:37Z</time>
      </trkpt>
      <trkpt lat="42.46843" lon="2.87594">
        <ele>358</ele>
        <time>2021-11-14T14:13:38Z</time>
      </trkpt>
      <trkpt lat="42.46842" lon="2.87602">
        <ele>358.3</ele>
        <time>2021-11-14T14:13:40Z</time>
      </trkpt>
      <trkpt lat="42.46842" lon="2.87607">
        <ele>358.6</ele>
        <time>2021-11-14T14:13:41Z</time>
      </trkpt>
      <trkpt lat="42.46842" lon="2.87611">
        <ele>358.8</ele>
        <time>2021-11-14T14:13:42Z</time>
      </trkpt>
      <trkpt lat="42.46841" lon="2.8762">
        <ele>359.1</ele>
        <time>2021-11-14T14:13:44Z</time>
      </trkpt>
      <trkpt lat="42.4684" lon="2.87625">
        <ele>359.4</ele>
        <time>2021-11-14T14:13:45Z</time>
      </trkpt>
      <trkpt lat="42.4684" lon="2.8763">
        <ele>359.6</ele>
        <time>2021-11-14T14:13:47Z</time>
      </trkpt>
      <trkpt lat="42.46839" lon="2.87634">
        <ele>359.8</ele>
        <time>2021-11-14T14:13:48Z</time>
      </trkpt>
      <trkpt lat="42.46838" lon="2.87639">
        <ele>360</ele>
        <time>2021-11-14T14:13:49Z</time>
      </trkpt>
      <trkpt lat="42.46838" lon="2.87641">
        <ele>360.1</ele>
        <time>2021-11-14T14:13:50Z</time>
      </trkpt>
      <trkpt lat="42.46838" lon="2.87645">
        <ele>360.3</ele>
        <time>2021-11-14T14:13:51Z</time>
      </trkpt>
      <trkpt lat="42.46837" lon="2.87651">
        <ele>360.6</ele>
        <time>2021-11-14T14:13:53Z</time>
      </trkpt>
      <trkpt lat="42.46836" lon="2.87656">
        <ele>360.9</ele>
        <time>2021-11-14T14:13:54Z</time>
      </trkpt>
      <trkpt lat="42.46836" lon="2.8766">
        <ele>361</ele>
        <time>2021-11-14T14:13:55Z</time>
      </trkpt>
      <trkpt lat="42.46835" lon="2.87664">
        <ele>361.2</ele>
        <time>2021-11-14T14:13:56Z</time>
      </trkpt>
      <trkpt lat="42.46835" lon="2.87669">
        <ele>361.4</ele>
        <time>2021-11-14T14:13:57Z</time>
      </trkpt>
      <trkpt lat="42.46835" lon="2.87673">
        <ele>361.6</ele>
        <time>2021-11-14T14:13:58Z</time>
      </trkpt>
      <trkpt lat="42.46834" lon="2.87678">
        <ele>361.9</ele>
        <time>2021-11-14T14:14:00Z</time>
      </trkpt>
      <trkpt lat="42.46833" lon="2.87683">
        <ele>362.2</ele>
        <time>2021-11-14T14:14:01Z</time>
      </trkpt>
      <trkpt lat="42.46831" lon="2.87689">
        <ele>362.4</ele>
        <time>2021-11-14T14:14:02Z</time>
      </trkpt>
      <trkpt lat="42.4683" lon="2.87693">
        <ele>362.7</ele>
        <time>2021-11-14T14:14:04Z</time>
      </trkpt>
      <trkpt lat="42.46829" lon="2.87697">
        <ele>362.9</ele>
        <time>2021-11-14T14:14:05Z</time>
      </trkpt>
      <trkpt lat="42.46826" lon="2.87705">
        <ele>363.3</ele>
        <time>2021-11-14T14:14:07Z</time>
      </trkpt>
      <trkpt lat="42.46824" lon="2.87712">
        <ele>363.7</ele>
        <time>2021-11-14T14:14:09Z</time>
      </trkpt>
      <trkpt lat="42.46824" lon="2.87715">
        <ele>363.9</ele>
        <time>2021-11-14T14:14:10Z</time>
      </trkpt>
      <trkpt lat="42.46821" lon="2.87722">
        <ele>364.3</ele>
        <time>2021-11-14T14:14:12Z</time>
      </trkpt>
      <trkpt lat="42.4682" lon="2.87727">
        <ele>364.6</ele>
        <time>2021-11-14T14:14:13Z</time>
      </trkpt>
      <trkpt lat="42.46818" lon="2.87732">
        <ele>364.9</ele>
        <time>2021-11-14T14:14:15Z</time>
      </trkpt>
      <trkpt lat="42.46817" lon="2.87736">
        <ele>365.2</ele>
        <time>2021-11-14T14:14:16Z</time>
      </trkpt>
      <trkpt lat="42.46815" lon="2.87741">
        <ele>365.5</ele>
        <time>2021-11-14T14:14:17Z</time>
      </trkpt>
      <trkpt lat="42.46813" lon="2.87746">
        <ele>365.7</ele>
        <time>2021-11-14T14:14:19Z</time>
      </trkpt>
      <trkpt lat="42.46812" lon="2.8775">
        <ele>366</ele>
        <time>2021-11-14T14:14:20Z</time>
      </trkpt>
      <trkpt lat="42.46809" lon="2.87755">
        <ele>366.3</ele>
        <time>2021-11-14T14:14:21Z</time>
      </trkpt>
      <trkpt lat="42.46807" lon="2.87759">
        <ele>366.5</ele>
        <time>2021-11-14T14:14:23Z</time>
      </trkpt>
      <trkpt lat="42.46805" lon="2.87763">
        <ele>366.8</ele>
        <time>2021-11-14T14:14:24Z</time>
      </trkpt>
      <trkpt lat="42.46803" lon="2.87766">
        <ele>367</ele>
        <time>2021-11-14T14:14:25Z</time>
      </trkpt>
      <trkpt lat="42.468" lon="2.87772">
        <ele>367.3</ele>
        <time>2021-11-14T14:14:27Z</time>
      </trkpt>
      <trkpt lat="42.46798" lon="2.87775">
        <ele>367.5</ele>
        <time>2021-11-14T14:14:28Z</time>
      </trkpt>
      <trkpt lat="42.46797" lon="2.87778">
        <ele>367.7</ele>
        <time>2021-11-14T14:14:29Z</time>
      </trkpt>
      <trkpt lat="42.46793" lon="2.87783">
        <ele>368.1</ele>
        <time>2021-11-14T14:14:31Z</time>
      </trkpt>
      <trkpt lat="42.46789" lon="2.87788">
        <ele>368.3</ele>
        <time>2021-11-14T14:14:33Z</time>
      </trkpt>
      <trkpt lat="42.46786" lon="2.8779">
        <ele>368.6</ele>
        <time>2021-11-14T14:14:35Z</time>
      </trkpt>
      <trkpt lat="42.46782" lon="2.87793">
        <ele>368.9</ele>
        <time>2021-11-14T14:14:36Z</time>
      </trkpt>
      <trkpt lat="42.46781" lon="2.87794">
        <ele>369</ele>
        <time>2021-11-14T14:14:37Z</time>
      </trkpt>
      <trkpt lat="42.46778" lon="2.87797">
        <ele>369.3</ele>
        <time>2021-11-14T14:14:39Z</time>
      </trkpt>
      <trkpt lat="42.46776" lon="2.87801">
        <ele>369.5</ele>
        <time>2021-11-14T14:14:40Z</time>
      </trkpt>
      <trkpt lat="42.46774" lon="2.87806">
        <ele>369.8</ele>
        <time>2021-11-14T14:14:42Z</time>
      </trkpt>
      <trkpt lat="42.46772" lon="2.87812">
        <ele>370.1</ele>
        <time>2021-11-14T14:14:44Z</time>
      </trkpt>
      <trkpt lat="42.46772" lon="2.87815">
        <ele>370.3</ele>
        <time>2021-11-14T14:14:45Z</time>
      </trkpt>
      <trkpt lat="42.4677" lon="2.87822">
        <ele>370.7</ele>
        <time>2021-11-14T14:14:47Z</time>
      </trkpt>
      <trkpt lat="42.46769" lon="2.87827">
        <ele>370.9</ele>
        <time>2021-11-14T14:14:48Z</time>
      </trkpt>
      <trkpt lat="42.46769" lon="2.87832">
        <ele>371.2</ele>
        <time>2021-11-14T14:14:50Z</time>
      </trkpt>
      <trkpt lat="42.46768" lon="2.87836">
        <ele>371.4</ele>
        <time>2021-11-14T14:14:51Z</time>
      </trkpt>
      <trkpt lat="42.46768" lon="2.87842">
        <ele>371.7</ele>
        <time>2021-11-14T14:14:52Z</time>
      </trkpt>
      <trkpt lat="42.46766" lon="2.87848">
        <ele>372</ele>
        <time>2021-11-14T14:14:54Z</time>
      </trkpt>
      <trkpt lat="42.46765" lon="2.87852">
        <ele>372.2</ele>
        <time>2021-11-14T14:14:55Z</time>
      </trkpt>
      <trkpt lat="42.46762" lon="2.87858">
        <ele>372.5</ele>
        <time>2021-11-14T14:14:57Z</time>
      </trkpt>
      <trkpt lat="42.46761" lon="2.87861">
        <ele>372.8</ele>
        <time>2021-11-14T14:14:58Z</time>
      </trkpt>
      <trkpt lat="42.46759" lon="2.87865">
        <ele>373</ele>
        <time>2021-11-14T14:14:59Z</time>
      </trkpt>
      <trkpt lat="42.46757" lon="2.87869">
        <ele>373.2</ele>
        <time>2021-11-14T14:15:00Z</time>
      </trkpt>
      <trkpt lat="42.46756" lon="2.8787">
        <ele>373.3</ele>
        <time>2021-11-14T14:15:01Z</time>
      </trkpt>
      <trkpt lat="42.46753" lon="2.87875">
        <ele>373.6</ele>
        <time>2021-11-14T14:15:03Z</time>
      </trkpt>
      <trkpt lat="42.46749" lon="2.87881">
        <ele>374</ele>
        <time>2021-11-14T14:15:05Z</time>
      </trkpt>
      <trkpt lat="42.46747" lon="2.87886">
        <ele>374.3</ele>
        <time>2021-11-14T14:15:06Z</time>
      </trkpt>
      <trkpt lat="42.46746" lon="2.87889">
        <ele>374.5</ele>
        <time>2021-11-14T14:15:07Z</time>
      </trkpt>
      <trkpt lat="42.46744" lon="2.87894">
        <ele>374.7</ele>
        <time>2021-11-14T14:15:09Z</time>
      </trkpt>
      <trkpt lat="42.46743" lon="2.87898">
        <ele>375</ele>
        <time>2021-11-14T14:15:10Z</time>
      </trkpt>
      <trkpt lat="42.46742" lon="2.879">
        <ele>375.1</ele>
        <time>2021-11-14T14:15:11Z</time>
      </trkpt>
      <trkpt lat="42.4674" lon="2.87904">
        <ele>375.4</ele>
        <time>2021-11-14T14:15:12Z</time>
      </trkpt>
      <trkpt lat="42.46739" lon="2.87906">
        <ele>375.4</ele>
        <time>2021-11-14T14:15:13Z</time>
      </trkpt>
      <trkpt lat="42.46738" lon="2.8791">
        <ele>375.7</ele>
        <time>2021-11-14T14:15:14Z</time>
      </trkpt>
      <trkpt lat="42.46735" lon="2.87914">
        <ele>376</ele>
        <time>2021-11-14T14:15:16Z</time>
      </trkpt>
      <trkpt lat="42.46733" lon="2.87917">
        <ele>376.2</ele>
        <time>2021-11-14T14:15:17Z</time>
      </trkpt>
      <trkpt lat="42.46731" lon="2.87921">
        <ele>376.4</ele>
        <time>2021-11-14T14:15:18Z</time>
      </trkpt>
      <trkpt lat="42.4673" lon="2.87923">
        <ele>376.5</ele>
        <time>2021-11-14T14:15:19Z</time>
      </trkpt>
      <trkpt lat="42.46727" lon="2.87928">
        <ele>376.9</ele>
        <time>2021-11-14T14:15:21Z</time>
      </trkpt>
      <trkpt lat="42.46724" lon="2.87931">
        <ele>377.2</ele>
        <time>2021-11-14T14:15:23Z</time>
      </trkpt>
      <trkpt lat="42.46721" lon="2.87934">
        <ele>377.4</ele>
        <time>2021-11-14T14:15:24Z</time>
      </trkpt>
      <trkpt lat="42.46717" lon="2.87938">
        <ele>377.7</ele>
        <time>2021-11-14T14:15:26Z</time>
      </trkpt>
      <trkpt lat="42.46715" lon="2.8794">
        <ele>377.9</ele>
        <time>2021-11-14T14:15:27Z</time>
      </trkpt>
      <trkpt lat="42.4671" lon="2.87944">
        <ele>378.3</ele>
        <time>2021-11-14T14:15:29Z</time>
      </trkpt>
      <trkpt lat="42.46708" lon="2.87946">
        <ele>378.5</ele>
        <time>2021-11-14T14:15:30Z</time>
      </trkpt>
      <trkpt lat="42.46704" lon="2.87949">
        <ele>378.8</ele>
        <time>2021-11-14T14:15:32Z</time>
      </trkpt>
      <trkpt lat="42.46702" lon="2.87951">
        <ele>378.9</ele>
        <time>2021-11-14T14:15:33Z</time>
      </trkpt>
      <trkpt lat="42.467" lon="2.87953">
        <ele>379.1</ele>
        <time>2021-11-14T14:15:34Z</time>
      </trkpt>
      <trkpt lat="42.46695" lon="2.87956">
        <ele>379.4</ele>
        <time>2021-11-14T14:15:36Z</time>
      </trkpt>
      <trkpt lat="42.4669" lon="2.87959">
        <ele>379.7</ele>
        <time>2021-11-14T14:15:38Z</time>
      </trkpt>
      <trkpt lat="42.46688" lon="2.87961">
        <ele>379.8</ele>
        <time>2021-11-14T14:15:39Z</time>
      </trkpt>
      <trkpt lat="42.46683" lon="2.87963">
        <ele>380.1</ele>
        <time>2021-11-14T14:15:41Z</time>
      </trkpt>
      <trkpt lat="42.46679" lon="2.87965">
        <ele>380.3</ele>
        <time>2021-11-14T14:15:42Z</time>
      </trkpt>
      <trkpt lat="42.46678" lon="2.87966">
        <ele>380.4</ele>
        <time>2021-11-14T14:15:43Z</time>
      </trkpt>
      <trkpt lat="42.46674" lon="2.87969">
        <ele>380.6</ele>
        <time>2021-11-14T14:15:44Z</time>
      </trkpt>
      <trkpt lat="42.4667" lon="2.87973">
        <ele>380.8</ele>
        <time>2021-11-14T14:15:46Z</time>
      </trkpt>
      <trkpt lat="42.46668" lon="2.87975">
        <ele>380.9</ele>
        <time>2021-11-14T14:15:47Z</time>
      </trkpt>
      <trkpt lat="42.46664" lon="2.8798">
        <ele>381.2</ele>
        <time>2021-11-14T14:15:49Z</time>
      </trkpt>
      <trkpt lat="42.4666" lon="2.87989">
        <ele>381.5</ele>
        <time>2021-11-14T14:15:51Z</time>
      </trkpt>
      <trkpt lat="42.4666" lon="2.87994">
        <ele>381.6</ele>
        <time>2021-11-14T14:15:52Z</time>
      </trkpt>
      <trkpt lat="42.4666" lon="2.88">
        <ele>381.8</ele>
        <time>2021-11-14T14:15:53Z</time>
      </trkpt>
      <trkpt lat="42.46661" lon="2.88005">
        <ele>381.9</ele>
        <time>2021-11-14T14:15:55Z</time>
      </trkpt>
      <trkpt lat="42.46662" lon="2.88009">
        <ele>382</ele>
        <time>2021-11-14T14:15:56Z</time>
      </trkpt>
      <trkpt lat="42.46663" lon="2.88015">
        <ele>382.2</ele>
        <time>2021-11-14T14:15:57Z</time>
      </trkpt>
      <trkpt lat="42.46664" lon="2.88021">
        <ele>382.4</ele>
        <time>2021-11-14T14:15:59Z</time>
      </trkpt>
      <trkpt lat="42.46664" lon="2.88026">
        <ele>382.6</ele>
        <time>2021-11-14T14:16:00Z</time>
      </trkpt>
      <trkpt lat="42.46663" lon="2.88035">
        <ele>382.9</ele>
        <time>2021-11-14T14:16:02Z</time>
      </trkpt>
      <trkpt lat="42.46663" lon="2.88039">
        <ele>383.1</ele>
        <time>2021-11-14T14:16:03Z</time>
      </trkpt>
      <trkpt lat="42.46661" lon="2.88043">
        <ele>383.2</ele>
        <time>2021-11-14T14:16:04Z</time>
      </trkpt>
      <trkpt lat="42.4666" lon="2.88046">
        <ele>383.4</ele>
        <time>2021-11-14T14:16:05Z</time>
      </trkpt>
      <trkpt lat="42.46659" lon="2.88051">
        <ele>383.6</ele>
        <time>2021-11-14T14:16:06Z</time>
      </trkpt>
      <trkpt lat="42.46657" lon="2.88056">
        <ele>383.8</ele>
        <time>2021-11-14T14:16:08Z</time>
      </trkpt>
      <trkpt lat="42.46655" lon="2.88059">
        <ele>384</ele>
        <time>2021-11-14T14:16:09Z</time>
      </trkpt>
      <trkpt lat="42.46653" lon="2.88062">
        <ele>384.1</ele>
        <time>2021-11-14T14:16:10Z</time>
      </trkpt>
      <trkpt lat="42.4665" lon="2.88069">
        <ele>384.5</ele>
        <time>2021-11-14T14:16:12Z</time>
      </trkpt>
      <trkpt lat="42.46647" lon="2.88074">
        <ele>384.8</ele>
        <time>2021-11-14T14:16:14Z</time>
      </trkpt>
      <trkpt lat="42.46645" lon="2.88078">
        <ele>385</ele>
        <time>2021-11-14T14:16:15Z</time>
      </trkpt>
      <trkpt lat="42.46643" lon="2.88082">
        <ele>385.3</ele>
        <time>2021-11-14T14:16:16Z</time>
      </trkpt>
      <trkpt lat="42.46642" lon="2.88084">
        <ele>385.3</ele>
        <time>2021-11-14T14:16:17Z</time>
      </trkpt>
      <trkpt lat="42.46639" lon="2.8809">
        <ele>385.7</ele>
        <time>2021-11-14T14:16:19Z</time>
      </trkpt>
      <trkpt lat="42.46637" lon="2.88092">
        <ele>385.9</ele>
        <time>2021-11-14T14:16:20Z</time>
      </trkpt>
      <trkpt lat="42.46634" lon="2.88098">
        <ele>386.2</ele>
        <time>2021-11-14T14:16:22Z</time>
      </trkpt>
      <trkpt lat="42.46632" lon="2.88101">
        <ele>386.4</ele>
        <time>2021-11-14T14:16:23Z</time>
      </trkpt>
      <trkpt lat="42.46629" lon="2.88108">
        <ele>386.8</ele>
        <time>2021-11-14T14:16:25Z</time>
      </trkpt>
      <trkpt lat="42.46627" lon="2.88111">
        <ele>387</ele>
        <time>2021-11-14T14:16:26Z</time>
      </trkpt>
      <trkpt lat="42.46625" lon="2.88114">
        <ele>387.1</ele>
        <time>2021-11-14T14:16:27Z</time>
      </trkpt>
      <trkpt lat="42.46623" lon="2.88119">
        <ele>387.4</ele>
        <time>2021-11-14T14:16:28Z</time>
      </trkpt>
      <trkpt lat="42.4662" lon="2.88124">
        <ele>387.7</ele>
        <time>2021-11-14T14:16:30Z</time>
      </trkpt>
      <trkpt lat="42.46617" lon="2.88128">
        <ele>388</ele>
        <time>2021-11-14T14:16:31Z</time>
      </trkpt>
      <trkpt lat="42.46617" lon="2.8813">
        <ele>388.1</ele>
        <time>2021-11-14T14:16:32Z</time>
      </trkpt>
      <trkpt lat="42.46613" lon="2.88135">
        <ele>388.5</ele>
        <time>2021-11-14T14:16:34Z</time>
      </trkpt>
      <trkpt lat="42.4661" lon="2.88137">
        <ele>388.6</ele>
        <time>2021-11-14T14:16:35Z</time>
      </trkpt>
      <trkpt lat="42.46607" lon="2.88141">
        <ele>388.9</ele>
        <time>2021-11-14T14:16:37Z</time>
      </trkpt>
      <trkpt lat="42.46605" lon="2.88144">
        <ele>389.1</ele>
        <time>2021-11-14T14:16:38Z</time>
      </trkpt>
      <trkpt lat="42.46603" lon="2.88148">
        <ele>389.4</ele>
        <time>2021-11-14T14:16:40Z</time>
      </trkpt>
      <trkpt lat="42.46601" lon="2.88152">
        <ele>389.7</ele>
        <time>2021-11-14T14:16:41Z</time>
      </trkpt>
      <trkpt lat="42.46599" lon="2.88156">
        <ele>389.9</ele>
        <time>2021-11-14T14:16:42Z</time>
      </trkpt>
      <trkpt lat="42.46597" lon="2.88161">
        <ele>390.2</ele>
        <time>2021-11-14T14:16:44Z</time>
      </trkpt>
      <trkpt lat="42.46594" lon="2.88166">
        <ele>390.5</ele>
        <time>2021-11-14T14:16:45Z</time>
      </trkpt>
      <trkpt lat="42.46593" lon="2.88168">
        <ele>390.6</ele>
        <time>2021-11-14T14:16:46Z</time>
      </trkpt>
      <trkpt lat="42.4659" lon="2.88172">
        <ele>390.9</ele>
        <time>2021-11-14T14:16:48Z</time>
      </trkpt>
      <trkpt lat="42.46588" lon="2.88175">
        <ele>391.1</ele>
        <time>2021-11-14T14:16:49Z</time>
      </trkpt>
      <trkpt lat="42.46585" lon="2.8818">
        <ele>391.4</ele>
        <time>2021-11-14T14:16:50Z</time>
      </trkpt>
      <trkpt lat="42.46583" lon="2.88184">
        <ele>391.7</ele>
        <time>2021-11-14T14:16:52Z</time>
      </trkpt>
      <trkpt lat="42.4658" lon="2.88189">
        <ele>392</ele>
        <time>2021-11-14T14:16:53Z</time>
      </trkpt>
      <trkpt lat="42.46578" lon="2.88192">
        <ele>392.3</ele>
        <time>2021-11-14T14:16:55Z</time>
      </trkpt>
      <trkpt lat="42.46574" lon="2.88198">
        <ele>392.6</ele>
        <time>2021-11-14T14:16:57Z</time>
      </trkpt>
      <trkpt lat="42.46571" lon="2.88203">
        <ele>392.9</ele>
        <time>2021-11-14T14:16:58Z</time>
      </trkpt>
      <trkpt lat="42.4657" lon="2.88207">
        <ele>393.1</ele>
        <time>2021-11-14T14:17:00Z</time>
      </trkpt>
      <trkpt lat="42.46568" lon="2.88211">
        <ele>393.3</ele>
        <time>2021-11-14T14:17:01Z</time>
      </trkpt>
      <trkpt lat="42.46567" lon="2.88213">
        <ele>393.4</ele>
        <time>2021-11-14T14:17:02Z</time>
      </trkpt>
      <trkpt lat="42.46566" lon="2.88217">
        <ele>393.6</ele>
        <time>2021-11-14T14:17:03Z</time>
      </trkpt>
      <trkpt lat="42.46566" lon="2.88221">
        <ele>393.7</ele>
        <time>2021-11-14T14:17:04Z</time>
      </trkpt>
      <trkpt lat="42.46566" lon="2.88226">
        <ele>394</ele>
        <time>2021-11-14T14:17:06Z</time>
      </trkpt>
      <trkpt lat="42.46566" lon="2.8823">
        <ele>394.1</ele>
        <time>2021-11-14T14:17:07Z</time>
      </trkpt>
      <trkpt lat="42.46567" lon="2.88235">
        <ele>394.3</ele>
        <time>2021-11-14T14:17:08Z</time>
      </trkpt>
      <trkpt lat="42.46571" lon="2.88242">
        <ele>394.6</ele>
        <time>2021-11-14T14:17:10Z</time>
      </trkpt>
      <trkpt lat="42.46578" lon="2.88247">
        <ele>395</ele>
        <time>2021-11-14T14:17:12Z</time>
      </trkpt>
      <trkpt lat="42.46582" lon="2.88247">
        <ele>395.2</ele>
        <time>2021-11-14T14:17:13Z</time>
      </trkpt>
      <trkpt lat="42.46588" lon="2.88246">
        <ele>395.4</ele>
        <time>2021-11-14T14:17:14Z</time>
      </trkpt>
      <trkpt lat="42.46593" lon="2.88244">
        <ele>395.7</ele>
        <time>2021-11-14T14:17:15Z</time>
      </trkpt>
      <trkpt lat="42.46599" lon="2.88241">
        <ele>395.9</ele>
        <time>2021-11-14T14:17:17Z</time>
      </trkpt>
      <trkpt lat="42.46604" lon="2.88238">
        <ele>396.2</ele>
        <time>2021-11-14T14:17:19Z</time>
      </trkpt>
      <trkpt lat="42.46607" lon="2.88235">
        <ele>396.3</ele>
        <time>2021-11-14T14:17:20Z</time>
      </trkpt>
      <trkpt lat="42.46611" lon="2.88233">
        <ele>396.5</ele>
        <time>2021-11-14T14:17:21Z</time>
      </trkpt>
      <trkpt lat="42.46615" lon="2.8823">
        <ele>396.7</ele>
        <time>2021-11-14T14:17:22Z</time>
      </trkpt>
      <trkpt lat="42.46619" lon="2.88226">
        <ele>397</ele>
        <time>2021-11-14T14:17:24Z</time>
      </trkpt>
      <trkpt lat="42.46625" lon="2.88222">
        <ele>397.4</ele>
        <time>2021-11-14T14:17:26Z</time>
      </trkpt>
      <trkpt lat="42.46631" lon="2.8822">
        <ele>397.7</ele>
        <time>2021-11-14T14:17:28Z</time>
      </trkpt>
      <trkpt lat="42.46636" lon="2.88218">
        <ele>398</ele>
        <time>2021-11-14T14:17:30Z</time>
      </trkpt>
      <trkpt lat="42.4664" lon="2.88216">
        <ele>398.3</ele>
        <time>2021-11-14T14:17:32Z</time>
      </trkpt>
      <trkpt lat="42.46643" lon="2.88215">
        <ele>398.5</ele>
        <time>2021-11-14T14:17:33Z</time>
      </trkpt>
      <trkpt lat="42.46644" lon="2.88214">
        <ele>398.6</ele>
        <time>2021-11-14T14:17:34Z</time>
      </trkpt>
      <trkpt lat="42.46648" lon="2.88213">
        <ele>398.9</ele>
        <time>2021-11-14T14:17:36Z</time>
      </trkpt>
      <trkpt lat="42.46651" lon="2.88212">
        <ele>399.1</ele>
        <time>2021-11-14T14:17:37Z</time>
      </trkpt>
      <trkpt lat="42.46656" lon="2.88211">
        <ele>399.4</ele>
        <time>2021-11-14T14:17:39Z</time>
      </trkpt>
      <trkpt lat="42.4666" lon="2.88211">
        <ele>399.7</ele>
        <time>2021-11-14T14:17:41Z</time>
      </trkpt>
      <trkpt lat="42.46663" lon="2.88211">
        <ele>399.9</ele>
        <time>2021-11-14T14:17:42Z</time>
      </trkpt>
      <trkpt lat="42.46665" lon="2.88212">
        <ele>400</ele>
        <time>2021-11-14T14:17:43Z</time>
      </trkpt>
      <trkpt lat="42.4667" lon="2.88212">
        <ele>400.3</ele>
        <time>2021-11-14T14:17:45Z</time>
      </trkpt>
      <trkpt lat="42.46673" lon="2.88212">
        <ele>400.5</ele>
        <time>2021-11-14T14:17:46Z</time>
      </trkpt>
      <trkpt lat="42.46677" lon="2.88211">
        <ele>400.8</ele>
        <time>2021-11-14T14:17:48Z</time>
      </trkpt>
      <trkpt lat="42.46681" lon="2.88209">
        <ele>401.1</ele>
        <time>2021-11-14T14:17:50Z</time>
      </trkpt>
      <trkpt lat="42.46683" lon="2.88208">
        <ele>401.2</ele>
        <time>2021-11-14T14:17:51Z</time>
      </trkpt>
      <trkpt lat="42.46688" lon="2.88206">
        <ele>401.5</ele>
        <time>2021-11-14T14:17:53Z</time>
      </trkpt>
      <trkpt lat="42.46691" lon="2.88206">
        <ele>401.7</ele>
        <time>2021-11-14T14:17:54Z</time>
      </trkpt>
      <trkpt lat="42.46696" lon="2.88205">
        <ele>402.1</ele>
        <time>2021-11-14T14:17:56Z</time>
      </trkpt>
      <trkpt lat="42.46698" lon="2.88206">
        <ele>402.2</ele>
        <time>2021-11-14T14:17:57Z</time>
      </trkpt>
      <trkpt lat="42.46702" lon="2.88206">
        <ele>402.5</ele>
        <time>2021-11-14T14:17:59Z</time>
      </trkpt>
      <trkpt lat="42.46705" lon="2.88206">
        <ele>402.7</ele>
        <time>2021-11-14T14:18:00Z</time>
      </trkpt>
      <trkpt lat="42.46707" lon="2.88206">
        <ele>402.8</ele>
        <time>2021-11-14T14:18:01Z</time>
      </trkpt>
      <trkpt lat="42.46712" lon="2.88205">
        <ele>403.2</ele>
        <time>2021-11-14T14:18:03Z</time>
      </trkpt>
      <trkpt lat="42.46716" lon="2.88204">
        <ele>403.4</ele>
        <time>2021-11-14T14:18:04Z</time>
      </trkpt>
      <trkpt lat="42.4672" lon="2.88202">
        <ele>403.6</ele>
        <time>2021-11-14T14:18:05Z</time>
      </trkpt>
      <trkpt lat="42.46724" lon="2.88198">
        <ele>404</ele>
        <time>2021-11-14T14:18:07Z</time>
      </trkpt>
      <trkpt lat="42.46725" lon="2.88197">
        <ele>404.1</ele>
        <time>2021-11-14T14:18:08Z</time>
      </trkpt>
      <trkpt lat="42.46727" lon="2.88195">
        <ele>404.2</ele>
        <time>2021-11-14T14:18:09Z</time>
      </trkpt>
      <trkpt lat="42.46731" lon="2.88191">
        <ele>404.5</ele>
        <time>2021-11-14T14:18:11Z</time>
      </trkpt>
      <trkpt lat="42.46733" lon="2.88188">
        <ele>404.7</ele>
        <time>2021-11-14T14:18:12Z</time>
      </trkpt>
      <trkpt lat="42.46736" lon="2.88184">
        <ele>405</ele>
        <time>2021-11-14T14:18:14Z</time>
      </trkpt>
      <trkpt lat="42.46738" lon="2.88181">
        <ele>405.2</ele>
        <time>2021-11-14T14:18:15Z</time>
      </trkpt>
      <trkpt lat="42.4674" lon="2.88179">
        <ele>405.4</ele>
        <time>2021-11-14T14:18:16Z</time>
      </trkpt>
      <trkpt lat="42.46743" lon="2.88177">
        <ele>405.6</ele>
        <time>2021-11-14T14:18:18Z</time>
      </trkpt>
      <trkpt lat="42.46746" lon="2.88176">
        <ele>405.8</ele>
        <time>2021-11-14T14:18:19Z</time>
      </trkpt>
      <trkpt lat="42.4675" lon="2.88175">
        <ele>406</ele>
        <time>2021-11-14T14:18:20Z</time>
      </trkpt>
      <trkpt lat="42.46753" lon="2.88174">
        <ele>406.3</ele>
        <time>2021-11-14T14:18:22Z</time>
      </trkpt>
      <trkpt lat="42.46755" lon="2.88174">
        <ele>406.4</ele>
        <time>2021-11-14T14:18:23Z</time>
      </trkpt>
      <trkpt lat="42.46759" lon="2.88174">
        <ele>406.7</ele>
        <time>2021-11-14T14:18:25Z</time>
      </trkpt>
      <trkpt lat="42.46763" lon="2.88174">
        <ele>407</ele>
        <time>2021-11-14T14:18:26Z</time>
      </trkpt>
      <trkpt lat="42.46764" lon="2.88175">
        <ele>407.1</ele>
        <time>2021-11-14T14:18:27Z</time>
      </trkpt>
      <trkpt lat="42.46768" lon="2.88177">
        <ele>407.4</ele>
        <time>2021-11-14T14:18:29Z</time>
      </trkpt>
      <trkpt lat="42.46771" lon="2.8818">
        <ele>407.7</ele>
        <time>2021-11-14T14:18:31Z</time>
      </trkpt>
      <trkpt lat="42.46772" lon="2.88182">
        <ele>407.8</ele>
        <time>2021-11-14T14:18:32Z</time>
      </trkpt>
      <trkpt lat="42.46775" lon="2.88185">
        <ele>408.1</ele>
        <time>2021-11-14T14:18:34Z</time>
      </trkpt>
      <trkpt lat="42.46777" lon="2.88189">
        <ele>408.3</ele>
        <time>2021-11-14T14:18:35Z</time>
      </trkpt>
      <trkpt lat="42.46777" lon="2.88191">
        <ele>408.3</ele>
        <time>2021-11-14T14:18:36Z</time>
      </trkpt>
      <trkpt lat="42.46778" lon="2.88198">
        <ele>408.7</ele>
        <time>2021-11-14T14:18:38Z</time>
      </trkpt>
      <trkpt lat="42.46778" lon="2.882">
        <ele>408.8</ele>
        <time>2021-11-14T14:18:39Z</time>
      </trkpt>
      <trkpt lat="42.46778" lon="2.88203">
        <ele>408.9</ele>
        <time>2021-11-14T14:18:40Z</time>
      </trkpt>
      <trkpt lat="42.46779" lon="2.88206">
        <ele>409.1</ele>
        <time>2021-11-14T14:18:41Z</time>
      </trkpt>
      <trkpt lat="42.46779" lon="2.88211">
        <ele>409.3</ele>
        <time>2021-11-14T14:18:43Z</time>
      </trkpt>
      <trkpt lat="42.46778" lon="2.88215">
        <ele>409.5</ele>
        <time>2021-11-14T14:18:44Z</time>
      </trkpt>
      <trkpt lat="42.46778" lon="2.88219">
        <ele>409.7</ele>
        <time>2021-11-14T14:18:45Z</time>
      </trkpt>
      <trkpt lat="42.46778" lon="2.88222">
        <ele>409.8</ele>
        <time>2021-11-14T14:18:46Z</time>
      </trkpt>
      <trkpt lat="42.46778" lon="2.88227">
        <ele>410.1</ele>
        <time>2021-11-14T14:18:48Z</time>
      </trkpt>
      <trkpt lat="42.46778" lon="2.88229">
        <ele>410.1</ele>
        <time>2021-11-14T14:18:49Z</time>
      </trkpt>
      <trkpt lat="42.46778" lon="2.88236">
        <ele>410.5</ele>
        <time>2021-11-14T14:18:51Z</time>
      </trkpt>
      <trkpt lat="42.46778" lon="2.88238">
        <ele>410.6</ele>
        <time>2021-11-14T14:18:52Z</time>
      </trkpt>
      <trkpt lat="42.46778" lon="2.8824">
        <ele>410.7</ele>
        <time>2021-11-14T14:18:53Z</time>
      </trkpt>
      <trkpt lat="42.46778" lon="2.88245">
        <ele>410.9</ele>
        <time>2021-11-14T14:18:55Z</time>
      </trkpt>
      <trkpt lat="42.46778" lon="2.8825">
        <ele>411.1</ele>
        <time>2021-11-14T14:18:56Z</time>
      </trkpt>
      <trkpt lat="42.46778" lon="2.88252">
        <ele>411.2</ele>
        <time>2021-11-14T14:18:57Z</time>
      </trkpt>
      <trkpt lat="42.46778" lon="2.88256">
        <ele>411.4</ele>
        <time>2021-11-14T14:18:58Z</time>
      </trkpt>
      <trkpt lat="42.46778" lon="2.8826">
        <ele>411.6</ele>
        <time>2021-11-14T14:18:59Z</time>
      </trkpt>
      <trkpt lat="42.46778" lon="2.88264">
        <ele>411.8</ele>
        <time>2021-11-14T14:19:01Z</time>
      </trkpt>
      <trkpt lat="42.46778" lon="2.88268">
        <ele>412</ele>
        <time>2021-11-14T14:19:02Z</time>
      </trkpt>
      <trkpt lat="42.46778" lon="2.88275">
        <ele>412.3</ele>
        <time>2021-11-14T14:19:04Z</time>
      </trkpt>
      <trkpt lat="42.46778" lon="2.88277">
        <ele>412.5</ele>
        <time>2021-11-14T14:19:05Z</time>
      </trkpt>
      <trkpt lat="42.46778" lon="2.88279">
        <ele>412.6</ele>
        <time>2021-11-14T14:19:06Z</time>
      </trkpt>
      <trkpt lat="42.46777" lon="2.88283">
        <ele>412.8</ele>
        <time>2021-11-14T14:19:07Z</time>
      </trkpt>
      <trkpt lat="42.46776" lon="2.88287">
        <ele>413</ele>
        <time>2021-11-14T14:19:08Z</time>
      </trkpt>
      <trkpt lat="42.46775" lon="2.88291">
        <ele>413.2</ele>
        <time>2021-11-14T14:19:10Z</time>
      </trkpt>
      <trkpt lat="42.46772" lon="2.88297">
        <ele>413.5</ele>
        <time>2021-11-14T14:19:12Z</time>
      </trkpt>
      <trkpt lat="42.4677" lon="2.883">
        <ele>413.7</ele>
        <time>2021-11-14T14:19:13Z</time>
      </trkpt>
      <trkpt lat="42.46766" lon="2.88305">
        <ele>414.1</ele>
        <time>2021-11-14T14:19:15Z</time>
      </trkpt>
      <trkpt lat="42.46765" lon="2.88307">
        <ele>414.2</ele>
        <time>2021-11-14T14:19:16Z</time>
      </trkpt>
      <trkpt lat="42.46764" lon="2.88308">
        <ele>414.3</ele>
        <time>2021-11-14T14:19:17Z</time>
      </trkpt>
      <trkpt lat="42.46762" lon="2.88312">
        <ele>414.5</ele>
        <time>2021-11-14T14:19:19Z</time>
      </trkpt>
      <trkpt lat="42.4676" lon="2.88315">
        <ele>414.7</ele>
        <time>2021-11-14T14:19:20Z</time>
      </trkpt>
      <trkpt lat="42.46758" lon="2.88319">
        <ele>414.9</ele>
        <time>2021-11-14T14:19:21Z</time>
      </trkpt>
      <trkpt lat="42.46757" lon="2.88322">
        <ele>415.1</ele>
        <time>2021-11-14T14:19:22Z</time>
      </trkpt>
      <trkpt lat="42.46755" lon="2.88326">
        <ele>415.3</ele>
        <time>2021-11-14T14:19:24Z</time>
      </trkpt>
      <trkpt lat="42.46754" lon="2.8833">
        <ele>415.5</ele>
        <time>2021-11-14T14:19:25Z</time>
      </trkpt>
      <trkpt lat="42.46754" lon="2.88331">
        <ele>415.6</ele>
        <time>2021-11-14T14:19:26Z</time>
      </trkpt>
      <trkpt lat="42.46753" lon="2.88334">
        <ele>415.7</ele>
        <time>2021-11-14T14:19:27Z</time>
      </trkpt>
      <trkpt lat="42.46753" lon="2.88341">
        <ele>416</ele>
        <time>2021-11-14T14:19:29Z</time>
      </trkpt>
      <trkpt lat="42.46753" lon="2.88346">
        <ele>416.2</ele>
        <time>2021-11-14T14:19:30Z</time>
      </trkpt>
      <trkpt lat="42.46753" lon="2.88348">
        <ele>416.3</ele>
        <time>2021-11-14T14:19:31Z</time>
      </trkpt>
      <trkpt lat="42.46754" lon="2.88351">
        <ele>416.4</ele>
        <time>2021-11-14T14:19:32Z</time>
      </trkpt>
      <trkpt lat="42.46756" lon="2.88356">
        <ele>416.7</ele>
        <time>2021-11-14T14:19:34Z</time>
      </trkpt>
      <trkpt lat="42.46759" lon="2.8836">
        <ele>417</ele>
        <time>2021-11-14T14:19:35Z</time>
      </trkpt>
      <trkpt lat="42.4676" lon="2.88361">
        <ele>417</ele>
        <time>2021-11-14T14:19:36Z</time>
      </trkpt>
      <trkpt lat="42.46762" lon="2.88365">
        <ele>417.3</ele>
        <time>2021-11-14T14:19:37Z</time>
      </trkpt>
      <trkpt lat="42.46764" lon="2.88368">
        <ele>417.5</ele>
        <time>2021-11-14T14:19:39Z</time>
      </trkpt>
      <trkpt lat="42.46765" lon="2.88372">
        <ele>417.7</ele>
        <time>2021-11-14T14:19:40Z</time>
      </trkpt>
      <trkpt lat="42.46767" lon="2.88375">
        <ele>417.9</ele>
        <time>2021-11-14T14:19:41Z</time>
      </trkpt>
      <trkpt lat="42.46768" lon="2.88378">
        <ele>418.1</ele>
        <time>2021-11-14T14:19:43Z</time>
      </trkpt>
      <trkpt lat="42.46769" lon="2.88382">
        <ele>418.3</ele>
        <time>2021-11-14T14:19:44Z</time>
      </trkpt>
      <trkpt lat="42.4677" lon="2.88387">
        <ele>418.5</ele>
        <time>2021-11-14T14:19:45Z</time>
      </trkpt>
      <trkpt lat="42.4677" lon="2.88388">
        <ele>418.6</ele>
        <time>2021-11-14T14:19:46Z</time>
      </trkpt>
      <trkpt lat="42.4677" lon="2.88394">
        <ele>418.9</ele>
        <time>2021-11-14T14:19:48Z</time>
      </trkpt>
      <trkpt lat="42.4677" lon="2.88397">
        <ele>419</ele>
        <time>2021-11-14T14:19:49Z</time>
      </trkpt>
      <trkpt lat="42.4677" lon="2.88402">
        <ele>419.3</ele>
        <time>2021-11-14T14:19:51Z</time>
      </trkpt>
      <trkpt lat="42.46771" lon="2.88406">
        <ele>419.5</ele>
        <time>2021-11-14T14:19:52Z</time>
      </trkpt>
      <trkpt lat="42.46772" lon="2.88413">
        <ele>419.9</ele>
        <time>2021-11-14T14:19:54Z</time>
      </trkpt>
      <trkpt lat="42.46772" lon="2.88418">
        <ele>420.2</ele>
        <time>2021-11-14T14:19:55Z</time>
      </trkpt>
      <trkpt lat="42.46772" lon="2.88422">
        <ele>420.4</ele>
        <time>2021-11-14T14:19:56Z</time>
      </trkpt>
      <trkpt lat="42.46773" lon="2.88427">
        <ele>420.6</ele>
        <time>2021-11-14T14:19:58Z</time>
      </trkpt>
      <trkpt lat="42.46773" lon="2.88431">
        <ele>420.8</ele>
        <time>2021-11-14T14:19:59Z</time>
      </trkpt>
      <trkpt lat="42.46774" lon="2.88437">
        <ele>421.1</ele>
        <time>2021-11-14T14:20:01Z</time>
      </trkpt>
      <trkpt lat="42.46774" lon="2.88442">
        <ele>421.4</ele>
        <time>2021-11-14T14:20:02Z</time>
      </trkpt>
      <trkpt lat="42.46774" lon="2.88446">
        <ele>421.6</ele>
        <time>2021-11-14T14:20:03Z</time>
      </trkpt>
      <trkpt lat="42.46775" lon="2.8845">
        <ele>421.8</ele>
        <time>2021-11-14T14:20:05Z</time>
      </trkpt>
      <trkpt lat="42.46775" lon="2.88455">
        <ele>422</ele>
        <time>2021-11-14T14:20:06Z</time>
      </trkpt>
      <trkpt lat="42.46775" lon="2.8846">
        <ele>422.3</ele>
        <time>2021-11-14T14:20:08Z</time>
      </trkpt>
      <trkpt lat="42.46775" lon="2.88461">
        <ele>422.3</ele>
        <time>2021-11-14T14:20:09Z</time>
      </trkpt>
      <trkpt lat="42.46775" lon="2.88464">
        <ele>422.5</ele>
        <time>2021-11-14T14:20:10Z</time>
      </trkpt>
      <trkpt lat="42.46775" lon="2.8847">
        <ele>422.8</ele>
        <time>2021-11-14T14:20:12Z</time>
      </trkpt>
      <trkpt lat="42.46774" lon="2.88474">
        <ele>423</ele>
        <time>2021-11-14T14:20:13Z</time>
      </trkpt>
      <trkpt lat="42.46773" lon="2.88481">
        <ele>423.3</ele>
        <time>2021-11-14T14:20:15Z</time>
      </trkpt>
      <trkpt lat="42.46773" lon="2.88486">
        <ele>423.5</ele>
        <time>2021-11-14T14:20:16Z</time>
      </trkpt>
      <trkpt lat="42.46772" lon="2.88488">
        <ele>423.6</ele>
        <time>2021-11-14T14:20:17Z</time>
      </trkpt>
      <trkpt lat="42.4677" lon="2.88494">
        <ele>423.9</ele>
        <time>2021-11-14T14:20:19Z</time>
      </trkpt>
      <trkpt lat="42.46769" lon="2.88497">
        <ele>424</ele>
        <time>2021-11-14T14:20:20Z</time>
      </trkpt>
      <trkpt lat="42.46767" lon="2.88502">
        <ele>424.3</ele>
        <time>2021-11-14T14:20:22Z</time>
      </trkpt>
      <trkpt lat="42.46765" lon="2.88507">
        <ele>424.6</ele>
        <time>2021-11-14T14:20:23Z</time>
      </trkpt>
      <trkpt lat="42.46764" lon="2.88509">
        <ele>424.7</ele>
        <time>2021-11-14T14:20:24Z</time>
      </trkpt>
      <trkpt lat="42.46761" lon="2.88514">
        <ele>425</ele>
        <time>2021-11-14T14:20:26Z</time>
      </trkpt>
      <trkpt lat="42.46759" lon="2.88518">
        <ele>425.3</ele>
        <time>2021-11-14T14:20:27Z</time>
      </trkpt>
      <trkpt lat="42.46758" lon="2.88519">
        <ele>425.4</ele>
        <time>2021-11-14T14:20:28Z</time>
      </trkpt>
      <trkpt lat="42.46755" lon="2.88524">
        <ele>425.6</ele>
        <time>2021-11-14T14:20:30Z</time>
      </trkpt>
      <trkpt lat="42.46754" lon="2.88527">
        <ele>425.8</ele>
        <time>2021-11-14T14:20:31Z</time>
      </trkpt>
      <trkpt lat="42.46751" lon="2.8853">
        <ele>426.1</ele>
        <time>2021-11-14T14:20:32Z</time>
      </trkpt>
      <trkpt lat="42.4675" lon="2.88531">
        <ele>426.2</ele>
        <time>2021-11-14T14:20:33Z</time>
      </trkpt>
      <trkpt lat="42.46746" lon="2.88535">
        <ele>426.4</ele>
        <time>2021-11-14T14:20:35Z</time>
      </trkpt>
      <trkpt lat="42.46744" lon="2.88537">
        <ele>426.6</ele>
        <time>2021-11-14T14:20:36Z</time>
      </trkpt>
      <trkpt lat="42.4674" lon="2.88541">
        <ele>426.9</ele>
        <time>2021-11-14T14:20:38Z</time>
      </trkpt>
      <trkpt lat="42.46738" lon="2.88543">
        <ele>427.1</ele>
        <time>2021-11-14T14:20:39Z</time>
      </trkpt>
      <trkpt lat="42.46734" lon="2.88546">
        <ele>427.4</ele>
        <time>2021-11-14T14:20:41Z</time>
      </trkpt>
      <trkpt lat="42.4673" lon="2.8855">
        <ele>427.7</ele>
        <time>2021-11-14T14:20:43Z</time>
      </trkpt>
      <trkpt lat="42.46727" lon="2.88553">
        <ele>428</ele>
        <time>2021-11-14T14:20:44Z</time>
      </trkpt>
      <trkpt lat="42.46723" lon="2.88557">
        <ele>428.3</ele>
        <time>2021-11-14T14:20:46Z</time>
      </trkpt>
      <trkpt lat="42.46719" lon="2.8856">
        <ele>428.7</ele>
        <time>2021-11-14T14:20:48Z</time>
      </trkpt>
      <trkpt lat="42.46715" lon="2.88564">
        <ele>428.9</ele>
        <time>2021-11-14T14:20:49Z</time>
      </trkpt>
      <trkpt lat="42.46714" lon="2.88565">
        <ele>429</ele>
        <time>2021-11-14T14:20:50Z</time>
      </trkpt>
      <trkpt lat="42.46711" lon="2.88567">
        <ele>429.3</ele>
        <time>2021-11-14T14:20:51Z</time>
      </trkpt>
      <trkpt lat="42.46709" lon="2.88569">
        <ele>429.5</ele>
        <time>2021-11-14T14:20:52Z</time>
      </trkpt>
      <trkpt lat="42.46706" lon="2.88572">
        <ele>429.7</ele>
        <time>2021-11-14T14:20:54Z</time>
      </trkpt>
      <trkpt lat="42.46704" lon="2.88574">
        <ele>429.9</ele>
        <time>2021-11-14T14:20:55Z</time>
      </trkpt>
      <trkpt lat="42.467" lon="2.88578">
        <ele>430.2</ele>
        <time>2021-11-14T14:20:57Z</time>
      </trkpt>
      <trkpt lat="42.46698" lon="2.8858">
        <ele>430.4</ele>
        <time>2021-11-14T14:20:58Z</time>
      </trkpt>
      <trkpt lat="42.46694" lon="2.88584">
        <ele>430.6</ele>
        <time>2021-11-14T14:21:00Z</time>
      </trkpt>
      <trkpt lat="42.46692" lon="2.88588">
        <ele>430.9</ele>
        <time>2021-11-14T14:21:01Z</time>
      </trkpt>
      <trkpt lat="42.4669" lon="2.88591">
        <ele>431.1</ele>
        <time>2021-11-14T14:21:02Z</time>
      </trkpt>
      <trkpt lat="42.46689" lon="2.88594">
        <ele>431.2</ele>
        <time>2021-11-14T14:21:03Z</time>
      </trkpt>
      <trkpt lat="42.46687" lon="2.88598">
        <ele>431.4</ele>
        <time>2021-11-14T14:21:05Z</time>
      </trkpt>
      <trkpt lat="42.46688" lon="2.88604">
        <ele>431.6</ele>
        <time>2021-11-14T14:21:07Z</time>
      </trkpt>
      <trkpt lat="42.46688" lon="2.88608">
        <ele>431.8</ele>
        <time>2021-11-14T14:21:08Z</time>
      </trkpt>
      <trkpt lat="42.46689" lon="2.88612">
        <ele>432</ele>
        <time>2021-11-14T14:21:09Z</time>
      </trkpt>
      <trkpt lat="42.4669" lon="2.88615">
        <ele>432.1</ele>
        <time>2021-11-14T14:21:10Z</time>
      </trkpt>
      <trkpt lat="42.46691" lon="2.88618">
        <ele>432.3</ele>
        <time>2021-11-14T14:21:12Z</time>
      </trkpt>
      <trkpt lat="42.46692" lon="2.88622">
        <ele>432.4</ele>
        <time>2021-11-14T14:21:13Z</time>
      </trkpt>
      <trkpt lat="42.46693" lon="2.88623">
        <ele>432.5</ele>
        <time>2021-11-14T14:21:14Z</time>
      </trkpt>
      <trkpt lat="42.46695" lon="2.88627">
        <ele>432.7</ele>
        <time>2021-11-14T14:21:16Z</time>
      </trkpt>
      <trkpt lat="42.46696" lon="2.88629">
        <ele>432.8</ele>
        <time>2021-11-14T14:21:17Z</time>
      </trkpt>
      <trkpt lat="42.46699" lon="2.88633">
        <ele>433</ele>
        <time>2021-11-14T14:21:19Z</time>
      </trkpt>
      <trkpt lat="42.46701" lon="2.88636">
        <ele>433.2</ele>
        <time>2021-11-14T14:21:20Z</time>
      </trkpt>
      <trkpt lat="42.46704" lon="2.8864">
        <ele>433.5</ele>
        <time>2021-11-14T14:21:22Z</time>
      </trkpt>
      <trkpt lat="42.46708" lon="2.88644">
        <ele>433.8</ele>
        <time>2021-11-14T14:21:24Z</time>
      </trkpt>
      <trkpt lat="42.46712" lon="2.88647">
        <ele>434</ele>
        <time>2021-11-14T14:21:25Z</time>
      </trkpt>
      <trkpt lat="42.46713" lon="2.88648">
        <ele>434.1</ele>
        <time>2021-11-14T14:21:26Z</time>
      </trkpt>
      <trkpt lat="42.46715" lon="2.8865">
        <ele>434.3</ele>
        <time>2021-11-14T14:21:27Z</time>
      </trkpt>
      <trkpt lat="42.46718" lon="2.88653">
        <ele>434.5</ele>
        <time>2021-11-14T14:21:29Z</time>
      </trkpt>
      <trkpt lat="42.46722" lon="2.88655">
        <ele>434.8</ele>
        <time>2021-11-14T14:21:31Z</time>
      </trkpt>
      <trkpt lat="42.46724" lon="2.88657">
        <ele>434.9</ele>
        <time>2021-11-14T14:21:32Z</time>
      </trkpt>
      <trkpt lat="42.46728" lon="2.88658">
        <ele>435.2</ele>
        <time>2021-11-14T14:21:34Z</time>
      </trkpt>
      <trkpt lat="42.46731" lon="2.88659">
        <ele>435.3</ele>
        <time>2021-11-14T14:21:35Z</time>
      </trkpt>
      <trkpt lat="42.46734" lon="2.8866">
        <ele>435.6</ele>
        <time>2021-11-14T14:21:36Z</time>
      </trkpt>
      <trkpt lat="42.46736" lon="2.88661">
        <ele>435.7</ele>
        <time>2021-11-14T14:21:37Z</time>
      </trkpt>
      <trkpt lat="42.46739" lon="2.88662">
        <ele>435.9</ele>
        <time>2021-11-14T14:21:38Z</time>
      </trkpt>
      <trkpt lat="42.46742" lon="2.88663">
        <ele>436.1</ele>
        <time>2021-11-14T14:21:40Z</time>
      </trkpt>
      <trkpt lat="42.46744" lon="2.88664">
        <ele>436.2</ele>
        <time>2021-11-14T14:21:41Z</time>
      </trkpt>
      <trkpt lat="42.46747" lon="2.88665">
        <ele>436.4</ele>
        <time>2021-11-14T14:21:43Z</time>
      </trkpt>
      <trkpt lat="42.46752" lon="2.88667">
        <ele>436.7</ele>
        <time>2021-11-14T14:21:44Z</time>
      </trkpt>
      <trkpt lat="42.46753" lon="2.88667">
        <ele>436.8</ele>
        <time>2021-11-14T14:21:45Z</time>
      </trkpt>
      <trkpt lat="42.46757" lon="2.88669">
        <ele>437.1</ele>
        <time>2021-11-14T14:21:47Z</time>
      </trkpt>
      <trkpt lat="42.4676" lon="2.88672">
        <ele>437.3</ele>
        <time>2021-11-14T14:21:49Z</time>
      </trkpt>
      <trkpt lat="42.46764" lon="2.88675">
        <ele>437.6</ele>
        <time>2021-11-14T14:21:50Z</time>
      </trkpt>
      <trkpt lat="42.46767" lon="2.88678">
        <ele>437.9</ele>
        <time>2021-11-14T14:21:52Z</time>
      </trkpt>
      <trkpt lat="42.4677" lon="2.88679">
        <ele>438</ele>
        <time>2021-11-14T14:21:53Z</time>
      </trkpt>
      <trkpt lat="42.46774" lon="2.8868">
        <ele>438.3</ele>
        <time>2021-11-14T14:21:54Z</time>
      </trkpt>
      <trkpt lat="42.46775" lon="2.8868">
        <ele>438.3</ele>
        <time>2021-11-14T14:21:55Z</time>
      </trkpt>
      <trkpt lat="42.46778" lon="2.88681">
        <ele>438.5</ele>
        <time>2021-11-14T14:21:56Z</time>
      </trkpt>
      <trkpt lat="42.46779" lon="2.88681">
        <ele>438.6</ele>
        <time>2021-11-14T14:21:57Z</time>
      </trkpt>
      <trkpt lat="42.46781" lon="2.88681">
        <ele>438.7</ele>
        <time>2021-11-14T14:21:58Z</time>
      </trkpt>
      <trkpt lat="42.46785" lon="2.88681">
        <ele>439</ele>
        <time>2021-11-14T14:22:00Z</time>
      </trkpt>
      <trkpt lat="42.4679" lon="2.8868">
        <ele>439.3</ele>
        <time>2021-11-14T14:22:02Z</time>
      </trkpt>
      <trkpt lat="42.46793" lon="2.88679">
        <ele>439.5</ele>
        <time>2021-11-14T14:22:03Z</time>
      </trkpt>
      <trkpt lat="42.46798" lon="2.8868">
        <ele>439.8</ele>
        <time>2021-11-14T14:22:04Z</time>
      </trkpt>
      <trkpt lat="42.46801" lon="2.8868">
        <ele>440</ele>
        <time>2021-11-14T14:22:06Z</time>
      </trkpt>
      <trkpt lat="42.46805" lon="2.88681">
        <ele>440.3</ele>
        <time>2021-11-14T14:22:07Z</time>
      </trkpt>
      <trkpt lat="42.46808" lon="2.88682">
        <ele>440.5</ele>
        <time>2021-11-14T14:22:08Z</time>
      </trkpt>
      <trkpt lat="42.46813" lon="2.88686">
        <ele>440.9</ele>
        <time>2021-11-14T14:22:10Z</time>
      </trkpt>
      <trkpt lat="42.46815" lon="2.88689">
        <ele>441.1</ele>
        <time>2021-11-14T14:22:11Z</time>
      </trkpt>
      <trkpt lat="42.46818" lon="2.88696">
        <ele>441.6</ele>
        <time>2021-11-14T14:22:13Z</time>
      </trkpt>
      <trkpt lat="42.46819" lon="2.887">
        <ele>441.8</ele>
        <time>2021-11-14T14:22:14Z</time>
      </trkpt>
      <trkpt lat="42.4682" lon="2.88709">
        <ele>442.2</ele>
        <time>2021-11-14T14:22:16Z</time>
      </trkpt>
      <trkpt lat="42.46819" lon="2.88716">
        <ele>442.6</ele>
        <time>2021-11-14T14:22:18Z</time>
      </trkpt>
      <trkpt lat="42.46818" lon="2.8872">
        <ele>442.8</ele>
        <time>2021-11-14T14:22:19Z</time>
      </trkpt>
      <trkpt lat="42.46816" lon="2.88726">
        <ele>443.1</ele>
        <time>2021-11-14T14:22:20Z</time>
      </trkpt>
      <trkpt lat="42.46814" lon="2.88731">
        <ele>443.3</ele>
        <time>2021-11-14T14:22:22Z</time>
      </trkpt>
      <trkpt lat="42.46813" lon="2.88738">
        <ele>443.7</ele>
        <time>2021-11-14T14:22:24Z</time>
      </trkpt>
      <trkpt lat="42.46811" lon="2.88745">
        <ele>444</ele>
        <time>2021-11-14T14:22:26Z</time>
      </trkpt>
      <trkpt lat="42.46809" lon="2.88749">
        <ele>444.2</ele>
        <time>2021-11-14T14:22:27Z</time>
      </trkpt>
      <trkpt lat="42.46807" lon="2.88755">
        <ele>444.5</ele>
        <time>2021-11-14T14:22:29Z</time>
      </trkpt>
      <trkpt lat="42.46806" lon="2.88759">
        <ele>444.7</ele>
        <time>2021-11-14T14:22:30Z</time>
      </trkpt>
      <trkpt lat="42.46805" lon="2.88763">
        <ele>444.9</ele>
        <time>2021-11-14T14:22:31Z</time>
      </trkpt>
      <trkpt lat="42.46804" lon="2.88769">
        <ele>445.1</ele>
        <time>2021-11-14T14:22:33Z</time>
      </trkpt>
      <trkpt lat="42.46802" lon="2.88775">
        <ele>445.4</ele>
        <time>2021-11-14T14:22:35Z</time>
      </trkpt>
      <trkpt lat="42.46801" lon="2.88781">
        <ele>445.7</ele>
        <time>2021-11-14T14:22:36Z</time>
      </trkpt>
      <trkpt lat="42.46799" lon="2.88785">
        <ele>445.9</ele>
        <time>2021-11-14T14:22:38Z</time>
      </trkpt>
      <trkpt lat="42.46798" lon="2.88788">
        <ele>446.1</ele>
        <time>2021-11-14T14:22:39Z</time>
      </trkpt>
      <trkpt lat="42.46797" lon="2.88791">
        <ele>446.2</ele>
        <time>2021-11-14T14:22:40Z</time>
      </trkpt>
      <trkpt lat="42.46795" lon="2.88796">
        <ele>446.5</ele>
        <time>2021-11-14T14:22:42Z</time>
      </trkpt>
      <trkpt lat="42.46793" lon="2.888">
        <ele>446.7</ele>
        <time>2021-11-14T14:22:43Z</time>
      </trkpt>
      <trkpt lat="42.46791" lon="2.88805">
        <ele>446.9</ele>
        <time>2021-11-14T14:22:44Z</time>
      </trkpt>
      <trkpt lat="42.4679" lon="2.88807">
        <ele>447</ele>
        <time>2021-11-14T14:22:45Z</time>
      </trkpt>
      <trkpt lat="42.46788" lon="2.8881">
        <ele>447.2</ele>
        <time>2021-11-14T14:22:46Z</time>
      </trkpt>
      <trkpt lat="42.46786" lon="2.88813">
        <ele>447.4</ele>
        <time>2021-11-14T14:22:47Z</time>
      </trkpt>
      <trkpt lat="42.46785" lon="2.88816">
        <ele>447.6</ele>
        <time>2021-11-14T14:22:48Z</time>
      </trkpt>
      <trkpt lat="42.46782" lon="2.8882">
        <ele>447.8</ele>
        <time>2021-11-14T14:22:50Z</time>
      </trkpt>
      <trkpt lat="42.4678" lon="2.88822">
        <ele>448</ele>
        <time>2021-11-14T14:22:51Z</time>
      </trkpt>
      <trkpt lat="42.46776" lon="2.88826">
        <ele>448.3</ele>
        <time>2021-11-14T14:22:53Z</time>
      </trkpt>
      <trkpt lat="42.46774" lon="2.88827">
        <ele>448.5</ele>
        <time>2021-11-14T14:22:54Z</time>
      </trkpt>
      <trkpt lat="42.46771" lon="2.88829">
        <ele>448.6</ele>
        <time>2021-11-14T14:22:55Z</time>
      </trkpt>
      <trkpt lat="42.46768" lon="2.88831">
        <ele>448.9</ele>
        <time>2021-11-14T14:22:57Z</time>
      </trkpt>
      <trkpt lat="42.46764" lon="2.88833">
        <ele>449.1</ele>
        <time>2021-11-14T14:22:58Z</time>
      </trkpt>
      <trkpt lat="42.46759" lon="2.88835">
        <ele>449.5</ele>
        <time>2021-11-14T14:23:00Z</time>
      </trkpt>
      <trkpt lat="42.46757" lon="2.88837">
        <ele>449.6</ele>
        <time>2021-11-14T14:23:01Z</time>
      </trkpt>
      <trkpt lat="42.46752" lon="2.88838">
        <ele>449.9</ele>
        <time>2021-11-14T14:23:02Z</time>
      </trkpt>
      <trkpt lat="42.46749" lon="2.8884">
        <ele>450.2</ele>
        <time>2021-11-14T14:23:04Z</time>
      </trkpt>
      <trkpt lat="42.46744" lon="2.88841">
        <ele>450.5</ele>
        <time>2021-11-14T14:23:06Z</time>
      </trkpt>
      <trkpt lat="42.46741" lon="2.88843">
        <ele>450.7</ele>
        <time>2021-11-14T14:23:07Z</time>
      </trkpt>
      <trkpt lat="42.46738" lon="2.88844">
        <ele>450.9</ele>
        <time>2021-11-14T14:23:08Z</time>
      </trkpt>
      <trkpt lat="42.46735" lon="2.88846">
        <ele>451.1</ele>
        <time>2021-11-14T14:23:10Z</time>
      </trkpt>
      <trkpt lat="42.46732" lon="2.88848">
        <ele>451.3</ele>
        <time>2021-11-14T14:23:11Z</time>
      </trkpt>
      <trkpt lat="42.4673" lon="2.8885">
        <ele>451.5</ele>
        <time>2021-11-14T14:23:12Z</time>
      </trkpt>
      <trkpt lat="42.46726" lon="2.88854">
        <ele>451.8</ele>
        <time>2021-11-14T14:23:14Z</time>
      </trkpt>
      <trkpt lat="42.46724" lon="2.88856">
        <ele>452</ele>
        <time>2021-11-14T14:23:15Z</time>
      </trkpt>
      <trkpt lat="42.46722" lon="2.88859">
        <ele>452.2</ele>
        <time>2021-11-14T14:23:16Z</time>
      </trkpt>
      <trkpt lat="42.4672" lon="2.88861">
        <ele>452.4</ele>
        <time>2021-11-14T14:23:17Z</time>
      </trkpt>
      <trkpt lat="42.46716" lon="2.88865">
        <ele>452.7</ele>
        <time>2021-11-14T14:23:19Z</time>
      </trkpt>
      <trkpt lat="42.46712" lon="2.88869">
        <ele>453</ele>
        <time>2021-11-14T14:23:21Z</time>
      </trkpt>
      <trkpt lat="42.46709" lon="2.88872">
        <ele>453.2</ele>
        <time>2021-11-14T14:23:22Z</time>
      </trkpt>
      <trkpt lat="42.46708" lon="2.88873">
        <ele>453.3</ele>
        <time>2021-11-14T14:23:23Z</time>
      </trkpt>
      <trkpt lat="42.46704" lon="2.88875">
        <ele>453.5</ele>
        <time>2021-11-14T14:23:24Z</time>
      </trkpt>
      <trkpt lat="42.46701" lon="2.88878">
        <ele>453.8</ele>
        <time>2021-11-14T14:23:26Z</time>
      </trkpt>
      <trkpt lat="42.46696" lon="2.8888">
        <ele>454.1</ele>
        <time>2021-11-14T14:23:28Z</time>
      </trkpt>
      <trkpt lat="42.46694" lon="2.88881">
        <ele>454.2</ele>
        <time>2021-11-14T14:23:29Z</time>
      </trkpt>
      <trkpt lat="42.4669" lon="2.88882">
        <ele>454.5</ele>
        <time>2021-11-14T14:23:30Z</time>
      </trkpt>
      <trkpt lat="42.46688" lon="2.88882">
        <ele>454.6</ele>
        <time>2021-11-14T14:23:31Z</time>
      </trkpt>
      <trkpt lat="42.46685" lon="2.88884">
        <ele>454.8</ele>
        <time>2021-11-14T14:23:33Z</time>
      </trkpt>
      <trkpt lat="42.46681" lon="2.88885">
        <ele>455</ele>
        <time>2021-11-14T14:23:34Z</time>
      </trkpt>
      <trkpt lat="42.46678" lon="2.88887">
        <ele>455.2</ele>
        <time>2021-11-14T14:23:35Z</time>
      </trkpt>
      <trkpt lat="42.46676" lon="2.88889">
        <ele>455.3</ele>
        <time>2021-11-14T14:23:36Z</time>
      </trkpt>
      <trkpt lat="42.46673" lon="2.88892">
        <ele>455.6</ele>
        <time>2021-11-14T14:23:38Z</time>
      </trkpt>
      <trkpt lat="42.4667" lon="2.88894">
        <ele>455.8</ele>
        <time>2021-11-14T14:23:39Z</time>
      </trkpt>
      <trkpt lat="42.46666" lon="2.88897">
        <ele>456</ele>
        <time>2021-11-14T14:23:41Z</time>
      </trkpt>
      <trkpt lat="42.46664" lon="2.88899">
        <ele>456.1</ele>
        <time>2021-11-14T14:23:42Z</time>
      </trkpt>
      <trkpt lat="42.4666" lon="2.88904">
        <ele>456.4</ele>
        <time>2021-11-14T14:23:44Z</time>
      </trkpt>
      <trkpt lat="42.46658" lon="2.88906">
        <ele>456.6</ele>
        <time>2021-11-14T14:23:45Z</time>
      </trkpt>
      <trkpt lat="42.46653" lon="2.88911">
        <ele>456.9</ele>
        <time>2021-11-14T14:23:47Z</time>
      </trkpt>
      <trkpt lat="42.46649" lon="2.88915">
        <ele>457.2</ele>
        <time>2021-11-14T14:23:49Z</time>
      </trkpt>
      <trkpt lat="42.46647" lon="2.88917">
        <ele>457.4</ele>
        <time>2021-11-14T14:23:50Z</time>
      </trkpt>
      <trkpt lat="42.46643" lon="2.88921">
        <ele>457.7</ele>
        <time>2021-11-14T14:23:52Z</time>
      </trkpt>
      <trkpt lat="42.46638" lon="2.88924">
        <ele>458</ele>
        <time>2021-11-14T14:23:54Z</time>
      </trkpt>
      <trkpt lat="42.46636" lon="2.88926">
        <ele>458.1</ele>
        <time>2021-11-14T14:23:55Z</time>
      </trkpt>
      <trkpt lat="42.46633" lon="2.88929">
        <ele>458.3</ele>
        <time>2021-11-14T14:23:56Z</time>
      </trkpt>
      <trkpt lat="42.46628" lon="2.88931">
        <ele>458.5</ele>
        <time>2021-11-14T14:23:58Z</time>
      </trkpt>
      <trkpt lat="42.46623" lon="2.88934">
        <ele>458.8</ele>
        <time>2021-11-14T14:24:00Z</time>
      </trkpt>
      <trkpt lat="42.4662" lon="2.88934">
        <ele>458.9</ele>
        <time>2021-11-14T14:24:01Z</time>
      </trkpt>
      <trkpt lat="42.46615" lon="2.88936">
        <ele>459.1</ele>
        <time>2021-11-14T14:24:03Z</time>
      </trkpt>
      <trkpt lat="42.46611" lon="2.88938">
        <ele>459.3</ele>
        <time>2021-11-14T14:24:04Z</time>
      </trkpt>
      <trkpt lat="42.46607" lon="2.88939">
        <ele>459.4</ele>
        <time>2021-11-14T14:24:05Z</time>
      </trkpt>
      <trkpt lat="42.46603" lon="2.88942">
        <ele>459.6</ele>
        <time>2021-11-14T14:24:07Z</time>
      </trkpt>
      <trkpt lat="42.466" lon="2.88944">
        <ele>459.7</ele>
        <time>2021-11-14T14:24:08Z</time>
      </trkpt>
      <trkpt lat="42.46597" lon="2.88949">
        <ele>459.8</ele>
        <time>2021-11-14T14:24:09Z</time>
      </trkpt>
      <trkpt lat="42.46596" lon="2.88953">
        <ele>459.9</ele>
        <time>2021-11-14T14:24:10Z</time>
      </trkpt>
      <trkpt lat="42.46595" lon="2.88958">
        <ele>460.1</ele>
        <time>2021-11-14T14:24:11Z</time>
      </trkpt>
      <trkpt lat="42.46595" lon="2.88964">
        <ele>460.3</ele>
        <time>2021-11-14T14:24:13Z</time>
      </trkpt>
      <trkpt lat="42.46594" lon="2.88971">
        <ele>460.5</ele>
        <time>2021-11-14T14:24:15Z</time>
      </trkpt>
      <trkpt lat="42.46592" lon="2.88977">
        <ele>460.7</ele>
        <time>2021-11-14T14:24:16Z</time>
      </trkpt>
      <trkpt lat="42.46591" lon="2.88981">
        <ele>460.9</ele>
        <time>2021-11-14T14:24:17Z</time>
      </trkpt>
      <trkpt lat="42.4659" lon="2.88985">
        <ele>461.1</ele>
        <time>2021-11-14T14:24:19Z</time>
      </trkpt>
      <trkpt lat="42.46588" lon="2.88989">
        <ele>461.2</ele>
        <time>2021-11-14T14:24:20Z</time>
      </trkpt>
      <trkpt lat="42.46587" lon="2.88993">
        <ele>461.4</ele>
        <time>2021-11-14T14:24:21Z</time>
      </trkpt>
      <trkpt lat="42.46584" lon="2.88996">
        <ele>461.6</ele>
        <time>2021-11-14T14:24:22Z</time>
      </trkpt>
      <trkpt lat="42.46579" lon="2.89001">
        <ele>462</ele>
        <time>2021-11-14T14:24:24Z</time>
      </trkpt>
      <trkpt lat="42.46575" lon="2.89003">
        <ele>462.2</ele>
        <time>2021-11-14T14:24:25Z</time>
      </trkpt>
      <trkpt lat="42.4657" lon="2.89005">
        <ele>462.6</ele>
        <time>2021-11-14T14:24:26Z</time>
      </trkpt>
      <trkpt lat="42.46565" lon="2.89006">
        <ele>462.9</ele>
        <time>2021-11-14T14:24:28Z</time>
      </trkpt>
      <trkpt lat="42.46559" lon="2.89006">
        <ele>463.2</ele>
        <time>2021-11-14T14:24:30Z</time>
      </trkpt>
      <trkpt lat="42.46554" lon="2.89005">
        <ele>463.5</ele>
        <time>2021-11-14T14:24:31Z</time>
      </trkpt>
      <trkpt lat="42.46549" lon="2.89003">
        <ele>463.8</ele>
        <time>2021-11-14T14:24:33Z</time>
      </trkpt>
      <trkpt lat="42.46544" lon="2.89001">
        <ele>464</ele>
        <time>2021-11-14T14:24:34Z</time>
      </trkpt>
      <trkpt lat="42.46542" lon="2.89">
        <ele>464.2</ele>
        <time>2021-11-14T14:24:35Z</time>
      </trkpt>
      <trkpt lat="42.46535" lon="2.88998">
        <ele>464.5</ele>
        <time>2021-11-14T14:24:37Z</time>
      </trkpt>
      <trkpt lat="42.4653" lon="2.88997">
        <ele>464.8</ele>
        <time>2021-11-14T14:24:39Z</time>
      </trkpt>
      <trkpt lat="42.46526" lon="2.88997">
        <ele>464.9</ele>
        <time>2021-11-14T14:24:40Z</time>
      </trkpt>
      <trkpt lat="42.46523" lon="2.88998">
        <ele>465.1</ele>
        <time>2021-11-14T14:24:41Z</time>
      </trkpt>
      <trkpt lat="42.4652" lon="2.88998">
        <ele>465.2</ele>
        <time>2021-11-14T14:24:42Z</time>
      </trkpt>
      <trkpt lat="42.46517" lon="2.88999">
        <ele>465.4</ele>
        <time>2021-11-14T14:24:43Z</time>
      </trkpt>
      <trkpt lat="42.46514" lon="2.89001">
        <ele>465.5</ele>
        <time>2021-11-14T14:24:45Z</time>
      </trkpt>
      <trkpt lat="42.4651" lon="2.89002">
        <ele>465.7</ele>
        <time>2021-11-14T14:24:46Z</time>
      </trkpt>
      <trkpt lat="42.46507" lon="2.89003">
        <ele>465.8</ele>
        <time>2021-11-14T14:24:47Z</time>
      </trkpt>
      <trkpt lat="42.46503" lon="2.89004">
        <ele>466</ele>
        <time>2021-11-14T14:24:48Z</time>
      </trkpt>
      <trkpt lat="42.46499" lon="2.89006">
        <ele>466.2</ele>
        <time>2021-11-14T14:24:49Z</time>
      </trkpt>
      <trkpt lat="42.46495" lon="2.8901">
        <ele>466.4</ele>
        <time>2021-11-14T14:24:51Z</time>
      </trkpt>
      <trkpt lat="42.46492" lon="2.89013">
        <ele>466.5</ele>
        <time>2021-11-14T14:24:52Z</time>
      </trkpt>
      <trkpt lat="42.4649" lon="2.89017">
        <ele>466.6</ele>
        <time>2021-11-14T14:24:53Z</time>
      </trkpt>
      <trkpt lat="42.46488" lon="2.89021">
        <ele>466.7</ele>
        <time>2021-11-14T14:24:54Z</time>
      </trkpt>
      <trkpt lat="42.46487" lon="2.89028">
        <ele>466.8</ele>
        <time>2021-11-14T14:24:56Z</time>
      </trkpt>
      <trkpt lat="42.46488" lon="2.89034">
        <ele>466.9</ele>
        <time>2021-11-14T14:24:57Z</time>
      </trkpt>
      <trkpt lat="42.46489" lon="2.89042">
        <ele>467.1</ele>
        <time>2021-11-14T14:24:59Z</time>
      </trkpt>
      <trkpt lat="42.4649" lon="2.89047">
        <ele>467.2</ele>
        <time>2021-11-14T14:25:00Z</time>
      </trkpt>
      <trkpt lat="42.46491" lon="2.89051">
        <ele>467.3</ele>
        <time>2021-11-14T14:25:01Z</time>
      </trkpt>
      <trkpt lat="42.46493" lon="2.89057">
        <ele>467.4</ele>
        <time>2021-11-14T14:25:02Z</time>
      </trkpt>
      <trkpt lat="42.46495" lon="2.89062">
        <ele>467.5</ele>
        <time>2021-11-14T14:25:03Z</time>
      </trkpt>
      <trkpt lat="42.46497" lon="2.89069">
        <ele>467.6</ele>
        <time>2021-11-14T14:25:05Z</time>
      </trkpt>
      <trkpt lat="42.46499" lon="2.89074">
        <ele>467.8</ele>
        <time>2021-11-14T14:25:06Z</time>
      </trkpt>
      <trkpt lat="42.46501" lon="2.89078">
        <ele>467.9</ele>
        <time>2021-11-14T14:25:07Z</time>
      </trkpt>
      <trkpt lat="42.46502" lon="2.89086">
        <ele>468.1</ele>
        <time>2021-11-14T14:25:09Z</time>
      </trkpt>
      <trkpt lat="42.46501" lon="2.89093">
        <ele>468.2</ele>
        <time>2021-11-14T14:25:10Z</time>
      </trkpt>
      <trkpt lat="42.46501" lon="2.89097">
        <ele>468.4</ele>
        <time>2021-11-14T14:25:11Z</time>
      </trkpt>
      <trkpt lat="42.465" lon="2.89101">
        <ele>468.5</ele>
        <time>2021-11-14T14:25:12Z</time>
      </trkpt>
      <trkpt lat="42.46499" lon="2.89107">
        <ele>468.7</ele>
        <time>2021-11-14T14:25:13Z</time>
      </trkpt>
      <trkpt lat="42.46497" lon="2.89113">
        <ele>468.9</ele>
        <time>2021-11-14T14:25:15Z</time>
      </trkpt>
      <trkpt lat="42.46495" lon="2.89117">
        <ele>469.1</ele>
        <time>2021-11-14T14:25:16Z</time>
      </trkpt>
      <trkpt lat="42.46492" lon="2.89124">
        <ele>469.4</ele>
        <time>2021-11-14T14:25:18Z</time>
      </trkpt>
      <trkpt lat="42.46489" lon="2.89129">
        <ele>469.6</ele>
        <time>2021-11-14T14:25:19Z</time>
      </trkpt>
      <trkpt lat="42.46486" lon="2.89134">
        <ele>469.9</ele>
        <time>2021-11-14T14:25:21Z</time>
      </trkpt>
      <trkpt lat="42.46484" lon="2.89138">
        <ele>470.1</ele>
        <time>2021-11-14T14:25:22Z</time>
      </trkpt>
      <trkpt lat="42.46483" lon="2.89141">
        <ele>470.2</ele>
        <time>2021-11-14T14:25:23Z</time>
      </trkpt>
      <trkpt lat="42.4648" lon="2.89145">
        <ele>470.4</ele>
        <time>2021-11-14T14:25:24Z</time>
      </trkpt>
      <trkpt lat="42.46476" lon="2.89152">
        <ele>470.8</ele>
        <time>2021-11-14T14:25:26Z</time>
      </trkpt>
      <trkpt lat="42.46473" lon="2.89154">
        <ele>471</ele>
        <time>2021-11-14T14:25:27Z</time>
      </trkpt>
      <trkpt lat="42.46471" lon="2.89157">
        <ele>471.2</ele>
        <time>2021-11-14T14:25:28Z</time>
      </trkpt>
      <trkpt lat="42.46466" lon="2.89161">
        <ele>471.5</ele>
        <time>2021-11-14T14:25:30Z</time>
      </trkpt>
      <trkpt lat="42.46461" lon="2.89166">
        <ele>471.8</ele>
        <time>2021-11-14T14:25:32Z</time>
      </trkpt>
      <trkpt lat="42.46457" lon="2.89169">
        <ele>472.1</ele>
        <time>2021-11-14T14:25:33Z</time>
      </trkpt>
      <trkpt lat="42.46454" lon="2.89172">
        <ele>472.3</ele>
        <time>2021-11-14T14:25:35Z</time>
      </trkpt>
      <trkpt lat="42.4645" lon="2.89179">
        <ele>472.6</ele>
        <time>2021-11-14T14:25:37Z</time>
      </trkpt>
      <trkpt lat="42.46449" lon="2.89182">
        <ele>472.7</ele>
        <time>2021-11-14T14:25:38Z</time>
      </trkpt>
      <trkpt lat="42.46448" lon="2.89187">
        <ele>472.9</ele>
        <time>2021-11-14T14:25:39Z</time>
      </trkpt>
      <trkpt lat="42.46447" lon="2.89191">
        <ele>473</ele>
        <time>2021-11-14T14:25:40Z</time>
      </trkpt>
      <trkpt lat="42.46447" lon="2.89198">
        <ele>473.2</ele>
        <time>2021-11-14T14:25:42Z</time>
      </trkpt>
      <trkpt lat="42.46448" lon="2.89203">
        <ele>473.4</ele>
        <time>2021-11-14T14:25:43Z</time>
      </trkpt>
      <trkpt lat="42.46451" lon="2.89207">
        <ele>473.5</ele>
        <time>2021-11-14T14:25:44Z</time>
      </trkpt>
      <trkpt lat="42.46454" lon="2.89213">
        <ele>473.7</ele>
        <time>2021-11-14T14:25:45Z</time>
      </trkpt>
      <trkpt lat="42.46457" lon="2.89217">
        <ele>473.9</ele>
        <time>2021-11-14T14:25:47Z</time>
      </trkpt>
      <trkpt lat="42.4646" lon="2.89221">
        <ele>474</ele>
        <time>2021-11-14T14:25:48Z</time>
      </trkpt>
      <trkpt lat="42.46463" lon="2.89224">
        <ele>474.2</ele>
        <time>2021-11-14T14:25:49Z</time>
      </trkpt>
      <trkpt lat="42.46466" lon="2.89227">
        <ele>474.4</ele>
        <time>2021-11-14T14:25:50Z</time>
      </trkpt>
      <trkpt lat="42.46469" lon="2.89231">
        <ele>474.6</ele>
        <time>2021-11-14T14:25:52Z</time>
      </trkpt>
      <trkpt lat="42.46472" lon="2.89234">
        <ele>474.8</ele>
        <time>2021-11-14T14:25:53Z</time>
      </trkpt>
      <trkpt lat="42.46474" lon="2.89237">
        <ele>474.9</ele>
        <time>2021-11-14T14:25:54Z</time>
      </trkpt>
      <trkpt lat="42.46477" lon="2.89244">
        <ele>475.3</ele>
        <time>2021-11-14T14:25:56Z</time>
      </trkpt>
      <trkpt lat="42.46479" lon="2.89248">
        <ele>475.5</ele>
        <time>2021-11-14T14:25:57Z</time>
      </trkpt>
      <trkpt lat="42.4648" lon="2.89252">
        <ele>475.7</ele>
        <time>2021-11-14T14:25:58Z</time>
      </trkpt>
      <trkpt lat="42.46481" lon="2.89256">
        <ele>475.9</ele>
        <time>2021-11-14T14:25:59Z</time>
      </trkpt>
      <trkpt lat="42.46483" lon="2.89263">
        <ele>476.3</ele>
        <time>2021-11-14T14:26:01Z</time>
      </trkpt>
      <trkpt lat="42.46485" lon="2.89268">
        <ele>476.6</ele>
        <time>2021-11-14T14:26:02Z</time>
      </trkpt>
      <trkpt lat="42.46487" lon="2.89271">
        <ele>476.9</ele>
        <time>2021-11-14T14:26:03Z</time>
      </trkpt>
      <trkpt lat="42.4649" lon="2.89275">
        <ele>477.1</ele>
        <time>2021-11-14T14:26:04Z</time>
      </trkpt>
      <trkpt lat="42.46493" lon="2.89279">
        <ele>477.5</ele>
        <time>2021-11-14T14:26:05Z</time>
      </trkpt>
      <trkpt lat="42.46497" lon="2.89285">
        <ele>477.9</ele>
        <time>2021-11-14T14:26:06Z</time>
      </trkpt>
      <trkpt lat="42.46503" lon="2.89296">
        <ele>478.7</ele>
        <time>2021-11-14T14:26:08Z</time>
      </trkpt>
      <trkpt lat="42.46505" lon="2.89301">
        <ele>479</ele>
        <time>2021-11-14T14:26:09Z</time>
      </trkpt>
      <trkpt lat="42.46505" lon="2.89304">
        <ele>479.2</ele>
        <time>2021-11-14T14:26:10Z</time>
      </trkpt>
      <trkpt lat="42.46506" lon="2.89306">
        <ele>479.3</ele>
        <time>2021-11-14T14:26:11Z</time>
      </trkpt>
      <trkpt lat="42.46508" lon="2.89308">
        <ele>479.5</ele>
        <time>2021-11-14T14:26:13Z</time>
      </trkpt>
      <trkpt lat="42.4651" lon="2.8931">
        <ele>479.7</ele>
        <time>2021-11-14T14:26:14Z</time>
      </trkpt>
      <trkpt lat="42.46515" lon="2.89317">
        <ele>480.2</ele>
        <time>2021-11-14T14:26:16Z</time>
      </trkpt>
      <trkpt lat="42.46521" lon="2.89326">
        <ele>480.9</ele>
        <time>2021-11-14T14:26:18Z</time>
      </trkpt>
      <trkpt lat="42.46523" lon="2.89331">
        <ele>481.2</ele>
        <time>2021-11-14T14:26:19Z</time>
      </trkpt>
      <trkpt lat="42.46524" lon="2.89333">
        <ele>481.3</ele>
        <time>2021-11-14T14:26:20Z</time>
      </trkpt>
      <trkpt lat="42.46524" lon="2.89334">
        <ele>481.4</ele>
        <time>2021-11-14T14:26:21Z</time>
      </trkpt>
      <trkpt lat="42.46527" lon="2.89342">
        <ele>481.8</ele>
        <time>2021-11-14T14:26:23Z</time>
      </trkpt>
      <trkpt lat="42.46528" lon="2.89346">
        <ele>482</ele>
        <time>2021-11-14T14:26:25Z</time>
      </trkpt>
      <trkpt lat="42.46529" lon="2.89351">
        <ele>482.3</ele>
        <time>2021-11-14T14:26:27Z</time>
      </trkpt>
      <trkpt lat="42.46531" lon="2.89354">
        <ele>482.5</ele>
        <time>2021-11-14T14:26:28Z</time>
      </trkpt>
      <trkpt lat="42.46532" lon="2.89359">
        <ele>482.7</ele>
        <time>2021-11-14T14:26:30Z</time>
      </trkpt>
      <trkpt lat="42.46534" lon="2.89364">
        <ele>483</ele>
        <time>2021-11-14T14:26:32Z</time>
      </trkpt>
      <trkpt lat="42.46535" lon="2.89365">
        <ele>483.1</ele>
        <time>2021-11-14T14:26:33Z</time>
      </trkpt>
      <trkpt lat="42.46536" lon="2.8937">
        <ele>483.3</ele>
        <time>2021-11-14T14:26:34Z</time>
      </trkpt>
      <trkpt lat="42.46537" lon="2.89376">
        <ele>483.6</ele>
        <time>2021-11-14T14:26:36Z</time>
      </trkpt>
      <trkpt lat="42.46538" lon="2.89379">
        <ele>483.7</ele>
        <time>2021-11-14T14:26:37Z</time>
      </trkpt>
      <trkpt lat="42.46537" lon="2.89384">
        <ele>483.9</ele>
        <time>2021-11-14T14:26:39Z</time>
      </trkpt>
      <trkpt lat="42.46537" lon="2.89388">
        <ele>484</ele>
        <time>2021-11-14T14:26:40Z</time>
      </trkpt>
      <trkpt lat="42.46536" lon="2.89392">
        <ele>484.2</ele>
        <time>2021-11-14T14:26:41Z</time>
      </trkpt>
      <trkpt lat="42.4653" lon="2.89395">
        <ele>484.5</ele>
        <time>2021-11-14T14:26:43Z</time>
      </trkpt>
      <trkpt lat="42.46525" lon="2.89397">
        <ele>484.6</ele>
        <time>2021-11-14T14:26:44Z</time>
      </trkpt>
      <trkpt lat="42.4652" lon="2.89398">
        <ele>484.8</ele>
        <time>2021-11-14T14:26:45Z</time>
      </trkpt>
      <trkpt lat="42.46516" lon="2.89401">
        <ele>484.9</ele>
        <time>2021-11-14T14:26:47Z</time>
      </trkpt>
      <trkpt lat="42.46512" lon="2.89403">
        <ele>485.1</ele>
        <time>2021-11-14T14:26:48Z</time>
      </trkpt>
      <trkpt lat="42.46509" lon="2.89405">
        <ele>485.2</ele>
        <time>2021-11-14T14:26:49Z</time>
      </trkpt>
      <trkpt lat="42.46504" lon="2.89409">
        <ele>485.3</ele>
        <time>2021-11-14T14:26:50Z</time>
      </trkpt>
      <trkpt lat="42.46499" lon="2.89413">
        <ele>485.5</ele>
        <time>2021-11-14T14:26:52Z</time>
      </trkpt>
      <trkpt lat="42.46497" lon="2.89415">
        <ele>485.6</ele>
        <time>2021-11-14T14:26:53Z</time>
      </trkpt>
      <trkpt lat="42.46492" lon="2.89421">
        <ele>485.8</ele>
        <time>2021-11-14T14:26:55Z</time>
      </trkpt>
      <trkpt lat="42.46489" lon="2.89425">
        <ele>485.9</ele>
        <time>2021-11-14T14:26:56Z</time>
      </trkpt>
      <trkpt lat="42.46485" lon="2.8943">
        <ele>486.1</ele>
        <time>2021-11-14T14:26:58Z</time>
      </trkpt>
      <trkpt lat="42.46483" lon="2.89434">
        <ele>486.2</ele>
        <time>2021-11-14T14:26:59Z</time>
      </trkpt>
      <trkpt lat="42.46481" lon="2.89437">
        <ele>486.3</ele>
        <time>2021-11-14T14:27:00Z</time>
      </trkpt>
      <trkpt lat="42.4648" lon="2.89441">
        <ele>486.4</ele>
        <time>2021-11-14T14:27:01Z</time>
      </trkpt>
      <trkpt lat="42.46479" lon="2.89446">
        <ele>486.5</ele>
        <time>2021-11-14T14:27:02Z</time>
      </trkpt>
      <trkpt lat="42.46479" lon="2.89453">
        <ele>486.7</ele>
        <time>2021-11-14T14:27:04Z</time>
      </trkpt>
      <trkpt lat="42.46481" lon="2.8946">
        <ele>486.9</ele>
        <time>2021-11-14T14:27:05Z</time>
      </trkpt>
      <trkpt lat="42.46484" lon="2.89465">
        <ele>487</ele>
        <time>2021-11-14T14:27:07Z</time>
      </trkpt>
      <trkpt lat="42.46487" lon="2.89469">
        <ele>487.1</ele>
        <time>2021-11-14T14:27:08Z</time>
      </trkpt>
      <trkpt lat="42.4649" lon="2.89473">
        <ele>487.3</ele>
        <time>2021-11-14T14:27:09Z</time>
      </trkpt>
      <trkpt lat="42.46494" lon="2.89476">
        <ele>487.4</ele>
        <time>2021-11-14T14:27:11Z</time>
      </trkpt>
      <trkpt lat="42.46497" lon="2.89479">
        <ele>487.5</ele>
        <time>2021-11-14T14:27:12Z</time>
      </trkpt>
      <trkpt lat="42.46501" lon="2.89482">
        <ele>487.7</ele>
        <time>2021-11-14T14:27:14Z</time>
      </trkpt>
      <trkpt lat="42.46504" lon="2.89485">
        <ele>487.8</ele>
        <time>2021-11-14T14:27:15Z</time>
      </trkpt>
      <trkpt lat="42.46507" lon="2.89488">
        <ele>487.9</ele>
        <time>2021-11-14T14:27:16Z</time>
      </trkpt>
      <trkpt lat="42.46512" lon="2.89491">
        <ele>488.1</ele>
        <time>2021-11-14T14:27:17Z</time>
      </trkpt>
      <trkpt lat="42.46515" lon="2.89495">
        <ele>488.2</ele>
        <time>2021-11-14T14:27:19Z</time>
      </trkpt>
      <trkpt lat="42.4652" lon="2.895">
        <ele>488.5</ele>
        <time>2021-11-14T14:27:21Z</time>
      </trkpt>
      <trkpt lat="42.46523" lon="2.89505">
        <ele>488.7</ele>
        <time>2021-11-14T14:27:22Z</time>
      </trkpt>
      <trkpt lat="42.46526" lon="2.8951">
        <ele>488.9</ele>
        <time>2021-11-14T14:27:23Z</time>
      </trkpt>
      <trkpt lat="42.46528" lon="2.89514">
        <ele>489</ele>
        <time>2021-11-14T14:27:25Z</time>
      </trkpt>
      <trkpt lat="42.46529" lon="2.89519">
        <ele>489.2</ele>
        <time>2021-11-14T14:27:26Z</time>
      </trkpt>
      <trkpt lat="42.46529" lon="2.89524">
        <ele>489.3</ele>
        <time>2021-11-14T14:27:27Z</time>
      </trkpt>
      <trkpt lat="42.46529" lon="2.8953">
        <ele>489.5</ele>
        <time>2021-11-14T14:27:28Z</time>
      </trkpt>
      <trkpt lat="42.46528" lon="2.89536">
        <ele>489.7</ele>
        <time>2021-11-14T14:27:30Z</time>
      </trkpt>
      <trkpt lat="42.46527" lon="2.8954">
        <ele>489.9</ele>
        <time>2021-11-14T14:27:31Z</time>
      </trkpt>
      <trkpt lat="42.46526" lon="2.89545">
        <ele>490</ele>
        <time>2021-11-14T14:27:32Z</time>
      </trkpt>
      <trkpt lat="42.46522" lon="2.89552">
        <ele>490.3</ele>
        <time>2021-11-14T14:27:34Z</time>
      </trkpt>
      <trkpt lat="42.46519" lon="2.89556">
        <ele>490.4</ele>
        <time>2021-11-14T14:27:35Z</time>
      </trkpt>
      <trkpt lat="42.46514" lon="2.89564">
        <ele>490.7</ele>
        <time>2021-11-14T14:27:37Z</time>
      </trkpt>
      <trkpt lat="42.46512" lon="2.89567">
        <ele>490.8</ele>
        <time>2021-11-14T14:27:38Z</time>
      </trkpt>
      <trkpt lat="42.46507" lon="2.89575">
        <ele>491.1</ele>
        <time>2021-11-14T14:27:40Z</time>
      </trkpt>
      <trkpt lat="42.46503" lon="2.89581">
        <ele>491.4</ele>
        <time>2021-11-14T14:27:42Z</time>
      </trkpt>
      <trkpt lat="42.465" lon="2.89587">
        <ele>491.6</ele>
        <time>2021-11-14T14:27:43Z</time>
      </trkpt>
      <trkpt lat="42.46498" lon="2.89591">
        <ele>491.7</ele>
        <time>2021-11-14T14:27:44Z</time>
      </trkpt>
      <trkpt lat="42.46496" lon="2.89595">
        <ele>491.9</ele>
        <time>2021-11-14T14:27:45Z</time>
      </trkpt>
      <trkpt lat="42.46493" lon="2.89598">
        <ele>492</ele>
        <time>2021-11-14T14:27:46Z</time>
      </trkpt>
      <trkpt lat="42.46488" lon="2.89606">
        <ele>492.3</ele>
        <time>2021-11-14T14:27:48Z</time>
      </trkpt>
      <trkpt lat="42.46484" lon="2.89613">
        <ele>492.5</ele>
        <time>2021-11-14T14:27:50Z</time>
      </trkpt>
      <trkpt lat="42.46481" lon="2.89617">
        <ele>492.7</ele>
        <time>2021-11-14T14:27:51Z</time>
      </trkpt>
      <trkpt lat="42.46479" lon="2.89622">
        <ele>492.8</ele>
        <time>2021-11-14T14:27:52Z</time>
      </trkpt>
      <trkpt lat="42.46476" lon="2.89626">
        <ele>493</ele>
        <time>2021-11-14T14:27:53Z</time>
      </trkpt>
      <trkpt lat="42.46471" lon="2.89634">
        <ele>493.3</ele>
        <time>2021-11-14T14:27:55Z</time>
      </trkpt>
      <trkpt lat="42.46467" lon="2.89642">
        <ele>493.5</ele>
        <time>2021-11-14T14:27:57Z</time>
      </trkpt>
      <trkpt lat="42.46466" lon="2.89647">
        <ele>493.6</ele>
        <time>2021-11-14T14:27:58Z</time>
      </trkpt>
      <trkpt lat="42.4646" lon="2.89654">
        <ele>493.9</ele>
        <time>2021-11-14T14:27:59Z</time>
      </trkpt>
      <trkpt lat="42.46455" lon="2.89659">
        <ele>494.1</ele>
        <time>2021-11-14T14:28:01Z</time>
      </trkpt>
      <trkpt lat="42.46452" lon="2.89664">
        <ele>494.2</ele>
        <time>2021-11-14T14:28:02Z</time>
      </trkpt>
      <trkpt lat="42.46447" lon="2.89669">
        <ele>494.4</ele>
        <time>2021-11-14T14:28:03Z</time>
      </trkpt>
      <trkpt lat="42.46444" lon="2.89673">
        <ele>494.5</ele>
        <time>2021-11-14T14:28:04Z</time>
      </trkpt>
      <trkpt lat="42.4644" lon="2.89678">
        <ele>494.7</ele>
        <time>2021-11-14T14:28:06Z</time>
      </trkpt>
      <trkpt lat="42.46435" lon="2.89681">
        <ele>494.9</ele>
        <time>2021-11-14T14:28:07Z</time>
      </trkpt>
      <trkpt lat="42.4643" lon="2.89684">
        <ele>495</ele>
        <time>2021-11-14T14:28:08Z</time>
      </trkpt>
      <trkpt lat="42.46423" lon="2.89689">
        <ele>495.3</ele>
        <time>2021-11-14T14:28:10Z</time>
      </trkpt>
      <trkpt lat="42.46417" lon="2.89693">
        <ele>495.5</ele>
        <time>2021-11-14T14:28:11Z</time>
      </trkpt>
      <trkpt lat="42.46413" lon="2.89695">
        <ele>495.7</ele>
        <time>2021-11-14T14:28:12Z</time>
      </trkpt>
      <trkpt lat="42.46406" lon="2.89696">
        <ele>495.9</ele>
        <time>2021-11-14T14:28:14Z</time>
      </trkpt>
      <trkpt lat="42.46399" lon="2.89702">
        <ele>496.1</ele>
        <time>2021-11-14T14:28:15Z</time>
      </trkpt>
      <trkpt lat="42.46394" lon="2.89707">
        <ele>496.3</ele>
        <time>2021-11-14T14:28:17Z</time>
      </trkpt>
      <trkpt lat="42.46388" lon="2.89711">
        <ele>496.5</ele>
        <time>2021-11-14T14:28:18Z</time>
      </trkpt>
      <trkpt lat="42.46385" lon="2.89714">
        <ele>496.6</ele>
        <time>2021-11-14T14:28:19Z</time>
      </trkpt>
      <trkpt lat="42.46381" lon="2.89719">
        <ele>496.7</ele>
        <time>2021-11-14T14:28:20Z</time>
      </trkpt>
      <trkpt lat="42.46377" lon="2.89724">
        <ele>496.9</ele>
        <time>2021-11-14T14:28:22Z</time>
      </trkpt>
      <trkpt lat="42.46372" lon="2.89728">
        <ele>497.1</ele>
        <time>2021-11-14T14:28:23Z</time>
      </trkpt>
      <trkpt lat="42.46366" lon="2.89733">
        <ele>497.3</ele>
        <time>2021-11-14T14:28:25Z</time>
      </trkpt>
      <trkpt lat="42.46363" lon="2.89737">
        <ele>497.4</ele>
        <time>2021-11-14T14:28:26Z</time>
      </trkpt>
      <trkpt lat="42.46361" lon="2.89741">
        <ele>497.5</ele>
        <time>2021-11-14T14:28:27Z</time>
      </trkpt>
      <trkpt lat="42.46359" lon="2.89745">
        <ele>497.6</ele>
        <time>2021-11-14T14:28:28Z</time>
      </trkpt>
      <trkpt lat="42.46356" lon="2.89749">
        <ele>497.7</ele>
        <time>2021-11-14T14:28:29Z</time>
      </trkpt>
      <trkpt lat="42.46351" lon="2.89758">
        <ele>498</ele>
        <time>2021-11-14T14:28:31Z</time>
      </trkpt>
      <trkpt lat="42.46348" lon="2.89763">
        <ele>498.1</ele>
        <time>2021-11-14T14:28:32Z</time>
      </trkpt>
      <trkpt lat="42.46345" lon="2.8977">
        <ele>498.3</ele>
        <time>2021-11-14T14:28:34Z</time>
      </trkpt>
      <trkpt lat="42.46342" lon="2.89777">
        <ele>498.4</ele>
        <time>2021-11-14T14:28:35Z</time>
      </trkpt>
      <trkpt lat="42.46341" lon="2.89783">
        <ele>498.5</ele>
        <time>2021-11-14T14:28:36Z</time>
      </trkpt>
      <trkpt lat="42.46339" lon="2.89792">
        <ele>498.6</ele>
        <time>2021-11-14T14:28:37Z</time>
      </trkpt>
      <trkpt lat="42.46338" lon="2.89801">
        <ele>498.7</ele>
        <time>2021-11-14T14:28:39Z</time>
      </trkpt>
      <trkpt lat="42.46338" lon="2.89811">
        <ele>498.9</ele>
        <time>2021-11-14T14:28:41Z</time>
      </trkpt>
      <trkpt lat="42.46339" lon="2.8982">
        <ele>499.1</ele>
        <time>2021-11-14T14:28:42Z</time>
      </trkpt>
      <trkpt lat="42.46343" lon="2.89832">
        <ele>499.3</ele>
        <time>2021-11-14T14:28:44Z</time>
      </trkpt>
      <trkpt lat="42.46345" lon="2.89838">
        <ele>499.4</ele>
        <time>2021-11-14T14:28:45Z</time>
      </trkpt>
      <trkpt lat="42.4635" lon="2.89849">
        <ele>499.5</ele>
        <time>2021-11-14T14:28:47Z</time>
      </trkpt>
      <trkpt lat="42.46353" lon="2.89851">
        <ele>499.5</ele>
        <time>2021-11-14T14:28:48Z</time>
      </trkpt>
      <trkpt lat="42.4636" lon="2.89861">
        <ele>499.6</ele>
        <time>2021-11-14T14:28:50Z</time>
      </trkpt>
      <trkpt lat="42.46368" lon="2.8987">
        <ele>499.6</ele>
        <time>2021-11-14T14:28:52Z</time>
      </trkpt>
      <trkpt lat="42.46376" lon="2.8988">
        <ele>499.6</ele>
        <time>2021-11-14T14:28:54Z</time>
      </trkpt>
      <trkpt lat="42.4638" lon="2.89886">
        <ele>499.7</ele>
        <time>2021-11-14T14:28:55Z</time>
      </trkpt>
      <trkpt lat="42.46388" lon="2.89896">
        <ele>499.7</ele>
        <time>2021-11-14T14:28:57Z</time>
      </trkpt>
      <trkpt lat="42.46397" lon="2.89905">
        <ele>499.7</ele>
        <time>2021-11-14T14:28:59Z</time>
      </trkpt>
      <trkpt lat="42.46401" lon="2.8991">
        <ele>499.7</ele>
        <time>2021-11-14T14:29:00Z</time>
      </trkpt>
      <trkpt lat="42.4641" lon="2.8992">
        <ele>499.7</ele>
        <time>2021-11-14T14:29:02Z</time>
      </trkpt>
      <trkpt lat="42.4642" lon="2.89927">
        <ele>499.9</ele>
        <time>2021-11-14T14:29:04Z</time>
      </trkpt>
      <trkpt lat="42.46425" lon="2.89929">
        <ele>500</ele>
        <time>2021-11-14T14:29:05Z</time>
      </trkpt>
      <trkpt lat="42.4643" lon="2.89931">
        <ele>500.1</ele>
        <time>2021-11-14T14:29:06Z</time>
      </trkpt>
      <trkpt lat="42.4644" lon="2.89932">
        <ele>500.3</ele>
        <time>2021-11-14T14:29:08Z</time>
      </trkpt>
      <trkpt lat="42.46447" lon="2.89931">
        <ele>500.4</ele>
        <time>2021-11-14T14:29:10Z</time>
      </trkpt>
      <trkpt lat="42.46451" lon="2.89931">
        <ele>500.5</ele>
        <time>2021-11-14T14:29:11Z</time>
      </trkpt>
      <trkpt lat="42.46458" lon="2.89932">
        <ele>500.6</ele>
        <time>2021-11-14T14:29:13Z</time>
      </trkpt>
      <trkpt lat="42.46462" lon="2.89933">
        <ele>500.7</ele>
        <time>2021-11-14T14:29:14Z</time>
      </trkpt>
      <trkpt lat="42.46468" lon="2.89936">
        <ele>500.9</ele>
        <time>2021-11-14T14:29:16Z</time>
      </trkpt>
      <trkpt lat="42.46468" lon="2.8994">
        <ele>500.9</ele>
        <time>2021-11-14T14:29:17Z</time>
      </trkpt>
      <trkpt lat="42.46471" lon="2.89944">
        <ele>501.1</ele>
        <time>2021-11-14T14:29:18Z</time>
      </trkpt>
      <trkpt lat="42.46476" lon="2.89948">
        <ele>501.2</ele>
        <time>2021-11-14T14:29:19Z</time>
      </trkpt>
      <trkpt lat="42.46479" lon="2.89953">
        <ele>501.3</ele>
        <time>2021-11-14T14:29:21Z</time>
      </trkpt>
      <trkpt lat="42.46482" lon="2.89959">
        <ele>501.5</ele>
        <time>2021-11-14T14:29:22Z</time>
      </trkpt>
      <trkpt lat="42.46486" lon="2.89966">
        <ele>501.7</ele>
        <time>2021-11-14T14:29:24Z</time>
      </trkpt>
      <trkpt lat="42.4649" lon="2.89975">
        <ele>501.9</ele>
        <time>2021-11-14T14:29:26Z</time>
      </trkpt>
      <trkpt lat="42.46492" lon="2.8998">
        <ele>502.1</ele>
        <time>2021-11-14T14:29:27Z</time>
      </trkpt>
      <trkpt lat="42.46494" lon="2.89984">
        <ele>502.2</ele>
        <time>2021-11-14T14:29:28Z</time>
      </trkpt>
      <trkpt lat="42.46496" lon="2.89991">
        <ele>502.4</ele>
        <time>2021-11-14T14:29:29Z</time>
      </trkpt>
      <trkpt lat="42.46499" lon="2.89996">
        <ele>502.5</ele>
        <time>2021-11-14T14:29:31Z</time>
      </trkpt>
      <trkpt lat="42.465" lon="2.9">
        <ele>502.6</ele>
        <time>2021-11-14T14:29:32Z</time>
      </trkpt>
      <trkpt lat="42.46502" lon="2.9001">
        <ele>502.9</ele>
        <time>2021-11-14T14:29:34Z</time>
      </trkpt>
      <trkpt lat="42.46503" lon="2.90016">
        <ele>503</ele>
        <time>2021-11-14T14:29:35Z</time>
      </trkpt>
      <trkpt lat="42.46504" lon="2.90021">
        <ele>503.1</ele>
        <time>2021-11-14T14:29:36Z</time>
      </trkpt>
      <trkpt lat="42.46505" lon="2.90029">
        <ele>503.3</ele>
        <time>2021-11-14T14:29:37Z</time>
      </trkpt>
      <trkpt lat="42.46506" lon="2.90034">
        <ele>503.5</ele>
        <time>2021-11-14T14:29:38Z</time>
      </trkpt>
      <trkpt lat="42.46508" lon="2.90043">
        <ele>503.7</ele>
        <time>2021-11-14T14:29:40Z</time>
      </trkpt>
      <trkpt lat="42.46509" lon="2.90048">
        <ele>503.9</ele>
        <time>2021-11-14T14:29:41Z</time>
      </trkpt>
      <trkpt lat="42.4651" lon="2.90053">
        <ele>504</ele>
        <time>2021-11-14T14:29:42Z</time>
      </trkpt>
      <trkpt lat="42.46512" lon="2.90062">
        <ele>504.2</ele>
        <time>2021-11-14T14:29:44Z</time>
      </trkpt>
      <trkpt lat="42.46513" lon="2.90067">
        <ele>504.4</ele>
        <time>2021-11-14T14:29:45Z</time>
      </trkpt>
      <trkpt lat="42.46514" lon="2.90075">
        <ele>504.5</ele>
        <time>2021-11-14T14:29:46Z</time>
      </trkpt>
      <trkpt lat="42.46515" lon="2.90083">
        <ele>504.7</ele>
        <time>2021-11-14T14:29:48Z</time>
      </trkpt>
      <trkpt lat="42.46515" lon="2.90089">
        <ele>504.8</ele>
        <time>2021-11-14T14:29:49Z</time>
      </trkpt>
      <trkpt lat="42.46516" lon="2.90101">
        <ele>505</ele>
        <time>2021-11-14T14:29:51Z</time>
      </trkpt>
      <trkpt lat="42.46516" lon="2.90106">
        <ele>505.1</ele>
        <time>2021-11-14T14:29:52Z</time>
      </trkpt>
      <trkpt lat="42.46517" lon="2.90115">
        <ele>505.3</ele>
        <time>2021-11-14T14:29:53Z</time>
      </trkpt>
      <trkpt lat="42.46518" lon="2.90121">
        <ele>505.4</ele>
        <time>2021-11-14T14:29:54Z</time>
      </trkpt>
      <trkpt lat="42.46519" lon="2.90127">
        <ele>505.5</ele>
        <time>2021-11-14T14:29:55Z</time>
      </trkpt>
      <trkpt lat="42.46519" lon="2.90133">
        <ele>505.6</ele>
        <time>2021-11-14T14:29:56Z</time>
      </trkpt>
      <trkpt lat="42.4652" lon="2.90139">
        <ele>505.8</ele>
        <time>2021-11-14T14:29:57Z</time>
      </trkpt>
      <trkpt lat="42.46519" lon="2.90143">
        <ele>505.9</ele>
        <time>2021-11-14T14:29:58Z</time>
      </trkpt>
      <trkpt lat="42.46516" lon="2.90152">
        <ele>506.1</ele>
        <time>2021-11-14T14:30:00Z</time>
      </trkpt>
      <trkpt lat="42.46518" lon="2.90159">
        <ele>506.3</ele>
        <time>2021-11-14T14:30:01Z</time>
      </trkpt>
      <trkpt lat="42.4652" lon="2.90166">
        <ele>506.4</ele>
        <time>2021-11-14T14:30:02Z</time>
      </trkpt>
      <trkpt lat="42.46521" lon="2.90176">
        <ele>506.6</ele>
        <time>2021-11-14T14:30:04Z</time>
      </trkpt>
      <trkpt lat="42.46522" lon="2.90183">
        <ele>506.8</ele>
        <time>2021-11-14T14:30:05Z</time>
      </trkpt>
      <trkpt lat="42.46523" lon="2.90191">
        <ele>507</ele>
        <time>2021-11-14T14:30:06Z</time>
      </trkpt>
      <trkpt lat="42.46524" lon="2.902">
        <ele>507.1</ele>
        <time>2021-11-14T14:30:08Z</time>
      </trkpt>
      <trkpt lat="42.46525" lon="2.90207">
        <ele>507.3</ele>
        <time>2021-11-14T14:30:09Z</time>
      </trkpt>
      <trkpt lat="42.46527" lon="2.90215">
        <ele>507.4</ele>
        <time>2021-11-14T14:30:11Z</time>
      </trkpt>
      <trkpt lat="42.46528" lon="2.90221">
        <ele>507.6</ele>
        <time>2021-11-14T14:30:12Z</time>
      </trkpt>
      <trkpt lat="42.46532" lon="2.90229">
        <ele>507.7</ele>
        <time>2021-11-14T14:30:13Z</time>
      </trkpt>
      <trkpt lat="42.46535" lon="2.90237">
        <ele>507.9</ele>
        <time>2021-11-14T14:30:15Z</time>
      </trkpt>
      <trkpt lat="42.46537" lon="2.90242">
        <ele>508</ele>
        <time>2021-11-14T14:30:16Z</time>
      </trkpt>
      <trkpt lat="42.46539" lon="2.90247">
        <ele>508.2</ele>
        <time>2021-11-14T14:30:17Z</time>
      </trkpt>
      <trkpt lat="42.46541" lon="2.90252">
        <ele>508.3</ele>
        <time>2021-11-14T14:30:18Z</time>
      </trkpt>
      <trkpt lat="42.46545" lon="2.90261">
        <ele>508.6</ele>
        <time>2021-11-14T14:30:20Z</time>
      </trkpt>
      <trkpt lat="42.46547" lon="2.90267">
        <ele>508.7</ele>
        <time>2021-11-14T14:30:21Z</time>
      </trkpt>
      <trkpt lat="42.46549" lon="2.90273">
        <ele>508.9</ele>
        <time>2021-11-14T14:30:22Z</time>
      </trkpt>
      <trkpt lat="42.46552" lon="2.90285">
        <ele>509.2</ele>
        <time>2021-11-14T14:30:24Z</time>
      </trkpt>
      <trkpt lat="42.46552" lon="2.90289">
        <ele>509.3</ele>
        <time>2021-11-14T14:30:25Z</time>
      </trkpt>
      <trkpt lat="42.46551" lon="2.90296">
        <ele>509.5</ele>
        <time>2021-11-14T14:30:26Z</time>
      </trkpt>
      <trkpt lat="42.46555" lon="2.90303">
        <ele>509.7</ele>
        <time>2021-11-14T14:30:28Z</time>
      </trkpt>
      <trkpt lat="42.46559" lon="2.90309">
        <ele>509.9</ele>
        <time>2021-11-14T14:30:29Z</time>
      </trkpt>
      <trkpt lat="42.46564" lon="2.90314">
        <ele>510.2</ele>
        <time>2021-11-14T14:30:31Z</time>
      </trkpt>
      <trkpt lat="42.46569" lon="2.90316">
        <ele>510.4</ele>
        <time>2021-11-14T14:30:32Z</time>
      </trkpt>
      <trkpt lat="42.46573" lon="2.90316">
        <ele>510.6</ele>
        <time>2021-11-14T14:30:34Z</time>
      </trkpt>
      <trkpt lat="42.46577" lon="2.90316">
        <ele>510.8</ele>
        <time>2021-11-14T14:30:35Z</time>
      </trkpt>
      <trkpt lat="42.46581" lon="2.90315">
        <ele>511</ele>
        <time>2021-11-14T14:30:36Z</time>
      </trkpt>
      <trkpt lat="42.46585" lon="2.90315">
        <ele>511.3</ele>
        <time>2021-11-14T14:30:37Z</time>
      </trkpt>
      <trkpt lat="42.4659" lon="2.90315">
        <ele>511.5</ele>
        <time>2021-11-14T14:30:39Z</time>
      </trkpt>
      <trkpt lat="42.46593" lon="2.90316">
        <ele>511.7</ele>
        <time>2021-11-14T14:30:40Z</time>
      </trkpt>
      <trkpt lat="42.46598" lon="2.90317">
        <ele>512.1</ele>
        <time>2021-11-14T14:30:41Z</time>
      </trkpt>
      <trkpt lat="42.46603" lon="2.90319">
        <ele>512.4</ele>
        <time>2021-11-14T14:30:43Z</time>
      </trkpt>
      <trkpt lat="42.46606" lon="2.90322">
        <ele>512.7</ele>
        <time>2021-11-14T14:30:44Z</time>
      </trkpt>
      <trkpt lat="42.46611" lon="2.90325">
        <ele>513</ele>
        <time>2021-11-14T14:30:46Z</time>
      </trkpt>
      <trkpt lat="42.46615" lon="2.90328">
        <ele>513.4</ele>
        <time>2021-11-14T14:30:47Z</time>
      </trkpt>
      <trkpt lat="42.46619" lon="2.90332">
        <ele>513.8</ele>
        <time>2021-11-14T14:30:48Z</time>
      </trkpt>
      <trkpt lat="42.46624" lon="2.90336">
        <ele>514.2</ele>
        <time>2021-11-14T14:30:50Z</time>
      </trkpt>
      <trkpt lat="42.46628" lon="2.9034">
        <ele>514.6</ele>
        <time>2021-11-14T14:30:51Z</time>
      </trkpt>
      <trkpt lat="42.46631" lon="2.90344">
        <ele>514.9</ele>
        <time>2021-11-14T14:30:53Z</time>
      </trkpt>
      <trkpt lat="42.46635" lon="2.90347">
        <ele>515.2</ele>
        <time>2021-11-14T14:30:54Z</time>
      </trkpt>
      <trkpt lat="42.46638" lon="2.9035">
        <ele>515.5</ele>
        <time>2021-11-14T14:30:55Z</time>
      </trkpt>
      <trkpt lat="42.46645" lon="2.90353">
        <ele>515.9</ele>
        <time>2021-11-14T14:30:57Z</time>
      </trkpt>
      <trkpt lat="42.46651" lon="2.90351">
        <ele>516.3</ele>
        <time>2021-11-14T14:30:59Z</time>
      </trkpt>
      <trkpt lat="42.46654" lon="2.90349">
        <ele>516.5</ele>
        <time>2021-11-14T14:31:00Z</time>
      </trkpt>
      <trkpt lat="42.46656" lon="2.90345">
        <ele>516.7</ele>
        <time>2021-11-14T14:31:01Z</time>
      </trkpt>
      <trkpt lat="42.46658" lon="2.90339">
        <ele>517</ele>
        <time>2021-11-14T14:31:03Z</time>
      </trkpt>
      <trkpt lat="42.46659" lon="2.90334">
        <ele>517.2</ele>
        <time>2021-11-14T14:31:04Z</time>
      </trkpt>
      <trkpt lat="42.46659" lon="2.90328">
        <ele>517.4</ele>
        <time>2021-11-14T14:31:05Z</time>
      </trkpt>
      <trkpt lat="42.46658" lon="2.90322">
        <ele>517.6</ele>
        <time>2021-11-14T14:31:07Z</time>
      </trkpt>
      <trkpt lat="42.46657" lon="2.90318">
        <ele>517.8</ele>
        <time>2021-11-14T14:31:08Z</time>
      </trkpt>
      <trkpt lat="42.46655" lon="2.90311">
        <ele>518</ele>
        <time>2021-11-14T14:31:10Z</time>
      </trkpt>
      <trkpt lat="42.46653" lon="2.90306">
        <ele>518.2</ele>
        <time>2021-11-14T14:31:11Z</time>
      </trkpt>
      <trkpt lat="42.4665" lon="2.90302">
        <ele>518.4</ele>
        <time>2021-11-14T14:31:12Z</time>
      </trkpt>
      <trkpt lat="42.46647" lon="2.90297">
        <ele>518.6</ele>
        <time>2021-11-14T14:31:14Z</time>
      </trkpt>
      <trkpt lat="42.46644" lon="2.9029">
        <ele>518.8</ele>
        <time>2021-11-14T14:31:16Z</time>
      </trkpt>
      <trkpt lat="42.46643" lon="2.90286">
        <ele>519</ele>
        <time>2021-11-14T14:31:17Z</time>
      </trkpt>
      <trkpt lat="42.46642" lon="2.90282">
        <ele>519.1</ele>
        <time>2021-11-14T14:31:18Z</time>
      </trkpt>
      <trkpt lat="42.4664" lon="2.90277">
        <ele>519.3</ele>
        <time>2021-11-14T14:31:19Z</time>
      </trkpt>
      <trkpt lat="42.46638" lon="2.90272">
        <ele>519.5</ele>
        <time>2021-11-14T14:31:21Z</time>
      </trkpt>
      <trkpt lat="42.46637" lon="2.90267">
        <ele>519.7</ele>
        <time>2021-11-14T14:31:22Z</time>
      </trkpt>
      <trkpt lat="42.46636" lon="2.90264">
        <ele>519.8</ele>
        <time>2021-11-14T14:31:23Z</time>
      </trkpt>
      <trkpt lat="42.46632" lon="2.90258">
        <ele>520.1</ele>
        <time>2021-11-14T14:31:25Z</time>
      </trkpt>
      <trkpt lat="42.46631" lon="2.90249">
        <ele>520.4</ele>
        <time>2021-11-14T14:31:27Z</time>
      </trkpt>
      <trkpt lat="42.46631" lon="2.90241">
        <ele>520.6</ele>
        <time>2021-11-14T14:31:29Z</time>
      </trkpt>
      <trkpt lat="42.46631" lon="2.90237">
        <ele>520.8</ele>
        <time>2021-11-14T14:31:30Z</time>
      </trkpt>
      <trkpt lat="42.4663" lon="2.90231">
        <ele>521</ele>
        <time>2021-11-14T14:31:31Z</time>
      </trkpt>
      <trkpt lat="42.4663" lon="2.90225">
        <ele>521.2</ele>
        <time>2021-11-14T14:31:33Z</time>
      </trkpt>
      <trkpt lat="42.4663" lon="2.9022">
        <ele>521.4</ele>
        <time>2021-11-14T14:31:34Z</time>
      </trkpt>
      <trkpt lat="42.4663" lon="2.90218">
        <ele>521.5</ele>
        <time>2021-11-14T14:31:35Z</time>
      </trkpt>
      <trkpt lat="42.4663" lon="2.90214">
        <ele>521.6</ele>
        <time>2021-11-14T14:31:36Z</time>
      </trkpt>
      <trkpt lat="42.4663" lon="2.90208">
        <ele>521.8</ele>
        <time>2021-11-14T14:31:37Z</time>
      </trkpt>
      <trkpt lat="42.46631" lon="2.90202">
        <ele>522</ele>
        <time>2021-11-14T14:31:39Z</time>
      </trkpt>
      <trkpt lat="42.46631" lon="2.90198">
        <ele>522.2</ele>
        <time>2021-11-14T14:31:40Z</time>
      </trkpt>
      <trkpt lat="42.46632" lon="2.90193">
        <ele>522.3</ele>
        <time>2021-11-14T14:31:41Z</time>
      </trkpt>
      <trkpt lat="42.46632" lon="2.90188">
        <ele>522.5</ele>
        <time>2021-11-14T14:31:42Z</time>
      </trkpt>
      <trkpt lat="42.46634" lon="2.90182">
        <ele>522.8</ele>
        <time>2021-11-14T14:31:44Z</time>
      </trkpt>
      <trkpt lat="42.46635" lon="2.90177">
        <ele>523</ele>
        <time>2021-11-14T14:31:45Z</time>
      </trkpt>
      <trkpt lat="42.46637" lon="2.90169">
        <ele>523.3</ele>
        <time>2021-11-14T14:31:47Z</time>
      </trkpt>
      <trkpt lat="42.46639" lon="2.90165">
        <ele>523.5</ele>
        <time>2021-11-14T14:31:48Z</time>
      </trkpt>
      <trkpt lat="42.4664" lon="2.90161">
        <ele>523.6</ele>
        <time>2021-11-14T14:31:49Z</time>
      </trkpt>
      <trkpt lat="42.4664" lon="2.90155">
        <ele>523.9</ele>
        <time>2021-11-14T14:31:51Z</time>
      </trkpt>
      <trkpt lat="42.4664" lon="2.90151">
        <ele>524</ele>
        <time>2021-11-14T14:31:52Z</time>
      </trkpt>
      <trkpt lat="42.46641" lon="2.90146">
        <ele>524.2</ele>
        <time>2021-11-14T14:31:54Z</time>
      </trkpt>
      <trkpt lat="42.46641" lon="2.90142">
        <ele>524.4</ele>
        <time>2021-11-14T14:31:55Z</time>
      </trkpt>
      <trkpt lat="42.46642" lon="2.90135">
        <ele>524.6</ele>
        <time>2021-11-14T14:31:57Z</time>
      </trkpt>
      <trkpt lat="42.46645" lon="2.9013">
        <ele>524.9</ele>
        <time>2021-11-14T14:31:58Z</time>
      </trkpt>
      <trkpt lat="42.46647" lon="2.90128">
        <ele>525</ele>
        <time>2021-11-14T14:31:59Z</time>
      </trkpt>
      <trkpt lat="42.4665" lon="2.90123">
        <ele>525.2</ele>
        <time>2021-11-14T14:32:01Z</time>
      </trkpt>
      <trkpt lat="42.46653" lon="2.9012">
        <ele>525.4</ele>
        <time>2021-11-14T14:32:02Z</time>
      </trkpt>
      <trkpt lat="42.46656" lon="2.90118">
        <ele>525.6</ele>
        <time>2021-11-14T14:32:03Z</time>
      </trkpt>
      <trkpt lat="42.4666" lon="2.90114">
        <ele>525.8</ele>
        <time>2021-11-14T14:32:05Z</time>
      </trkpt>
      <trkpt lat="42.46664" lon="2.90112">
        <ele>526.1</ele>
        <time>2021-11-14T14:32:06Z</time>
      </trkpt>
      <trkpt lat="42.46671" lon="2.90109">
        <ele>526.5</ele>
        <time>2021-11-14T14:32:08Z</time>
      </trkpt>
      <trkpt lat="42.46675" lon="2.90108">
        <ele>526.7</ele>
        <time>2021-11-14T14:32:09Z</time>
      </trkpt>
      <trkpt lat="42.46678" lon="2.90107">
        <ele>526.9</ele>
        <time>2021-11-14T14:32:10Z</time>
      </trkpt>
      <trkpt lat="42.46682" lon="2.90106">
        <ele>527.1</ele>
        <time>2021-11-14T14:32:11Z</time>
      </trkpt>
      <trkpt lat="42.46685" lon="2.90106">
        <ele>527.4</ele>
        <time>2021-11-14T14:32:12Z</time>
      </trkpt>
      <trkpt lat="42.46689" lon="2.90106">
        <ele>527.6</ele>
        <time>2021-11-14T14:32:14Z</time>
      </trkpt>
      <trkpt lat="42.46693" lon="2.90106">
        <ele>527.8</ele>
        <time>2021-11-14T14:32:15Z</time>
      </trkpt>
      <trkpt lat="42.46697" lon="2.90106">
        <ele>528</ele>
        <time>2021-11-14T14:32:17Z</time>
      </trkpt>
      <trkpt lat="42.467" lon="2.90107">
        <ele>528.2</ele>
        <time>2021-11-14T14:32:18Z</time>
      </trkpt>
      <trkpt lat="42.46704" lon="2.90107">
        <ele>528.4</ele>
        <time>2021-11-14T14:32:19Z</time>
      </trkpt>
      <trkpt lat="42.46708" lon="2.90109">
        <ele>528.6</ele>
        <time>2021-11-14T14:32:21Z</time>
      </trkpt>
      <trkpt lat="42.46712" lon="2.9011">
        <ele>528.9</ele>
        <time>2021-11-14T14:32:22Z</time>
      </trkpt>
      <trkpt lat="42.46716" lon="2.90111">
        <ele>529.2</ele>
        <time>2021-11-14T14:32:24Z</time>
      </trkpt>
      <trkpt lat="42.4672" lon="2.90111">
        <ele>529.4</ele>
        <time>2021-11-14T14:32:25Z</time>
      </trkpt>
      <trkpt lat="42.46725" lon="2.90111">
        <ele>529.7</ele>
        <time>2021-11-14T14:32:26Z</time>
      </trkpt>
      <trkpt lat="42.46728" lon="2.90111">
        <ele>529.9</ele>
        <time>2021-11-14T14:32:27Z</time>
      </trkpt>
      <trkpt lat="42.46732" lon="2.90111">
        <ele>530.1</ele>
        <time>2021-11-14T14:32:29Z</time>
      </trkpt>
      <trkpt lat="42.46735" lon="2.90111">
        <ele>530.3</ele>
        <time>2021-11-14T14:32:30Z</time>
      </trkpt>
      <trkpt lat="42.46738" lon="2.90111">
        <ele>530.5</ele>
        <time>2021-11-14T14:32:31Z</time>
      </trkpt>
      <trkpt lat="42.46744" lon="2.90111">
        <ele>530.8</ele>
        <time>2021-11-14T14:32:33Z</time>
      </trkpt>
      <trkpt lat="42.46747" lon="2.90111">
        <ele>531</ele>
        <time>2021-11-14T14:32:34Z</time>
      </trkpt>
      <trkpt lat="42.46752" lon="2.90112">
        <ele>531.3</ele>
        <time>2021-11-14T14:32:35Z</time>
      </trkpt>
      <trkpt lat="42.46756" lon="2.90111">
        <ele>531.5</ele>
        <time>2021-11-14T14:32:37Z</time>
      </trkpt>
      <trkpt lat="42.46759" lon="2.90111">
        <ele>531.7</ele>
        <time>2021-11-14T14:32:38Z</time>
      </trkpt>
      <trkpt lat="42.46765" lon="2.90111">
        <ele>532</ele>
        <time>2021-11-14T14:32:40Z</time>
      </trkpt>
      <trkpt lat="42.46768" lon="2.90112">
        <ele>532.2</ele>
        <time>2021-11-14T14:32:41Z</time>
      </trkpt>
      <trkpt lat="42.46771" lon="2.90113">
        <ele>532.3</ele>
        <time>2021-11-14T14:32:42Z</time>
      </trkpt>
      <trkpt lat="42.46774" lon="2.90115">
        <ele>532.5</ele>
        <time>2021-11-14T14:32:43Z</time>
      </trkpt>
      <trkpt lat="42.46777" lon="2.90116">
        <ele>532.7</ele>
        <time>2021-11-14T14:32:44Z</time>
      </trkpt>
      <trkpt lat="42.46781" lon="2.90117">
        <ele>532.9</ele>
        <time>2021-11-14T14:32:45Z</time>
      </trkpt>
      <trkpt lat="42.46785" lon="2.90119">
        <ele>533.2</ele>
        <time>2021-11-14T14:32:47Z</time>
      </trkpt>
      <trkpt lat="42.4679" lon="2.90124">
        <ele>533.5</ele>
        <time>2021-11-14T14:32:49Z</time>
      </trkpt>
      <trkpt lat="42.46793" lon="2.90127">
        <ele>533.7</ele>
        <time>2021-11-14T14:32:50Z</time>
      </trkpt>
      <trkpt lat="42.46796" lon="2.90131">
        <ele>534</ele>
        <time>2021-11-14T14:32:51Z</time>
      </trkpt>
      <trkpt lat="42.468" lon="2.90134">
        <ele>534.2</ele>
        <time>2021-11-14T14:32:53Z</time>
      </trkpt>
      <trkpt lat="42.46804" lon="2.90137">
        <ele>534.5</ele>
        <time>2021-11-14T14:32:55Z</time>
      </trkpt>
      <trkpt lat="42.46806" lon="2.9014">
        <ele>534.7</ele>
        <time>2021-11-14T14:32:56Z</time>
      </trkpt>
      <trkpt lat="42.46811" lon="2.9014">
        <ele>534.9</ele>
        <time>2021-11-14T14:32:58Z</time>
      </trkpt>
      <trkpt lat="42.46814" lon="2.90139">
        <ele>535.1</ele>
        <time>2021-11-14T14:32:59Z</time>
      </trkpt>
      <trkpt lat="42.46819" lon="2.90139">
        <ele>535.4</ele>
        <time>2021-11-14T14:33:01Z</time>
      </trkpt>
      <trkpt lat="42.46825" lon="2.9014">
        <ele>535.6</ele>
        <time>2021-11-14T14:33:03Z</time>
      </trkpt>
      <trkpt lat="42.46829" lon="2.90141">
        <ele>535.8</ele>
        <time>2021-11-14T14:33:04Z</time>
      </trkpt>
      <trkpt lat="42.46833" lon="2.90144">
        <ele>536</ele>
        <time>2021-11-14T14:33:06Z</time>
      </trkpt>
      <trkpt lat="42.46837" lon="2.90148">
        <ele>536.3</ele>
        <time>2021-11-14T14:33:08Z</time>
      </trkpt>
      <trkpt lat="42.4684" lon="2.90153">
        <ele>536.5</ele>
        <time>2021-11-14T14:33:09Z</time>
      </trkpt>
      <trkpt lat="42.46843" lon="2.90158">
        <ele>536.7</ele>
        <time>2021-11-14T14:33:10Z</time>
      </trkpt>
      <trkpt lat="42.46845" lon="2.90163">
        <ele>536.9</ele>
        <time>2021-11-14T14:33:12Z</time>
      </trkpt>
      <trkpt lat="42.46849" lon="2.9017">
        <ele>537.2</ele>
        <time>2021-11-14T14:33:14Z</time>
      </trkpt>
      <trkpt lat="42.4685" lon="2.90174">
        <ele>537.3</ele>
        <time>2021-11-14T14:33:15Z</time>
      </trkpt>
      <trkpt lat="42.46852" lon="2.90179">
        <ele>537.5</ele>
        <time>2021-11-14T14:33:16Z</time>
      </trkpt>
      <trkpt lat="42.46853" lon="2.90185">
        <ele>537.7</ele>
        <time>2021-11-14T14:33:18Z</time>
      </trkpt>
      <trkpt lat="42.46854" lon="2.90189">
        <ele>537.9</ele>
        <time>2021-11-14T14:33:19Z</time>
      </trkpt>
      <trkpt lat="42.46856" lon="2.90196">
        <ele>538.1</ele>
        <time>2021-11-14T14:33:21Z</time>
      </trkpt>
      <trkpt lat="42.46858" lon="2.90201">
        <ele>538.3</ele>
        <time>2021-11-14T14:33:22Z</time>
      </trkpt>
      <trkpt lat="42.4686" lon="2.90209">
        <ele>538.6</ele>
        <time>2021-11-14T14:33:24Z</time>
      </trkpt>
      <trkpt lat="42.46862" lon="2.90215">
        <ele>538.9</ele>
        <time>2021-11-14T14:33:25Z</time>
      </trkpt>
      <trkpt lat="42.46864" lon="2.90219">
        <ele>539</ele>
        <time>2021-11-14T14:33:27Z</time>
      </trkpt>
      <trkpt lat="42.46865" lon="2.90223">
        <ele>539.2</ele>
        <time>2021-11-14T14:33:28Z</time>
      </trkpt>
      <trkpt lat="42.46867" lon="2.90228">
        <ele>539.4</ele>
        <time>2021-11-14T14:33:30Z</time>
      </trkpt>
      <trkpt lat="42.46869" lon="2.90232">
        <ele>539.6</ele>
        <time>2021-11-14T14:33:31Z</time>
      </trkpt>
      <trkpt lat="42.46872" lon="2.90237">
        <ele>539.9</ele>
        <time>2021-11-14T14:33:32Z</time>
      </trkpt>
      <trkpt lat="42.46873" lon="2.90239">
        <ele>539.9</ele>
        <time>2021-11-14T14:33:33Z</time>
      </trkpt>
      <trkpt lat="42.46876" lon="2.90244">
        <ele>540.2</ele>
        <time>2021-11-14T14:33:35Z</time>
      </trkpt>
      <trkpt lat="42.46877" lon="2.90245">
        <ele>540.3</ele>
        <time>2021-11-14T14:33:36Z</time>
      </trkpt>
      <trkpt lat="42.4688" lon="2.90248">
        <ele>540.5</ele>
        <time>2021-11-14T14:33:37Z</time>
      </trkpt>
      <trkpt lat="42.46883" lon="2.90252">
        <ele>540.7</ele>
        <time>2021-11-14T14:33:39Z</time>
      </trkpt>
      <trkpt lat="42.46885" lon="2.90254">
        <ele>540.8</ele>
        <time>2021-11-14T14:33:40Z</time>
      </trkpt>
      <trkpt lat="42.46889" lon="2.90256">
        <ele>541</ele>
        <time>2021-11-14T14:33:42Z</time>
      </trkpt>
      <trkpt lat="42.46892" lon="2.90259">
        <ele>541.2</ele>
        <time>2021-11-14T14:33:43Z</time>
      </trkpt>
      <trkpt lat="42.46896" lon="2.90262">
        <ele>541.5</ele>
        <time>2021-11-14T14:33:44Z</time>
      </trkpt>
      <trkpt lat="42.46899" lon="2.90264">
        <ele>541.6</ele>
        <time>2021-11-14T14:33:46Z</time>
      </trkpt>
      <trkpt lat="42.46902" lon="2.90266">
        <ele>541.8</ele>
        <time>2021-11-14T14:33:47Z</time>
      </trkpt>
      <trkpt lat="42.46906" lon="2.90268">
        <ele>542</ele>
        <time>2021-11-14T14:33:49Z</time>
      </trkpt>
      <trkpt lat="42.4691" lon="2.90269">
        <ele>542.2</ele>
        <time>2021-11-14T14:33:50Z</time>
      </trkpt>
      <trkpt lat="42.46914" lon="2.9027">
        <ele>542.4</ele>
        <time>2021-11-14T14:33:52Z</time>
      </trkpt>
      <trkpt lat="42.46916" lon="2.9027">
        <ele>542.5</ele>
        <time>2021-11-14T14:33:53Z</time>
      </trkpt>
      <trkpt lat="42.46921" lon="2.90269">
        <ele>542.8</ele>
        <time>2021-11-14T14:33:55Z</time>
      </trkpt>
      <trkpt lat="42.46925" lon="2.90269">
        <ele>543</ele>
        <time>2021-11-14T14:33:56Z</time>
      </trkpt>
      <trkpt lat="42.46928" lon="2.90267">
        <ele>543.1</ele>
        <time>2021-11-14T14:33:57Z</time>
      </trkpt>
      <trkpt lat="42.46931" lon="2.90266">
        <ele>543.3</ele>
        <time>2021-11-14T14:33:58Z</time>
      </trkpt>
      <trkpt lat="42.46935" lon="2.90264">
        <ele>543.5</ele>
        <time>2021-11-14T14:34:00Z</time>
      </trkpt>
      <trkpt lat="42.46938" lon="2.90263">
        <ele>543.7</ele>
        <time>2021-11-14T14:34:01Z</time>
      </trkpt>
      <trkpt lat="42.46942" lon="2.9026">
        <ele>543.9</ele>
        <time>2021-11-14T14:34:02Z</time>
      </trkpt>
      <trkpt lat="42.46945" lon="2.90257">
        <ele>544.1</ele>
        <time>2021-11-14T14:34:04Z</time>
      </trkpt>
      <trkpt lat="42.46948" lon="2.90255">
        <ele>544.2</ele>
        <time>2021-11-14T14:34:05Z</time>
      </trkpt>
      <trkpt lat="42.46951" lon="2.90254">
        <ele>544.4</ele>
        <time>2021-11-14T14:34:06Z</time>
      </trkpt>
      <trkpt lat="42.46955" lon="2.90251">
        <ele>544.6</ele>
        <time>2021-11-14T14:34:07Z</time>
      </trkpt>
      <trkpt lat="42.46959" lon="2.90248">
        <ele>544.8</ele>
        <time>2021-11-14T14:34:09Z</time>
      </trkpt>
      <trkpt lat="42.46962" lon="2.90246">
        <ele>544.9</ele>
        <time>2021-11-14T14:34:10Z</time>
      </trkpt>
      <trkpt lat="42.46965" lon="2.90244">
        <ele>545</ele>
        <time>2021-11-14T14:34:11Z</time>
      </trkpt>
      <trkpt lat="42.46968" lon="2.90241">
        <ele>545.2</ele>
        <time>2021-11-14T14:34:12Z</time>
      </trkpt>
      <trkpt lat="42.46971" lon="2.90236">
        <ele>545.4</ele>
        <time>2021-11-14T14:34:14Z</time>
      </trkpt>
      <trkpt lat="42.46975" lon="2.90233">
        <ele>545.5</ele>
        <time>2021-11-14T14:34:15Z</time>
      </trkpt>
      <trkpt lat="42.46977" lon="2.90231">
        <ele>545.6</ele>
        <time>2021-11-14T14:34:17Z</time>
      </trkpt>
      <trkpt lat="42.4698" lon="2.90228">
        <ele>545.8</ele>
        <time>2021-11-14T14:34:18Z</time>
      </trkpt>
      <trkpt lat="42.46982" lon="2.90226">
        <ele>545.9</ele>
        <time>2021-11-14T14:34:19Z</time>
      </trkpt>
      <trkpt lat="42.46986" lon="2.9022">
        <ele>546.1</ele>
        <time>2021-11-14T14:34:21Z</time>
      </trkpt>
      <trkpt lat="42.46989" lon="2.90215">
        <ele>546.2</ele>
        <time>2021-11-14T14:34:23Z</time>
      </trkpt>
      <trkpt lat="42.46991" lon="2.90212">
        <ele>546.4</ele>
        <time>2021-11-14T14:34:24Z</time>
      </trkpt>
      <trkpt lat="42.46995" lon="2.90208">
        <ele>546.6</ele>
        <time>2021-11-14T14:34:25Z</time>
      </trkpt>
      <trkpt lat="42.46997" lon="2.90205">
        <ele>546.7</ele>
        <time>2021-11-14T14:34:27Z</time>
      </trkpt>
      <trkpt lat="42.47" lon="2.90202">
        <ele>546.8</ele>
        <time>2021-11-14T14:34:28Z</time>
      </trkpt>
      <trkpt lat="42.47002" lon="2.90199">
        <ele>547</ele>
        <time>2021-11-14T14:34:29Z</time>
      </trkpt>
      <trkpt lat="42.47006" lon="2.90196">
        <ele>547.2</ele>
        <time>2021-11-14T14:34:30Z</time>
      </trkpt>
      <trkpt lat="42.47008" lon="2.90193">
        <ele>547.3</ele>
        <time>2021-11-14T14:34:31Z</time>
      </trkpt>
      <trkpt lat="42.47011" lon="2.9019">
        <ele>547.5</ele>
        <time>2021-11-14T14:34:32Z</time>
      </trkpt>
      <trkpt lat="42.47016" lon="2.90184">
        <ele>547.7</ele>
        <time>2021-11-14T14:34:34Z</time>
      </trkpt>
      <trkpt lat="42.47018" lon="2.90182">
        <ele>547.9</ele>
        <time>2021-11-14T14:34:35Z</time>
      </trkpt>
      <trkpt lat="42.47022" lon="2.90178">
        <ele>548.1</ele>
        <time>2021-11-14T14:34:36Z</time>
      </trkpt>
      <trkpt lat="42.47025" lon="2.90174">
        <ele>548.4</ele>
        <time>2021-11-14T14:34:38Z</time>
      </trkpt>
      <trkpt lat="42.47029" lon="2.90169">
        <ele>548.6</ele>
        <time>2021-11-14T14:34:40Z</time>
      </trkpt>
      <trkpt lat="42.47032" lon="2.90166">
        <ele>548.8</ele>
        <time>2021-11-14T14:34:41Z</time>
      </trkpt>
      <trkpt lat="42.47034" lon="2.90163">
        <ele>549</ele>
        <time>2021-11-14T14:34:42Z</time>
      </trkpt>
      <trkpt lat="42.47037" lon="2.9016">
        <ele>549.2</ele>
        <time>2021-11-14T14:34:43Z</time>
      </trkpt>
      <trkpt lat="42.4704" lon="2.90157">
        <ele>549.4</ele>
        <time>2021-11-14T14:34:45Z</time>
      </trkpt>
      <trkpt lat="42.47043" lon="2.90153">
        <ele>549.6</ele>
        <time>2021-11-14T14:34:46Z</time>
      </trkpt>
      <trkpt lat="42.47045" lon="2.9015">
        <ele>549.8</ele>
        <time>2021-11-14T14:34:47Z</time>
      </trkpt>
      <trkpt lat="42.47048" lon="2.90146">
        <ele>550.1</ele>
        <time>2021-11-14T14:34:48Z</time>
      </trkpt>
      <trkpt lat="42.4705" lon="2.90142">
        <ele>550.3</ele>
        <time>2021-11-14T14:34:50Z</time>
      </trkpt>
      <trkpt lat="42.47053" lon="2.90138">
        <ele>550.6</ele>
        <time>2021-11-14T14:34:51Z</time>
      </trkpt>
      <trkpt lat="42.47055" lon="2.90135">
        <ele>550.8</ele>
        <time>2021-11-14T14:34:52Z</time>
      </trkpt>
      <trkpt lat="42.47059" lon="2.90131">
        <ele>551.1</ele>
        <time>2021-11-14T14:34:54Z</time>
      </trkpt>
      <trkpt lat="42.47061" lon="2.90128">
        <ele>551.2</ele>
        <time>2021-11-14T14:34:55Z</time>
      </trkpt>
      <trkpt lat="42.47062" lon="2.90125">
        <ele>551.4</ele>
        <time>2021-11-14T14:34:56Z</time>
      </trkpt>
      <trkpt lat="42.47066" lon="2.9012">
        <ele>551.8</ele>
        <time>2021-11-14T14:34:58Z</time>
      </trkpt>
      <trkpt lat="42.4707" lon="2.90115">
        <ele>552.1</ele>
        <time>2021-11-14T14:35:00Z</time>
      </trkpt>
      <trkpt lat="42.47073" lon="2.90112">
        <ele>552.3</ele>
        <time>2021-11-14T14:35:01Z</time>
      </trkpt>
      <trkpt lat="42.47075" lon="2.90109">
        <ele>552.6</ele>
        <time>2021-11-14T14:35:02Z</time>
      </trkpt>
      <trkpt lat="42.47078" lon="2.90106">
        <ele>552.8</ele>
        <time>2021-11-14T14:35:04Z</time>
      </trkpt>
      <trkpt lat="42.47081" lon="2.90103">
        <ele>553</ele>
        <time>2021-11-14T14:35:05Z</time>
      </trkpt>
      <trkpt lat="42.47085" lon="2.901">
        <ele>553.3</ele>
        <time>2021-11-14T14:35:06Z</time>
      </trkpt>
      <trkpt lat="42.47089" lon="2.90099">
        <ele>553.5</ele>
        <time>2021-11-14T14:35:08Z</time>
      </trkpt>
      <trkpt lat="42.47093" lon="2.901">
        <ele>553.7</ele>
        <time>2021-11-14T14:35:09Z</time>
      </trkpt>
      <trkpt lat="42.47098" lon="2.90103">
        <ele>553.9</ele>
        <time>2021-11-14T14:35:11Z</time>
      </trkpt>
      <trkpt lat="42.47101" lon="2.90106">
        <ele>554.1</ele>
        <time>2021-11-14T14:35:12Z</time>
      </trkpt>
      <trkpt lat="42.47103" lon="2.9011">
        <ele>554.3</ele>
        <time>2021-11-14T14:35:13Z</time>
      </trkpt>
      <trkpt lat="42.47104" lon="2.90114">
        <ele>554.4</ele>
        <time>2021-11-14T14:35:14Z</time>
      </trkpt>
      <trkpt lat="42.47106" lon="2.9012">
        <ele>554.7</ele>
        <time>2021-11-14T14:35:16Z</time>
      </trkpt>
      <trkpt lat="42.47106" lon="2.90126">
        <ele>554.9</ele>
        <time>2021-11-14T14:35:17Z</time>
      </trkpt>
      <trkpt lat="42.47106" lon="2.90131">
        <ele>555.1</ele>
        <time>2021-11-14T14:35:18Z</time>
      </trkpt>
      <trkpt lat="42.47105" lon="2.90136">
        <ele>555.1</ele>
        <time>2021-11-14T14:35:19Z</time>
      </trkpt>
      <trkpt lat="42.47103" lon="2.90141">
        <ele>555.2</ele>
        <time>2021-11-14T14:35:20Z</time>
      </trkpt>
      <trkpt lat="42.471" lon="2.90146">
        <ele>555.3</ele>
        <time>2021-11-14T14:35:22Z</time>
      </trkpt>
      <trkpt lat="42.47097" lon="2.90152">
        <ele>555.4</ele>
        <time>2021-11-14T14:35:23Z</time>
      </trkpt>
      <trkpt lat="42.47095" lon="2.90156">
        <ele>555.5</ele>
        <time>2021-11-14T14:35:25Z</time>
      </trkpt>
      <trkpt lat="42.47092" lon="2.90161">
        <ele>555.6</ele>
        <time>2021-11-14T14:35:26Z</time>
      </trkpt>
      <trkpt lat="42.47087" lon="2.90168">
        <ele>555.7</ele>
        <time>2021-11-14T14:35:28Z</time>
      </trkpt>
      <trkpt lat="42.47085" lon="2.90172">
        <ele>555.8</ele>
        <time>2021-11-14T14:35:29Z</time>
      </trkpt>
      <trkpt lat="42.47081" lon="2.90179">
        <ele>555.9</ele>
        <time>2021-11-14T14:35:31Z</time>
      </trkpt>
      <trkpt lat="42.47079" lon="2.90183">
        <ele>556</ele>
        <time>2021-11-14T14:35:32Z</time>
      </trkpt>
      <trkpt lat="42.47076" lon="2.90188">
        <ele>556.1</ele>
        <time>2021-11-14T14:35:33Z</time>
      </trkpt>
      <trkpt lat="42.47072" lon="2.90195">
        <ele>556.2</ele>
        <time>2021-11-14T14:35:35Z</time>
      </trkpt>
      <trkpt lat="42.47068" lon="2.902">
        <ele>556.4</ele>
        <time>2021-11-14T14:35:36Z</time>
      </trkpt>
      <trkpt lat="42.47065" lon="2.90205">
        <ele>556.5</ele>
        <time>2021-11-14T14:35:38Z</time>
      </trkpt>
      <trkpt lat="42.47062" lon="2.9021">
        <ele>556.7</ele>
        <time>2021-11-14T14:35:39Z</time>
      </trkpt>
      <trkpt lat="42.47058" lon="2.90215">
        <ele>556.9</ele>
        <time>2021-11-14T14:35:41Z</time>
      </trkpt>
      <trkpt lat="42.47055" lon="2.9022">
        <ele>557.2</ele>
        <time>2021-11-14T14:35:42Z</time>
      </trkpt>
      <trkpt lat="42.47052" lon="2.90225">
        <ele>557.4</ele>
        <time>2021-11-14T14:35:44Z</time>
      </trkpt>
      <trkpt lat="42.47049" lon="2.90229">
        <ele>557.6</ele>
        <time>2021-11-14T14:35:45Z</time>
      </trkpt>
      <trkpt lat="42.47047" lon="2.90234">
        <ele>557.7</ele>
        <time>2021-11-14T14:35:46Z</time>
      </trkpt>
      <trkpt lat="42.47045" lon="2.90236">
        <ele>557.8</ele>
        <time>2021-11-14T14:35:47Z</time>
      </trkpt>
      <trkpt lat="42.47043" lon="2.90242">
        <ele>558</ele>
        <time>2021-11-14T14:35:49Z</time>
      </trkpt>
      <trkpt lat="42.47042" lon="2.90249">
        <ele>558.1</ele>
        <time>2021-11-14T14:35:50Z</time>
      </trkpt>
      <trkpt lat="42.4704" lon="2.90254">
        <ele>558.3</ele>
        <time>2021-11-14T14:35:51Z</time>
      </trkpt>
      <trkpt lat="42.47038" lon="2.9026">
        <ele>558.4</ele>
        <time>2021-11-14T14:35:53Z</time>
      </trkpt>
      <trkpt lat="42.47034" lon="2.90265">
        <ele>558.6</ele>
        <time>2021-11-14T14:35:54Z</time>
      </trkpt>
      <trkpt lat="42.47031" lon="2.90269">
        <ele>558.7</ele>
        <time>2021-11-14T14:35:55Z</time>
      </trkpt>
      <trkpt lat="42.47028" lon="2.90273">
        <ele>558.8</ele>
        <time>2021-11-14T14:35:56Z</time>
      </trkpt>
      <trkpt lat="42.47026" lon="2.90277">
        <ele>558.9</ele>
        <time>2021-11-14T14:35:57Z</time>
      </trkpt>
      <trkpt lat="42.47022" lon="2.90283">
        <ele>559.1</ele>
        <time>2021-11-14T14:35:59Z</time>
      </trkpt>
      <trkpt lat="42.47018" lon="2.90288">
        <ele>559.2</ele>
        <time>2021-11-14T14:36:00Z</time>
      </trkpt>
      <trkpt lat="42.47016" lon="2.90293">
        <ele>559.4</ele>
        <time>2021-11-14T14:36:01Z</time>
      </trkpt>
      <trkpt lat="42.47013" lon="2.90298">
        <ele>559.6</ele>
        <time>2021-11-14T14:36:03Z</time>
      </trkpt>
      <trkpt lat="42.4701" lon="2.90303">
        <ele>559.7</ele>
        <time>2021-11-14T14:36:04Z</time>
      </trkpt>
      <trkpt lat="42.47008" lon="2.90307">
        <ele>559.9</ele>
        <time>2021-11-14T14:36:05Z</time>
      </trkpt>
      <trkpt lat="42.47003" lon="2.90315">
        <ele>560.1</ele>
        <time>2021-11-14T14:36:07Z</time>
      </trkpt>
      <trkpt lat="42.47001" lon="2.9032">
        <ele>560.3</ele>
        <time>2021-11-14T14:36:08Z</time>
      </trkpt>
      <trkpt lat="42.46998" lon="2.90324">
        <ele>560.5</ele>
        <time>2021-11-14T14:36:09Z</time>
      </trkpt>
      <trkpt lat="42.46996" lon="2.90328">
        <ele>560.6</ele>
        <time>2021-11-14T14:36:10Z</time>
      </trkpt>
      <trkpt lat="42.46993" lon="2.90333">
        <ele>560.8</ele>
        <time>2021-11-14T14:36:11Z</time>
      </trkpt>
      <trkpt lat="42.46991" lon="2.90337">
        <ele>561</ele>
        <time>2021-11-14T14:36:12Z</time>
      </trkpt>
      <trkpt lat="42.46989" lon="2.90342">
        <ele>561.2</ele>
        <time>2021-11-14T14:36:14Z</time>
      </trkpt>
      <trkpt lat="42.46987" lon="2.90348">
        <ele>561.4</ele>
        <time>2021-11-14T14:36:15Z</time>
      </trkpt>
      <trkpt lat="42.46984" lon="2.90353">
        <ele>561.6</ele>
        <time>2021-11-14T14:36:16Z</time>
      </trkpt>
      <trkpt lat="42.4698" lon="2.90358">
        <ele>561.8</ele>
        <time>2021-11-14T14:36:18Z</time>
      </trkpt>
      <trkpt lat="42.46977" lon="2.90365">
        <ele>562.1</ele>
        <time>2021-11-14T14:36:20Z</time>
      </trkpt>
      <trkpt lat="42.46974" lon="2.90368">
        <ele>562.2</ele>
        <time>2021-11-14T14:36:21Z</time>
      </trkpt>
      <trkpt lat="42.46972" lon="2.90371">
        <ele>562.3</ele>
        <time>2021-11-14T14:36:22Z</time>
      </trkpt>
      <trkpt lat="42.46968" lon="2.90376">
        <ele>562.6</ele>
        <time>2021-11-14T14:36:23Z</time>
      </trkpt>
      <trkpt lat="42.46965" lon="2.9038">
        <ele>562.8</ele>
        <time>2021-11-14T14:36:24Z</time>
      </trkpt>
      <trkpt lat="42.46962" lon="2.90383">
        <ele>563</ele>
        <time>2021-11-14T14:36:26Z</time>
      </trkpt>
      <trkpt lat="42.46959" lon="2.90386">
        <ele>563.2</ele>
        <time>2021-11-14T14:36:27Z</time>
      </trkpt>
      <trkpt lat="42.46955" lon="2.9039">
        <ele>563.4</ele>
        <time>2021-11-14T14:36:28Z</time>
      </trkpt>
      <trkpt lat="42.46951" lon="2.90395">
        <ele>563.6</ele>
        <time>2021-11-14T14:36:30Z</time>
      </trkpt>
      <trkpt lat="42.46947" lon="2.90398">
        <ele>563.9</ele>
        <time>2021-11-14T14:36:32Z</time>
      </trkpt>
      <trkpt lat="42.46943" lon="2.904">
        <ele>564.1</ele>
        <time>2021-11-14T14:36:33Z</time>
      </trkpt>
      <trkpt lat="42.4694" lon="2.90402">
        <ele>564.2</ele>
        <time>2021-11-14T14:36:34Z</time>
      </trkpt>
      <trkpt lat="42.46937" lon="2.90405">
        <ele>564.4</ele>
        <time>2021-11-14T14:36:35Z</time>
      </trkpt>
      <trkpt lat="42.46934" lon="2.90408">
        <ele>564.6</ele>
        <time>2021-11-14T14:36:37Z</time>
      </trkpt>
      <trkpt lat="42.4693" lon="2.90411">
        <ele>564.8</ele>
        <time>2021-11-14T14:36:38Z</time>
      </trkpt>
      <trkpt lat="42.46925" lon="2.90415">
        <ele>565.2</ele>
        <time>2021-11-14T14:36:40Z</time>
      </trkpt>
      <trkpt lat="42.4692" lon="2.90418">
        <ele>565.4</ele>
        <time>2021-11-14T14:36:41Z</time>
      </trkpt>
      <trkpt lat="42.46917" lon="2.9042">
        <ele>565.6</ele>
        <time>2021-11-14T14:36:42Z</time>
      </trkpt>
      <trkpt lat="42.46912" lon="2.90423">
        <ele>565.9</ele>
        <time>2021-11-14T14:36:44Z</time>
      </trkpt>
      <trkpt lat="42.46909" lon="2.90426">
        <ele>566.1</ele>
        <time>2021-11-14T14:36:45Z</time>
      </trkpt>
      <trkpt lat="42.46906" lon="2.90429">
        <ele>566.4</ele>
        <time>2021-11-14T14:36:47Z</time>
      </trkpt>
      <trkpt lat="42.46902" lon="2.90431">
        <ele>566.6</ele>
        <time>2021-11-14T14:36:49Z</time>
      </trkpt>
      <trkpt lat="42.46898" lon="2.90433">
        <ele>566.9</ele>
        <time>2021-11-14T14:36:51Z</time>
      </trkpt>
      <trkpt lat="42.46895" lon="2.90435">
        <ele>567.1</ele>
        <time>2021-11-14T14:36:52Z</time>
      </trkpt>
      <trkpt lat="42.46892" lon="2.90437">
        <ele>567.3</ele>
        <time>2021-11-14T14:36:53Z</time>
      </trkpt>
      <trkpt lat="42.46889" lon="2.90439">
        <ele>567.5</ele>
        <time>2021-11-14T14:36:54Z</time>
      </trkpt>
      <trkpt lat="42.46886" lon="2.90441">
        <ele>567.7</ele>
        <time>2021-11-14T14:36:55Z</time>
      </trkpt>
      <trkpt lat="42.46883" lon="2.90444">
        <ele>568</ele>
        <time>2021-11-14T14:36:57Z</time>
      </trkpt>
      <trkpt lat="42.4688" lon="2.90447">
        <ele>568.2</ele>
        <time>2021-11-14T14:36:58Z</time>
      </trkpt>
      <trkpt lat="42.46877" lon="2.9045">
        <ele>568.4</ele>
        <time>2021-11-14T14:36:59Z</time>
      </trkpt>
      <trkpt lat="42.46875" lon="2.90453">
        <ele>568.6</ele>
        <time>2021-11-14T14:37:00Z</time>
      </trkpt>
      <trkpt lat="42.46872" lon="2.90457">
        <ele>568.9</ele>
        <time>2021-11-14T14:37:02Z</time>
      </trkpt>
      <trkpt lat="42.4687" lon="2.90463">
        <ele>569.2</ele>
        <time>2021-11-14T14:37:04Z</time>
      </trkpt>
      <trkpt lat="42.46869" lon="2.90466">
        <ele>569.4</ele>
        <time>2021-11-14T14:37:05Z</time>
      </trkpt>
      <trkpt lat="42.46867" lon="2.9047">
        <ele>569.6</ele>
        <time>2021-11-14T14:37:06Z</time>
      </trkpt>
      <trkpt lat="42.46866" lon="2.90475">
        <ele>569.9</ele>
        <time>2021-11-14T14:37:08Z</time>
      </trkpt>
      <trkpt lat="42.46866" lon="2.9048">
        <ele>570.2</ele>
        <time>2021-11-14T14:37:09Z</time>
      </trkpt>
      <trkpt lat="42.46865" lon="2.90481">
        <ele>570.3</ele>
        <time>2021-11-14T14:37:10Z</time>
      </trkpt>
      <trkpt lat="42.46865" lon="2.90487">
        <ele>570.6</ele>
        <time>2021-11-14T14:37:12Z</time>
      </trkpt>
      <trkpt lat="42.46866" lon="2.90492">
        <ele>571</ele>
        <time>2021-11-14T14:37:14Z</time>
      </trkpt>
      <trkpt lat="42.46866" lon="2.90496">
        <ele>571.2</ele>
        <time>2021-11-14T14:37:15Z</time>
      </trkpt>
      <trkpt lat="42.46867" lon="2.90501">
        <ele>571.5</ele>
        <time>2021-11-14T14:37:17Z</time>
      </trkpt>
      <trkpt lat="42.46867" lon="2.90504">
        <ele>571.7</ele>
        <time>2021-11-14T14:37:18Z</time>
      </trkpt>
      <trkpt lat="42.46867" lon="2.9051">
        <ele>572</ele>
        <time>2021-11-14T14:37:20Z</time>
      </trkpt>
      <trkpt lat="42.46867" lon="2.90514">
        <ele>572.3</ele>
        <time>2021-11-14T14:37:21Z</time>
      </trkpt>
      <trkpt lat="42.46868" lon="2.90518">
        <ele>572.5</ele>
        <time>2021-11-14T14:37:22Z</time>
      </trkpt>
      <trkpt lat="42.46868" lon="2.90523">
        <ele>572.8</ele>
        <time>2021-11-14T14:37:23Z</time>
      </trkpt>
      <trkpt lat="42.46868" lon="2.90525">
        <ele>573</ele>
        <time>2021-11-14T14:37:24Z</time>
      </trkpt>
      <trkpt lat="42.46868" lon="2.90532">
        <ele>573.4</ele>
        <time>2021-11-14T14:37:26Z</time>
      </trkpt>
      <trkpt lat="42.46868" lon="2.90534">
        <ele>573.6</ele>
        <time>2021-11-14T14:37:27Z</time>
      </trkpt>
      <trkpt lat="42.46868" lon="2.90537">
        <ele>573.7</ele>
        <time>2021-11-14T14:37:28Z</time>
      </trkpt>
      <trkpt lat="42.46866" lon="2.90542">
        <ele>574.1</ele>
        <time>2021-11-14T14:37:29Z</time>
      </trkpt>
      <trkpt lat="42.46865" lon="2.90547">
        <ele>574.4</ele>
        <time>2021-11-14T14:37:31Z</time>
      </trkpt>
      <trkpt lat="42.46863" lon="2.90552">
        <ele>574.8</ele>
        <time>2021-11-14T14:37:32Z</time>
      </trkpt>
      <trkpt lat="42.46862" lon="2.90554">
        <ele>574.9</ele>
        <time>2021-11-14T14:37:33Z</time>
      </trkpt>
      <trkpt lat="42.46861" lon="2.90557">
        <ele>575.2</ele>
        <time>2021-11-14T14:37:34Z</time>
      </trkpt>
      <trkpt lat="42.46859" lon="2.9056">
        <ele>575.4</ele>
        <time>2021-11-14T14:37:36Z</time>
      </trkpt>
      <trkpt lat="42.46858" lon="2.90565">
        <ele>575.7</ele>
        <time>2021-11-14T14:37:37Z</time>
      </trkpt>
      <trkpt lat="42.46857" lon="2.90566">
        <ele>575.9</ele>
        <time>2021-11-14T14:37:38Z</time>
      </trkpt>
      <trkpt lat="42.46856" lon="2.9057">
        <ele>576.1</ele>
        <time>2021-11-14T14:37:39Z</time>
      </trkpt>
      <trkpt lat="42.46854" lon="2.90574">
        <ele>576.4</ele>
        <time>2021-11-14T14:37:41Z</time>
      </trkpt>
      <trkpt lat="42.46852" lon="2.90578">
        <ele>576.7</ele>
        <time>2021-11-14T14:37:42Z</time>
      </trkpt>
      <trkpt lat="42.46851" lon="2.90583">
        <ele>576.9</ele>
        <time>2021-11-14T14:37:44Z</time>
      </trkpt>
      <trkpt lat="42.46849" lon="2.90586">
        <ele>577.2</ele>
        <time>2021-11-14T14:37:45Z</time>
      </trkpt>
      <trkpt lat="42.46848" lon="2.90591">
        <ele>577.5</ele>
        <time>2021-11-14T14:37:47Z</time>
      </trkpt>
      <trkpt lat="42.46847" lon="2.90594">
        <ele>577.7</ele>
        <time>2021-11-14T14:37:48Z</time>
      </trkpt>
      <trkpt lat="42.46846" lon="2.90598">
        <ele>577.9</ele>
        <time>2021-11-14T14:37:49Z</time>
      </trkpt>
      <trkpt lat="42.46845" lon="2.90602">
        <ele>578.2</ele>
        <time>2021-11-14T14:37:51Z</time>
      </trkpt>
      <trkpt lat="42.46844" lon="2.90606">
        <ele>578.4</ele>
        <time>2021-11-14T14:37:52Z</time>
      </trkpt>
      <trkpt lat="42.46843" lon="2.90609">
        <ele>578.6</ele>
        <time>2021-11-14T14:37:53Z</time>
      </trkpt>
      <trkpt lat="42.46841" lon="2.90613">
        <ele>578.9</ele>
        <time>2021-11-14T14:37:55Z</time>
      </trkpt>
      <trkpt lat="42.4684" lon="2.90619">
        <ele>579.2</ele>
        <time>2021-11-14T14:37:57Z</time>
      </trkpt>
      <trkpt lat="42.46837" lon="2.90624">
        <ele>579.6</ele>
        <time>2021-11-14T14:37:59Z</time>
      </trkpt>
      <trkpt lat="42.46835" lon="2.90629">
        <ele>579.9</ele>
        <time>2021-11-14T14:38:00Z</time>
      </trkpt>
      <trkpt lat="42.46835" lon="2.90631">
        <ele>580.1</ele>
        <time>2021-11-14T14:38:01Z</time>
      </trkpt>
      <trkpt lat="42.46834" lon="2.90633">
        <ele>580.2</ele>
        <time>2021-11-14T14:38:02Z</time>
      </trkpt>
      <trkpt lat="42.46833" lon="2.90637">
        <ele>580.4</ele>
        <time>2021-11-14T14:38:04Z</time>
      </trkpt>
      <trkpt lat="42.46832" lon="2.9064">
        <ele>580.7</ele>
        <time>2021-11-14T14:38:05Z</time>
      </trkpt>
      <trkpt lat="42.46829" lon="2.90644">
        <ele>581</ele>
        <time>2021-11-14T14:38:07Z</time>
      </trkpt>
      <trkpt lat="42.46828" lon="2.90648">
        <ele>581.3</ele>
        <time>2021-11-14T14:38:08Z</time>
      </trkpt>
      <trkpt lat="42.46827" lon="2.9065">
        <ele>581.4</ele>
        <time>2021-11-14T14:38:09Z</time>
      </trkpt>
      <trkpt lat="42.46825" lon="2.90654">
        <ele>581.6</ele>
        <time>2021-11-14T14:38:10Z</time>
      </trkpt>
      <trkpt lat="42.46824" lon="2.90656">
        <ele>581.7</ele>
        <time>2021-11-14T14:38:11Z</time>
      </trkpt>
      <trkpt lat="42.46823" lon="2.90659">
        <ele>582</ele>
        <time>2021-11-14T14:38:13Z</time>
      </trkpt>
      <trkpt lat="42.46822" lon="2.90662">
        <ele>582.1</ele>
        <time>2021-11-14T14:38:14Z</time>
      </trkpt>
      <trkpt lat="42.4682" lon="2.90666">
        <ele>582.4</ele>
        <time>2021-11-14T14:38:16Z</time>
      </trkpt>
      <trkpt lat="42.46819" lon="2.9067">
        <ele>582.7</ele>
        <time>2021-11-14T14:38:17Z</time>
      </trkpt>
      <trkpt lat="42.46818" lon="2.90672">
        <ele>582.8</ele>
        <time>2021-11-14T14:38:18Z</time>
      </trkpt>
      <trkpt lat="42.46817" lon="2.90675">
        <ele>582.9</ele>
        <time>2021-11-14T14:38:19Z</time>
      </trkpt>
      <trkpt lat="42.46816" lon="2.9068">
        <ele>583.2</ele>
        <time>2021-11-14T14:38:21Z</time>
      </trkpt>
      <trkpt lat="42.46814" lon="2.90682">
        <ele>583.4</ele>
        <time>2021-11-14T14:38:22Z</time>
      </trkpt>
      <trkpt lat="42.46811" lon="2.90685">
        <ele>583.6</ele>
        <time>2021-11-14T14:38:24Z</time>
      </trkpt>
      <trkpt lat="42.46808" lon="2.90689">
        <ele>583.9</ele>
        <time>2021-11-14T14:38:25Z</time>
      </trkpt>
      <trkpt lat="42.46807" lon="2.90689">
        <ele>584</ele>
        <time>2021-11-14T14:38:26Z</time>
      </trkpt>
      <trkpt lat="42.46804" lon="2.9069">
        <ele>584.2</ele>
        <time>2021-11-14T14:38:28Z</time>
      </trkpt>
      <trkpt lat="42.46803" lon="2.90691">
        <ele>584.3</ele>
        <time>2021-11-14T14:38:29Z</time>
      </trkpt>
      <trkpt lat="42.46801" lon="2.90691">
        <ele>584.5</ele>
        <time>2021-11-14T14:38:30Z</time>
      </trkpt>
      <trkpt lat="42.46797" lon="2.90692">
        <ele>584.7</ele>
        <time>2021-11-14T14:38:32Z</time>
      </trkpt>
      <trkpt lat="42.46795" lon="2.90693">
        <ele>584.9</ele>
        <time>2021-11-14T14:38:33Z</time>
      </trkpt>
      <trkpt lat="42.46791" lon="2.90695">
        <ele>585.3</ele>
        <time>2021-11-14T14:38:35Z</time>
      </trkpt>
      <trkpt lat="42.46788" lon="2.90697">
        <ele>585.5</ele>
        <time>2021-11-14T14:38:36Z</time>
      </trkpt>
      <trkpt lat="42.46785" lon="2.90698">
        <ele>585.8</ele>
        <time>2021-11-14T14:38:38Z</time>
      </trkpt>
      <trkpt lat="42.46782" lon="2.90701">
        <ele>586.1</ele>
        <time>2021-11-14T14:38:39Z</time>
      </trkpt>
      <trkpt lat="42.46779" lon="2.90704">
        <ele>586.4</ele>
        <time>2021-11-14T14:38:41Z</time>
      </trkpt>
      <trkpt lat="42.46778" lon="2.90705">
        <ele>586.6</ele>
        <time>2021-11-14T14:38:42Z</time>
      </trkpt>
      <trkpt lat="42.46776" lon="2.90706">
        <ele>586.7</ele>
        <time>2021-11-14T14:38:43Z</time>
      </trkpt>
      <trkpt lat="42.46775" lon="2.90708">
        <ele>586.9</ele>
        <time>2021-11-14T14:38:44Z</time>
      </trkpt>
      <trkpt lat="42.46772" lon="2.90711">
        <ele>587.2</ele>
        <time>2021-11-14T14:38:46Z</time>
      </trkpt>
      <trkpt lat="42.46769" lon="2.90714">
        <ele>587.5</ele>
        <time>2021-11-14T14:38:47Z</time>
      </trkpt>
      <trkpt lat="42.46768" lon="2.90715">
        <ele>587.7</ele>
        <time>2021-11-14T14:38:48Z</time>
      </trkpt>
      <trkpt lat="42.46764" lon="2.90718">
        <ele>588</ele>
        <time>2021-11-14T14:38:50Z</time>
      </trkpt>
      <trkpt lat="42.46763" lon="2.90718">
        <ele>588.1</ele>
        <time>2021-11-14T14:38:51Z</time>
      </trkpt>
      <trkpt lat="42.46761" lon="2.90719">
        <ele>588.3</ele>
        <time>2021-11-14T14:38:52Z</time>
      </trkpt>
      <trkpt lat="42.46759" lon="2.90719">
        <ele>588.5</ele>
        <time>2021-11-14T14:38:53Z</time>
      </trkpt>
      <trkpt lat="42.46756" lon="2.90718">
        <ele>588.7</ele>
        <time>2021-11-14T14:38:55Z</time>
      </trkpt>
      <trkpt lat="42.46753" lon="2.90716">
        <ele>589</ele>
        <time>2021-11-14T14:38:56Z</time>
      </trkpt>
      <trkpt lat="42.46752" lon="2.90715">
        <ele>589</ele>
        <time>2021-11-14T14:38:57Z</time>
      </trkpt>
      <trkpt lat="42.46748" lon="2.9071">
        <ele>589.4</ele>
        <time>2021-11-14T14:38:59Z</time>
      </trkpt>
      <trkpt lat="42.46747" lon="2.90708">
        <ele>589.5</ele>
        <time>2021-11-14T14:39:01Z</time>
      </trkpt>
      <trkpt lat="42.46746" lon="2.90705">
        <ele>589.6</ele>
        <time>2021-11-14T14:39:02Z</time>
      </trkpt>
      <trkpt lat="42.46744" lon="2.90703">
        <ele>589.8</ele>
        <time>2021-11-14T14:39:03Z</time>
      </trkpt>
      <trkpt lat="42.46743" lon="2.90698">
        <ele>590</ele>
        <time>2021-11-14T14:39:05Z</time>
      </trkpt>
      <trkpt lat="42.46741" lon="2.90694">
        <ele>590.2</ele>
        <time>2021-11-14T14:39:06Z</time>
      </trkpt>
      <trkpt lat="42.4674" lon="2.9069">
        <ele>590.4</ele>
        <time>2021-11-14T14:39:08Z</time>
      </trkpt>
      <trkpt lat="42.46736" lon="2.90685">
        <ele>590.6</ele>
        <time>2021-11-14T14:39:10Z</time>
      </trkpt>
      <trkpt lat="42.46733" lon="2.9068">
        <ele>590.9</ele>
        <time>2021-11-14T14:39:12Z</time>
      </trkpt>
      <trkpt lat="42.46729" lon="2.90676">
        <ele>591.3</ele>
        <time>2021-11-14T14:39:14Z</time>
      </trkpt>
      <trkpt lat="42.46724" lon="2.90673">
        <ele>591.6</ele>
        <time>2021-11-14T14:39:16Z</time>
      </trkpt>
      <trkpt lat="42.46721" lon="2.90672">
        <ele>591.8</ele>
        <time>2021-11-14T14:39:17Z</time>
      </trkpt>
      <trkpt lat="42.46717" lon="2.90671">
        <ele>592.1</ele>
        <time>2021-11-14T14:39:18Z</time>
      </trkpt>
      <trkpt lat="42.46714" lon="2.90669">
        <ele>592.4</ele>
        <time>2021-11-14T14:39:20Z</time>
      </trkpt>
      <trkpt lat="42.46711" lon="2.9067">
        <ele>592.6</ele>
        <time>2021-11-14T14:39:21Z</time>
      </trkpt>
      <trkpt lat="42.46709" lon="2.9067">
        <ele>592.7</ele>
        <time>2021-11-14T14:39:22Z</time>
      </trkpt>
      <trkpt lat="42.46707" lon="2.90671">
        <ele>592.9</ele>
        <time>2021-11-14T14:39:24Z</time>
      </trkpt>
      <trkpt lat="42.46705" lon="2.90673">
        <ele>593.1</ele>
        <time>2021-11-14T14:39:25Z</time>
      </trkpt>
      <trkpt lat="42.467" lon="2.90676">
        <ele>593.5</ele>
        <time>2021-11-14T14:39:27Z</time>
      </trkpt>
      <trkpt lat="42.46695" lon="2.90679">
        <ele>593.8</ele>
        <time>2021-11-14T14:39:29Z</time>
      </trkpt>
      <trkpt lat="42.46692" lon="2.90681">
        <ele>594.1</ele>
        <time>2021-11-14T14:39:30Z</time>
      </trkpt>
      <trkpt lat="42.46688" lon="2.90683">
        <ele>594.3</ele>
        <time>2021-11-14T14:39:32Z</time>
      </trkpt>
      <trkpt lat="42.46686" lon="2.90685">
        <ele>594.5</ele>
        <time>2021-11-14T14:39:33Z</time>
      </trkpt>
      <trkpt lat="42.46682" lon="2.90689">
        <ele>594.9</ele>
        <time>2021-11-14T14:39:35Z</time>
      </trkpt>
      <trkpt lat="42.46678" lon="2.90692">
        <ele>595.2</ele>
        <time>2021-11-14T14:39:37Z</time>
      </trkpt>
      <trkpt lat="42.46674" lon="2.90694">
        <ele>595.4</ele>
        <time>2021-11-14T14:39:38Z</time>
      </trkpt>
      <trkpt lat="42.46672" lon="2.90696">
        <ele>595.6</ele>
        <time>2021-11-14T14:39:39Z</time>
      </trkpt>
      <trkpt lat="42.46669" lon="2.90699">
        <ele>595.9</ele>
        <time>2021-11-14T14:39:41Z</time>
      </trkpt>
      <trkpt lat="42.46667" lon="2.90701">
        <ele>596.1</ele>
        <time>2021-11-14T14:39:42Z</time>
      </trkpt>
      <trkpt lat="42.46665" lon="2.90703">
        <ele>596.3</ele>
        <time>2021-11-14T14:39:43Z</time>
      </trkpt>
      <trkpt lat="42.46662" lon="2.90706">
        <ele>596.5</ele>
        <time>2021-11-14T14:39:45Z</time>
      </trkpt>
      <trkpt lat="42.46659" lon="2.90709">
        <ele>596.8</ele>
        <time>2021-11-14T14:39:46Z</time>
      </trkpt>
      <trkpt lat="42.46656" lon="2.90712">
        <ele>597.1</ele>
        <time>2021-11-14T14:39:47Z</time>
      </trkpt>
      <trkpt lat="42.46655" lon="2.90712">
        <ele>597.2</ele>
        <time>2021-11-14T14:39:48Z</time>
      </trkpt>
      <trkpt lat="42.46651" lon="2.90715">
        <ele>597.4</ele>
        <time>2021-11-14T14:39:49Z</time>
      </trkpt>
      <trkpt lat="42.4665" lon="2.90716">
        <ele>597.5</ele>
        <time>2021-11-14T14:39:50Z</time>
      </trkpt>
      <trkpt lat="42.46647" lon="2.90718">
        <ele>597.8</ele>
        <time>2021-11-14T14:39:51Z</time>
      </trkpt>
      <trkpt lat="42.46645" lon="2.9072">
        <ele>598</ele>
        <time>2021-11-14T14:39:52Z</time>
      </trkpt>
      <trkpt lat="42.46643" lon="2.90721">
        <ele>598.1</ele>
        <time>2021-11-14T14:39:54Z</time>
      </trkpt>
      <trkpt lat="42.4664" lon="2.90723">
        <ele>598.4</ele>
        <time>2021-11-14T14:39:55Z</time>
      </trkpt>
      <trkpt lat="42.46637" lon="2.90726">
        <ele>598.6</ele>
        <time>2021-11-14T14:39:56Z</time>
      </trkpt>
      <trkpt lat="42.46635" lon="2.90728">
        <ele>598.8</ele>
        <time>2021-11-14T14:39:57Z</time>
      </trkpt>
      <trkpt lat="42.46632" lon="2.9073">
        <ele>599.1</ele>
        <time>2021-11-14T14:39:59Z</time>
      </trkpt>
      <trkpt lat="42.4663" lon="2.90732">
        <ele>599.3</ele>
        <time>2021-11-14T14:40:00Z</time>
      </trkpt>
      <trkpt lat="42.46627" lon="2.90735">
        <ele>599.5</ele>
        <time>2021-11-14T14:40:01Z</time>
      </trkpt>
      <trkpt lat="42.46624" lon="2.90739">
        <ele>599.8</ele>
        <time>2021-11-14T14:40:03Z</time>
      </trkpt>
      <trkpt lat="42.46621" lon="2.90741">
        <ele>600.1</ele>
        <time>2021-11-14T14:40:04Z</time>
      </trkpt>
      <trkpt lat="42.46618" lon="2.90745">
        <ele>600.4</ele>
        <time>2021-11-14T14:40:05Z</time>
      </trkpt>
      <trkpt lat="42.46617" lon="2.90747">
        <ele>600.5</ele>
        <time>2021-11-14T14:40:06Z</time>
      </trkpt>
      <trkpt lat="42.46614" lon="2.9075">
        <ele>600.8</ele>
        <time>2021-11-14T14:40:08Z</time>
      </trkpt>
      <trkpt lat="42.46611" lon="2.90753">
        <ele>601.1</ele>
        <time>2021-11-14T14:40:09Z</time>
      </trkpt>
      <trkpt lat="42.4661" lon="2.90754">
        <ele>601.2</ele>
        <time>2021-11-14T14:40:10Z</time>
      </trkpt>
      <trkpt lat="42.46607" lon="2.90758">
        <ele>601.5</ele>
        <time>2021-11-14T14:40:12Z</time>
      </trkpt>
      <trkpt lat="42.46605" lon="2.90761">
        <ele>601.7</ele>
        <time>2021-11-14T14:40:13Z</time>
      </trkpt>
      <trkpt lat="42.46603" lon="2.90766">
        <ele>602.1</ele>
        <time>2021-11-14T14:40:15Z</time>
      </trkpt>
      <trkpt lat="42.466" lon="2.90769">
        <ele>602.3</ele>
        <time>2021-11-14T14:40:16Z</time>
      </trkpt>
      <trkpt lat="42.46599" lon="2.90772">
        <ele>602.5</ele>
        <time>2021-11-14T14:40:17Z</time>
      </trkpt>
      <trkpt lat="42.46596" lon="2.90777">
        <ele>602.9</ele>
        <time>2021-11-14T14:40:19Z</time>
      </trkpt>
      <trkpt lat="42.46594" lon="2.90782">
        <ele>603.2</ele>
        <time>2021-11-14T14:40:20Z</time>
      </trkpt>
      <trkpt lat="42.46592" lon="2.90784">
        <ele>603.4</ele>
        <time>2021-11-14T14:40:21Z</time>
      </trkpt>
      <trkpt lat="42.46591" lon="2.90787">
        <ele>603.6</ele>
        <time>2021-11-14T14:40:23Z</time>
      </trkpt>
      <trkpt lat="42.46589" lon="2.9079">
        <ele>603.8</ele>
        <time>2021-11-14T14:40:24Z</time>
      </trkpt>
      <trkpt lat="42.46587" lon="2.90794">
        <ele>604.1</ele>
        <time>2021-11-14T14:40:25Z</time>
      </trkpt>
      <trkpt lat="42.46585" lon="2.90798">
        <ele>604.3</ele>
        <time>2021-11-14T14:40:27Z</time>
      </trkpt>
      <trkpt lat="42.46583" lon="2.90802">
        <ele>604.6</ele>
        <time>2021-11-14T14:40:28Z</time>
      </trkpt>
      <trkpt lat="42.46582" lon="2.90806">
        <ele>604.9</ele>
        <time>2021-11-14T14:40:30Z</time>
      </trkpt>
      <trkpt lat="42.4658" lon="2.9081">
        <ele>605.2</ele>
        <time>2021-11-14T14:40:31Z</time>
      </trkpt>
      <trkpt lat="42.46578" lon="2.90815">
        <ele>605.5</ele>
        <time>2021-11-14T14:40:33Z</time>
      </trkpt>
      <trkpt lat="42.46577" lon="2.90818">
        <ele>605.7</ele>
        <time>2021-11-14T14:40:34Z</time>
      </trkpt>
      <trkpt lat="42.46576" lon="2.90823">
        <ele>606</ele>
        <time>2021-11-14T14:40:35Z</time>
      </trkpt>
      <trkpt lat="42.46575" lon="2.90824">
        <ele>606.1</ele>
        <time>2021-11-14T14:40:36Z</time>
      </trkpt>
      <trkpt lat="42.46574" lon="2.90829">
        <ele>606.4</ele>
        <time>2021-11-14T14:40:38Z</time>
      </trkpt>
      <trkpt lat="42.46573" lon="2.90833">
        <ele>606.6</ele>
        <time>2021-11-14T14:40:39Z</time>
      </trkpt>
      <trkpt lat="42.46572" lon="2.90837">
        <ele>606.9</ele>
        <time>2021-11-14T14:40:40Z</time>
      </trkpt>
      <trkpt lat="42.46571" lon="2.9084">
        <ele>607.1</ele>
        <time>2021-11-14T14:40:41Z</time>
      </trkpt>
      <trkpt lat="42.4657" lon="2.90846">
        <ele>607.5</ele>
        <time>2021-11-14T14:40:43Z</time>
      </trkpt>
      <trkpt lat="42.4657" lon="2.90848">
        <ele>607.6</ele>
        <time>2021-11-14T14:40:44Z</time>
      </trkpt>
      <trkpt lat="42.46568" lon="2.90853">
        <ele>607.9</ele>
        <time>2021-11-14T14:40:45Z</time>
      </trkpt>
      <trkpt lat="42.46568" lon="2.90855">
        <ele>608</ele>
        <time>2021-11-14T14:40:46Z</time>
      </trkpt>
      <trkpt lat="42.46567" lon="2.90858">
        <ele>608.2</ele>
        <time>2021-11-14T14:40:47Z</time>
      </trkpt>
      <trkpt lat="42.46567" lon="2.90862">
        <ele>608.5</ele>
        <time>2021-11-14T14:40:49Z</time>
      </trkpt>
      <trkpt lat="42.46566" lon="2.90867">
        <ele>608.7</ele>
        <time>2021-11-14T14:40:50Z</time>
      </trkpt>
      <trkpt lat="42.46566" lon="2.9087">
        <ele>608.9</ele>
        <time>2021-11-14T14:40:51Z</time>
      </trkpt>
      <trkpt lat="42.46565" lon="2.90874">
        <ele>609.1</ele>
        <time>2021-11-14T14:40:53Z</time>
      </trkpt>
      <trkpt lat="42.46565" lon="2.90878">
        <ele>609.3</ele>
        <time>2021-11-14T14:40:54Z</time>
      </trkpt>
      <trkpt lat="42.46565" lon="2.90885">
        <ele>609.6</ele>
        <time>2021-11-14T14:40:56Z</time>
      </trkpt>
      <trkpt lat="42.46566" lon="2.90887">
        <ele>609.8</ele>
        <time>2021-11-14T14:40:57Z</time>
      </trkpt>
      <trkpt lat="42.46567" lon="2.90889">
        <ele>609.9</ele>
        <time>2021-11-14T14:40:58Z</time>
      </trkpt>
      <trkpt lat="42.4657" lon="2.90893">
        <ele>610.1</ele>
        <time>2021-11-14T14:40:59Z</time>
      </trkpt>
      <trkpt lat="42.46571" lon="2.90895">
        <ele>610.2</ele>
        <time>2021-11-14T14:41:00Z</time>
      </trkpt>
      <trkpt lat="42.46574" lon="2.90898">
        <ele>610.5</ele>
        <time>2021-11-14T14:41:02Z</time>
      </trkpt>
      <trkpt lat="42.46577" lon="2.90901">
        <ele>610.7</ele>
        <time>2021-11-14T14:41:03Z</time>
      </trkpt>
      <trkpt lat="42.46579" lon="2.90903">
        <ele>610.9</ele>
        <time>2021-11-14T14:41:04Z</time>
      </trkpt>
      <trkpt lat="42.46581" lon="2.90906">
        <ele>611.1</ele>
        <time>2021-11-14T14:41:06Z</time>
      </trkpt>
      <trkpt lat="42.46584" lon="2.90908">
        <ele>611.3</ele>
        <time>2021-11-14T14:41:07Z</time>
      </trkpt>
      <trkpt lat="42.46588" lon="2.90912">
        <ele>611.6</ele>
        <time>2021-11-14T14:41:09Z</time>
      </trkpt>
      <trkpt lat="42.46592" lon="2.90914">
        <ele>611.9</ele>
        <time>2021-11-14T14:41:11Z</time>
      </trkpt>
      <trkpt lat="42.46595" lon="2.90916">
        <ele>612.1</ele>
        <time>2021-11-14T14:41:12Z</time>
      </trkpt>
      <trkpt lat="42.46596" lon="2.90916">
        <ele>612.2</ele>
        <time>2021-11-14T14:41:13Z</time>
      </trkpt>
      <trkpt lat="42.466" lon="2.90919">
        <ele>612.5</ele>
        <time>2021-11-14T14:41:15Z</time>
      </trkpt>
      <trkpt lat="42.46603" lon="2.90923">
        <ele>612.7</ele>
        <time>2021-11-14T14:41:17Z</time>
      </trkpt>
      <trkpt lat="42.46607" lon="2.90927">
        <ele>613.1</ele>
        <time>2021-11-14T14:41:19Z</time>
      </trkpt>
      <trkpt lat="42.46609" lon="2.90929">
        <ele>613.2</ele>
        <time>2021-11-14T14:41:20Z</time>
      </trkpt>
      <trkpt lat="42.46612" lon="2.90931">
        <ele>613.5</ele>
        <time>2021-11-14T14:41:22Z</time>
      </trkpt>
      <trkpt lat="42.46616" lon="2.90931">
        <ele>613.8</ele>
        <time>2021-11-14T14:41:23Z</time>
      </trkpt>
      <trkpt lat="42.46617" lon="2.9093">
        <ele>613.9</ele>
        <time>2021-11-14T14:41:24Z</time>
      </trkpt>
      <trkpt lat="42.4662" lon="2.90928">
        <ele>614.6</ele>
        <time>2021-11-14T14:41:25Z</time>
      </trkpt>
      <trkpt lat="42.46623" lon="2.90924">
        <ele>614.8</ele>
        <time>2021-11-14T14:41:26Z</time>
      </trkpt>
      <trkpt lat="42.46625" lon="2.9092">
        <ele>615</ele>
        <time>2021-11-14T14:41:28Z</time>
      </trkpt>
      <trkpt lat="42.46626" lon="2.90916">
        <ele>615.2</ele>
        <time>2021-11-14T14:41:29Z</time>
      </trkpt>
      <trkpt lat="42.46626" lon="2.90912">
        <ele>615.3</ele>
        <time>2021-11-14T14:41:30Z</time>
      </trkpt>
      <trkpt lat="42.46627" lon="2.90905">
        <ele>615.6</ele>
        <time>2021-11-14T14:41:32Z</time>
      </trkpt>
      <trkpt lat="42.46628" lon="2.909">
        <ele>615.8</ele>
        <time>2021-11-14T14:41:33Z</time>
      </trkpt>
      <trkpt lat="42.46628" lon="2.90897">
        <ele>616</ele>
        <time>2021-11-14T14:41:34Z</time>
      </trkpt>
      <trkpt lat="42.46629" lon="2.90893">
        <ele>616.1</ele>
        <time>2021-11-14T14:41:35Z</time>
      </trkpt>
      <trkpt lat="42.46629" lon="2.90889">
        <ele>616.3</ele>
        <time>2021-11-14T14:41:37Z</time>
      </trkpt>
      <trkpt lat="42.4663" lon="2.90885">
        <ele>616.5</ele>
        <time>2021-11-14T14:41:38Z</time>
      </trkpt>
      <trkpt lat="42.4663" lon="2.90884">
        <ele>616.6</ele>
        <time>2021-11-14T14:41:39Z</time>
      </trkpt>
      <trkpt lat="42.4663" lon="2.90879">
        <ele>616.8</ele>
        <time>2021-11-14T14:41:40Z</time>
      </trkpt>
      <trkpt lat="42.4663" lon="2.90877">
        <ele>616.8</ele>
        <time>2021-11-14T14:41:41Z</time>
      </trkpt>
      <trkpt lat="42.46631" lon="2.90873">
        <ele>617</ele>
        <time>2021-11-14T14:41:42Z</time>
      </trkpt>
      <trkpt lat="42.46631" lon="2.90871">
        <ele>617.1</ele>
        <time>2021-11-14T14:41:43Z</time>
      </trkpt>
      <trkpt lat="42.46633" lon="2.90866">
        <ele>617.4</ele>
        <time>2021-11-14T14:41:45Z</time>
      </trkpt>
      <trkpt lat="42.46633" lon="2.90864">
        <ele>617.4</ele>
        <time>2021-11-14T14:41:46Z</time>
      </trkpt>
      <trkpt lat="42.46634" lon="2.90862">
        <ele>617.5</ele>
        <time>2021-11-14T14:41:47Z</time>
      </trkpt>
      <trkpt lat="42.46635" lon="2.90858">
        <ele>617.7</ele>
        <time>2021-11-14T14:41:48Z</time>
      </trkpt>
      <trkpt lat="42.46636" lon="2.90856">
        <ele>617.8</ele>
        <time>2021-11-14T14:41:49Z</time>
      </trkpt>
      <trkpt lat="42.46638" lon="2.90853">
        <ele>618</ele>
        <time>2021-11-14T14:41:51Z</time>
      </trkpt>
      <trkpt lat="42.46638" lon="2.90852">
        <ele>618.1</ele>
        <time>2021-11-14T14:41:52Z</time>
      </trkpt>
      <trkpt lat="42.4664" lon="2.90848">
        <ele>618.3</ele>
        <time>2021-11-14T14:41:53Z</time>
      </trkpt>
      <trkpt lat="42.46641" lon="2.90847">
        <ele>618.3</ele>
        <time>2021-11-14T14:41:54Z</time>
      </trkpt>
      <trkpt lat="42.46644" lon="2.90845">
        <ele>618.5</ele>
        <time>2021-11-14T14:41:55Z</time>
      </trkpt>
      <trkpt lat="42.46648" lon="2.90843">
        <ele>618.8</ele>
        <time>2021-11-14T14:41:57Z</time>
      </trkpt>
      <trkpt lat="42.46649" lon="2.90842">
        <ele>618.9</ele>
        <time>2021-11-14T14:41:58Z</time>
      </trkpt>
      <trkpt lat="42.4665" lon="2.90841">
        <ele>619</ele>
        <time>2021-11-14T14:41:59Z</time>
      </trkpt>
      <trkpt lat="42.46654" lon="2.90839">
        <ele>619.3</ele>
        <time>2021-11-14T14:42:01Z</time>
      </trkpt>
      <trkpt lat="42.46657" lon="2.90838">
        <ele>619.4</ele>
        <time>2021-11-14T14:42:02Z</time>
      </trkpt>
      <trkpt lat="42.46661" lon="2.90837">
        <ele>619.7</ele>
        <time>2021-11-14T14:42:04Z</time>
      </trkpt>
      <trkpt lat="42.46666" lon="2.90836">
        <ele>620</ele>
        <time>2021-11-14T14:42:06Z</time>
      </trkpt>
      <trkpt lat="42.4667" lon="2.90836">
        <ele>620.2</ele>
        <time>2021-11-14T14:42:08Z</time>
      </trkpt>
      <trkpt lat="42.46673" lon="2.90836">
        <ele>620.3</ele>
        <time>2021-11-14T14:42:09Z</time>
      </trkpt>
      <trkpt lat="42.46677" lon="2.90836">
        <ele>620.5</ele>
        <time>2021-11-14T14:42:11Z</time>
      </trkpt>
      <trkpt lat="42.4668" lon="2.90836">
        <ele>620.7</ele>
        <time>2021-11-14T14:42:12Z</time>
      </trkpt>
      <trkpt lat="42.46684" lon="2.90836">
        <ele>621</ele>
        <time>2021-11-14T14:42:14Z</time>
      </trkpt>
      <trkpt lat="42.46687" lon="2.90836">
        <ele>621.1</ele>
        <time>2021-11-14T14:42:15Z</time>
      </trkpt>
      <trkpt lat="42.46691" lon="2.90837">
        <ele>621.3</ele>
        <time>2021-11-14T14:42:16Z</time>
      </trkpt>
      <trkpt lat="42.46694" lon="2.90838">
        <ele>621.5</ele>
        <time>2021-11-14T14:42:18Z</time>
      </trkpt>
      <trkpt lat="42.46698" lon="2.90838">
        <ele>621.7</ele>
        <time>2021-11-14T14:42:19Z</time>
      </trkpt>
      <trkpt lat="42.46701" lon="2.90839">
        <ele>621.9</ele>
        <time>2021-11-14T14:42:21Z</time>
      </trkpt>
      <trkpt lat="42.46703" lon="2.90839">
        <ele>622</ele>
        <time>2021-11-14T14:42:22Z</time>
      </trkpt>
      <trkpt lat="42.46706" lon="2.90839">
        <ele>622.2</ele>
        <time>2021-11-14T14:42:23Z</time>
      </trkpt>
      <trkpt lat="42.46707" lon="2.90839">
        <ele>622.2</ele>
        <time>2021-11-14T14:42:24Z</time>
      </trkpt>
      <trkpt lat="42.4671" lon="2.9084">
        <ele>622.4</ele>
        <time>2021-11-14T14:42:25Z</time>
      </trkpt>
      <trkpt lat="42.46713" lon="2.9084">
        <ele>622.5</ele>
        <time>2021-11-14T14:42:27Z</time>
      </trkpt>
      <trkpt lat="42.46717" lon="2.9084">
        <ele>622.8</ele>
        <time>2021-11-14T14:42:29Z</time>
      </trkpt>
      <trkpt lat="42.4672" lon="2.90841">
        <ele>623</ele>
        <time>2021-11-14T14:42:30Z</time>
      </trkpt>
      <trkpt lat="42.46724" lon="2.90841">
        <ele>623.2</ele>
        <time>2021-11-14T14:42:32Z</time>
      </trkpt>
      <trkpt lat="42.46728" lon="2.90841">
        <ele>623.4</ele>
        <time>2021-11-14T14:42:33Z</time>
      </trkpt>
      <trkpt lat="42.46729" lon="2.90841">
        <ele>623.5</ele>
        <time>2021-11-14T14:42:34Z</time>
      </trkpt>
      <trkpt lat="42.46733" lon="2.90841">
        <ele>623.6</ele>
        <time>2021-11-14T14:42:36Z</time>
      </trkpt>
      <trkpt lat="42.46736" lon="2.90842">
        <ele>623.8</ele>
        <time>2021-11-14T14:42:37Z</time>
      </trkpt>
      <trkpt lat="42.4674" lon="2.90842">
        <ele>624.1</ele>
        <time>2021-11-14T14:42:39Z</time>
      </trkpt>
      <trkpt lat="42.46743" lon="2.90841">
        <ele>624.3</ele>
        <time>2021-11-14T14:42:40Z</time>
      </trkpt>
      <trkpt lat="42.46744" lon="2.90841">
        <ele>624.4</ele>
        <time>2021-11-14T14:42:41Z</time>
      </trkpt>
      <trkpt lat="42.46748" lon="2.9084">
        <ele>624.6</ele>
        <time>2021-11-14T14:42:43Z</time>
      </trkpt>
      <trkpt lat="42.4675" lon="2.9084">
        <ele>624.8</ele>
        <time>2021-11-14T14:42:44Z</time>
      </trkpt>
      <trkpt lat="42.46754" lon="2.90841">
        <ele>625.1</ele>
        <time>2021-11-14T14:42:45Z</time>
      </trkpt>
      <trkpt lat="42.46758" lon="2.90841">
        <ele>625.4</ele>
        <time>2021-11-14T14:42:47Z</time>
      </trkpt>
      <trkpt lat="42.46759" lon="2.90842">
        <ele>625.5</ele>
        <time>2021-11-14T14:42:48Z</time>
      </trkpt>
      <trkpt lat="42.46761" lon="2.90841">
        <ele>625.6</ele>
        <time>2021-11-14T14:42:49Z</time>
      </trkpt>
      <trkpt lat="42.46765" lon="2.90842">
        <ele>625.9</ele>
        <time>2021-11-14T14:42:51Z</time>
      </trkpt>
      <trkpt lat="42.46769" lon="2.90841">
        <ele>626.2</ele>
        <time>2021-11-14T14:42:52Z</time>
      </trkpt>
      <trkpt lat="42.46771" lon="2.90841">
        <ele>626.3</ele>
        <time>2021-11-14T14:42:53Z</time>
      </trkpt>
      <trkpt lat="42.46773" lon="2.9084">
        <ele>626.5</ele>
        <time>2021-11-14T14:42:54Z</time>
      </trkpt>
      <trkpt lat="42.46776" lon="2.90839">
        <ele>626.8</ele>
        <time>2021-11-14T14:42:56Z</time>
      </trkpt>
      <trkpt lat="42.46779" lon="2.90838">
        <ele>627</ele>
        <time>2021-11-14T14:42:57Z</time>
      </trkpt>
      <trkpt lat="42.4678" lon="2.90838">
        <ele>627.1</ele>
        <time>2021-11-14T14:42:58Z</time>
      </trkpt>
      <trkpt lat="42.46782" lon="2.90837">
        <ele>627.3</ele>
        <time>2021-11-14T14:42:59Z</time>
      </trkpt>
      <trkpt lat="42.46786" lon="2.90836">
        <ele>627.6</ele>
        <time>2021-11-14T14:43:01Z</time>
      </trkpt>
      <trkpt lat="42.46788" lon="2.90836">
        <ele>627.8</ele>
        <time>2021-11-14T14:43:02Z</time>
      </trkpt>
      <trkpt lat="42.46792" lon="2.90835">
        <ele>628.1</ele>
        <time>2021-11-14T14:43:04Z</time>
      </trkpt>
      <trkpt lat="42.46795" lon="2.90834">
        <ele>628.4</ele>
        <time>2021-11-14T14:43:05Z</time>
      </trkpt>
      <trkpt lat="42.46798" lon="2.90833">
        <ele>628.7</ele>
        <time>2021-11-14T14:43:06Z</time>
      </trkpt>
      <trkpt lat="42.46799" lon="2.90832">
        <ele>628.8</ele>
        <time>2021-11-14T14:43:07Z</time>
      </trkpt>
      <trkpt lat="42.46802" lon="2.90831">
        <ele>629</ele>
        <time>2021-11-14T14:43:08Z</time>
      </trkpt>
      <trkpt lat="42.46806" lon="2.90831">
        <ele>629.3</ele>
        <time>2021-11-14T14:43:10Z</time>
      </trkpt>
      <trkpt lat="42.46809" lon="2.9083">
        <ele>629.6</ele>
        <time>2021-11-14T14:43:12Z</time>
      </trkpt>
      <trkpt lat="42.46813" lon="2.9083">
        <ele>629.9</ele>
        <time>2021-11-14T14:43:13Z</time>
      </trkpt>
      <trkpt lat="42.46814" lon="2.9083">
        <ele>630</ele>
        <time>2021-11-14T14:43:14Z</time>
      </trkpt>
      <trkpt lat="42.46817" lon="2.9083">
        <ele>630.3</ele>
        <time>2021-11-14T14:43:15Z</time>
      </trkpt>
      <trkpt lat="42.46819" lon="2.9083">
        <ele>630.5</ele>
        <time>2021-11-14T14:43:16Z</time>
      </trkpt>
      <trkpt lat="42.46822" lon="2.9083">
        <ele>630.8</ele>
        <time>2021-11-14T14:43:18Z</time>
      </trkpt>
      <trkpt lat="42.46825" lon="2.90831">
        <ele>631</ele>
        <time>2021-11-14T14:43:19Z</time>
      </trkpt>
      <trkpt lat="42.46828" lon="2.90831">
        <ele>631.2</ele>
        <time>2021-11-14T14:43:20Z</time>
      </trkpt>
      <trkpt lat="42.46831" lon="2.90831">
        <ele>631.5</ele>
        <time>2021-11-14T14:43:22Z</time>
      </trkpt>
      <trkpt lat="42.46833" lon="2.90831">
        <ele>631.7</ele>
        <time>2021-11-14T14:43:23Z</time>
      </trkpt>
      <trkpt lat="42.46836" lon="2.90831">
        <ele>632</ele>
        <time>2021-11-14T14:43:25Z</time>
      </trkpt>
      <trkpt lat="42.46839" lon="2.90831">
        <ele>632.2</ele>
        <time>2021-11-14T14:43:26Z</time>
      </trkpt>
      <trkpt lat="42.46843" lon="2.90829">
        <ele>632.6</ele>
        <time>2021-11-14T14:43:28Z</time>
      </trkpt>
      <trkpt lat="42.46847" lon="2.90828">
        <ele>633</ele>
        <time>2021-11-14T14:43:30Z</time>
      </trkpt>
      <trkpt lat="42.4685" lon="2.90827">
        <ele>633.2</ele>
        <time>2021-11-14T14:43:31Z</time>
      </trkpt>
      <trkpt lat="42.46855" lon="2.90825">
        <ele>633.6</ele>
        <time>2021-11-14T14:43:33Z</time>
      </trkpt>
      <trkpt lat="42.46856" lon="2.90824">
        <ele>633.7</ele>
        <time>2021-11-14T14:43:34Z</time>
      </trkpt>
      <trkpt lat="42.46857" lon="2.90823">
        <ele>633.9</ele>
        <time>2021-11-14T14:43:35Z</time>
      </trkpt>
      <trkpt lat="42.4686" lon="2.90821">
        <ele>634.2</ele>
        <time>2021-11-14T14:43:36Z</time>
      </trkpt>
      <trkpt lat="42.46864" lon="2.90817">
        <ele>634.6</ele>
        <time>2021-11-14T14:43:38Z</time>
      </trkpt>
      <trkpt lat="42.46866" lon="2.90815">
        <ele>634.7</ele>
        <time>2021-11-14T14:43:39Z</time>
      </trkpt>
      <trkpt lat="42.46867" lon="2.90814">
        <ele>634.9</ele>
        <time>2021-11-14T14:43:40Z</time>
      </trkpt>
      <trkpt lat="42.4687" lon="2.90812">
        <ele>635.1</ele>
        <time>2021-11-14T14:43:42Z</time>
      </trkpt>
      <trkpt lat="42.46872" lon="2.90809">
        <ele>635.3</ele>
        <time>2021-11-14T14:43:43Z</time>
      </trkpt>
      <trkpt lat="42.46874" lon="2.90808">
        <ele>635.5</ele>
        <time>2021-11-14T14:43:44Z</time>
      </trkpt>
      <trkpt lat="42.46877" lon="2.90804">
        <ele>635.8</ele>
        <time>2021-11-14T14:43:46Z</time>
      </trkpt>
      <trkpt lat="42.46879" lon="2.90801">
        <ele>636.1</ele>
        <time>2021-11-14T14:43:47Z</time>
      </trkpt>
      <trkpt lat="42.4688" lon="2.908">
        <ele>636.2</ele>
        <time>2021-11-14T14:43:48Z</time>
      </trkpt>
      <trkpt lat="42.46884" lon="2.90796">
        <ele>636.6</ele>
        <time>2021-11-14T14:43:50Z</time>
      </trkpt>
      <trkpt lat="42.46885" lon="2.90795">
        <ele>636.7</ele>
        <time>2021-11-14T14:43:51Z</time>
      </trkpt>
      <trkpt lat="42.46886" lon="2.90794">
        <ele>636.8</ele>
        <time>2021-11-14T14:43:52Z</time>
      </trkpt>
      <trkpt lat="42.46888" lon="2.90792">
        <ele>637</ele>
        <time>2021-11-14T14:43:53Z</time>
      </trkpt>
      <trkpt lat="42.46891" lon="2.90788">
        <ele>637.4</ele>
        <time>2021-11-14T14:43:55Z</time>
      </trkpt>
      <trkpt lat="42.46895" lon="2.90784">
        <ele>637.7</ele>
        <time>2021-11-14T14:43:57Z</time>
      </trkpt>
      <trkpt lat="42.46898" lon="2.9078">
        <ele>638.1</ele>
        <time>2021-11-14T14:43:59Z</time>
      </trkpt>
      <trkpt lat="42.469" lon="2.90778">
        <ele>638.3</ele>
        <time>2021-11-14T14:44:00Z</time>
      </trkpt>
      <trkpt lat="42.46903" lon="2.90775">
        <ele>638.6</ele>
        <time>2021-11-14T14:44:02Z</time>
      </trkpt>
      <trkpt lat="42.46905" lon="2.90773">
        <ele>638.8</ele>
        <time>2021-11-14T14:44:03Z</time>
      </trkpt>
      <trkpt lat="42.46906" lon="2.90772">
        <ele>638.9</ele>
        <time>2021-11-14T14:44:04Z</time>
      </trkpt>
      <trkpt lat="42.46908" lon="2.9077">
        <ele>639.1</ele>
        <time>2021-11-14T14:44:05Z</time>
      </trkpt>
      <trkpt lat="42.46911" lon="2.90766">
        <ele>639.4</ele>
        <time>2021-11-14T14:44:07Z</time>
      </trkpt>
      <trkpt lat="42.46913" lon="2.90764">
        <ele>639.7</ele>
        <time>2021-11-14T14:44:08Z</time>
      </trkpt>
      <trkpt lat="42.46914" lon="2.90763">
        <ele>639.8</ele>
        <time>2021-11-14T14:44:09Z</time>
      </trkpt>
      <trkpt lat="42.46918" lon="2.90759">
        <ele>640.2</ele>
        <time>2021-11-14T14:44:11Z</time>
      </trkpt>
      <trkpt lat="42.46919" lon="2.90757">
        <ele>640.4</ele>
        <time>2021-11-14T14:44:12Z</time>
      </trkpt>
      <trkpt lat="42.46921" lon="2.90756">
        <ele>640.5</ele>
        <time>2021-11-14T14:44:13Z</time>
      </trkpt>
      <trkpt lat="42.46923" lon="2.90753">
        <ele>640.8</ele>
        <time>2021-11-14T14:44:14Z</time>
      </trkpt>
      <trkpt lat="42.46924" lon="2.90751">
        <ele>640.9</ele>
        <time>2021-11-14T14:44:15Z</time>
      </trkpt>
      <trkpt lat="42.46927" lon="2.90749">
        <ele>641.2</ele>
        <time>2021-11-14T14:44:17Z</time>
      </trkpt>
      <trkpt lat="42.46929" lon="2.90746">
        <ele>641.4</ele>
        <time>2021-11-14T14:44:18Z</time>
      </trkpt>
      <trkpt lat="42.46931" lon="2.90745">
        <ele>641.6</ele>
        <time>2021-11-14T14:44:19Z</time>
      </trkpt>
      <trkpt lat="42.46934" lon="2.90741">
        <ele>641.9</ele>
        <time>2021-11-14T14:44:21Z</time>
      </trkpt>
      <trkpt lat="42.46935" lon="2.9074">
        <ele>642</ele>
        <time>2021-11-14T14:44:22Z</time>
      </trkpt>
      <trkpt lat="42.46936" lon="2.90738">
        <ele>642.2</ele>
        <time>2021-11-14T14:44:23Z</time>
      </trkpt>
      <trkpt lat="42.46938" lon="2.90735">
        <ele>642.4</ele>
        <time>2021-11-14T14:44:25Z</time>
      </trkpt>
      <trkpt lat="42.4694" lon="2.90733">
        <ele>642.7</ele>
        <time>2021-11-14T14:44:26Z</time>
      </trkpt>
      <trkpt lat="42.46943" lon="2.9073">
        <ele>642.9</ele>
        <time>2021-11-14T14:44:27Z</time>
      </trkpt>
      <trkpt lat="42.46944" lon="2.90729">
        <ele>643</ele>
        <time>2021-11-14T14:44:28Z</time>
      </trkpt>
      <trkpt lat="42.46947" lon="2.90725">
        <ele>643.4</ele>
        <time>2021-11-14T14:44:30Z</time>
      </trkpt>
      <trkpt lat="42.46949" lon="2.90722">
        <ele>643.6</ele>
        <time>2021-11-14T14:44:31Z</time>
      </trkpt>
      <trkpt lat="42.46951" lon="2.90719">
        <ele>643.9</ele>
        <time>2021-11-14T14:44:33Z</time>
      </trkpt>
      <trkpt lat="42.46952" lon="2.90717">
        <ele>644</ele>
        <time>2021-11-14T14:44:34Z</time>
      </trkpt>
      <trkpt lat="42.46955" lon="2.90714">
        <ele>644.3</ele>
        <time>2021-11-14T14:44:36Z</time>
      </trkpt>
      <trkpt lat="42.46958" lon="2.90711">
        <ele>644.6</ele>
        <time>2021-11-14T14:44:37Z</time>
      </trkpt>
      <trkpt lat="42.46959" lon="2.9071">
        <ele>644.7</ele>
        <time>2021-11-14T14:44:38Z</time>
      </trkpt>
      <trkpt lat="42.46961" lon="2.90707">
        <ele>644.9</ele>
        <time>2021-11-14T14:44:39Z</time>
      </trkpt>
      <trkpt lat="42.46964" lon="2.90704">
        <ele>645.2</ele>
        <time>2021-11-14T14:44:41Z</time>
      </trkpt>
      <trkpt lat="42.46966" lon="2.90703">
        <ele>645.4</ele>
        <time>2021-11-14T14:44:42Z</time>
      </trkpt>
      <trkpt lat="42.46967" lon="2.90701">
        <ele>645.5</ele>
        <time>2021-11-14T14:44:43Z</time>
      </trkpt>
      <trkpt lat="42.4697" lon="2.90699">
        <ele>645.7</ele>
        <time>2021-11-14T14:44:45Z</time>
      </trkpt>
      <trkpt lat="42.46973" lon="2.90698">
        <ele>645.9</ele>
        <time>2021-11-14T14:44:46Z</time>
      </trkpt>
      <trkpt lat="42.46977" lon="2.90698">
        <ele>646.2</ele>
        <time>2021-11-14T14:44:47Z</time>
      </trkpt>
      <trkpt lat="42.46979" lon="2.90697">
        <ele>646.4</ele>
        <time>2021-11-14T14:44:48Z</time>
      </trkpt>
      <trkpt lat="42.46984" lon="2.90698">
        <ele>646.6</ele>
        <time>2021-11-14T14:44:50Z</time>
      </trkpt>
      <trkpt lat="42.46985" lon="2.90699">
        <ele>646.7</ele>
        <time>2021-11-14T14:44:51Z</time>
      </trkpt>
      <trkpt lat="42.46989" lon="2.90703">
        <ele>647</ele>
        <time>2021-11-14T14:44:53Z</time>
      </trkpt>
      <trkpt lat="42.46991" lon="2.90707">
        <ele>647.2</ele>
        <time>2021-11-14T14:44:54Z</time>
      </trkpt>
      <trkpt lat="42.46992" lon="2.90711">
        <ele>647.4</ele>
        <time>2021-11-14T14:44:55Z</time>
      </trkpt>
      <trkpt lat="42.46993" lon="2.90715">
        <ele>647.5</ele>
        <time>2021-11-14T14:44:56Z</time>
      </trkpt>
      <trkpt lat="42.46993" lon="2.90721">
        <ele>647.7</ele>
        <time>2021-11-14T14:44:58Z</time>
      </trkpt>
      <trkpt lat="42.46992" lon="2.90727">
        <ele>647.8</ele>
        <time>2021-11-14T14:44:59Z</time>
      </trkpt>
      <trkpt lat="42.46991" lon="2.90732">
        <ele>647.9</ele>
        <time>2021-11-14T14:45:01Z</time>
      </trkpt>
      <trkpt lat="42.46989" lon="2.90737">
        <ele>648.1</ele>
        <time>2021-11-14T14:45:02Z</time>
      </trkpt>
      <trkpt lat="42.46987" lon="2.90743">
        <ele>648.2</ele>
        <time>2021-11-14T14:45:03Z</time>
      </trkpt>
      <trkpt lat="42.46985" lon="2.90749">
        <ele>648.3</ele>
        <time>2021-11-14T14:45:05Z</time>
      </trkpt>
      <trkpt lat="42.46982" lon="2.90757">
        <ele>648.5</ele>
        <time>2021-11-14T14:45:06Z</time>
      </trkpt>
      <trkpt lat="42.4698" lon="2.90763">
        <ele>648.6</ele>
        <time>2021-11-14T14:45:08Z</time>
      </trkpt>
      <trkpt lat="42.46977" lon="2.90769">
        <ele>648.8</ele>
        <time>2021-11-14T14:45:09Z</time>
      </trkpt>
      <trkpt lat="42.46976" lon="2.90774">
        <ele>648.9</ele>
        <time>2021-11-14T14:45:11Z</time>
      </trkpt>
      <trkpt lat="42.46974" lon="2.90779">
        <ele>649</ele>
        <time>2021-11-14T14:45:12Z</time>
      </trkpt>
      <trkpt lat="42.46972" lon="2.90783">
        <ele>649.1</ele>
        <time>2021-11-14T14:45:13Z</time>
      </trkpt>
      <trkpt lat="42.46971" lon="2.90787">
        <ele>649.2</ele>
        <time>2021-11-14T14:45:14Z</time>
      </trkpt>
      <trkpt lat="42.4697" lon="2.90791">
        <ele>649.4</ele>
        <time>2021-11-14T14:45:15Z</time>
      </trkpt>
      <trkpt lat="42.46968" lon="2.90797">
        <ele>649.6</ele>
        <time>2021-11-14T14:45:17Z</time>
      </trkpt>
      <trkpt lat="42.46966" lon="2.90802">
        <ele>649.7</ele>
        <time>2021-11-14T14:45:18Z</time>
      </trkpt>
      <trkpt lat="42.46962" lon="2.90809">
        <ele>650</ele>
        <time>2021-11-14T14:45:20Z</time>
      </trkpt>
      <trkpt lat="42.46961" lon="2.90812">
        <ele>650.1</ele>
        <time>2021-11-14T14:45:21Z</time>
      </trkpt>
      <trkpt lat="42.46959" lon="2.90815">
        <ele>650.2</ele>
        <time>2021-11-14T14:45:22Z</time>
      </trkpt>
      <trkpt lat="42.46955" lon="2.9082">
        <ele>650.5</ele>
        <time>2021-11-14T14:45:24Z</time>
      </trkpt>
      <trkpt lat="42.46952" lon="2.90824">
        <ele>650.6</ele>
        <time>2021-11-14T14:45:25Z</time>
      </trkpt>
      <trkpt lat="42.46949" lon="2.90827">
        <ele>650.8</ele>
        <time>2021-11-14T14:45:26Z</time>
      </trkpt>
      <trkpt lat="42.46946" lon="2.9083">
        <ele>651</ele>
        <time>2021-11-14T14:45:27Z</time>
      </trkpt>
      <trkpt lat="42.46943" lon="2.90833">
        <ele>651.1</ele>
        <time>2021-11-14T14:45:29Z</time>
      </trkpt>
      <trkpt lat="42.4694" lon="2.90835">
        <ele>651.3</ele>
        <time>2021-11-14T14:45:30Z</time>
      </trkpt>
      <trkpt lat="42.46937" lon="2.90838">
        <ele>651.4</ele>
        <time>2021-11-14T14:45:31Z</time>
      </trkpt>
      <trkpt lat="42.46934" lon="2.90841">
        <ele>651.6</ele>
        <time>2021-11-14T14:45:32Z</time>
      </trkpt>
      <trkpt lat="42.4693" lon="2.90844">
        <ele>651.8</ele>
        <time>2021-11-14T14:45:34Z</time>
      </trkpt>
      <trkpt lat="42.46927" lon="2.90847">
        <ele>651.9</ele>
        <time>2021-11-14T14:45:35Z</time>
      </trkpt>
      <trkpt lat="42.46924" lon="2.9085">
        <ele>652</ele>
        <time>2021-11-14T14:45:36Z</time>
      </trkpt>
      <trkpt lat="42.46919" lon="2.90855">
        <ele>652.3</ele>
        <time>2021-11-14T14:45:38Z</time>
      </trkpt>
      <trkpt lat="42.46916" lon="2.90857">
        <ele>652.4</ele>
        <time>2021-11-14T14:45:39Z</time>
      </trkpt>
      <trkpt lat="42.46911" lon="2.90862">
        <ele>652.8</ele>
        <time>2021-11-14T14:45:41Z</time>
      </trkpt>
      <trkpt lat="42.46908" lon="2.90865">
        <ele>653</ele>
        <time>2021-11-14T14:45:42Z</time>
      </trkpt>
      <trkpt lat="42.46903" lon="2.90869">
        <ele>653.3</ele>
        <time>2021-11-14T14:45:44Z</time>
      </trkpt>
      <trkpt lat="42.469" lon="2.90873">
        <ele>653.6</ele>
        <time>2021-11-14T14:45:45Z</time>
      </trkpt>
      <trkpt lat="42.46897" lon="2.90876">
        <ele>653.8</ele>
        <time>2021-11-14T14:45:46Z</time>
      </trkpt>
      <trkpt lat="42.46893" lon="2.9088">
        <ele>654.1</ele>
        <time>2021-11-14T14:45:47Z</time>
      </trkpt>
      <trkpt lat="42.4689" lon="2.90884">
        <ele>654.3</ele>
        <time>2021-11-14T14:45:49Z</time>
      </trkpt>
      <trkpt lat="42.46888" lon="2.90886">
        <ele>654.5</ele>
        <time>2021-11-14T14:45:50Z</time>
      </trkpt>
      <trkpt lat="42.46885" lon="2.90889">
        <ele>654.7</ele>
        <time>2021-11-14T14:45:51Z</time>
      </trkpt>
      <trkpt lat="42.46881" lon="2.90894">
        <ele>655.1</ele>
        <time>2021-11-14T14:45:53Z</time>
      </trkpt>
      <trkpt lat="42.46879" lon="2.90896">
        <ele>655.3</ele>
        <time>2021-11-14T14:45:54Z</time>
      </trkpt>
      <trkpt lat="42.46875" lon="2.90898">
        <ele>655.6</ele>
        <time>2021-11-14T14:45:55Z</time>
      </trkpt>
      <trkpt lat="42.46875" lon="2.90899">
        <ele>655.7</ele>
        <time>2021-11-14T14:45:56Z</time>
      </trkpt>
      <trkpt lat="42.46872" lon="2.909">
        <ele>655.9</ele>
        <time>2021-11-14T14:45:57Z</time>
      </trkpt>
      <trkpt lat="42.46869" lon="2.90903">
        <ele>656.2</ele>
        <time>2021-11-14T14:45:59Z</time>
      </trkpt>
      <trkpt lat="42.46867" lon="2.90904">
        <ele>656.3</ele>
        <time>2021-11-14T14:46:00Z</time>
      </trkpt>
      <trkpt lat="42.46865" lon="2.90909">
        <ele>656.6</ele>
        <time>2021-11-14T14:46:02Z</time>
      </trkpt>
      <trkpt lat="42.46863" lon="2.90912">
        <ele>656.8</ele>
        <time>2021-11-14T14:46:03Z</time>
      </trkpt>
      <trkpt lat="42.46862" lon="2.90915">
        <ele>657.1</ele>
        <time>2021-11-14T14:46:04Z</time>
      </trkpt>
      <trkpt lat="42.4686" lon="2.90919">
        <ele>657.4</ele>
        <time>2021-11-14T14:46:06Z</time>
      </trkpt>
      <trkpt lat="42.46857" lon="2.90922">
        <ele>657.7</ele>
        <time>2021-11-14T14:46:07Z</time>
      </trkpt>
      <trkpt lat="42.46854" lon="2.90927">
        <ele>658</ele>
        <time>2021-11-14T14:46:08Z</time>
      </trkpt>
      <trkpt lat="42.46853" lon="2.90929">
        <ele>658.2</ele>
        <time>2021-11-14T14:46:09Z</time>
      </trkpt>
      <trkpt lat="42.4685" lon="2.90933">
        <ele>658.6</ele>
        <time>2021-11-14T14:46:11Z</time>
      </trkpt>
      <trkpt lat="42.46848" lon="2.90936">
        <ele>658.8</ele>
        <time>2021-11-14T14:46:12Z</time>
      </trkpt>
      <trkpt lat="42.46845" lon="2.90939">
        <ele>659.2</ele>
        <time>2021-11-14T14:46:14Z</time>
      </trkpt>
      <trkpt lat="42.46843" lon="2.90941">
        <ele>659.4</ele>
        <time>2021-11-14T14:46:15Z</time>
      </trkpt>
      <trkpt lat="42.46841" lon="2.90944">
        <ele>659.7</ele>
        <time>2021-11-14T14:46:17Z</time>
      </trkpt>
      <trkpt lat="42.46839" lon="2.90948">
        <ele>660</ele>
        <time>2021-11-14T14:46:18Z</time>
      </trkpt>
      <trkpt lat="42.46838" lon="2.9095">
        <ele>660.2</ele>
        <time>2021-11-14T14:46:19Z</time>
      </trkpt>
      <trkpt lat="42.46836" lon="2.90954">
        <ele>660.5</ele>
        <time>2021-11-14T14:46:21Z</time>
      </trkpt>
      <trkpt lat="42.46834" lon="2.90959">
        <ele>660.9</ele>
        <time>2021-11-14T14:46:23Z</time>
      </trkpt>
      <trkpt lat="42.46832" lon="2.90964">
        <ele>661.3</ele>
        <time>2021-11-14T14:46:25Z</time>
      </trkpt>
      <trkpt lat="42.4683" lon="2.90967">
        <ele>661.6</ele>
        <time>2021-11-14T14:46:26Z</time>
      </trkpt>
      <trkpt lat="42.46827" lon="2.90973">
        <ele>662.1</ele>
        <time>2021-11-14T14:46:28Z</time>
      </trkpt>
      <trkpt lat="42.46826" lon="2.90976">
        <ele>662.3</ele>
        <time>2021-11-14T14:46:29Z</time>
      </trkpt>
      <trkpt lat="42.46824" lon="2.90982">
        <ele>662.8</ele>
        <time>2021-11-14T14:46:31Z</time>
      </trkpt>
      <trkpt lat="42.46823" lon="2.90988">
        <ele>663.2</ele>
        <time>2021-11-14T14:46:33Z</time>
      </trkpt>
      <trkpt lat="42.46822" lon="2.90993">
        <ele>663.5</ele>
        <time>2021-11-14T14:46:34Z</time>
      </trkpt>
      <trkpt lat="42.46822" lon="2.90994">
        <ele>663.6</ele>
        <time>2021-11-14T14:46:35Z</time>
      </trkpt>
      <trkpt lat="42.46821" lon="2.91">
        <ele>664</ele>
        <time>2021-11-14T14:46:36Z</time>
      </trkpt>
      <trkpt lat="42.46821" lon="2.91002">
        <ele>664.1</ele>
        <time>2021-11-14T14:46:37Z</time>
      </trkpt>
      <trkpt lat="42.4682" lon="2.91007">
        <ele>664.4</ele>
        <time>2021-11-14T14:46:39Z</time>
      </trkpt>
      <trkpt lat="42.4682" lon="2.91009">
        <ele>664.6</ele>
        <time>2021-11-14T14:46:40Z</time>
      </trkpt>
      <trkpt lat="42.46819" lon="2.91012">
        <ele>664.8</ele>
        <time>2021-11-14T14:46:41Z</time>
      </trkpt>
      <trkpt lat="42.46818" lon="2.91017">
        <ele>665.1</ele>
        <time>2021-11-14T14:46:43Z</time>
      </trkpt>
      <trkpt lat="42.46818" lon="2.91022">
        <ele>665.5</ele>
        <time>2021-11-14T14:46:44Z</time>
      </trkpt>
      <trkpt lat="42.46817" lon="2.91024">
        <ele>665.6</ele>
        <time>2021-11-14T14:46:45Z</time>
      </trkpt>
      <trkpt lat="42.46817" lon="2.91028">
        <ele>665.8</ele>
        <time>2021-11-14T14:46:46Z</time>
      </trkpt>
      <trkpt lat="42.46816" lon="2.91032">
        <ele>666.1</ele>
        <time>2021-11-14T14:46:47Z</time>
      </trkpt>
      <trkpt lat="42.46815" lon="2.91033">
        <ele>666.2</ele>
        <time>2021-11-14T14:46:48Z</time>
      </trkpt>
      <trkpt lat="42.46815" lon="2.91037">
        <ele>666.4</ele>
        <time>2021-11-14T14:46:49Z</time>
      </trkpt>
      <trkpt lat="42.46814" lon="2.91041">
        <ele>666.6</ele>
        <time>2021-11-14T14:46:51Z</time>
      </trkpt>
      <trkpt lat="42.46813" lon="2.91046">
        <ele>666.9</ele>
        <time>2021-11-14T14:46:52Z</time>
      </trkpt>
      <trkpt lat="42.46812" lon="2.9105">
        <ele>667.1</ele>
        <time>2021-11-14T14:46:54Z</time>
      </trkpt>
      <trkpt lat="42.46811" lon="2.91055">
        <ele>667.4</ele>
        <time>2021-11-14T14:46:55Z</time>
      </trkpt>
      <trkpt lat="42.46811" lon="2.9106">
        <ele>667.7</ele>
        <time>2021-11-14T14:46:57Z</time>
      </trkpt>
      <trkpt lat="42.4681" lon="2.91066">
        <ele>668</ele>
        <time>2021-11-14T14:46:59Z</time>
      </trkpt>
      <trkpt lat="42.4681" lon="2.91069">
        <ele>668.2</ele>
        <time>2021-11-14T14:47:00Z</time>
      </trkpt>
      <trkpt lat="42.46809" lon="2.91073">
        <ele>668.5</ele>
        <time>2021-11-14T14:47:02Z</time>
      </trkpt>
      <trkpt lat="42.46808" lon="2.91078">
        <ele>668.7</ele>
        <time>2021-11-14T14:47:03Z</time>
      </trkpt>
      <trkpt lat="42.46808" lon="2.9108">
        <ele>668.8</ele>
        <time>2021-11-14T14:47:04Z</time>
      </trkpt>
      <trkpt lat="42.46807" lon="2.91085">
        <ele>669.1</ele>
        <time>2021-11-14T14:47:05Z</time>
      </trkpt>
      <trkpt lat="42.46806" lon="2.9109">
        <ele>669.4</ele>
        <time>2021-11-14T14:47:06Z</time>
      </trkpt>
      <trkpt lat="42.46805" lon="2.91093">
        <ele>669.7</ele>
        <time>2021-11-14T14:47:08Z</time>
      </trkpt>
      <trkpt lat="42.46805" lon="2.91098">
        <ele>670</ele>
        <time>2021-11-14T14:47:09Z</time>
      </trkpt>
      <trkpt lat="42.46805" lon="2.91102">
        <ele>670.2</ele>
        <time>2021-11-14T14:47:10Z</time>
      </trkpt>
      <trkpt lat="42.46804" lon="2.91106">
        <ele>670.4</ele>
        <time>2021-11-14T14:47:11Z</time>
      </trkpt>
      <trkpt lat="42.46803" lon="2.91112">
        <ele>670.8</ele>
        <time>2021-11-14T14:47:13Z</time>
      </trkpt>
      <trkpt lat="42.46803" lon="2.91116">
        <ele>671</ele>
        <time>2021-11-14T14:47:14Z</time>
      </trkpt>
      <trkpt lat="42.46802" lon="2.9112">
        <ele>671.3</ele>
        <time>2021-11-14T14:47:15Z</time>
      </trkpt>
      <trkpt lat="42.46802" lon="2.91121">
        <ele>671.4</ele>
        <time>2021-11-14T14:47:16Z</time>
      </trkpt>
      <trkpt lat="42.46801" lon="2.91125">
        <ele>671.6</ele>
        <time>2021-11-14T14:47:18Z</time>
      </trkpt>
      <trkpt lat="42.468" lon="2.91129">
        <ele>671.9</ele>
        <time>2021-11-14T14:47:20Z</time>
      </trkpt>
      <trkpt lat="42.468" lon="2.91133">
        <ele>672.1</ele>
        <time>2021-11-14T14:47:21Z</time>
      </trkpt>
      <trkpt lat="42.46799" lon="2.91137">
        <ele>672.3</ele>
        <time>2021-11-14T14:47:22Z</time>
      </trkpt>
      <trkpt lat="42.46798" lon="2.91138">
        <ele>672.4</ele>
        <time>2021-11-14T14:47:23Z</time>
      </trkpt>
      <trkpt lat="42.46798" lon="2.91141">
        <ele>672.6</ele>
        <time>2021-11-14T14:47:25Z</time>
      </trkpt>
      <trkpt lat="42.46796" lon="2.91146">
        <ele>672.9</ele>
        <time>2021-11-14T14:47:27Z</time>
      </trkpt>
      <trkpt lat="42.46795" lon="2.91149">
        <ele>673.1</ele>
        <time>2021-11-14T14:47:28Z</time>
      </trkpt>
      <trkpt lat="42.46794" lon="2.91152">
        <ele>673.4</ele>
        <time>2021-11-14T14:47:30Z</time>
      </trkpt>
      <trkpt lat="42.46792" lon="2.91155">
        <ele>673.6</ele>
        <time>2021-11-14T14:47:31Z</time>
      </trkpt>
      <trkpt lat="42.46791" lon="2.91157">
        <ele>673.7</ele>
        <time>2021-11-14T14:47:32Z</time>
      </trkpt>
      <trkpt lat="42.46789" lon="2.9116">
        <ele>674</ele>
        <time>2021-11-14T14:47:34Z</time>
      </trkpt>
      <trkpt lat="42.46788" lon="2.91161">
        <ele>674.1</ele>
        <time>2021-11-14T14:47:35Z</time>
      </trkpt>
      <trkpt lat="42.46787" lon="2.91163">
        <ele>674.2</ele>
        <time>2021-11-14T14:47:36Z</time>
      </trkpt>
      <trkpt lat="42.46785" lon="2.91167">
        <ele>674.5</ele>
        <time>2021-11-14T14:47:38Z</time>
      </trkpt>
      <trkpt lat="42.46783" lon="2.9117">
        <ele>674.7</ele>
        <time>2021-11-14T14:47:39Z</time>
      </trkpt>
      <trkpt lat="42.46783" lon="2.91171">
        <ele>674.8</ele>
        <time>2021-11-14T14:47:40Z</time>
      </trkpt>
      <trkpt lat="42.46781" lon="2.91173">
        <ele>675</ele>
        <time>2021-11-14T14:47:41Z</time>
      </trkpt>
      <trkpt lat="42.46779" lon="2.91176">
        <ele>675.2</ele>
        <time>2021-11-14T14:47:43Z</time>
      </trkpt>
      <trkpt lat="42.46777" lon="2.9118">
        <ele>675.4</ele>
        <time>2021-11-14T14:47:44Z</time>
      </trkpt>
      <trkpt lat="42.46776" lon="2.91183">
        <ele>675.6</ele>
        <time>2021-11-14T14:47:45Z</time>
      </trkpt>
      <trkpt lat="42.46773" lon="2.91188">
        <ele>675.9</ele>
        <time>2021-11-14T14:47:47Z</time>
      </trkpt>
      <trkpt lat="42.46772" lon="2.91192">
        <ele>676.1</ele>
        <time>2021-11-14T14:47:48Z</time>
      </trkpt>
      <trkpt lat="42.4677" lon="2.91197">
        <ele>676.3</ele>
        <time>2021-11-14T14:47:50Z</time>
      </trkpt>
      <trkpt lat="42.46769" lon="2.91199">
        <ele>676.4</ele>
        <time>2021-11-14T14:47:51Z</time>
      </trkpt>
      <trkpt lat="42.46769" lon="2.91201">
        <ele>676.5</ele>
        <time>2021-11-14T14:47:52Z</time>
      </trkpt>
      <trkpt lat="42.46767" lon="2.91207">
        <ele>676.7</ele>
        <time>2021-11-14T14:47:54Z</time>
      </trkpt>
      <trkpt lat="42.46767" lon="2.9121">
        <ele>676.9</ele>
        <time>2021-11-14T14:47:55Z</time>
      </trkpt>
      <trkpt lat="42.46766" lon="2.91216">
        <ele>677.1</ele>
        <time>2021-11-14T14:47:57Z</time>
      </trkpt>
      <trkpt lat="42.46765" lon="2.9122">
        <ele>677.2</ele>
        <time>2021-11-14T14:47:58Z</time>
      </trkpt>
      <trkpt lat="42.46765" lon="2.91227">
        <ele>677.4</ele>
        <time>2021-11-14T14:47:59Z</time>
      </trkpt>
      <trkpt lat="42.46765" lon="2.91229">
        <ele>677.5</ele>
        <time>2021-11-14T14:48:00Z</time>
      </trkpt>
      <trkpt lat="42.46764" lon="2.91234">
        <ele>677.7</ele>
        <time>2021-11-14T14:48:02Z</time>
      </trkpt>
      <trkpt lat="42.46764" lon="2.91239">
        <ele>677.8</ele>
        <time>2021-11-14T14:48:03Z</time>
      </trkpt>
      <trkpt lat="42.46764" lon="2.91244">
        <ele>677.9</ele>
        <time>2021-11-14T14:48:04Z</time>
      </trkpt>
      <trkpt lat="42.46764" lon="2.91251">
        <ele>678.1</ele>
        <time>2021-11-14T14:48:05Z</time>
      </trkpt>
      <trkpt lat="42.46763" lon="2.91256">
        <ele>678.2</ele>
        <time>2021-11-14T14:48:07Z</time>
      </trkpt>
      <trkpt lat="42.46762" lon="2.91262">
        <ele>678.4</ele>
        <time>2021-11-14T14:48:08Z</time>
      </trkpt>
      <trkpt lat="42.46761" lon="2.91266">
        <ele>678.5</ele>
        <time>2021-11-14T14:48:09Z</time>
      </trkpt>
      <trkpt lat="42.4676" lon="2.9127">
        <ele>678.6</ele>
        <time>2021-11-14T14:48:10Z</time>
      </trkpt>
      <trkpt lat="42.46756" lon="2.91277">
        <ele>678.8</ele>
        <time>2021-11-14T14:48:12Z</time>
      </trkpt>
      <trkpt lat="42.46753" lon="2.91281">
        <ele>679</ele>
        <time>2021-11-14T14:48:13Z</time>
      </trkpt>
      <trkpt lat="42.46751" lon="2.91284">
        <ele>679.1</ele>
        <time>2021-11-14T14:48:14Z</time>
      </trkpt>
      <trkpt lat="42.46746" lon="2.91289">
        <ele>679.4</ele>
        <time>2021-11-14T14:48:16Z</time>
      </trkpt>
      <trkpt lat="42.46743" lon="2.91292">
        <ele>679.5</ele>
        <time>2021-11-14T14:48:17Z</time>
      </trkpt>
      <trkpt lat="42.46739" lon="2.91296">
        <ele>679.7</ele>
        <time>2021-11-14T14:48:19Z</time>
      </trkpt>
      <trkpt lat="42.46736" lon="2.913">
        <ele>679.9</ele>
        <time>2021-11-14T14:48:20Z</time>
      </trkpt>
      <trkpt lat="42.46732" lon="2.91305">
        <ele>680.1</ele>
        <time>2021-11-14T14:48:22Z</time>
      </trkpt>
      <trkpt lat="42.46727" lon="2.91309">
        <ele>680.3</ele>
        <time>2021-11-14T14:48:24Z</time>
      </trkpt>
      <trkpt lat="42.46725" lon="2.91312">
        <ele>680.5</ele>
        <time>2021-11-14T14:48:25Z</time>
      </trkpt>
      <trkpt lat="42.46722" lon="2.91314">
        <ele>680.6</ele>
        <time>2021-11-14T14:48:26Z</time>
      </trkpt>
      <trkpt lat="42.46719" lon="2.91318">
        <ele>680.8</ele>
        <time>2021-11-14T14:48:27Z</time>
      </trkpt>
      <trkpt lat="42.46717" lon="2.9132">
        <ele>681</ele>
        <time>2021-11-14T14:48:28Z</time>
      </trkpt>
      <trkpt lat="42.46714" lon="2.91322">
        <ele>681.1</ele>
        <time>2021-11-14T14:48:29Z</time>
      </trkpt>
      <trkpt lat="42.46712" lon="2.91326">
        <ele>681.3</ele>
        <time>2021-11-14T14:48:31Z</time>
      </trkpt>
      <trkpt lat="42.46709" lon="2.91328">
        <ele>681.4</ele>
        <time>2021-11-14T14:48:32Z</time>
      </trkpt>
      <trkpt lat="42.46707" lon="2.91332">
        <ele>681.6</ele>
        <time>2021-11-14T14:48:33Z</time>
      </trkpt>
      <trkpt lat="42.46704" lon="2.91335">
        <ele>681.8</ele>
        <time>2021-11-14T14:48:34Z</time>
      </trkpt>
      <trkpt lat="42.467" lon="2.9134">
        <ele>682</ele>
        <time>2021-11-14T14:48:36Z</time>
      </trkpt>
      <trkpt lat="42.46696" lon="2.91345">
        <ele>682.3</ele>
        <time>2021-11-14T14:48:38Z</time>
      </trkpt>
      <trkpt lat="42.46693" lon="2.91348">
        <ele>682.5</ele>
        <time>2021-11-14T14:48:39Z</time>
      </trkpt>
      <trkpt lat="42.46691" lon="2.91351">
        <ele>682.6</ele>
        <time>2021-11-14T14:48:40Z</time>
      </trkpt>
      <trkpt lat="42.46687" lon="2.91357">
        <ele>682.9</ele>
        <time>2021-11-14T14:48:42Z</time>
      </trkpt>
      <trkpt lat="42.46684" lon="2.91363">
        <ele>683.2</ele>
        <time>2021-11-14T14:48:44Z</time>
      </trkpt>
      <trkpt lat="42.46682" lon="2.91367">
        <ele>683.3</ele>
        <time>2021-11-14T14:48:45Z</time>
      </trkpt>
      <trkpt lat="42.46679" lon="2.91372">
        <ele>683.5</ele>
        <time>2021-11-14T14:48:46Z</time>
      </trkpt>
      <trkpt lat="42.46677" lon="2.91376">
        <ele>683.7</ele>
        <time>2021-11-14T14:48:47Z</time>
      </trkpt>
      <trkpt lat="42.46674" lon="2.9138">
        <ele>683.9</ele>
        <time>2021-11-14T14:48:49Z</time>
      </trkpt>
      <trkpt lat="42.46672" lon="2.91385">
        <ele>684.1</ele>
        <time>2021-11-14T14:48:50Z</time>
      </trkpt>
      <trkpt lat="42.4667" lon="2.91389">
        <ele>684.3</ele>
        <time>2021-11-14T14:48:51Z</time>
      </trkpt>
      <trkpt lat="42.46668" lon="2.91392">
        <ele>684.4</ele>
        <time>2021-11-14T14:48:52Z</time>
      </trkpt>
      <trkpt lat="42.46665" lon="2.91397">
        <ele>684.7</ele>
        <time>2021-11-14T14:48:54Z</time>
      </trkpt>
      <trkpt lat="42.46663" lon="2.914">
        <ele>684.8</ele>
        <time>2021-11-14T14:48:55Z</time>
      </trkpt>
      <trkpt lat="42.46661" lon="2.91405">
        <ele>685.1</ele>
        <time>2021-11-14T14:48:57Z</time>
      </trkpt>
      <trkpt lat="42.46658" lon="2.91411">
        <ele>685.4</ele>
        <time>2021-11-14T14:48:59Z</time>
      </trkpt>
      <trkpt lat="42.46656" lon="2.91414">
        <ele>685.6</ele>
        <time>2021-11-14T14:49:00Z</time>
      </trkpt>
      <trkpt lat="42.46654" lon="2.91419">
        <ele>685.8</ele>
        <time>2021-11-14T14:49:01Z</time>
      </trkpt>
      <trkpt lat="42.46652" lon="2.91424">
        <ele>686.1</ele>
        <time>2021-11-14T14:49:03Z</time>
      </trkpt>
      <trkpt lat="42.46651" lon="2.9143">
        <ele>686.3</ele>
        <time>2021-11-14T14:49:04Z</time>
      </trkpt>
      <trkpt lat="42.46651" lon="2.91434">
        <ele>686.5</ele>
        <time>2021-11-14T14:49:05Z</time>
      </trkpt>
      <trkpt lat="42.46651" lon="2.9144">
        <ele>686.8</ele>
        <time>2021-11-14T14:49:07Z</time>
      </trkpt>
      <trkpt lat="42.46651" lon="2.91444">
        <ele>687</ele>
        <time>2021-11-14T14:49:08Z</time>
      </trkpt>
      <trkpt lat="42.46653" lon="2.91448">
        <ele>687.2</ele>
        <time>2021-11-14T14:49:09Z</time>
      </trkpt>
      <trkpt lat="42.46655" lon="2.91451">
        <ele>687.3</ele>
        <time>2021-11-14T14:49:10Z</time>
      </trkpt>
      <trkpt lat="42.4666" lon="2.91454">
        <ele>687.6</ele>
        <time>2021-11-14T14:49:11Z</time>
      </trkpt>
      <trkpt lat="42.46665" lon="2.91454">
        <ele>687.9</ele>
        <time>2021-11-14T14:49:13Z</time>
      </trkpt>
      <trkpt lat="42.46669" lon="2.91453">
        <ele>688.1</ele>
        <time>2021-11-14T14:49:14Z</time>
      </trkpt>
      <trkpt lat="42.46673" lon="2.91449">
        <ele>688.2</ele>
        <time>2021-11-14T14:49:15Z</time>
      </trkpt>
      <trkpt lat="42.46678" lon="2.91441">
        <ele>688.6</ele>
        <time>2021-11-14T14:49:17Z</time>
      </trkpt>
      <trkpt lat="42.4668" lon="2.91436">
        <ele>688.7</ele>
        <time>2021-11-14T14:49:18Z</time>
      </trkpt>
      <trkpt lat="42.46683" lon="2.91428">
        <ele>689</ele>
        <time>2021-11-14T14:49:20Z</time>
      </trkpt>
      <trkpt lat="42.46685" lon="2.91417">
        <ele>689.4</ele>
        <time>2021-11-14T14:49:21Z</time>
      </trkpt>
      <trkpt lat="42.46687" lon="2.91415">
        <ele>689.5</ele>
        <time>2021-11-14T14:49:22Z</time>
      </trkpt>
      <trkpt lat="42.4669" lon="2.9141">
        <ele>689.7</ele>
        <time>2021-11-14T14:49:24Z</time>
      </trkpt>
      <trkpt lat="42.46692" lon="2.91405">
        <ele>690</ele>
        <time>2021-11-14T14:49:25Z</time>
      </trkpt>
      <trkpt lat="42.46695" lon="2.91398">
        <ele>690.3</ele>
        <time>2021-11-14T14:49:27Z</time>
      </trkpt>
      <trkpt lat="42.46697" lon="2.91393">
        <ele>690.5</ele>
        <time>2021-11-14T14:49:28Z</time>
      </trkpt>
      <trkpt lat="42.46699" lon="2.9139">
        <ele>690.7</ele>
        <time>2021-11-14T14:49:29Z</time>
      </trkpt>
      <trkpt lat="42.46702" lon="2.91386">
        <ele>690.9</ele>
        <time>2021-11-14T14:49:31Z</time>
      </trkpt>
      <trkpt lat="42.46705" lon="2.91383">
        <ele>691.2</ele>
        <time>2021-11-14T14:49:32Z</time>
      </trkpt>
      <trkpt lat="42.46709" lon="2.9138">
        <ele>691.5</ele>
        <time>2021-11-14T14:49:34Z</time>
      </trkpt>
      <trkpt lat="42.46711" lon="2.91378">
        <ele>691.7</ele>
        <time>2021-11-14T14:49:35Z</time>
      </trkpt>
      <trkpt lat="42.46714" lon="2.91375">
        <ele>691.9</ele>
        <time>2021-11-14T14:49:37Z</time>
      </trkpt>
      <trkpt lat="42.46716" lon="2.91373">
        <ele>692</ele>
        <time>2021-11-14T14:49:38Z</time>
      </trkpt>
      <trkpt lat="42.4672" lon="2.9137">
        <ele>692.3</ele>
        <time>2021-11-14T14:49:40Z</time>
      </trkpt>
      <trkpt lat="42.46723" lon="2.91368">
        <ele>692.5</ele>
        <time>2021-11-14T14:49:41Z</time>
      </trkpt>
      <trkpt lat="42.46725" lon="2.91366">
        <ele>692.7</ele>
        <time>2021-11-14T14:49:42Z</time>
      </trkpt>
      <trkpt lat="42.46729" lon="2.91363">
        <ele>692.9</ele>
        <time>2021-11-14T14:49:43Z</time>
      </trkpt>
      <trkpt lat="42.46733" lon="2.9136">
        <ele>693.2</ele>
        <time>2021-11-14T14:49:45Z</time>
      </trkpt>
      <trkpt lat="42.46737" lon="2.91357">
        <ele>693.4</ele>
        <time>2021-11-14T14:49:46Z</time>
      </trkpt>
      <trkpt lat="42.4674" lon="2.91355">
        <ele>693.7</ele>
        <time>2021-11-14T14:49:48Z</time>
      </trkpt>
      <trkpt lat="42.46744" lon="2.91352">
        <ele>693.9</ele>
        <time>2021-11-14T14:49:50Z</time>
      </trkpt>
      <trkpt lat="42.46747" lon="2.9135">
        <ele>694.1</ele>
        <time>2021-11-14T14:49:51Z</time>
      </trkpt>
      <trkpt lat="42.46752" lon="2.91347">
        <ele>694.4</ele>
        <time>2021-11-14T14:49:53Z</time>
      </trkpt>
      <trkpt lat="42.46754" lon="2.91345">
        <ele>694.5</ele>
        <time>2021-11-14T14:49:54Z</time>
      </trkpt>
      <trkpt lat="42.46758" lon="2.91343">
        <ele>694.7</ele>
        <time>2021-11-14T14:49:55Z</time>
      </trkpt>
      <trkpt lat="42.46762" lon="2.91341">
        <ele>694.9</ele>
        <time>2021-11-14T14:49:57Z</time>
      </trkpt>
      <trkpt lat="42.46767" lon="2.91338">
        <ele>695.2</ele>
        <time>2021-11-14T14:49:59Z</time>
      </trkpt>
      <trkpt lat="42.4677" lon="2.91335">
        <ele>695.3</ele>
        <time>2021-11-14T14:50:00Z</time>
      </trkpt>
      <trkpt lat="42.46772" lon="2.91334">
        <ele>695.4</ele>
        <time>2021-11-14T14:50:01Z</time>
      </trkpt>
      <trkpt lat="42.46776" lon="2.91331">
        <ele>695.6</ele>
        <time>2021-11-14T14:50:03Z</time>
      </trkpt>
      <trkpt lat="42.46779" lon="2.91328">
        <ele>695.8</ele>
        <time>2021-11-14T14:50:04Z</time>
      </trkpt>
      <trkpt lat="42.46782" lon="2.91326">
        <ele>695.9</ele>
        <time>2021-11-14T14:50:05Z</time>
      </trkpt>
      <trkpt lat="42.46784" lon="2.91325">
        <ele>696</ele>
        <time>2021-11-14T14:50:06Z</time>
      </trkpt>
      <trkpt lat="42.46786" lon="2.91323">
        <ele>696.1</ele>
        <time>2021-11-14T14:50:07Z</time>
      </trkpt>
      <trkpt lat="42.46789" lon="2.91321">
        <ele>696.3</ele>
        <time>2021-11-14T14:50:09Z</time>
      </trkpt>
      <trkpt lat="42.46792" lon="2.91318">
        <ele>696.4</ele>
        <time>2021-11-14T14:50:10Z</time>
      </trkpt>
      <trkpt lat="42.46796" lon="2.91315">
        <ele>696.6</ele>
        <time>2021-11-14T14:50:12Z</time>
      </trkpt>
      <trkpt lat="42.46798" lon="2.91313">
        <ele>696.7</ele>
        <time>2021-11-14T14:50:13Z</time>
      </trkpt>
      <trkpt lat="42.46802" lon="2.9131">
        <ele>696.9</ele>
        <time>2021-11-14T14:50:15Z</time>
      </trkpt>
      <trkpt lat="42.46805" lon="2.91308">
        <ele>697.1</ele>
        <time>2021-11-14T14:50:16Z</time>
      </trkpt>
      <trkpt lat="42.46809" lon="2.91305">
        <ele>697.3</ele>
        <time>2021-11-14T14:50:18Z</time>
      </trkpt>
      <trkpt lat="42.46812" lon="2.91303">
        <ele>697.5</ele>
        <time>2021-11-14T14:50:19Z</time>
      </trkpt>
      <trkpt lat="42.46816" lon="2.91299">
        <ele>697.7</ele>
        <time>2021-11-14T14:50:21Z</time>
      </trkpt>
      <trkpt lat="42.4682" lon="2.91297">
        <ele>697.9</ele>
        <time>2021-11-14T14:50:22Z</time>
      </trkpt>
      <trkpt lat="42.46824" lon="2.91295">
        <ele>698.1</ele>
        <time>2021-11-14T14:50:24Z</time>
      </trkpt>
      <trkpt lat="42.46825" lon="2.91295">
        <ele>698.1</ele>
        <time>2021-11-14T14:50:25Z</time>
      </trkpt>
      <trkpt lat="42.46829" lon="2.91294">
        <ele>698.3</ele>
        <time>2021-11-14T14:50:26Z</time>
      </trkpt>
      <trkpt lat="42.4683" lon="2.91294">
        <ele>698.3</ele>
        <time>2021-11-14T14:50:27Z</time>
      </trkpt>
      <trkpt lat="42.46834" lon="2.91295">
        <ele>698.3</ele>
        <time>2021-11-14T14:50:29Z</time>
      </trkpt>
      <trkpt lat="42.46838" lon="2.91296">
        <ele>698.2</ele>
        <time>2021-11-14T14:50:30Z</time>
      </trkpt>
      <trkpt lat="42.4684" lon="2.91298">
        <ele>698.2</ele>
        <time>2021-11-14T14:50:31Z</time>
      </trkpt>
      <trkpt lat="42.46844" lon="2.91301">
        <ele>698.2</ele>
        <time>2021-11-14T14:50:33Z</time>
      </trkpt>
      <trkpt lat="42.46846" lon="2.91304">
        <ele>698.2</ele>
        <time>2021-11-14T14:50:34Z</time>
      </trkpt>
      <trkpt lat="42.46848" lon="2.91307">
        <ele>698.2</ele>
        <time>2021-11-14T14:50:35Z</time>
      </trkpt>
      <trkpt lat="42.46851" lon="2.91311">
        <ele>698.1</ele>
        <time>2021-11-14T14:50:37Z</time>
      </trkpt>
      <trkpt lat="42.46854" lon="2.91316">
        <ele>698.2</ele>
        <time>2021-11-14T14:50:39Z</time>
      </trkpt>
      <trkpt lat="42.46856" lon="2.91321">
        <ele>698.4</ele>
        <time>2021-11-14T14:50:40Z</time>
      </trkpt>
      <trkpt lat="42.46857" lon="2.91323">
        <ele>698.5</ele>
        <time>2021-11-14T14:50:41Z</time>
      </trkpt>
      <trkpt lat="42.46859" lon="2.91326">
        <ele>698.6</ele>
        <time>2021-11-14T14:50:43Z</time>
      </trkpt>
      <trkpt lat="42.46863" lon="2.91332">
        <ele>698.9</ele>
        <time>2021-11-14T14:50:45Z</time>
      </trkpt>
      <trkpt lat="42.46866" lon="2.91336">
        <ele>699.1</ele>
        <time>2021-11-14T14:50:47Z</time>
      </trkpt>
      <trkpt lat="42.46868" lon="2.91339">
        <ele>699.2</ele>
        <time>2021-11-14T14:50:48Z</time>
      </trkpt>
      <trkpt lat="42.46868" lon="2.9134">
        <ele>699.3</ele>
        <time>2021-11-14T14:50:49Z</time>
      </trkpt>
      <trkpt lat="42.46871" lon="2.91343">
        <ele>699.5</ele>
        <time>2021-11-14T14:50:51Z</time>
      </trkpt>
      <trkpt lat="42.46875" lon="2.91347">
        <ele>699.7</ele>
        <time>2021-11-14T14:50:53Z</time>
      </trkpt>
      <trkpt lat="42.46877" lon="2.91348">
        <ele>699.8</ele>
        <time>2021-11-14T14:50:54Z</time>
      </trkpt>
      <trkpt lat="42.46878" lon="2.9135">
        <ele>699.9</ele>
        <time>2021-11-14T14:50:55Z</time>
      </trkpt>
      <trkpt lat="42.46881" lon="2.91352">
        <ele>700.1</ele>
        <time>2021-11-14T14:50:56Z</time>
      </trkpt>
      <trkpt lat="42.46882" lon="2.91353">
        <ele>700.2</ele>
        <time>2021-11-14T14:50:57Z</time>
      </trkpt>
      <trkpt lat="42.46884" lon="2.91355">
        <ele>700.3</ele>
        <time>2021-11-14T14:50:58Z</time>
      </trkpt>
      <trkpt lat="42.46888" lon="2.91358">
        <ele>700.5</ele>
        <time>2021-11-14T14:51:00Z</time>
      </trkpt>
      <trkpt lat="42.4689" lon="2.9136">
        <ele>700.7</ele>
        <time>2021-11-14T14:51:01Z</time>
      </trkpt>
      <trkpt lat="42.46893" lon="2.91363">
        <ele>700.9</ele>
        <time>2021-11-14T14:51:03Z</time>
      </trkpt>
      <trkpt lat="42.46895" lon="2.91365">
        <ele>701</ele>
        <time>2021-11-14T14:51:04Z</time>
      </trkpt>
      <trkpt lat="42.46899" lon="2.91369">
        <ele>701.3</ele>
        <time>2021-11-14T14:51:06Z</time>
      </trkpt>
      <trkpt lat="42.46901" lon="2.91371">
        <ele>701.4</ele>
        <time>2021-11-14T14:51:07Z</time>
      </trkpt>
      <trkpt lat="42.46905" lon="2.91375">
        <ele>701.7</ele>
        <time>2021-11-14T14:51:09Z</time>
      </trkpt>
      <trkpt lat="42.46908" lon="2.91378">
        <ele>702</ele>
        <time>2021-11-14T14:51:10Z</time>
      </trkpt>
      <trkpt lat="42.46911" lon="2.91381">
        <ele>702.2</ele>
        <time>2021-11-14T14:51:12Z</time>
      </trkpt>
      <trkpt lat="42.46914" lon="2.91384">
        <ele>702.4</ele>
        <time>2021-11-14T14:51:13Z</time>
      </trkpt>
      <trkpt lat="42.46916" lon="2.91388">
        <ele>702.7</ele>
        <time>2021-11-14T14:51:15Z</time>
      </trkpt>
      <trkpt lat="42.46918" lon="2.91391">
        <ele>702.9</ele>
        <time>2021-11-14T14:51:16Z</time>
      </trkpt>
      <trkpt lat="42.46921" lon="2.91395">
        <ele>703.2</ele>
        <time>2021-11-14T14:51:18Z</time>
      </trkpt>
      <trkpt lat="42.46922" lon="2.91396">
        <ele>703.2</ele>
        <time>2021-11-14T14:51:19Z</time>
      </trkpt>
      <trkpt lat="42.46924" lon="2.914">
        <ele>703.5</ele>
        <time>2021-11-14T14:51:21Z</time>
      </trkpt>
      <trkpt lat="42.46925" lon="2.91403">
        <ele>703.7</ele>
        <time>2021-11-14T14:51:22Z</time>
      </trkpt>
      <trkpt lat="42.46927" lon="2.91407">
        <ele>704</ele>
        <time>2021-11-14T14:51:24Z</time>
      </trkpt>
      <trkpt lat="42.46928" lon="2.91408">
        <ele>704.1</ele>
        <time>2021-11-14T14:51:25Z</time>
      </trkpt>
      <trkpt lat="42.46929" lon="2.91412">
        <ele>704.3</ele>
        <time>2021-11-14T14:51:27Z</time>
      </trkpt>
      <trkpt lat="42.4693" lon="2.91414">
        <ele>704.5</ele>
        <time>2021-11-14T14:51:28Z</time>
      </trkpt>
      <trkpt lat="42.46931" lon="2.91416">
        <ele>704.6</ele>
        <time>2021-11-14T14:51:30Z</time>
      </trkpt>
      <trkpt lat="42.4693" lon="2.91415">
        <ele>704.7</ele>
        <time>2021-11-14T14:51:32Z</time>
      </trkpt>
      <trkpt lat="42.4693" lon="2.91415">
        <ele>704.7</ele>
        <time>2021-11-14T14:51:34Z</time>
      </trkpt>
      <trkpt lat="42.4693" lon="2.91415">
        <ele>704.7</ele>
        <time>2021-11-14T14:51:35Z</time>
      </trkpt>
      <trkpt lat="42.4693" lon="2.91415">
        <ele>704.8</ele>
        <time>2021-11-14T14:51:36Z</time>
      </trkpt>
      <trkpt lat="42.4693" lon="2.91415">
        <ele>704.8</ele>
        <time>2021-11-14T14:51:38Z</time>
      </trkpt>
      <trkpt lat="42.4693" lon="2.91416">
        <ele>704.8</ele>
        <time>2021-11-14T14:51:39Z</time>
      </trkpt>
      <trkpt lat="42.4693" lon="2.91416">
        <ele>704.9</ele>
        <time>2021-11-14T14:51:40Z</time>
      </trkpt>
      <trkpt lat="42.4693" lon="2.91417">
        <ele>704.9</ele>
        <time>2021-11-14T14:51:42Z</time>
      </trkpt>
      <trkpt lat="42.4693" lon="2.91417">
        <ele>704.9</ele>
        <time>2021-11-14T14:51:44Z</time>
      </trkpt>
      <trkpt lat="42.46939" lon="2.91418">
        <ele>705.7</ele>
        <time>2021-11-14T14:52:27Z</time>
      </trkpt>
      <trkpt lat="42.46939" lon="2.91419">
        <ele>705.7</ele>
        <time>2021-11-14T14:52:28Z</time>
      </trkpt>
      <trkpt lat="42.46938" lon="2.9142">
        <ele>705.8</ele>
        <time>2021-11-14T14:52:29Z</time>
      </trkpt>
      <trkpt lat="42.46938" lon="2.91421">
        <ele>705.9</ele>
        <time>2021-11-14T14:52:31Z</time>
      </trkpt>
      <trkpt lat="42.46938" lon="2.91421">
        <ele>705.9</ele>
        <time>2021-11-14T14:52:32Z</time>
      </trkpt>
      <trkpt lat="42.46938" lon="2.91421">
        <ele>705.9</ele>
        <time>2021-11-14T14:52:34Z</time>
      </trkpt>
      <trkpt lat="42.46938" lon="2.91421">
        <ele>706</ele>
        <time>2021-11-14T14:52:36Z</time>
      </trkpt>
      <trkpt lat="42.46938" lon="2.91421">
        <ele>706</ele>
        <time>2021-11-14T14:52:38Z</time>
      </trkpt>
      <trkpt lat="42.46938" lon="2.9142">
        <ele>706</ele>
        <time>2021-11-14T14:52:39Z</time>
      </trkpt>
      <trkpt lat="42.46937" lon="2.91429">
        <ele>706.5</ele>
        <time>2021-11-14T14:53:04Z</time>
      </trkpt>
      <trkpt lat="42.46938" lon="2.91433">
        <ele>706.7</ele>
        <time>2021-11-14T14:53:05Z</time>
      </trkpt>
      <trkpt lat="42.46938" lon="2.91438">
        <ele>707.1</ele>
        <time>2021-11-14T14:53:07Z</time>
      </trkpt>
      <trkpt lat="42.4694" lon="2.91445">
        <ele>707.5</ele>
        <time>2021-11-14T14:53:09Z</time>
      </trkpt>
      <trkpt lat="42.46941" lon="2.91448">
        <ele>707.7</ele>
        <time>2021-11-14T14:53:10Z</time>
      </trkpt>
      <trkpt lat="42.46941" lon="2.91452">
        <ele>707.9</ele>
        <time>2021-11-14T14:53:11Z</time>
      </trkpt>
      <trkpt lat="42.46942" lon="2.91458">
        <ele>708.3</ele>
        <time>2021-11-14T14:53:13Z</time>
      </trkpt>
      <trkpt lat="42.46943" lon="2.91466">
        <ele>708.7</ele>
        <time>2021-11-14T14:53:15Z</time>
      </trkpt>
      <trkpt lat="42.46944" lon="2.91471">
        <ele>709</ele>
        <time>2021-11-14T14:53:16Z</time>
      </trkpt>
      <trkpt lat="42.46945" lon="2.91476">
        <ele>709.3</ele>
        <time>2021-11-14T14:53:18Z</time>
      </trkpt>
      <trkpt lat="42.46946" lon="2.91479">
        <ele>709.4</ele>
        <time>2021-11-14T14:53:19Z</time>
      </trkpt>
      <trkpt lat="42.46947" lon="2.91485">
        <ele>709.8</ele>
        <time>2021-11-14T14:53:21Z</time>
      </trkpt>
      <trkpt lat="42.46949" lon="2.9149">
        <ele>710</ele>
        <time>2021-11-14T14:53:22Z</time>
      </trkpt>
      <trkpt lat="42.46951" lon="2.91494">
        <ele>710.2</ele>
        <time>2021-11-14T14:53:24Z</time>
      </trkpt>
      <trkpt lat="42.46952" lon="2.91497">
        <ele>710.4</ele>
        <time>2021-11-14T14:53:25Z</time>
      </trkpt>
      <trkpt lat="42.46956" lon="2.91502">
        <ele>710.8</ele>
        <time>2021-11-14T14:53:27Z</time>
      </trkpt>
      <trkpt lat="42.46957" lon="2.91505">
        <ele>710.9</ele>
        <time>2021-11-14T14:53:28Z</time>
      </trkpt>
      <trkpt lat="42.4696" lon="2.91509">
        <ele>711.1</ele>
        <time>2021-11-14T14:53:29Z</time>
      </trkpt>
      <trkpt lat="42.46964" lon="2.91514">
        <ele>711.4</ele>
        <time>2021-11-14T14:53:31Z</time>
      </trkpt>
      <trkpt lat="42.46967" lon="2.91516">
        <ele>711.6</ele>
        <time>2021-11-14T14:53:32Z</time>
      </trkpt>
      <trkpt lat="42.4697" lon="2.91519">
        <ele>711.9</ele>
        <time>2021-11-14T14:53:33Z</time>
      </trkpt>
      <trkpt lat="42.46974" lon="2.91522">
        <ele>712.2</ele>
        <time>2021-11-14T14:53:35Z</time>
      </trkpt>
      <trkpt lat="42.46979" lon="2.91529">
        <ele>712.5</ele>
        <time>2021-11-14T14:53:37Z</time>
      </trkpt>
      <trkpt lat="42.46983" lon="2.91535">
        <ele>712.8</ele>
        <time>2021-11-14T14:53:39Z</time>
      </trkpt>
      <trkpt lat="42.46986" lon="2.91537">
        <ele>713</ele>
        <time>2021-11-14T14:53:40Z</time>
      </trkpt>
      <trkpt lat="42.46989" lon="2.91539">
        <ele>713.1</ele>
        <time>2021-11-14T14:53:42Z</time>
      </trkpt>
      <trkpt lat="42.46993" lon="2.91541">
        <ele>713.3</ele>
        <time>2021-11-14T14:53:43Z</time>
      </trkpt>
      <trkpt lat="42.46998" lon="2.91544">
        <ele>713.6</ele>
        <time>2021-11-14T14:53:45Z</time>
      </trkpt>
      <trkpt lat="42.47002" lon="2.91548">
        <ele>713.8</ele>
        <time>2021-11-14T14:53:47Z</time>
      </trkpt>
      <trkpt lat="42.47006" lon="2.91549">
        <ele>714</ele>
        <time>2021-11-14T14:53:48Z</time>
      </trkpt>
      <trkpt lat="42.47008" lon="2.9155">
        <ele>714.1</ele>
        <time>2021-11-14T14:53:49Z</time>
      </trkpt>
      <trkpt lat="42.47012" lon="2.91552">
        <ele>714.3</ele>
        <time>2021-11-14T14:53:51Z</time>
      </trkpt>
      <trkpt lat="42.47015" lon="2.91554">
        <ele>714.5</ele>
        <time>2021-11-14T14:53:52Z</time>
      </trkpt>
      <trkpt lat="42.47018" lon="2.91557">
        <ele>714.7</ele>
        <time>2021-11-14T14:53:54Z</time>
      </trkpt>
      <trkpt lat="42.47021" lon="2.9156">
        <ele>714.9</ele>
        <time>2021-11-14T14:53:55Z</time>
      </trkpt>
      <trkpt lat="42.47024" lon="2.91564">
        <ele>715.1</ele>
        <time>2021-11-14T14:53:56Z</time>
      </trkpt>
      <trkpt lat="42.47027" lon="2.91567">
        <ele>715.3</ele>
        <time>2021-11-14T14:53:58Z</time>
      </trkpt>
      <trkpt lat="42.4703" lon="2.91569">
        <ele>715.6</ele>
        <time>2021-11-14T14:53:59Z</time>
      </trkpt>
      <trkpt lat="42.47033" lon="2.91572">
        <ele>715.8</ele>
        <time>2021-11-14T14:54:01Z</time>
      </trkpt>
      <trkpt lat="42.47034" lon="2.91573">
        <ele>715.9</ele>
        <time>2021-11-14T14:54:02Z</time>
      </trkpt>
      <trkpt lat="42.47037" lon="2.91576">
        <ele>716.2</ele>
        <time>2021-11-14T14:54:03Z</time>
      </trkpt>
      <trkpt lat="42.47039" lon="2.91578">
        <ele>716.3</ele>
        <time>2021-11-14T14:54:04Z</time>
      </trkpt>
      <trkpt lat="42.47042" lon="2.91581">
        <ele>716.5</ele>
        <time>2021-11-14T14:54:06Z</time>
      </trkpt>
      <trkpt lat="42.47043" lon="2.91582">
        <ele>716.6</ele>
        <time>2021-11-14T14:54:07Z</time>
      </trkpt>
      <trkpt lat="42.47045" lon="2.91584">
        <ele>716.8</ele>
        <time>2021-11-14T14:54:08Z</time>
      </trkpt>
      <trkpt lat="42.47048" lon="2.91587">
        <ele>717.1</ele>
        <time>2021-11-14T14:54:10Z</time>
      </trkpt>
      <trkpt lat="42.47051" lon="2.91591">
        <ele>717.3</ele>
        <time>2021-11-14T14:54:11Z</time>
      </trkpt>
      <trkpt lat="42.47052" lon="2.91592">
        <ele>717.4</ele>
        <time>2021-11-14T14:54:12Z</time>
      </trkpt>
      <trkpt lat="42.47055" lon="2.91595">
        <ele>717.7</ele>
        <time>2021-11-14T14:54:14Z</time>
      </trkpt>
      <trkpt lat="42.47056" lon="2.91596">
        <ele>717.8</ele>
        <time>2021-11-14T14:54:15Z</time>
      </trkpt>
      <trkpt lat="42.47059" lon="2.91598">
        <ele>718</ele>
        <time>2021-11-14T14:54:17Z</time>
      </trkpt>
      <trkpt lat="42.47061" lon="2.916">
        <ele>718.2</ele>
        <time>2021-11-14T14:54:18Z</time>
      </trkpt>
      <trkpt lat="42.47063" lon="2.91604">
        <ele>718.5</ele>
        <time>2021-11-14T14:54:20Z</time>
      </trkpt>
      <trkpt lat="42.47065" lon="2.91606">
        <ele>718.6</ele>
        <time>2021-11-14T14:54:21Z</time>
      </trkpt>
      <trkpt lat="42.47067" lon="2.91609">
        <ele>718.8</ele>
        <time>2021-11-14T14:54:23Z</time>
      </trkpt>
      <trkpt lat="42.47068" lon="2.91612">
        <ele>719</ele>
        <time>2021-11-14T14:54:24Z</time>
      </trkpt>
      <trkpt lat="42.4707" lon="2.91615">
        <ele>719.2</ele>
        <time>2021-11-14T14:54:25Z</time>
      </trkpt>
      <trkpt lat="42.47072" lon="2.91618">
        <ele>719.4</ele>
        <time>2021-11-14T14:54:27Z</time>
      </trkpt>
      <trkpt lat="42.47075" lon="2.91623">
        <ele>719.7</ele>
        <time>2021-11-14T14:54:29Z</time>
      </trkpt>
      <trkpt lat="42.47076" lon="2.91625">
        <ele>719.8</ele>
        <time>2021-11-14T14:54:30Z</time>
      </trkpt>
      <trkpt lat="42.47077" lon="2.91627">
        <ele>719.9</ele>
        <time>2021-11-14T14:54:31Z</time>
      </trkpt>
      <trkpt lat="42.47078" lon="2.91631">
        <ele>720.1</ele>
        <time>2021-11-14T14:54:33Z</time>
      </trkpt>
      <trkpt lat="42.47079" lon="2.91632">
        <ele>720.2</ele>
        <time>2021-11-14T14:54:34Z</time>
      </trkpt>
      <trkpt lat="42.47081" lon="2.91635">
        <ele>720.4</ele>
        <time>2021-11-14T14:54:35Z</time>
      </trkpt>
      <trkpt lat="42.47081" lon="2.91637">
        <ele>720.5</ele>
        <time>2021-11-14T14:54:36Z</time>
      </trkpt>
      <trkpt lat="42.47084" lon="2.91642">
        <ele>720.8</ele>
        <time>2021-11-14T14:54:38Z</time>
      </trkpt>
      <trkpt lat="42.47085" lon="2.91644">
        <ele>720.9</ele>
        <time>2021-11-14T14:54:39Z</time>
      </trkpt>
      <trkpt lat="42.47086" lon="2.91646">
        <ele>721</ele>
        <time>2021-11-14T14:54:40Z</time>
      </trkpt>
      <trkpt lat="42.47088" lon="2.9165">
        <ele>721.3</ele>
        <time>2021-11-14T14:54:42Z</time>
      </trkpt>
      <trkpt lat="42.4709" lon="2.91653">
        <ele>721.5</ele>
        <time>2021-11-14T14:54:44Z</time>
      </trkpt>
      <trkpt lat="42.47091" lon="2.91656">
        <ele>721.6</ele>
        <time>2021-11-14T14:54:45Z</time>
      </trkpt>
      <trkpt lat="42.47093" lon="2.9166">
        <ele>721.8</ele>
        <time>2021-11-14T14:54:47Z</time>
      </trkpt>
      <trkpt lat="42.47095" lon="2.91663">
        <ele>722</ele>
        <time>2021-11-14T14:54:48Z</time>
      </trkpt>
      <trkpt lat="42.47096" lon="2.91666">
        <ele>722.2</ele>
        <time>2021-11-14T14:54:49Z</time>
      </trkpt>
      <trkpt lat="42.47099" lon="2.91668">
        <ele>722.4</ele>
        <time>2021-11-14T14:54:51Z</time>
      </trkpt>
      <trkpt lat="42.471" lon="2.9167">
        <ele>722.5</ele>
        <time>2021-11-14T14:54:52Z</time>
      </trkpt>
      <trkpt lat="42.47103" lon="2.91674">
        <ele>722.8</ele>
        <time>2021-11-14T14:54:54Z</time>
      </trkpt>
      <trkpt lat="42.47105" lon="2.91677">
        <ele>723</ele>
        <time>2021-11-14T14:54:55Z</time>
      </trkpt>
      <trkpt lat="42.47109" lon="2.91681">
        <ele>723.3</ele>
        <time>2021-11-14T14:54:57Z</time>
      </trkpt>
      <trkpt lat="42.4711" lon="2.91683">
        <ele>723.4</ele>
        <time>2021-11-14T14:54:58Z</time>
      </trkpt>
      <trkpt lat="42.47111" lon="2.91684">
        <ele>723.6</ele>
        <time>2021-11-14T14:54:59Z</time>
      </trkpt>
      <trkpt lat="42.47114" lon="2.91686">
        <ele>723.8</ele>
        <time>2021-11-14T14:55:00Z</time>
      </trkpt>
      <trkpt lat="42.47115" lon="2.91687">
        <ele>723.8</ele>
        <time>2021-11-14T14:55:01Z</time>
      </trkpt>
      <trkpt lat="42.47118" lon="2.91689">
        <ele>724.1</ele>
        <time>2021-11-14T14:55:03Z</time>
      </trkpt>
      <trkpt lat="42.47119" lon="2.91689">
        <ele>724.1</ele>
        <time>2021-11-14T14:55:04Z</time>
      </trkpt>
      <trkpt lat="42.47122" lon="2.91691">
        <ele>724.4</ele>
        <time>2021-11-14T14:55:06Z</time>
      </trkpt>
      <trkpt lat="42.47124" lon="2.91693">
        <ele>724.6</ele>
        <time>2021-11-14T14:55:07Z</time>
      </trkpt>
      <trkpt lat="42.47128" lon="2.91696">
        <ele>724.9</ele>
        <time>2021-11-14T14:55:09Z</time>
      </trkpt>
      <trkpt lat="42.47132" lon="2.91699">
        <ele>725.1</ele>
        <time>2021-11-14T14:55:11Z</time>
      </trkpt>
      <trkpt lat="42.47134" lon="2.917">
        <ele>725.3</ele>
        <time>2021-11-14T14:55:12Z</time>
      </trkpt>
      <trkpt lat="42.47137" lon="2.91704">
        <ele>725.7</ele>
        <time>2021-11-14T14:55:14Z</time>
      </trkpt>
      <trkpt lat="42.4714" lon="2.91707">
        <ele>725.9</ele>
        <time>2021-11-14T14:55:15Z</time>
      </trkpt>
      <trkpt lat="42.47142" lon="2.91708">
        <ele>726</ele>
        <time>2021-11-14T14:55:16Z</time>
      </trkpt>
      <trkpt lat="42.47145" lon="2.91711">
        <ele>726.3</ele>
        <time>2021-11-14T14:55:18Z</time>
      </trkpt>
      <trkpt lat="42.47147" lon="2.91713">
        <ele>726.4</ele>
        <time>2021-11-14T14:55:19Z</time>
      </trkpt>
      <trkpt lat="42.47148" lon="2.91714">
        <ele>726.6</ele>
        <time>2021-11-14T14:55:20Z</time>
      </trkpt>
      <trkpt lat="42.4715" lon="2.91716">
        <ele>726.8</ele>
        <time>2021-11-14T14:55:22Z</time>
      </trkpt>
      <trkpt lat="42.47153" lon="2.9172">
        <ele>727</ele>
        <time>2021-11-14T14:55:24Z</time>
      </trkpt>
      <trkpt lat="42.47155" lon="2.91723">
        <ele>727.3</ele>
        <time>2021-11-14T14:55:25Z</time>
      </trkpt>
      <trkpt lat="42.47156" lon="2.91724">
        <ele>727.3</ele>
        <time>2021-11-14T14:55:26Z</time>
      </trkpt>
      <trkpt lat="42.47158" lon="2.91727">
        <ele>727.5</ele>
        <time>2021-11-14T14:55:27Z</time>
      </trkpt>
      <trkpt lat="42.4716" lon="2.91731">
        <ele>727.7</ele>
        <time>2021-11-14T14:55:29Z</time>
      </trkpt>
      <trkpt lat="42.47163" lon="2.91736">
        <ele>728</ele>
        <time>2021-11-14T14:55:31Z</time>
      </trkpt>
      <trkpt lat="42.47165" lon="2.91739">
        <ele>728.2</ele>
        <time>2021-11-14T14:55:32Z</time>
      </trkpt>
      <trkpt lat="42.47168" lon="2.91742">
        <ele>728.4</ele>
        <time>2021-11-14T14:55:34Z</time>
      </trkpt>
      <trkpt lat="42.47171" lon="2.91746">
        <ele>728.7</ele>
        <time>2021-11-14T14:55:36Z</time>
      </trkpt>
      <trkpt lat="42.47172" lon="2.91748">
        <ele>728.8</ele>
        <time>2021-11-14T14:55:37Z</time>
      </trkpt>
      <trkpt lat="42.47172" lon="2.91749">
        <ele>728.8</ele>
        <time>2021-11-14T14:55:39Z</time>
      </trkpt>
      <trkpt lat="42.47172" lon="2.91748">
        <ele>728.9</ele>
        <time>2021-11-14T14:55:40Z</time>
      </trkpt>
      <trkpt lat="42.47171" lon="2.91747">
        <ele>728.9</ele>
        <time>2021-11-14T14:55:41Z</time>
      </trkpt>
      <trkpt lat="42.47171" lon="2.91747">
        <ele>729</ele>
        <time>2021-11-14T14:55:42Z</time>
      </trkpt>
      <trkpt lat="42.47171" lon="2.91746">
        <ele>729</ele>
        <time>2021-11-14T14:55:44Z</time>
      </trkpt>
      <trkpt lat="42.47171" lon="2.91746">
        <ele>729</ele>
        <time>2021-11-14T14:55:45Z</time>
      </trkpt>
      <trkpt lat="42.47171" lon="2.91746">
        <ele>729</ele>
        <time>2021-11-14T14:55:46Z</time>
      </trkpt>
      <trkpt lat="42.4717" lon="2.91744">
        <ele>729.1</ele>
        <time>2021-11-14T14:55:48Z</time>
      </trkpt>
      <trkpt lat="42.47171" lon="2.91744">
        <ele>729.1</ele>
        <time>2021-11-14T14:55:49Z</time>
      </trkpt>
      <trkpt lat="42.47173" lon="2.91739">
        <ele>729.4</ele>
        <time>2021-11-14T14:56:13Z</time>
      </trkpt>
      <trkpt lat="42.47172" lon="2.91739">
        <ele>729.4</ele>
        <time>2021-11-14T14:56:14Z</time>
      </trkpt>
      <trkpt lat="42.47172" lon="2.91739">
        <ele>729.4</ele>
        <time>2021-11-14T14:56:15Z</time>
      </trkpt>
      <trkpt lat="42.47171" lon="2.91738">
        <ele>729.5</ele>
        <time>2021-11-14T14:56:17Z</time>
      </trkpt>
      <trkpt lat="42.47172" lon="2.91738">
        <ele>729.5</ele>
        <time>2021-11-14T14:56:18Z</time>
      </trkpt>
      <trkpt lat="42.47171" lon="2.91738">
        <ele>729.5</ele>
        <time>2021-11-14T14:56:19Z</time>
      </trkpt>
      <trkpt lat="42.47171" lon="2.91738">
        <ele>729.5</ele>
        <time>2021-11-14T14:56:20Z</time>
      </trkpt>
      <trkpt lat="42.47171" lon="2.91737">
        <ele>729.5</ele>
        <time>2021-11-14T14:56:22Z</time>
      </trkpt>
      <trkpt lat="42.47171" lon="2.91737">
        <ele>729.6</ele>
        <time>2021-11-14T14:56:23Z</time>
      </trkpt>
      <trkpt lat="42.47171" lon="2.91736">
        <ele>729.6</ele>
        <time>2021-11-14T14:56:24Z</time>
      </trkpt>
      <trkpt lat="42.47172" lon="2.91735">
        <ele>729.7</ele>
        <time>2021-11-14T14:56:26Z</time>
      </trkpt>
      <trkpt lat="42.47171" lon="2.91736">
        <ele>729.7</ele>
        <time>2021-11-14T14:56:28Z</time>
      </trkpt>
      <trkpt lat="42.47171" lon="2.91736">
        <ele>729.7</ele>
        <time>2021-11-14T14:56:29Z</time>
      </trkpt>
      <trkpt lat="42.47171" lon="2.91736">
        <ele>729.7</ele>
        <time>2021-11-14T14:56:30Z</time>
      </trkpt>
      <trkpt lat="42.47171" lon="2.91737">
        <ele>729.8</ele>
        <time>2021-11-14T14:56:31Z</time>
      </trkpt>
      <trkpt lat="42.47171" lon="2.91737">
        <ele>729.8</ele>
        <time>2021-11-14T14:56:33Z</time>
      </trkpt>
      <trkpt lat="42.47171" lon="2.91737">
        <ele>729.8</ele>
        <time>2021-11-14T14:56:34Z</time>
      </trkpt>
      <trkpt lat="42.4717" lon="2.91739">
        <ele>729.9</ele>
        <time>2021-11-14T14:56:56Z</time>
      </trkpt>
      <trkpt lat="42.47171" lon="2.91744">
        <ele>730.1</ele>
        <time>2021-11-14T14:56:58Z</time>
      </trkpt>
      <trkpt lat="42.47171" lon="2.91747">
        <ele>730.2</ele>
        <time>2021-11-14T14:56:59Z</time>
      </trkpt>
      <trkpt lat="42.47173" lon="2.91751">
        <ele>730.5</ele>
        <time>2021-11-14T14:57:01Z</time>
      </trkpt>
      <trkpt lat="42.47174" lon="2.91755">
        <ele>730.6</ele>
        <time>2021-11-14T14:57:02Z</time>
      </trkpt>
      <trkpt lat="42.47175" lon="2.91759">
        <ele>730.8</ele>
        <time>2021-11-14T14:57:03Z</time>
      </trkpt>
      <trkpt lat="42.47176" lon="2.91764">
        <ele>731.1</ele>
        <time>2021-11-14T14:57:04Z</time>
      </trkpt>
      <trkpt lat="42.47178" lon="2.91768">
        <ele>731.2</ele>
        <time>2021-11-14T14:57:06Z</time>
      </trkpt>
      <trkpt lat="42.4718" lon="2.91774">
        <ele>731.6</ele>
        <time>2021-11-14T14:57:08Z</time>
      </trkpt>
      <trkpt lat="42.47182" lon="2.9178">
        <ele>731.9</ele>
        <time>2021-11-14T14:57:10Z</time>
      </trkpt>
      <trkpt lat="42.47185" lon="2.91785">
        <ele>732.1</ele>
        <time>2021-11-14T14:57:11Z</time>
      </trkpt>
      <trkpt lat="42.47187" lon="2.9179">
        <ele>732.4</ele>
        <time>2021-11-14T14:57:12Z</time>
      </trkpt>
      <trkpt lat="42.47189" lon="2.91795">
        <ele>732.6</ele>
        <time>2021-11-14T14:57:14Z</time>
      </trkpt>
      <trkpt lat="42.47191" lon="2.91799">
        <ele>732.8</ele>
        <time>2021-11-14T14:57:15Z</time>
      </trkpt>
      <trkpt lat="42.47192" lon="2.91802">
        <ele>732.9</ele>
        <time>2021-11-14T14:57:16Z</time>
      </trkpt>
      <trkpt lat="42.47194" lon="2.91806">
        <ele>733.1</ele>
        <time>2021-11-14T14:57:18Z</time>
      </trkpt>
      <trkpt lat="42.47195" lon="2.9181">
        <ele>733.3</ele>
        <time>2021-11-14T14:57:19Z</time>
      </trkpt>
      <trkpt lat="42.47197" lon="2.91813">
        <ele>733.5</ele>
        <time>2021-11-14T14:57:20Z</time>
      </trkpt>
      <trkpt lat="42.47198" lon="2.91819">
        <ele>733.8</ele>
        <time>2021-11-14T14:57:22Z</time>
      </trkpt>
      <trkpt lat="42.472" lon="2.91823">
        <ele>734</ele>
        <time>2021-11-14T14:57:23Z</time>
      </trkpt>
      <trkpt lat="42.47201" lon="2.91827">
        <ele>734.2</ele>
        <time>2021-11-14T14:57:24Z</time>
      </trkpt>
      <trkpt lat="42.47202" lon="2.91832">
        <ele>734.4</ele>
        <time>2021-11-14T14:57:26Z</time>
      </trkpt>
      <trkpt lat="42.47205" lon="2.91836">
        <ele>734.7</ele>
        <time>2021-11-14T14:57:27Z</time>
      </trkpt>
      <trkpt lat="42.47207" lon="2.9184">
        <ele>734.9</ele>
        <time>2021-11-14T14:57:29Z</time>
      </trkpt>
      <trkpt lat="42.47209" lon="2.91847">
        <ele>735.2</ele>
        <time>2021-11-14T14:57:31Z</time>
      </trkpt>
      <trkpt lat="42.4721" lon="2.91855">
        <ele>735.6</ele>
        <time>2021-11-14T14:57:33Z</time>
      </trkpt>
      <trkpt lat="42.47212" lon="2.91859">
        <ele>735.8</ele>
        <time>2021-11-14T14:57:34Z</time>
      </trkpt>
      <trkpt lat="42.47213" lon="2.91862">
        <ele>735.9</ele>
        <time>2021-11-14T14:57:35Z</time>
      </trkpt>
      <trkpt lat="42.47214" lon="2.91867">
        <ele>736.2</ele>
        <time>2021-11-14T14:57:36Z</time>
      </trkpt>
      <trkpt lat="42.47215" lon="2.91872">
        <ele>736.4</ele>
        <time>2021-11-14T14:57:38Z</time>
      </trkpt>
      <trkpt lat="42.47217" lon="2.91877">
        <ele>736.6</ele>
        <time>2021-11-14T14:57:39Z</time>
      </trkpt>
      <trkpt lat="42.47218" lon="2.91883">
        <ele>736.8</ele>
        <time>2021-11-14T14:57:41Z</time>
      </trkpt>
      <trkpt lat="42.4722" lon="2.91886">
        <ele>737</ele>
        <time>2021-11-14T14:57:42Z</time>
      </trkpt>
      <trkpt lat="42.47222" lon="2.91889">
        <ele>737.2</ele>
        <time>2021-11-14T14:57:43Z</time>
      </trkpt>
      <trkpt lat="42.47223" lon="2.91893">
        <ele>737.3</ele>
        <time>2021-11-14T14:57:44Z</time>
      </trkpt>
      <trkpt lat="42.47225" lon="2.91899">
        <ele>737.6</ele>
        <time>2021-11-14T14:57:46Z</time>
      </trkpt>
      <trkpt lat="42.47226" lon="2.91903">
        <ele>737.8</ele>
        <time>2021-11-14T14:57:47Z</time>
      </trkpt>
      <trkpt lat="42.47228" lon="2.9191">
        <ele>738.1</ele>
        <time>2021-11-14T14:57:49Z</time>
      </trkpt>
      <trkpt lat="42.4723" lon="2.91915">
        <ele>738.2</ele>
        <time>2021-11-14T14:57:50Z</time>
      </trkpt>
      <trkpt lat="42.47232" lon="2.91922">
        <ele>738.5</ele>
        <time>2021-11-14T14:57:52Z</time>
      </trkpt>
      <trkpt lat="42.47234" lon="2.91927">
        <ele>738.7</ele>
        <time>2021-11-14T14:57:53Z</time>
      </trkpt>
      <trkpt lat="42.47236" lon="2.91933">
        <ele>739</ele>
        <time>2021-11-14T14:57:54Z</time>
      </trkpt>
      <trkpt lat="42.47237" lon="2.91939">
        <ele>739.2</ele>
        <time>2021-11-14T14:57:56Z</time>
      </trkpt>
      <trkpt lat="42.47238" lon="2.91943">
        <ele>739.4</ele>
        <time>2021-11-14T14:57:57Z</time>
      </trkpt>
      <trkpt lat="42.47239" lon="2.91949">
        <ele>739.6</ele>
        <time>2021-11-14T14:57:58Z</time>
      </trkpt>
      <trkpt lat="42.47242" lon="2.91954">
        <ele>739.9</ele>
        <time>2021-11-14T14:58:00Z</time>
      </trkpt>
      <trkpt lat="42.47245" lon="2.9196">
        <ele>740.2</ele>
        <time>2021-11-14T14:58:02Z</time>
      </trkpt>
      <trkpt lat="42.47247" lon="2.91963">
        <ele>740.4</ele>
        <time>2021-11-14T14:58:03Z</time>
      </trkpt>
      <trkpt lat="42.4725" lon="2.91965">
        <ele>740.6</ele>
        <time>2021-11-14T14:58:04Z</time>
      </trkpt>
      <trkpt lat="42.47254" lon="2.91967">
        <ele>740.9</ele>
        <time>2021-11-14T14:58:06Z</time>
      </trkpt>
      <trkpt lat="42.47258" lon="2.91967">
        <ele>741.2</ele>
        <time>2021-11-14T14:58:07Z</time>
      </trkpt>
      <trkpt lat="42.4726" lon="2.91967">
        <ele>741.3</ele>
        <time>2021-11-14T14:58:08Z</time>
      </trkpt>
      <trkpt lat="42.47264" lon="2.91966">
        <ele>741.6</ele>
        <time>2021-11-14T14:58:10Z</time>
      </trkpt>
      <trkpt lat="42.47266" lon="2.91964">
        <ele>741.8</ele>
        <time>2021-11-14T14:58:11Z</time>
      </trkpt>
      <trkpt lat="42.47269" lon="2.91962">
        <ele>742.1</ele>
        <time>2021-11-14T14:58:12Z</time>
      </trkpt>
      <trkpt lat="42.47271" lon="2.91961">
        <ele>742.2</ele>
        <time>2021-11-14T14:58:13Z</time>
      </trkpt>
      <trkpt lat="42.47274" lon="2.91958">
        <ele>742.5</ele>
        <time>2021-11-14T14:58:14Z</time>
      </trkpt>
      <trkpt lat="42.47278" lon="2.91955">
        <ele>742.8</ele>
        <time>2021-11-14T14:58:16Z</time>
      </trkpt>
      <trkpt lat="42.47279" lon="2.91953">
        <ele>742.9</ele>
        <time>2021-11-14T14:58:17Z</time>
      </trkpt>
      <trkpt lat="42.47281" lon="2.91952">
        <ele>743.1</ele>
        <time>2021-11-14T14:58:18Z</time>
      </trkpt>
      <trkpt lat="42.47283" lon="2.9195">
        <ele>743.3</ele>
        <time>2021-11-14T14:58:19Z</time>
      </trkpt>
      <trkpt lat="42.47287" lon="2.91947">
        <ele>743.6</ele>
        <time>2021-11-14T14:58:21Z</time>
      </trkpt>
      <trkpt lat="42.4729" lon="2.91945">
        <ele>743.8</ele>
        <time>2021-11-14T14:58:22Z</time>
      </trkpt>
      <trkpt lat="42.47293" lon="2.91943">
        <ele>744.1</ele>
        <time>2021-11-14T14:58:24Z</time>
      </trkpt>
      <trkpt lat="42.47296" lon="2.9194">
        <ele>744.4</ele>
        <time>2021-11-14T14:58:26Z</time>
      </trkpt>
      <trkpt lat="42.473" lon="2.91939">
        <ele>744.6</ele>
        <time>2021-11-14T14:58:27Z</time>
      </trkpt>
      <trkpt lat="42.47303" lon="2.91937">
        <ele>744.8</ele>
        <time>2021-11-14T14:58:28Z</time>
      </trkpt>
      <trkpt lat="42.47306" lon="2.91936">
        <ele>745.1</ele>
        <time>2021-11-14T14:58:30Z</time>
      </trkpt>
      <trkpt lat="42.47308" lon="2.91935">
        <ele>745.2</ele>
        <time>2021-11-14T14:58:31Z</time>
      </trkpt>
      <trkpt lat="42.47312" lon="2.91934">
        <ele>745.5</ele>
        <time>2021-11-14T14:58:33Z</time>
      </trkpt>
      <trkpt lat="42.47314" lon="2.91933">
        <ele>745.7</ele>
        <time>2021-11-14T14:58:34Z</time>
      </trkpt>
      <trkpt lat="42.47317" lon="2.91932">
        <ele>745.9</ele>
        <time>2021-11-14T14:58:35Z</time>
      </trkpt>
      <trkpt lat="42.47322" lon="2.9193">
        <ele>746.2</ele>
        <time>2021-11-14T14:58:37Z</time>
      </trkpt>
      <trkpt lat="42.47325" lon="2.91929">
        <ele>746.4</ele>
        <time>2021-11-14T14:58:38Z</time>
      </trkpt>
      <trkpt lat="42.47327" lon="2.91929">
        <ele>746.6</ele>
        <time>2021-11-14T14:58:39Z</time>
      </trkpt>
      <trkpt lat="42.47332" lon="2.91928">
        <ele>746.9</ele>
        <time>2021-11-14T14:58:41Z</time>
      </trkpt>
      <trkpt lat="42.47335" lon="2.91927">
        <ele>747.1</ele>
        <time>2021-11-14T14:58:42Z</time>
      </trkpt>
      <trkpt lat="42.47337" lon="2.91927">
        <ele>747.3</ele>
        <time>2021-11-14T14:58:43Z</time>
      </trkpt>
      <trkpt lat="42.47342" lon="2.91928">
        <ele>747.6</ele>
        <time>2021-11-14T14:58:45Z</time>
      </trkpt>
      <trkpt lat="42.47345" lon="2.91929">
        <ele>747.9</ele>
        <time>2021-11-14T14:58:46Z</time>
      </trkpt>
      <trkpt lat="42.47346" lon="2.91929">
        <ele>747.9</ele>
        <time>2021-11-14T14:58:47Z</time>
      </trkpt>
      <trkpt lat="42.47349" lon="2.91931">
        <ele>748.2</ele>
        <time>2021-11-14T14:58:48Z</time>
      </trkpt>
      <trkpt lat="42.47352" lon="2.91934">
        <ele>748.4</ele>
        <time>2021-11-14T14:58:50Z</time>
      </trkpt>
      <trkpt lat="42.47356" lon="2.91938">
        <ele>748.7</ele>
        <time>2021-11-14T14:58:52Z</time>
      </trkpt>
      <trkpt lat="42.47358" lon="2.91942">
        <ele>749</ele>
        <time>2021-11-14T14:58:53Z</time>
      </trkpt>
      <trkpt lat="42.4736" lon="2.91945">
        <ele>749.2</ele>
        <time>2021-11-14T14:58:54Z</time>
      </trkpt>
      <trkpt lat="42.47362" lon="2.91949">
        <ele>749.5</ele>
        <time>2021-11-14T14:58:55Z</time>
      </trkpt>
      <trkpt lat="42.47363" lon="2.9195">
        <ele>749.6</ele>
        <time>2021-11-14T14:58:56Z</time>
      </trkpt>
      <trkpt lat="42.47365" lon="2.91954">
        <ele>749.8</ele>
        <time>2021-11-14T14:58:58Z</time>
      </trkpt>
      <trkpt lat="42.47366" lon="2.91955">
        <ele>749.9</ele>
        <time>2021-11-14T14:58:59Z</time>
      </trkpt>
      <trkpt lat="42.47367" lon="2.91957">
        <ele>750.1</ele>
        <time>2021-11-14T14:59:00Z</time>
      </trkpt>
      <trkpt lat="42.47369" lon="2.91962">
        <ele>750.4</ele>
        <time>2021-11-14T14:59:02Z</time>
      </trkpt>
      <trkpt lat="42.4737" lon="2.91964">
        <ele>750.5</ele>
        <time>2021-11-14T14:59:03Z</time>
      </trkpt>
      <trkpt lat="42.47372" lon="2.91969">
        <ele>750.8</ele>
        <time>2021-11-14T14:59:05Z</time>
      </trkpt>
      <trkpt lat="42.47373" lon="2.91973">
        <ele>751.1</ele>
        <time>2021-11-14T14:59:06Z</time>
      </trkpt>
      <trkpt lat="42.47375" lon="2.91978">
        <ele>751.4</ele>
        <time>2021-11-14T14:59:08Z</time>
      </trkpt>
      <trkpt lat="42.47376" lon="2.91982">
        <ele>751.7</ele>
        <time>2021-11-14T14:59:09Z</time>
      </trkpt>
      <trkpt lat="42.47378" lon="2.91988">
        <ele>752</ele>
        <time>2021-11-14T14:59:11Z</time>
      </trkpt>
      <trkpt lat="42.47379" lon="2.91991">
        <ele>752.3</ele>
        <time>2021-11-14T14:59:13Z</time>
      </trkpt>
      <trkpt lat="42.47381" lon="2.91996">
        <ele>752.6</ele>
        <time>2021-11-14T14:59:15Z</time>
      </trkpt>
      <trkpt lat="42.47382" lon="2.92">
        <ele>752.9</ele>
        <time>2021-11-14T14:59:16Z</time>
      </trkpt>
      <trkpt lat="42.47384" lon="2.92007">
        <ele>753.4</ele>
        <time>2021-11-14T14:59:18Z</time>
      </trkpt>
      <trkpt lat="42.47385" lon="2.9201">
        <ele>753.5</ele>
        <time>2021-11-14T14:59:20Z</time>
      </trkpt>
      <trkpt lat="42.47386" lon="2.92013">
        <ele>753.7</ele>
        <time>2021-11-14T14:59:21Z</time>
      </trkpt>
      <trkpt lat="42.47387" lon="2.92015">
        <ele>753.9</ele>
        <time>2021-11-14T14:59:22Z</time>
      </trkpt>
      <trkpt lat="42.47388" lon="2.92018">
        <ele>754.1</ele>
        <time>2021-11-14T14:59:23Z</time>
      </trkpt>
      <trkpt lat="42.4739" lon="2.92022">
        <ele>754.3</ele>
        <time>2021-11-14T14:59:25Z</time>
      </trkpt>
      <trkpt lat="42.47392" lon="2.92026">
        <ele>754.6</ele>
        <time>2021-11-14T14:59:26Z</time>
      </trkpt>
      <trkpt lat="42.47393" lon="2.92027">
        <ele>754.7</ele>
        <time>2021-11-14T14:59:27Z</time>
      </trkpt>
      <trkpt lat="42.47396" lon="2.92031">
        <ele>755</ele>
        <time>2021-11-14T14:59:29Z</time>
      </trkpt>
      <trkpt lat="42.47397" lon="2.92032">
        <ele>755.1</ele>
        <time>2021-11-14T14:59:30Z</time>
      </trkpt>
      <trkpt lat="42.47398" lon="2.92033">
        <ele>755.2</ele>
        <time>2021-11-14T14:59:31Z</time>
      </trkpt>
      <trkpt lat="42.474" lon="2.92037">
        <ele>755.5</ele>
        <time>2021-11-14T14:59:32Z</time>
      </trkpt>
      <trkpt lat="42.47403" lon="2.9204">
        <ele>755.7</ele>
        <time>2021-11-14T14:59:34Z</time>
      </trkpt>
      <trkpt lat="42.47404" lon="2.92043">
        <ele>755.9</ele>
        <time>2021-11-14T14:59:35Z</time>
      </trkpt>
      <trkpt lat="42.47406" lon="2.92047">
        <ele>756.1</ele>
        <time>2021-11-14T14:59:37Z</time>
      </trkpt>
      <trkpt lat="42.47408" lon="2.9205">
        <ele>756.4</ele>
        <time>2021-11-14T14:59:38Z</time>
      </trkpt>
      <trkpt lat="42.4741" lon="2.92055">
        <ele>756.6</ele>
        <time>2021-11-14T14:59:40Z</time>
      </trkpt>
      <trkpt lat="42.47412" lon="2.92058">
        <ele>756.8</ele>
        <time>2021-11-14T14:59:41Z</time>
      </trkpt>
      <trkpt lat="42.47414" lon="2.92061">
        <ele>757</ele>
        <time>2021-11-14T14:59:42Z</time>
      </trkpt>
      <trkpt lat="42.47417" lon="2.92066">
        <ele>757.3</ele>
        <time>2021-11-14T14:59:44Z</time>
      </trkpt>
      <trkpt lat="42.47418" lon="2.92068">
        <ele>757.4</ele>
        <time>2021-11-14T14:59:45Z</time>
      </trkpt>
      <trkpt lat="42.4742" lon="2.9207">
        <ele>757.6</ele>
        <time>2021-11-14T14:59:47Z</time>
      </trkpt>
      <trkpt lat="42.47423" lon="2.92072">
        <ele>757.7</ele>
        <time>2021-11-14T14:59:48Z</time>
      </trkpt>
      <trkpt lat="42.47426" lon="2.92075">
        <ele>757.9</ele>
        <time>2021-11-14T14:59:49Z</time>
      </trkpt>
      <trkpt lat="42.47427" lon="2.92076">
        <ele>758</ele>
        <time>2021-11-14T14:59:50Z</time>
      </trkpt>
      <trkpt lat="42.47429" lon="2.92078">
        <ele>758.2</ele>
        <time>2021-11-14T14:59:51Z</time>
      </trkpt>
      <trkpt lat="42.47431" lon="2.92081">
        <ele>758.3</ele>
        <time>2021-11-14T14:59:53Z</time>
      </trkpt>
      <trkpt lat="42.47432" lon="2.92084">
        <ele>758.5</ele>
        <time>2021-11-14T14:59:54Z</time>
      </trkpt>
      <trkpt lat="42.47434" lon="2.92088">
        <ele>758.7</ele>
        <time>2021-11-14T14:59:55Z</time>
      </trkpt>
      <trkpt lat="42.47437" lon="2.92093">
        <ele>758.9</ele>
        <time>2021-11-14T14:59:57Z</time>
      </trkpt>
      <trkpt lat="42.47438" lon="2.92095">
        <ele>759.1</ele>
        <time>2021-11-14T14:59:58Z</time>
      </trkpt>
      <trkpt lat="42.47439" lon="2.92097">
        <ele>759.2</ele>
        <time>2021-11-14T14:59:59Z</time>
      </trkpt>
      <trkpt lat="42.4744" lon="2.921">
        <ele>759.3</ele>
        <time>2021-11-14T15:00:00Z</time>
      </trkpt>
      <trkpt lat="42.47442" lon="2.92106">
        <ele>759.6</ele>
        <time>2021-11-14T15:00:02Z</time>
      </trkpt>
      <trkpt lat="42.47443" lon="2.92111">
        <ele>759.8</ele>
        <time>2021-11-14T15:00:03Z</time>
      </trkpt>
      <trkpt lat="42.47445" lon="2.92115">
        <ele>760</ele>
        <time>2021-11-14T15:00:04Z</time>
      </trkpt>
      <trkpt lat="42.47446" lon="2.92119">
        <ele>760.2</ele>
        <time>2021-11-14T15:00:06Z</time>
      </trkpt>
      <trkpt lat="42.47447" lon="2.92124">
        <ele>760.5</ele>
        <time>2021-11-14T15:00:07Z</time>
      </trkpt>
      <trkpt lat="42.47448" lon="2.92128">
        <ele>760.6</ele>
        <time>2021-11-14T15:00:08Z</time>
      </trkpt>
      <trkpt lat="42.47449" lon="2.92134">
        <ele>760.9</ele>
        <time>2021-11-14T15:00:10Z</time>
      </trkpt>
      <trkpt lat="42.4745" lon="2.92139">
        <ele>761.1</ele>
        <time>2021-11-14T15:00:11Z</time>
      </trkpt>
      <trkpt lat="42.47451" lon="2.92143">
        <ele>761.4</ele>
        <time>2021-11-14T15:00:12Z</time>
      </trkpt>
      <trkpt lat="42.47453" lon="2.92149">
        <ele>761.7</ele>
        <time>2021-11-14T15:00:14Z</time>
      </trkpt>
      <trkpt lat="42.47454" lon="2.92153">
        <ele>761.9</ele>
        <time>2021-11-14T15:00:15Z</time>
      </trkpt>
      <trkpt lat="42.47455" lon="2.92156">
        <ele>762.1</ele>
        <time>2021-11-14T15:00:16Z</time>
      </trkpt>
      <trkpt lat="42.47456" lon="2.92162">
        <ele>762.4</ele>
        <time>2021-11-14T15:00:18Z</time>
      </trkpt>
      <trkpt lat="42.47457" lon="2.92167">
        <ele>762.6</ele>
        <time>2021-11-14T15:00:19Z</time>
      </trkpt>
      <trkpt lat="42.47458" lon="2.92171">
        <ele>762.8</ele>
        <time>2021-11-14T15:00:20Z</time>
      </trkpt>
      <trkpt lat="42.47459" lon="2.92175">
        <ele>763</ele>
        <time>2021-11-14T15:00:21Z</time>
      </trkpt>
      <trkpt lat="42.4746" lon="2.92181">
        <ele>763.3</ele>
        <time>2021-11-14T15:00:23Z</time>
      </trkpt>
      <trkpt lat="42.4746" lon="2.92185">
        <ele>763.5</ele>
        <time>2021-11-14T15:00:24Z</time>
      </trkpt>
      <trkpt lat="42.47461" lon="2.9219">
        <ele>763.7</ele>
        <time>2021-11-14T15:00:25Z</time>
      </trkpt>
      <trkpt lat="42.47462" lon="2.92195">
        <ele>764</ele>
        <time>2021-11-14T15:00:27Z</time>
      </trkpt>
      <trkpt lat="42.47462" lon="2.92199">
        <ele>764.2</ele>
        <time>2021-11-14T15:00:28Z</time>
      </trkpt>
      <trkpt lat="42.47463" lon="2.92204">
        <ele>764.4</ele>
        <time>2021-11-14T15:00:29Z</time>
      </trkpt>
      <trkpt lat="42.47463" lon="2.92207">
        <ele>764.5</ele>
        <time>2021-11-14T15:00:30Z</time>
      </trkpt>
      <trkpt lat="42.47465" lon="2.92212">
        <ele>764.8</ele>
        <time>2021-11-14T15:00:32Z</time>
      </trkpt>
      <trkpt lat="42.47466" lon="2.92215">
        <ele>764.9</ele>
        <time>2021-11-14T15:00:33Z</time>
      </trkpt>
      <trkpt lat="42.47468" lon="2.92221">
        <ele>765.3</ele>
        <time>2021-11-14T15:00:35Z</time>
      </trkpt>
      <trkpt lat="42.4747" lon="2.92225">
        <ele>765.4</ele>
        <time>2021-11-14T15:00:36Z</time>
      </trkpt>
      <trkpt lat="42.47472" lon="2.92229">
        <ele>765.7</ele>
        <time>2021-11-14T15:00:37Z</time>
      </trkpt>
      <trkpt lat="42.47472" lon="2.92231">
        <ele>765.7</ele>
        <time>2021-11-14T15:00:38Z</time>
      </trkpt>
      <trkpt lat="42.47475" lon="2.92237">
        <ele>766.1</ele>
        <time>2021-11-14T15:00:40Z</time>
      </trkpt>
      <trkpt lat="42.47477" lon="2.9224">
        <ele>766.2</ele>
        <time>2021-11-14T15:00:41Z</time>
      </trkpt>
      <trkpt lat="42.47478" lon="2.92243">
        <ele>766.4</ele>
        <time>2021-11-14T15:00:42Z</time>
      </trkpt>
      <trkpt lat="42.4748" lon="2.92246">
        <ele>766.6</ele>
        <time>2021-11-14T15:00:43Z</time>
      </trkpt>
      <trkpt lat="42.47483" lon="2.92252">
        <ele>766.9</ele>
        <time>2021-11-14T15:00:45Z</time>
      </trkpt>
      <trkpt lat="42.47485" lon="2.92255">
        <ele>767.1</ele>
        <time>2021-11-14T15:00:46Z</time>
      </trkpt>
      <trkpt lat="42.47489" lon="2.92259">
        <ele>767.4</ele>
        <time>2021-11-14T15:00:48Z</time>
      </trkpt>
      <trkpt lat="42.47492" lon="2.9226">
        <ele>767.6</ele>
        <time>2021-11-14T15:00:49Z</time>
      </trkpt>
      <trkpt lat="42.47497" lon="2.92262">
        <ele>767.9</ele>
        <time>2021-11-14T15:00:51Z</time>
      </trkpt>
      <trkpt lat="42.47501" lon="2.9226">
        <ele>768.2</ele>
        <time>2021-11-14T15:00:52Z</time>
      </trkpt>
      <trkpt lat="42.47502" lon="2.92259">
        <ele>768.3</ele>
        <time>2021-11-14T15:00:53Z</time>
      </trkpt>
      <trkpt lat="42.47507" lon="2.92256">
        <ele>768.6</ele>
        <time>2021-11-14T15:00:55Z</time>
      </trkpt>
      <trkpt lat="42.47511" lon="2.92251">
        <ele>768.9</ele>
        <time>2021-11-14T15:00:57Z</time>
      </trkpt>
      <trkpt lat="42.47513" lon="2.92248">
        <ele>769.1</ele>
        <time>2021-11-14T15:00:58Z</time>
      </trkpt>
      <trkpt lat="42.47516" lon="2.92244">
        <ele>769.4</ele>
        <time>2021-11-14T15:01:00Z</time>
      </trkpt>
      <trkpt lat="42.47518" lon="2.9224">
        <ele>769.6</ele>
        <time>2021-11-14T15:01:01Z</time>
      </trkpt>
      <trkpt lat="42.4752" lon="2.92237">
        <ele>769.8</ele>
        <time>2021-11-14T15:01:02Z</time>
      </trkpt>
      <trkpt lat="42.47523" lon="2.92233">
        <ele>770.1</ele>
        <time>2021-11-14T15:01:04Z</time>
      </trkpt>
      <trkpt lat="42.47526" lon="2.92229">
        <ele>770.4</ele>
        <time>2021-11-14T15:01:05Z</time>
      </trkpt>
      <trkpt lat="42.47527" lon="2.92227">
        <ele>770.5</ele>
        <time>2021-11-14T15:01:06Z</time>
      </trkpt>
      <trkpt lat="42.47529" lon="2.92224">
        <ele>770.7</ele>
        <time>2021-11-14T15:01:08Z</time>
      </trkpt>
      <trkpt lat="42.4753" lon="2.92222">
        <ele>770.8</ele>
        <time>2021-11-14T15:01:09Z</time>
      </trkpt>
      <trkpt lat="42.47533" lon="2.92218">
        <ele>771</ele>
        <time>2021-11-14T15:01:11Z</time>
      </trkpt>
      <trkpt lat="42.47535" lon="2.92215">
        <ele>771.3</ele>
        <time>2021-11-14T15:01:12Z</time>
      </trkpt>
      <trkpt lat="42.47536" lon="2.92214">
        <ele>771.3</ele>
        <time>2021-11-14T15:01:13Z</time>
      </trkpt>
      <trkpt lat="42.47538" lon="2.9221">
        <ele>771.6</ele>
        <time>2021-11-14T15:01:14Z</time>
      </trkpt>
      <trkpt lat="42.47541" lon="2.92207">
        <ele>771.8</ele>
        <time>2021-11-14T15:01:16Z</time>
      </trkpt>
      <trkpt lat="42.47543" lon="2.92203">
        <ele>772</ele>
        <time>2021-11-14T15:01:18Z</time>
      </trkpt>
      <trkpt lat="42.47546" lon="2.922">
        <ele>772.2</ele>
        <time>2021-11-14T15:01:19Z</time>
      </trkpt>
      <trkpt lat="42.47548" lon="2.92197">
        <ele>772.4</ele>
        <time>2021-11-14T15:01:20Z</time>
      </trkpt>
      <trkpt lat="42.47551" lon="2.92194">
        <ele>772.6</ele>
        <time>2021-11-14T15:01:22Z</time>
      </trkpt>
      <trkpt lat="42.47554" lon="2.92189">
        <ele>772.9</ele>
        <time>2021-11-14T15:01:23Z</time>
      </trkpt>
      <trkpt lat="42.47555" lon="2.92186">
        <ele>773</ele>
        <time>2021-11-14T15:01:24Z</time>
      </trkpt>
      <trkpt lat="42.47557" lon="2.92182">
        <ele>773.2</ele>
        <time>2021-11-14T15:01:25Z</time>
      </trkpt>
      <trkpt lat="42.47558" lon="2.92181">
        <ele>773.3</ele>
        <time>2021-11-14T15:01:26Z</time>
      </trkpt>
      <trkpt lat="42.47559" lon="2.92178">
        <ele>773.4</ele>
        <time>2021-11-14T15:01:27Z</time>
      </trkpt>
      <trkpt lat="42.47561" lon="2.92175">
        <ele>773.6</ele>
        <time>2021-11-14T15:01:29Z</time>
      </trkpt>
      <trkpt lat="42.47563" lon="2.92172">
        <ele>773.7</ele>
        <time>2021-11-14T15:01:30Z</time>
      </trkpt>
      <trkpt lat="42.47564" lon="2.92169">
        <ele>773.8</ele>
        <time>2021-11-14T15:01:31Z</time>
      </trkpt>
      <trkpt lat="42.47567" lon="2.92164">
        <ele>774.1</ele>
        <time>2021-11-14T15:01:33Z</time>
      </trkpt>
      <trkpt lat="42.47569" lon="2.92161">
        <ele>774.2</ele>
        <time>2021-11-14T15:01:34Z</time>
      </trkpt>
      <trkpt lat="42.47572" lon="2.92155">
        <ele>774.5</ele>
        <time>2021-11-14T15:01:36Z</time>
      </trkpt>
      <trkpt lat="42.47575" lon="2.92149">
        <ele>774.7</ele>
        <time>2021-11-14T15:01:38Z</time>
      </trkpt>
      <trkpt lat="42.47578" lon="2.92143">
        <ele>775</ele>
        <time>2021-11-14T15:01:40Z</time>
      </trkpt>
      <trkpt lat="42.47579" lon="2.9214">
        <ele>775.1</ele>
        <time>2021-11-14T15:01:41Z</time>
      </trkpt>
      <trkpt lat="42.47581" lon="2.92136">
        <ele>775.3</ele>
        <time>2021-11-14T15:01:42Z</time>
      </trkpt>
      <trkpt lat="42.47582" lon="2.92135">
        <ele>775.4</ele>
        <time>2021-11-14T15:01:43Z</time>
      </trkpt>
      <trkpt lat="42.47585" lon="2.9213">
        <ele>775.6</ele>
        <time>2021-11-14T15:01:45Z</time>
      </trkpt>
      <trkpt lat="42.47587" lon="2.92127">
        <ele>775.8</ele>
        <time>2021-11-14T15:01:46Z</time>
      </trkpt>
      <trkpt lat="42.4759" lon="2.92125">
        <ele>775.9</ele>
        <time>2021-11-14T15:01:47Z</time>
      </trkpt>
      <trkpt lat="42.47592" lon="2.92122">
        <ele>776.1</ele>
        <time>2021-11-14T15:01:48Z</time>
      </trkpt>
      <trkpt lat="42.47594" lon="2.9212">
        <ele>776.2</ele>
        <time>2021-11-14T15:01:49Z</time>
      </trkpt>
      <trkpt lat="42.47597" lon="2.92118">
        <ele>776.4</ele>
        <time>2021-11-14T15:01:50Z</time>
      </trkpt>
      <trkpt lat="42.476" lon="2.92117">
        <ele>776.5</ele>
        <time>2021-11-14T15:01:51Z</time>
      </trkpt>
      <trkpt lat="42.47603" lon="2.92115">
        <ele>776.7</ele>
        <time>2021-11-14T15:01:53Z</time>
      </trkpt>
      <trkpt lat="42.47606" lon="2.92114">
        <ele>776.8</ele>
        <time>2021-11-14T15:01:54Z</time>
      </trkpt>
      <trkpt lat="42.4761" lon="2.92113">
        <ele>777</ele>
        <time>2021-11-14T15:01:55Z</time>
      </trkpt>
      <trkpt lat="42.47614" lon="2.92111">
        <ele>777.3</ele>
        <time>2021-11-14T15:01:57Z</time>
      </trkpt>
      <trkpt lat="42.47617" lon="2.92111">
        <ele>777.4</ele>
        <time>2021-11-14T15:01:58Z</time>
      </trkpt>
      <trkpt lat="42.47621" lon="2.9211">
        <ele>777.6</ele>
        <time>2021-11-14T15:01:59Z</time>
      </trkpt>
      <trkpt lat="42.47625" lon="2.9211">
        <ele>777.8</ele>
        <time>2021-11-14T15:02:01Z</time>
      </trkpt>
      <trkpt lat="42.47629" lon="2.9211">
        <ele>777.9</ele>
        <time>2021-11-14T15:02:02Z</time>
      </trkpt>
      <trkpt lat="42.47634" lon="2.9211">
        <ele>778.1</ele>
        <time>2021-11-14T15:02:03Z</time>
      </trkpt>
      <trkpt lat="42.47639" lon="2.9211">
        <ele>778.3</ele>
        <time>2021-11-14T15:02:05Z</time>
      </trkpt>
      <trkpt lat="42.47645" lon="2.92111">
        <ele>778.4</ele>
        <time>2021-11-14T15:02:07Z</time>
      </trkpt>
      <trkpt lat="42.47649" lon="2.92111">
        <ele>778.5</ele>
        <time>2021-11-14T15:02:08Z</time>
      </trkpt>
      <trkpt lat="42.47655" lon="2.92113">
        <ele>778.5</ele>
        <time>2021-11-14T15:02:10Z</time>
      </trkpt>
      <trkpt lat="42.47662" lon="2.92114">
        <ele>778.5</ele>
        <time>2021-11-14T15:02:11Z</time>
      </trkpt>
      <trkpt lat="42.47667" lon="2.92114">
        <ele>778.4</ele>
        <time>2021-11-14T15:02:13Z</time>
      </trkpt>
      <trkpt lat="42.47674" lon="2.92109">
        <ele>778.3</ele>
        <time>2021-11-14T15:02:14Z</time>
      </trkpt>
      <trkpt lat="42.47682" lon="2.921">
        <ele>778.2</ele>
        <time>2021-11-14T15:02:16Z</time>
      </trkpt>
      <trkpt lat="42.47685" lon="2.92094">
        <ele>778.2</ele>
        <time>2021-11-14T15:02:17Z</time>
      </trkpt>
      <trkpt lat="42.47689" lon="2.9208">
        <ele>778.2</ele>
        <time>2021-11-14T15:02:19Z</time>
      </trkpt>
      <trkpt lat="42.47691" lon="2.92074">
        <ele>778.3</ele>
        <time>2021-11-14T15:02:20Z</time>
      </trkpt>
      <trkpt lat="42.47692" lon="2.92062">
        <ele>778.5</ele>
        <time>2021-11-14T15:02:22Z</time>
      </trkpt>
      <trkpt lat="42.47692" lon="2.92056">
        <ele>778.7</ele>
        <time>2021-11-14T15:02:23Z</time>
      </trkpt>
      <trkpt lat="42.47692" lon="2.9205">
        <ele>778.8</ele>
        <time>2021-11-14T15:02:24Z</time>
      </trkpt>
      <trkpt lat="42.47692" lon="2.92046">
        <ele>778.9</ele>
        <time>2021-11-14T15:02:25Z</time>
      </trkpt>
      <trkpt lat="42.47691" lon="2.92037">
        <ele>779.2</ele>
        <time>2021-11-14T15:02:26Z</time>
      </trkpt>
      <trkpt lat="42.47691" lon="2.92032">
        <ele>779.3</ele>
        <time>2021-11-14T15:02:28Z</time>
      </trkpt>
      <trkpt lat="42.47691" lon="2.92026">
        <ele>779.5</ele>
        <time>2021-11-14T15:02:29Z</time>
      </trkpt>
      <trkpt lat="42.47691" lon="2.92021">
        <ele>779.6</ele>
        <time>2021-11-14T15:02:30Z</time>
      </trkpt>
      <trkpt lat="42.47691" lon="2.92016">
        <ele>779.9</ele>
        <time>2021-11-14T15:02:31Z</time>
      </trkpt>
      <trkpt lat="42.47691" lon="2.92012">
        <ele>780</ele>
        <time>2021-11-14T15:02:32Z</time>
      </trkpt>
      <trkpt lat="42.47691" lon="2.92006">
        <ele>780.3</ele>
        <time>2021-11-14T15:02:33Z</time>
      </trkpt>
      <trkpt lat="42.47692" lon="2.92002">
        <ele>780.6</ele>
        <time>2021-11-14T15:02:35Z</time>
      </trkpt>
      <trkpt lat="42.47692" lon="2.91998">
        <ele>780.7</ele>
        <time>2021-11-14T15:02:36Z</time>
      </trkpt>
      <trkpt lat="42.47692" lon="2.91993">
        <ele>781.1</ele>
        <time>2021-11-14T15:02:38Z</time>
      </trkpt>
      <trkpt lat="42.47692" lon="2.91989">
        <ele>781.3</ele>
        <time>2021-11-14T15:02:39Z</time>
      </trkpt>
      <trkpt lat="42.47692" lon="2.91984">
        <ele>781.7</ele>
        <time>2021-11-14T15:02:40Z</time>
      </trkpt>
      <trkpt lat="42.47691" lon="2.91982">
        <ele>781.8</ele>
        <time>2021-11-14T15:02:41Z</time>
      </trkpt>
      <trkpt lat="42.47691" lon="2.91978">
        <ele>782</ele>
        <time>2021-11-14T15:02:42Z</time>
      </trkpt>
      <trkpt lat="42.47691" lon="2.91974">
        <ele>782.3</ele>
        <time>2021-11-14T15:02:44Z</time>
      </trkpt>
      <trkpt lat="42.47689" lon="2.91968">
        <ele>782.8</ele>
        <time>2021-11-14T15:02:46Z</time>
      </trkpt>
      <trkpt lat="42.47688" lon="2.91964">
        <ele>783.1</ele>
        <time>2021-11-14T15:02:48Z</time>
      </trkpt>
      <trkpt lat="42.47688" lon="2.91957">
        <ele>783.5</ele>
        <time>2021-11-14T15:02:50Z</time>
      </trkpt>
      <trkpt lat="42.47687" lon="2.91951">
        <ele>783.9</ele>
        <time>2021-11-14T15:02:52Z</time>
      </trkpt>
      <trkpt lat="42.47687" lon="2.91947">
        <ele>784.2</ele>
        <time>2021-11-14T15:02:53Z</time>
      </trkpt>
      <trkpt lat="42.47686" lon="2.91939">
        <ele>784.7</ele>
        <time>2021-11-14T15:02:55Z</time>
      </trkpt>
      <trkpt lat="42.47686" lon="2.91935">
        <ele>784.9</ele>
        <time>2021-11-14T15:02:56Z</time>
      </trkpt>
      <trkpt lat="42.47686" lon="2.91929">
        <ele>785.3</ele>
        <time>2021-11-14T15:02:58Z</time>
      </trkpt>
      <trkpt lat="42.47685" lon="2.91925">
        <ele>785.5</ele>
        <time>2021-11-14T15:02:59Z</time>
      </trkpt>
      <trkpt lat="42.47686" lon="2.9192">
        <ele>785.8</ele>
        <time>2021-11-14T15:03:00Z</time>
      </trkpt>
      <trkpt lat="42.47686" lon="2.91918">
        <ele>785.9</ele>
        <time>2021-11-14T15:03:01Z</time>
      </trkpt>
      <trkpt lat="42.47686" lon="2.91913">
        <ele>786.1</ele>
        <time>2021-11-14T15:03:02Z</time>
      </trkpt>
      <trkpt lat="42.47686" lon="2.91908">
        <ele>786.4</ele>
        <time>2021-11-14T15:03:04Z</time>
      </trkpt>
      <trkpt lat="42.47687" lon="2.91903">
        <ele>786.6</ele>
        <time>2021-11-14T15:03:05Z</time>
      </trkpt>
      <trkpt lat="42.47687" lon="2.91901">
        <ele>786.8</ele>
        <time>2021-11-14T15:03:06Z</time>
      </trkpt>
      <trkpt lat="42.47688" lon="2.91896">
        <ele>787</ele>
        <time>2021-11-14T15:03:08Z</time>
      </trkpt>
      <trkpt lat="42.47689" lon="2.91892">
        <ele>787.3</ele>
        <time>2021-11-14T15:03:09Z</time>
      </trkpt>
      <trkpt lat="42.47689" lon="2.9189">
        <ele>787.4</ele>
        <time>2021-11-14T15:03:10Z</time>
      </trkpt>
      <trkpt lat="42.47689" lon="2.91887">
        <ele>787.5</ele>
        <time>2021-11-14T15:03:11Z</time>
      </trkpt>
      <trkpt lat="42.47689" lon="2.91885">
        <ele>787.7</ele>
        <time>2021-11-14T15:03:12Z</time>
      </trkpt>
      <trkpt lat="42.4769" lon="2.91881">
        <ele>787.9</ele>
        <time>2021-11-14T15:03:14Z</time>
      </trkpt>
      <trkpt lat="42.4769" lon="2.91877">
        <ele>788.2</ele>
        <time>2021-11-14T15:03:15Z</time>
      </trkpt>
      <trkpt lat="42.47691" lon="2.91873">
        <ele>788.4</ele>
        <time>2021-11-14T15:03:17Z</time>
      </trkpt>
      <trkpt lat="42.47691" lon="2.91871">
        <ele>788.5</ele>
        <time>2021-11-14T15:03:18Z</time>
      </trkpt>
      <trkpt lat="42.47691" lon="2.91868">
        <ele>788.7</ele>
        <time>2021-11-14T15:03:19Z</time>
      </trkpt>
      <trkpt lat="42.47692" lon="2.91863">
        <ele>789.1</ele>
        <time>2021-11-14T15:03:21Z</time>
      </trkpt>
      <trkpt lat="42.47693" lon="2.9186">
        <ele>789.3</ele>
        <time>2021-11-14T15:03:22Z</time>
      </trkpt>
      <trkpt lat="42.47695" lon="2.91856">
        <ele>789.7</ele>
        <time>2021-11-14T15:03:24Z</time>
      </trkpt>
      <trkpt lat="42.47697" lon="2.91852">
        <ele>790</ele>
        <time>2021-11-14T15:03:26Z</time>
      </trkpt>
      <trkpt lat="42.47699" lon="2.91847">
        <ele>790.4</ele>
        <time>2021-11-14T15:03:27Z</time>
      </trkpt>
      <trkpt lat="42.47699" lon="2.91846">
        <ele>790.5</ele>
        <time>2021-11-14T15:03:28Z</time>
      </trkpt>
      <trkpt lat="42.477" lon="2.91844">
        <ele>790.7</ele>
        <time>2021-11-14T15:03:29Z</time>
      </trkpt>
      <trkpt lat="42.47701" lon="2.9184">
        <ele>791</ele>
        <time>2021-11-14T15:03:31Z</time>
      </trkpt>
      <trkpt lat="42.47703" lon="2.91836">
        <ele>791.3</ele>
        <time>2021-11-14T15:03:32Z</time>
      </trkpt>
      <trkpt lat="42.47703" lon="2.91835">
        <ele>791.4</ele>
        <time>2021-11-14T15:03:33Z</time>
      </trkpt>
      <trkpt lat="42.47705" lon="2.91829">
        <ele>791.9</ele>
        <time>2021-11-14T15:03:35Z</time>
      </trkpt>
      <trkpt lat="42.47706" lon="2.91828">
        <ele>792</ele>
        <time>2021-11-14T15:03:36Z</time>
      </trkpt>
      <trkpt lat="42.47707" lon="2.91826">
        <ele>792.2</ele>
        <time>2021-11-14T15:03:37Z</time>
      </trkpt>
      <trkpt lat="42.47708" lon="2.91822">
        <ele>792.5</ele>
        <time>2021-11-14T15:03:38Z</time>
      </trkpt>
      <trkpt lat="42.47709" lon="2.9182">
        <ele>792.6</ele>
        <time>2021-11-14T15:03:39Z</time>
      </trkpt>
      <trkpt lat="42.4771" lon="2.91816">
        <ele>793</ele>
        <time>2021-11-14T15:03:41Z</time>
      </trkpt>
      <trkpt lat="42.47711" lon="2.91814">
        <ele>793.1</ele>
        <time>2021-11-14T15:03:42Z</time>
      </trkpt>
      <trkpt lat="42.47713" lon="2.91809">
        <ele>793.5</ele>
        <time>2021-11-14T15:03:44Z</time>
      </trkpt>
      <trkpt lat="42.47713" lon="2.91807">
        <ele>793.7</ele>
        <time>2021-11-14T15:03:45Z</time>
      </trkpt>
      <trkpt lat="42.47714" lon="2.91805">
        <ele>793.8</ele>
        <time>2021-11-14T15:03:46Z</time>
      </trkpt>
      <trkpt lat="42.47715" lon="2.91801">
        <ele>794.1</ele>
        <time>2021-11-14T15:03:48Z</time>
      </trkpt>
      <trkpt lat="42.47715" lon="2.918">
        <ele>794.2</ele>
        <time>2021-11-14T15:03:49Z</time>
      </trkpt>
      <trkpt lat="42.47717" lon="2.91794">
        <ele>794.6</ele>
        <time>2021-11-14T15:03:51Z</time>
      </trkpt>
      <trkpt lat="42.47718" lon="2.91792">
        <ele>794.7</ele>
        <time>2021-11-14T15:03:52Z</time>
      </trkpt>
      <trkpt lat="42.47718" lon="2.9179">
        <ele>794.9</ele>
        <time>2021-11-14T15:03:53Z</time>
      </trkpt>
      <trkpt lat="42.4772" lon="2.91785">
        <ele>795.2</ele>
        <time>2021-11-14T15:03:55Z</time>
      </trkpt>
      <trkpt lat="42.47721" lon="2.91784">
        <ele>795.3</ele>
        <time>2021-11-14T15:03:56Z</time>
      </trkpt>
      <trkpt lat="42.47723" lon="2.9178">
        <ele>795.5</ele>
        <time>2021-11-14T15:03:58Z</time>
      </trkpt>
      <trkpt lat="42.47724" lon="2.91777">
        <ele>795.7</ele>
        <time>2021-11-14T15:03:59Z</time>
      </trkpt>
      <trkpt lat="42.47725" lon="2.91774">
        <ele>795.9</ele>
        <time>2021-11-14T15:04:00Z</time>
      </trkpt>
      <trkpt lat="42.47726" lon="2.9177">
        <ele>796.1</ele>
        <time>2021-11-14T15:04:02Z</time>
      </trkpt>
      <trkpt lat="42.47727" lon="2.91767">
        <ele>796.3</ele>
        <time>2021-11-14T15:04:03Z</time>
      </trkpt>
      <trkpt lat="42.47729" lon="2.91764">
        <ele>796.6</ele>
        <time>2021-11-14T15:04:05Z</time>
      </trkpt>
      <trkpt lat="42.4773" lon="2.9176">
        <ele>796.8</ele>
        <time>2021-11-14T15:04:06Z</time>
      </trkpt>
      <trkpt lat="42.47731" lon="2.91759">
        <ele>796.9</ele>
        <time>2021-11-14T15:04:07Z</time>
      </trkpt>
      <trkpt lat="42.47732" lon="2.91757">
        <ele>797.1</ele>
        <time>2021-11-14T15:04:08Z</time>
      </trkpt>
      <trkpt lat="42.47736" lon="2.91753">
        <ele>797.5</ele>
        <time>2021-11-14T15:04:10Z</time>
      </trkpt>
      <trkpt lat="42.47738" lon="2.91751">
        <ele>797.7</ele>
        <time>2021-11-14T15:04:11Z</time>
      </trkpt>
      <trkpt lat="42.47741" lon="2.91749">
        <ele>798</ele>
        <time>2021-11-14T15:04:13Z</time>
      </trkpt>
      <trkpt lat="42.47743" lon="2.91748">
        <ele>798.2</ele>
        <time>2021-11-14T15:04:14Z</time>
      </trkpt>
      <trkpt lat="42.47746" lon="2.91748">
        <ele>798.4</ele>
        <time>2021-11-14T15:04:16Z</time>
      </trkpt>
      <trkpt lat="42.47749" lon="2.91749">
        <ele>798.7</ele>
        <time>2021-11-14T15:04:17Z</time>
      </trkpt>
      <trkpt lat="42.4775" lon="2.91749">
        <ele>798.9</ele>
        <time>2021-11-14T15:04:18Z</time>
      </trkpt>
      <trkpt lat="42.47753" lon="2.91751">
        <ele>799.1</ele>
        <time>2021-11-14T15:04:19Z</time>
      </trkpt>
      <trkpt lat="42.47755" lon="2.91752">
        <ele>799.2</ele>
        <time>2021-11-14T15:04:20Z</time>
      </trkpt>
      <trkpt lat="42.47757" lon="2.91754">
        <ele>799.5</ele>
        <time>2021-11-14T15:04:22Z</time>
      </trkpt>
      <trkpt lat="42.4776" lon="2.91756">
        <ele>799.7</ele>
        <time>2021-11-14T15:04:23Z</time>
      </trkpt>
      <trkpt lat="42.47763" lon="2.91758">
        <ele>800</ele>
        <time>2021-11-14T15:04:25Z</time>
      </trkpt>
      <trkpt lat="42.47764" lon="2.91759">
        <ele>800.1</ele>
        <time>2021-11-14T15:04:26Z</time>
      </trkpt>
      <trkpt lat="42.47766" lon="2.9176">
        <ele>800.3</ele>
        <time>2021-11-14T15:04:27Z</time>
      </trkpt>
      <trkpt lat="42.47769" lon="2.91762">
        <ele>800.6</ele>
        <time>2021-11-14T15:04:29Z</time>
      </trkpt>
      <trkpt lat="42.4777" lon="2.91764">
        <ele>800.7</ele>
        <time>2021-11-14T15:04:30Z</time>
      </trkpt>
      <trkpt lat="42.47773" lon="2.91765">
        <ele>801</ele>
        <time>2021-11-14T15:04:32Z</time>
      </trkpt>
      <trkpt lat="42.47775" lon="2.91767">
        <ele>801.2</ele>
        <time>2021-11-14T15:04:33Z</time>
      </trkpt>
      <trkpt lat="42.47778" lon="2.91769">
        <ele>801.5</ele>
        <time>2021-11-14T15:04:35Z</time>
      </trkpt>
      <trkpt lat="42.47781" lon="2.91772">
        <ele>801.8</ele>
        <time>2021-11-14T15:04:36Z</time>
      </trkpt>
      <trkpt lat="42.47782" lon="2.91773">
        <ele>801.9</ele>
        <time>2021-11-14T15:04:37Z</time>
      </trkpt>
      <trkpt lat="42.47784" lon="2.91774">
        <ele>802.2</ele>
        <time>2021-11-14T15:04:38Z</time>
      </trkpt>
      <trkpt lat="42.47788" lon="2.91776">
        <ele>802.5</ele>
        <time>2021-11-14T15:04:40Z</time>
      </trkpt>
      <trkpt lat="42.47789" lon="2.91777">
        <ele>802.7</ele>
        <time>2021-11-14T15:04:41Z</time>
      </trkpt>
      <trkpt lat="42.47794" lon="2.91778">
        <ele>803.1</ele>
        <time>2021-11-14T15:04:43Z</time>
      </trkpt>
      <trkpt lat="42.47795" lon="2.91779">
        <ele>803.3</ele>
        <time>2021-11-14T15:04:45Z</time>
      </trkpt>
      <trkpt lat="42.47797" lon="2.9178">
        <ele>803.4</ele>
        <time>2021-11-14T15:04:46Z</time>
      </trkpt>
      <trkpt lat="42.47799" lon="2.9178">
        <ele>803.6</ele>
        <time>2021-11-14T15:04:47Z</time>
      </trkpt>
      <trkpt lat="42.47802" lon="2.91782">
        <ele>803.8</ele>
        <time>2021-11-14T15:04:49Z</time>
      </trkpt>
      <trkpt lat="42.47803" lon="2.91782">
        <ele>803.9</ele>
        <time>2021-11-14T15:04:50Z</time>
      </trkpt>
      <trkpt lat="42.47806" lon="2.91784">
        <ele>804.2</ele>
        <time>2021-11-14T15:04:52Z</time>
      </trkpt>
      <trkpt lat="42.47808" lon="2.91786">
        <ele>804.4</ele>
        <time>2021-11-14T15:04:53Z</time>
      </trkpt>
      <trkpt lat="42.47812" lon="2.91788">
        <ele>804.7</ele>
        <time>2021-11-14T15:04:55Z</time>
      </trkpt>
      <trkpt lat="42.47813" lon="2.91789">
        <ele>804.8</ele>
        <time>2021-11-14T15:04:56Z</time>
      </trkpt>
      <trkpt lat="42.47816" lon="2.91791">
        <ele>805.1</ele>
        <time>2021-11-14T15:04:58Z</time>
      </trkpt>
      <trkpt lat="42.47816" lon="2.91792">
        <ele>805.2</ele>
        <time>2021-11-14T15:04:59Z</time>
      </trkpt>
      <trkpt lat="42.47818" lon="2.91794">
        <ele>805.4</ele>
        <time>2021-11-14T15:05:00Z</time>
      </trkpt>
      <trkpt lat="42.4782" lon="2.91795">
        <ele>805.6</ele>
        <time>2021-11-14T15:05:02Z</time>
      </trkpt>
      <trkpt lat="42.47823" lon="2.91798">
        <ele>805.9</ele>
        <time>2021-11-14T15:05:03Z</time>
      </trkpt>
      <trkpt lat="42.47824" lon="2.91798">
        <ele>806</ele>
        <time>2021-11-14T15:05:04Z</time>
      </trkpt>
      <trkpt lat="42.47827" lon="2.91801">
        <ele>806.4</ele>
        <time>2021-11-14T15:05:06Z</time>
      </trkpt>
      <trkpt lat="42.47829" lon="2.91803">
        <ele>806.6</ele>
        <time>2021-11-14T15:05:07Z</time>
      </trkpt>
      <trkpt lat="42.47831" lon="2.91806">
        <ele>807</ele>
        <time>2021-11-14T15:05:09Z</time>
      </trkpt>
      <trkpt lat="42.47834" lon="2.91811">
        <ele>807.6</ele>
        <time>2021-11-14T15:05:11Z</time>
      </trkpt>
      <trkpt lat="42.47835" lon="2.91812">
        <ele>807.7</ele>
        <time>2021-11-14T15:05:12Z</time>
      </trkpt>
      <trkpt lat="42.47836" lon="2.91814">
        <ele>807.9</ele>
        <time>2021-11-14T15:05:13Z</time>
      </trkpt>
      <trkpt lat="42.47837" lon="2.91816">
        <ele>808.1</ele>
        <time>2021-11-14T15:05:14Z</time>
      </trkpt>
      <trkpt lat="42.47839" lon="2.91821">
        <ele>808.6</ele>
        <time>2021-11-14T15:05:16Z</time>
      </trkpt>
      <trkpt lat="42.47841" lon="2.91823">
        <ele>808.8</ele>
        <time>2021-11-14T15:05:17Z</time>
      </trkpt>
      <trkpt lat="42.47843" lon="2.91827">
        <ele>809.2</ele>
        <time>2021-11-14T15:05:19Z</time>
      </trkpt>
      <trkpt lat="42.47844" lon="2.9183">
        <ele>809.4</ele>
        <time>2021-11-14T15:05:20Z</time>
      </trkpt>
      <trkpt lat="42.47846" lon="2.91833">
        <ele>809.7</ele>
        <time>2021-11-14T15:05:22Z</time>
      </trkpt>
      <trkpt lat="42.47847" lon="2.91835">
        <ele>809.9</ele>
        <time>2021-11-14T15:05:23Z</time>
      </trkpt>
      <trkpt lat="42.47849" lon="2.91838">
        <ele>810.2</ele>
        <time>2021-11-14T15:05:25Z</time>
      </trkpt>
      <trkpt lat="42.47852" lon="2.91842">
        <ele>810.5</ele>
        <time>2021-11-14T15:05:26Z</time>
      </trkpt>
      <trkpt lat="42.47852" lon="2.91843">
        <ele>810.7</ele>
        <time>2021-11-14T15:05:27Z</time>
      </trkpt>
      <trkpt lat="42.47855" lon="2.91847">
        <ele>811</ele>
        <time>2021-11-14T15:05:29Z</time>
      </trkpt>
      <trkpt lat="42.47856" lon="2.91849">
        <ele>811.1</ele>
        <time>2021-11-14T15:05:30Z</time>
      </trkpt>
      <trkpt lat="42.47857" lon="2.9185">
        <ele>811.2</ele>
        <time>2021-11-14T15:05:31Z</time>
      </trkpt>
      <trkpt lat="42.47859" lon="2.91852">
        <ele>811.4</ele>
        <time>2021-11-14T15:05:32Z</time>
      </trkpt>
      <trkpt lat="42.47861" lon="2.91855">
        <ele>811.7</ele>
        <time>2021-11-14T15:05:34Z</time>
      </trkpt>
      <trkpt lat="42.47864" lon="2.91858">
        <ele>812</ele>
        <time>2021-11-14T15:05:35Z</time>
      </trkpt>
      <trkpt lat="42.47865" lon="2.91859">
        <ele>812.1</ele>
        <time>2021-11-14T15:05:36Z</time>
      </trkpt>
      <trkpt lat="42.47867" lon="2.9186">
        <ele>812.3</ele>
        <time>2021-11-14T15:05:37Z</time>
      </trkpt>
      <trkpt lat="42.47869" lon="2.91862">
        <ele>812.5</ele>
        <time>2021-11-14T15:05:39Z</time>
      </trkpt>
      <trkpt lat="42.47873" lon="2.91864">
        <ele>812.9</ele>
        <time>2021-11-14T15:05:41Z</time>
      </trkpt>
      <trkpt lat="42.47876" lon="2.91865">
        <ele>813.2</ele>
        <time>2021-11-14T15:05:42Z</time>
      </trkpt>
      <trkpt lat="42.47878" lon="2.91866">
        <ele>813.3</ele>
        <time>2021-11-14T15:05:43Z</time>
      </trkpt>
      <trkpt lat="42.47881" lon="2.91866">
        <ele>813.6</ele>
        <time>2021-11-14T15:05:45Z</time>
      </trkpt>
      <trkpt lat="42.47882" lon="2.91866">
        <ele>813.7</ele>
        <time>2021-11-14T15:05:46Z</time>
      </trkpt>
      <trkpt lat="42.47884" lon="2.91867">
        <ele>813.9</ele>
        <time>2021-11-14T15:05:47Z</time>
      </trkpt>
      <trkpt lat="42.47885" lon="2.91867">
        <ele>814</ele>
        <time>2021-11-14T15:05:48Z</time>
      </trkpt>
      <trkpt lat="42.47887" lon="2.91868">
        <ele>814.2</ele>
        <time>2021-11-14T15:05:49Z</time>
      </trkpt>
      <trkpt lat="42.4789" lon="2.91868">
        <ele>814.4</ele>
        <time>2021-11-14T15:05:51Z</time>
      </trkpt>
      <trkpt lat="42.47892" lon="2.91868">
        <ele>814.5</ele>
        <time>2021-11-14T15:05:52Z</time>
      </trkpt>
      <trkpt lat="42.47893" lon="2.91867">
        <ele>814.7</ele>
        <time>2021-11-14T15:05:53Z</time>
      </trkpt>
      <trkpt lat="42.47895" lon="2.91867">
        <ele>814.8</ele>
        <time>2021-11-14T15:05:54Z</time>
      </trkpt>
      <trkpt lat="42.47898" lon="2.91866">
        <ele>815.1</ele>
        <time>2021-11-14T15:05:56Z</time>
      </trkpt>
      <trkpt lat="42.47902" lon="2.91864">
        <ele>815.4</ele>
        <time>2021-11-14T15:05:58Z</time>
      </trkpt>
      <trkpt lat="42.47903" lon="2.91864">
        <ele>815.5</ele>
        <time>2021-11-14T15:05:59Z</time>
      </trkpt>
      <trkpt lat="42.47904" lon="2.91863">
        <ele>815.6</ele>
        <time>2021-11-14T15:06:00Z</time>
      </trkpt>
      <trkpt lat="42.47908" lon="2.91861">
        <ele>815.9</ele>
        <time>2021-11-14T15:06:02Z</time>
      </trkpt>
      <trkpt lat="42.47909" lon="2.9186">
        <ele>816.1</ele>
        <time>2021-11-14T15:06:03Z</time>
      </trkpt>
      <trkpt lat="42.47913" lon="2.91857">
        <ele>816.4</ele>
        <time>2021-11-14T15:06:05Z</time>
      </trkpt>
      <trkpt lat="42.47914" lon="2.91856">
        <ele>816.5</ele>
        <time>2021-11-14T15:06:06Z</time>
      </trkpt>
      <trkpt lat="42.47917" lon="2.91853">
        <ele>816.8</ele>
        <time>2021-11-14T15:06:08Z</time>
      </trkpt>
      <trkpt lat="42.47919" lon="2.91851">
        <ele>817</ele>
        <time>2021-11-14T15:06:09Z</time>
      </trkpt>
      <trkpt lat="42.47921" lon="2.9185">
        <ele>817.2</ele>
        <time>2021-11-14T15:06:10Z</time>
      </trkpt>
      <trkpt lat="42.47924" lon="2.91847">
        <ele>817.5</ele>
        <time>2021-11-14T15:06:12Z</time>
      </trkpt>
      <trkpt lat="42.47927" lon="2.91845">
        <ele>817.7</ele>
        <time>2021-11-14T15:06:13Z</time>
      </trkpt>
      <trkpt lat="42.47927" lon="2.91844">
        <ele>817.8</ele>
        <time>2021-11-14T15:06:14Z</time>
      </trkpt>
      <trkpt lat="42.47929" lon="2.91842">
        <ele>817.9</ele>
        <time>2021-11-14T15:06:15Z</time>
      </trkpt>
      <trkpt lat="42.47931" lon="2.9184">
        <ele>818.2</ele>
        <time>2021-11-14T15:06:17Z</time>
      </trkpt>
      <trkpt lat="42.47934" lon="2.91837">
        <ele>818.4</ele>
        <time>2021-11-14T15:06:18Z</time>
      </trkpt>
      <trkpt lat="42.47934" lon="2.91836">
        <ele>818.5</ele>
        <time>2021-11-14T15:06:19Z</time>
      </trkpt>
      <trkpt lat="42.47937" lon="2.91834">
        <ele>818.7</ele>
        <time>2021-11-14T15:06:20Z</time>
      </trkpt>
      <trkpt lat="42.47939" lon="2.91832">
        <ele>818.9</ele>
        <time>2021-11-14T15:06:22Z</time>
      </trkpt>
      <trkpt lat="42.47941" lon="2.9183">
        <ele>819.1</ele>
        <time>2021-11-14T15:06:23Z</time>
      </trkpt>
      <trkpt lat="42.47944" lon="2.91827">
        <ele>819.4</ele>
        <time>2021-11-14T15:06:25Z</time>
      </trkpt>
      <trkpt lat="42.47945" lon="2.91826">
        <ele>819.5</ele>
        <time>2021-11-14T15:06:26Z</time>
      </trkpt>
      <trkpt lat="42.47948" lon="2.91822">
        <ele>819.8</ele>
        <time>2021-11-14T15:06:27Z</time>
      </trkpt>
      <trkpt lat="42.47949" lon="2.91821">
        <ele>819.9</ele>
        <time>2021-11-14T15:06:28Z</time>
      </trkpt>
      <trkpt lat="42.47951" lon="2.91819">
        <ele>820.1</ele>
        <time>2021-11-14T15:06:30Z</time>
      </trkpt>
      <trkpt lat="42.47953" lon="2.91817">
        <ele>820.3</ele>
        <time>2021-11-14T15:06:31Z</time>
      </trkpt>
      <trkpt lat="42.47956" lon="2.91812">
        <ele>820.7</ele>
        <time>2021-11-14T15:06:33Z</time>
      </trkpt>
      <trkpt lat="42.47959" lon="2.91808">
        <ele>821</ele>
        <time>2021-11-14T15:06:35Z</time>
      </trkpt>
      <trkpt lat="42.47962" lon="2.91804">
        <ele>821.4</ele>
        <time>2021-11-14T15:06:36Z</time>
      </trkpt>
      <trkpt lat="42.47964" lon="2.91802">
        <ele>821.5</ele>
        <time>2021-11-14T15:06:37Z</time>
      </trkpt>
      <trkpt lat="42.47966" lon="2.91799">
        <ele>821.7</ele>
        <time>2021-11-14T15:06:39Z</time>
      </trkpt>
      <trkpt lat="42.47968" lon="2.91796">
        <ele>821.9</ele>
        <time>2021-11-14T15:06:40Z</time>
      </trkpt>
      <trkpt lat="42.47971" lon="2.91791">
        <ele>822.2</ele>
        <time>2021-11-14T15:06:42Z</time>
      </trkpt>
      <trkpt lat="42.47972" lon="2.9179">
        <ele>822.3</ele>
        <time>2021-11-14T15:06:43Z</time>
      </trkpt>
      <trkpt lat="42.47973" lon="2.91788">
        <ele>822.4</ele>
        <time>2021-11-14T15:06:44Z</time>
      </trkpt>
      <trkpt lat="42.47975" lon="2.91785">
        <ele>822.6</ele>
        <time>2021-11-14T15:06:46Z</time>
      </trkpt>
      <trkpt lat="42.47976" lon="2.91783">
        <ele>822.7</ele>
        <time>2021-11-14T15:06:47Z</time>
      </trkpt>
      <trkpt lat="42.47979" lon="2.91779">
        <ele>823</ele>
        <time>2021-11-14T15:06:49Z</time>
      </trkpt>
      <trkpt lat="42.47981" lon="2.91777">
        <ele>823.1</ele>
        <time>2021-11-14T15:06:50Z</time>
      </trkpt>
      <trkpt lat="42.47983" lon="2.91772">
        <ele>823.4</ele>
        <time>2021-11-14T15:06:52Z</time>
      </trkpt>
      <trkpt lat="42.47985" lon="2.9177">
        <ele>823.5</ele>
        <time>2021-11-14T15:06:53Z</time>
      </trkpt>
      <trkpt lat="42.47988" lon="2.91766">
        <ele>823.8</ele>
        <time>2021-11-14T15:06:55Z</time>
      </trkpt>
      <trkpt lat="42.47989" lon="2.91763">
        <ele>824</ele>
        <time>2021-11-14T15:06:56Z</time>
      </trkpt>
      <trkpt lat="42.47992" lon="2.91759">
        <ele>824.2</ele>
        <time>2021-11-14T15:06:58Z</time>
      </trkpt>
      <trkpt lat="42.47993" lon="2.91758">
        <ele>824.3</ele>
        <time>2021-11-14T15:06:59Z</time>
      </trkpt>
      <trkpt lat="42.47995" lon="2.91754">
        <ele>824.6</ele>
        <time>2021-11-14T15:07:01Z</time>
      </trkpt>
      <trkpt lat="42.47998" lon="2.9175">
        <ele>824.9</ele>
        <time>2021-11-14T15:07:02Z</time>
      </trkpt>
      <trkpt lat="42.47999" lon="2.91749">
        <ele>825</ele>
        <time>2021-11-14T15:07:03Z</time>
      </trkpt>
      <trkpt lat="42.48001" lon="2.91745">
        <ele>825.3</ele>
        <time>2021-11-14T15:07:05Z</time>
      </trkpt>
      <trkpt lat="42.48004" lon="2.91741">
        <ele>825.6</ele>
        <time>2021-11-14T15:07:06Z</time>
      </trkpt>
      <trkpt lat="42.48006" lon="2.91738">
        <ele>825.9</ele>
        <time>2021-11-14T15:07:08Z</time>
      </trkpt>
      <trkpt lat="42.48007" lon="2.91737">
        <ele>826</ele>
        <time>2021-11-14T15:07:09Z</time>
      </trkpt>
      <trkpt lat="42.48009" lon="2.91733">
        <ele>826.3</ele>
        <time>2021-11-14T15:07:10Z</time>
      </trkpt>
      <trkpt lat="42.4801" lon="2.91732">
        <ele>826.4</ele>
        <time>2021-11-14T15:07:11Z</time>
      </trkpt>
      <trkpt lat="42.48012" lon="2.91729">
        <ele>826.6</ele>
        <time>2021-11-14T15:07:12Z</time>
      </trkpt>
      <trkpt lat="42.48014" lon="2.91727">
        <ele>826.9</ele>
        <time>2021-11-14T15:07:13Z</time>
      </trkpt>
      <trkpt lat="42.48015" lon="2.91726">
        <ele>826.9</ele>
        <time>2021-11-14T15:07:14Z</time>
      </trkpt>
      <trkpt lat="42.48017" lon="2.91723">
        <ele>827.2</ele>
        <time>2021-11-14T15:07:16Z</time>
      </trkpt>
      <trkpt lat="42.4802" lon="2.91721">
        <ele>827.4</ele>
        <time>2021-11-14T15:07:17Z</time>
      </trkpt>
      <trkpt lat="42.48022" lon="2.91719">
        <ele>827.7</ele>
        <time>2021-11-14T15:07:19Z</time>
      </trkpt>
      <trkpt lat="42.48025" lon="2.91716">
        <ele>827.9</ele>
        <time>2021-11-14T15:07:20Z</time>
      </trkpt>
      <trkpt lat="42.48026" lon="2.91715">
        <ele>828.1</ele>
        <time>2021-11-14T15:07:21Z</time>
      </trkpt>
      <trkpt lat="42.4803" lon="2.91713">
        <ele>828.4</ele>
        <time>2021-11-14T15:07:22Z</time>
      </trkpt>
      <trkpt lat="42.48031" lon="2.91712">
        <ele>828.5</ele>
        <time>2021-11-14T15:07:23Z</time>
      </trkpt>
      <trkpt lat="42.48035" lon="2.91709">
        <ele>828.8</ele>
        <time>2021-11-14T15:07:25Z</time>
      </trkpt>
      <trkpt lat="42.48036" lon="2.91708">
        <ele>828.9</ele>
        <time>2021-11-14T15:07:26Z</time>
      </trkpt>
      <trkpt lat="42.48038" lon="2.91708">
        <ele>829.1</ele>
        <time>2021-11-14T15:07:27Z</time>
      </trkpt>
      <trkpt lat="42.4804" lon="2.91706">
        <ele>829.3</ele>
        <time>2021-11-14T15:07:28Z</time>
      </trkpt>
      <trkpt lat="42.48044" lon="2.91704">
        <ele>829.6</ele>
        <time>2021-11-14T15:07:30Z</time>
      </trkpt>
      <trkpt lat="42.48046" lon="2.91704">
        <ele>829.7</ele>
        <time>2021-11-14T15:07:31Z</time>
      </trkpt>
      <trkpt lat="42.48047" lon="2.91703">
        <ele>829.8</ele>
        <time>2021-11-14T15:07:32Z</time>
      </trkpt>
      <trkpt lat="42.48051" lon="2.91702">
        <ele>830.1</ele>
        <time>2021-11-14T15:07:34Z</time>
      </trkpt>
      <trkpt lat="42.48054" lon="2.91701">
        <ele>830.3</ele>
        <time>2021-11-14T15:07:35Z</time>
      </trkpt>
      <trkpt lat="42.48055" lon="2.91701">
        <ele>830.4</ele>
        <time>2021-11-14T15:07:36Z</time>
      </trkpt>
      <trkpt lat="42.48058" lon="2.917">
        <ele>830.7</ele>
        <time>2021-11-14T15:07:37Z</time>
      </trkpt>
      <trkpt lat="42.48059" lon="2.917">
        <ele>830.8</ele>
        <time>2021-11-14T15:07:38Z</time>
      </trkpt>
      <trkpt lat="42.48063" lon="2.91699">
        <ele>831</ele>
        <time>2021-11-14T15:07:40Z</time>
      </trkpt>
      <trkpt lat="42.48064" lon="2.91699">
        <ele>831.2</ele>
        <time>2021-11-14T15:07:41Z</time>
      </trkpt>
      <trkpt lat="42.48068" lon="2.91698">
        <ele>831.5</ele>
        <time>2021-11-14T15:07:43Z</time>
      </trkpt>
      <trkpt lat="42.4807" lon="2.91698">
        <ele>831.7</ele>
        <time>2021-11-14T15:07:44Z</time>
      </trkpt>
      <trkpt lat="42.48073" lon="2.91697">
        <ele>831.9</ele>
        <time>2021-11-14T15:07:46Z</time>
      </trkpt>
      <trkpt lat="42.48076" lon="2.91696">
        <ele>832.2</ele>
        <time>2021-11-14T15:07:47Z</time>
      </trkpt>
      <trkpt lat="42.48077" lon="2.91695">
        <ele>832.3</ele>
        <time>2021-11-14T15:07:48Z</time>
      </trkpt>
      <trkpt lat="42.48079" lon="2.91695">
        <ele>832.5</ele>
        <time>2021-11-14T15:07:49Z</time>
      </trkpt>
      <trkpt lat="42.48083" lon="2.91692">
        <ele>832.9</ele>
        <time>2021-11-14T15:07:51Z</time>
      </trkpt>
      <trkpt lat="42.48087" lon="2.91689">
        <ele>833.3</ele>
        <time>2021-11-14T15:07:53Z</time>
      </trkpt>
      <trkpt lat="42.48088" lon="2.91688">
        <ele>833.5</ele>
        <time>2021-11-14T15:07:54Z</time>
      </trkpt>
      <trkpt lat="42.48093" lon="2.91685">
        <ele>833.9</ele>
        <time>2021-11-14T15:07:56Z</time>
      </trkpt>
      <trkpt lat="42.48096" lon="2.91681">
        <ele>834.2</ele>
        <time>2021-11-14T15:07:58Z</time>
      </trkpt>
      <trkpt lat="42.48099" lon="2.91679">
        <ele>834.6</ele>
        <time>2021-11-14T15:07:59Z</time>
      </trkpt>
      <trkpt lat="42.481" lon="2.91678">
        <ele>834.7</ele>
        <time>2021-11-14T15:08:00Z</time>
      </trkpt>
      <trkpt lat="42.48103" lon="2.91675">
        <ele>835</ele>
        <time>2021-11-14T15:08:01Z</time>
      </trkpt>
      <trkpt lat="42.48104" lon="2.91674">
        <ele>835.1</ele>
        <time>2021-11-14T15:08:02Z</time>
      </trkpt>
      <trkpt lat="42.48107" lon="2.91672">
        <ele>835.5</ele>
        <time>2021-11-14T15:08:04Z</time>
      </trkpt>
      <trkpt lat="42.4811" lon="2.91668">
        <ele>835.8</ele>
        <time>2021-11-14T15:08:05Z</time>
      </trkpt>
      <trkpt lat="42.48112" lon="2.91667">
        <ele>835.9</ele>
        <time>2021-11-14T15:08:06Z</time>
      </trkpt>
      <trkpt lat="42.48114" lon="2.91663">
        <ele>836.2</ele>
        <time>2021-11-14T15:08:08Z</time>
      </trkpt>
      <trkpt lat="42.48117" lon="2.9166">
        <ele>836.5</ele>
        <time>2021-11-14T15:08:09Z</time>
      </trkpt>
      <trkpt lat="42.4812" lon="2.91655">
        <ele>836.9</ele>
        <time>2021-11-14T15:08:11Z</time>
      </trkpt>
      <trkpt lat="42.48122" lon="2.91651">
        <ele>837.2</ele>
        <time>2021-11-14T15:08:12Z</time>
      </trkpt>
      <trkpt lat="42.48124" lon="2.91649">
        <ele>837.4</ele>
        <time>2021-11-14T15:08:13Z</time>
      </trkpt>
      <trkpt lat="42.48127" lon="2.91645">
        <ele>837.6</ele>
        <time>2021-11-14T15:08:15Z</time>
      </trkpt>
      <trkpt lat="42.48129" lon="2.91641">
        <ele>838</ele>
        <time>2021-11-14T15:08:17Z</time>
      </trkpt>
      <trkpt lat="42.48132" lon="2.91638">
        <ele>838.2</ele>
        <time>2021-11-14T15:08:18Z</time>
      </trkpt>
      <trkpt lat="42.48133" lon="2.91636">
        <ele>838.4</ele>
        <time>2021-11-14T15:08:19Z</time>
      </trkpt>
      <trkpt lat="42.48137" lon="2.91632">
        <ele>838.8</ele>
        <time>2021-11-14T15:08:21Z</time>
      </trkpt>
      <trkpt lat="42.4814" lon="2.91629">
        <ele>839.1</ele>
        <time>2021-11-14T15:08:22Z</time>
      </trkpt>
      <trkpt lat="42.48141" lon="2.91628">
        <ele>839.2</ele>
        <time>2021-11-14T15:08:23Z</time>
      </trkpt>
      <trkpt lat="42.48144" lon="2.91625">
        <ele>839.5</ele>
        <time>2021-11-14T15:08:24Z</time>
      </trkpt>
      <trkpt lat="42.48146" lon="2.91623">
        <ele>839.9</ele>
        <time>2021-11-14T15:08:26Z</time>
      </trkpt>
      <trkpt lat="42.48147" lon="2.91623">
        <ele>840</ele>
        <time>2021-11-14T15:08:27Z</time>
      </trkpt>
      <trkpt lat="42.48149" lon="2.91622">
        <ele>840.1</ele>
        <time>2021-11-14T15:08:28Z</time>
      </trkpt>
      <trkpt lat="42.4815" lon="2.91621">
        <ele>840.3</ele>
        <time>2021-11-14T15:08:29Z</time>
      </trkpt>
      <trkpt lat="42.48155" lon="2.91619">
        <ele>840.8</ele>
        <time>2021-11-14T15:08:31Z</time>
      </trkpt>
      <trkpt lat="42.48156" lon="2.91618">
        <ele>840.9</ele>
        <time>2021-11-14T15:08:32Z</time>
      </trkpt>
      <trkpt lat="42.48158" lon="2.91617">
        <ele>841.1</ele>
        <time>2021-11-14T15:08:33Z</time>
      </trkpt>
      <trkpt lat="42.4816" lon="2.91616">
        <ele>841.3</ele>
        <time>2021-11-14T15:08:34Z</time>
      </trkpt>
      <trkpt lat="42.48164" lon="2.91615">
        <ele>841.6</ele>
        <time>2021-11-14T15:08:36Z</time>
      </trkpt>
      <trkpt lat="42.48167" lon="2.91614">
        <ele>842</ele>
        <time>2021-11-14T15:08:37Z</time>
      </trkpt>
      <trkpt lat="42.48168" lon="2.91614">
        <ele>842.1</ele>
        <time>2021-11-14T15:08:38Z</time>
      </trkpt>
      <trkpt lat="42.48171" lon="2.91612">
        <ele>842.3</ele>
        <time>2021-11-14T15:08:39Z</time>
      </trkpt>
      <trkpt lat="42.48174" lon="2.91612">
        <ele>842.6</ele>
        <time>2021-11-14T15:08:40Z</time>
      </trkpt>
      <trkpt lat="42.48177" lon="2.9161">
        <ele>842.8</ele>
        <time>2021-11-14T15:08:41Z</time>
      </trkpt>
      <trkpt lat="42.48182" lon="2.91609">
        <ele>843.2</ele>
        <time>2021-11-14T15:08:43Z</time>
      </trkpt>
      <trkpt lat="42.48183" lon="2.91609">
        <ele>843.4</ele>
        <time>2021-11-14T15:08:44Z</time>
      </trkpt>
      <trkpt lat="42.48185" lon="2.91608">
        <ele>843.5</ele>
        <time>2021-11-14T15:08:45Z</time>
      </trkpt>
      <trkpt lat="42.48188" lon="2.91607">
        <ele>843.8</ele>
        <time>2021-11-14T15:08:46Z</time>
      </trkpt>
      <trkpt lat="42.48191" lon="2.91606">
        <ele>844</ele>
        <time>2021-11-14T15:08:48Z</time>
      </trkpt>
      <trkpt lat="42.48194" lon="2.91605">
        <ele>844.3</ele>
        <time>2021-11-14T15:08:49Z</time>
      </trkpt>
      <trkpt lat="42.48196" lon="2.91604">
        <ele>844.5</ele>
        <time>2021-11-14T15:08:50Z</time>
      </trkpt>
      <trkpt lat="42.48199" lon="2.91604">
        <ele>844.7</ele>
        <time>2021-11-14T15:08:52Z</time>
      </trkpt>
      <trkpt lat="42.48203" lon="2.91604">
        <ele>845.1</ele>
        <time>2021-11-14T15:08:53Z</time>
      </trkpt>
      <trkpt lat="42.48204" lon="2.91604">
        <ele>845.2</ele>
        <time>2021-11-14T15:08:54Z</time>
      </trkpt>
      <trkpt lat="42.48208" lon="2.91604">
        <ele>845.4</ele>
        <time>2021-11-14T15:08:56Z</time>
      </trkpt>
      <trkpt lat="42.48209" lon="2.91604">
        <ele>845.6</ele>
        <time>2021-11-14T15:08:57Z</time>
      </trkpt>
      <trkpt lat="42.48211" lon="2.91604">
        <ele>845.7</ele>
        <time>2021-11-14T15:08:58Z</time>
      </trkpt>
      <trkpt lat="42.48215" lon="2.91605">
        <ele>846</ele>
        <time>2021-11-14T15:09:00Z</time>
      </trkpt>
      <trkpt lat="42.48217" lon="2.91605">
        <ele>846.2</ele>
        <time>2021-11-14T15:09:01Z</time>
      </trkpt>
      <trkpt lat="42.48221" lon="2.91606">
        <ele>846.4</ele>
        <time>2021-11-14T15:09:03Z</time>
      </trkpt>
      <trkpt lat="42.48225" lon="2.91606">
        <ele>846.7</ele>
        <time>2021-11-14T15:09:04Z</time>
      </trkpt>
      <trkpt lat="42.48226" lon="2.91606">
        <ele>846.8</ele>
        <time>2021-11-14T15:09:05Z</time>
      </trkpt>
      <trkpt lat="42.48229" lon="2.91606">
        <ele>847</ele>
        <time>2021-11-14T15:09:06Z</time>
      </trkpt>
      <trkpt lat="42.48231" lon="2.91606">
        <ele>847.1</ele>
        <time>2021-11-14T15:09:07Z</time>
      </trkpt>
      <trkpt lat="42.48234" lon="2.91606">
        <ele>847.3</ele>
        <time>2021-11-14T15:09:09Z</time>
      </trkpt>
      <trkpt lat="42.48237" lon="2.91607">
        <ele>847.5</ele>
        <time>2021-11-14T15:09:10Z</time>
      </trkpt>
      <trkpt lat="42.48238" lon="2.91607">
        <ele>847.6</ele>
        <time>2021-11-14T15:09:11Z</time>
      </trkpt>
      <trkpt lat="42.4824" lon="2.91607">
        <ele>847.7</ele>
        <time>2021-11-14T15:09:12Z</time>
      </trkpt>
      <trkpt lat="42.48244" lon="2.91607">
        <ele>848</ele>
        <time>2021-11-14T15:09:14Z</time>
      </trkpt>
      <trkpt lat="42.48247" lon="2.91606">
        <ele>848.3</ele>
        <time>2021-11-14T15:09:15Z</time>
      </trkpt>
      <trkpt lat="42.48251" lon="2.91606">
        <ele>848.6</ele>
        <time>2021-11-14T15:09:17Z</time>
      </trkpt>
      <trkpt lat="42.48253" lon="2.91605">
        <ele>848.7</ele>
        <time>2021-11-14T15:09:18Z</time>
      </trkpt>
      <trkpt lat="42.48257" lon="2.91604">
        <ele>849.1</ele>
        <time>2021-11-14T15:09:20Z</time>
      </trkpt>
      <trkpt lat="42.4826" lon="2.91604">
        <ele>849.4</ele>
        <time>2021-11-14T15:09:21Z</time>
      </trkpt>
      <trkpt lat="42.48264" lon="2.91603">
        <ele>849.6</ele>
        <time>2021-11-14T15:09:23Z</time>
      </trkpt>
      <trkpt lat="42.48265" lon="2.91603">
        <ele>849.7</ele>
        <time>2021-11-14T15:09:24Z</time>
      </trkpt>
      <trkpt lat="42.48267" lon="2.91602">
        <ele>849.9</ele>
        <time>2021-11-14T15:09:25Z</time>
      </trkpt>
      <trkpt lat="42.4827" lon="2.91601">
        <ele>850.1</ele>
        <time>2021-11-14T15:09:27Z</time>
      </trkpt>
      <trkpt lat="42.48273" lon="2.916">
        <ele>850.3</ele>
        <time>2021-11-14T15:09:28Z</time>
      </trkpt>
      <trkpt lat="42.48276" lon="2.91598">
        <ele>850.6</ele>
        <time>2021-11-14T15:09:29Z</time>
      </trkpt>
      <trkpt lat="42.48277" lon="2.91598">
        <ele>850.7</ele>
        <time>2021-11-14T15:09:30Z</time>
      </trkpt>
      <trkpt lat="42.48281" lon="2.91596">
        <ele>851</ele>
        <time>2021-11-14T15:09:32Z</time>
      </trkpt>
      <trkpt lat="42.48285" lon="2.91594">
        <ele>851.2</ele>
        <time>2021-11-14T15:09:33Z</time>
      </trkpt>
      <trkpt lat="42.48286" lon="2.91593">
        <ele>851.4</ele>
        <time>2021-11-14T15:09:34Z</time>
      </trkpt>
      <trkpt lat="42.4829" lon="2.9159">
        <ele>851.7</ele>
        <time>2021-11-14T15:09:36Z</time>
      </trkpt>
      <trkpt lat="42.48291" lon="2.91589">
        <ele>851.8</ele>
        <time>2021-11-14T15:09:37Z</time>
      </trkpt>
      <trkpt lat="42.48293" lon="2.91587">
        <ele>852</ele>
        <time>2021-11-14T15:09:38Z</time>
      </trkpt>
      <trkpt lat="42.48297" lon="2.91584">
        <ele>852.3</ele>
        <time>2021-11-14T15:09:40Z</time>
      </trkpt>
      <trkpt lat="42.483" lon="2.91582">
        <ele>852.6</ele>
        <time>2021-11-14T15:09:42Z</time>
      </trkpt>
      <trkpt lat="42.48303" lon="2.91579">
        <ele>852.9</ele>
        <time>2021-11-14T15:09:43Z</time>
      </trkpt>
      <trkpt lat="42.48306" lon="2.91577">
        <ele>853.2</ele>
        <time>2021-11-14T15:09:45Z</time>
      </trkpt>
      <trkpt lat="42.48309" lon="2.91574">
        <ele>853.5</ele>
        <time>2021-11-14T15:09:46Z</time>
      </trkpt>
      <trkpt lat="42.48311" lon="2.91571">
        <ele>853.7</ele>
        <time>2021-11-14T15:09:48Z</time>
      </trkpt>
      <trkpt lat="42.48313" lon="2.91569">
        <ele>853.9</ele>
        <time>2021-11-14T15:09:49Z</time>
      </trkpt>
      <trkpt lat="42.48316" lon="2.91566">
        <ele>854.2</ele>
        <time>2021-11-14T15:09:51Z</time>
      </trkpt>
      <trkpt lat="42.48318" lon="2.91564">
        <ele>854.4</ele>
        <time>2021-11-14T15:09:52Z</time>
      </trkpt>
      <trkpt lat="42.48321" lon="2.91562">
        <ele>854.6</ele>
        <time>2021-11-14T15:09:54Z</time>
      </trkpt>
      <trkpt lat="42.48323" lon="2.91559">
        <ele>854.8</ele>
        <time>2021-11-14T15:09:55Z</time>
      </trkpt>
      <trkpt lat="42.48326" lon="2.91556">
        <ele>855.1</ele>
        <time>2021-11-14T15:09:57Z</time>
      </trkpt>
      <trkpt lat="42.48329" lon="2.91553">
        <ele>855.3</ele>
        <time>2021-11-14T15:09:58Z</time>
      </trkpt>
      <trkpt lat="42.4833" lon="2.91552">
        <ele>855.4</ele>
        <time>2021-11-14T15:09:59Z</time>
      </trkpt>
      <trkpt lat="42.48333" lon="2.91548">
        <ele>855.7</ele>
        <time>2021-11-14T15:10:00Z</time>
      </trkpt>
      <trkpt lat="42.48334" lon="2.91546">
        <ele>855.8</ele>
        <time>2021-11-14T15:10:01Z</time>
      </trkpt>
      <trkpt lat="42.48337" lon="2.91543">
        <ele>856</ele>
        <time>2021-11-14T15:10:03Z</time>
      </trkpt>
      <trkpt lat="42.48339" lon="2.91542">
        <ele>856.2</ele>
        <time>2021-11-14T15:10:04Z</time>
      </trkpt>
      <trkpt lat="42.48341" lon="2.91539">
        <ele>856.4</ele>
        <time>2021-11-14T15:10:06Z</time>
      </trkpt>
      <trkpt lat="42.48343" lon="2.91535">
        <ele>856.6</ele>
        <time>2021-11-14T15:10:07Z</time>
      </trkpt>
      <trkpt lat="42.48344" lon="2.91534">
        <ele>856.7</ele>
        <time>2021-11-14T15:10:08Z</time>
      </trkpt>
      <trkpt lat="42.48345" lon="2.9153">
        <ele>856.9</ele>
        <time>2021-11-14T15:10:09Z</time>
      </trkpt>
      <trkpt lat="42.48347" lon="2.91527">
        <ele>857</ele>
        <time>2021-11-14T15:10:10Z</time>
      </trkpt>
      <trkpt lat="42.48348" lon="2.91525">
        <ele>857.2</ele>
        <time>2021-11-14T15:10:12Z</time>
      </trkpt>
      <trkpt lat="42.48351" lon="2.9152">
        <ele>857.5</ele>
        <time>2021-11-14T15:10:14Z</time>
      </trkpt>
      <trkpt lat="42.48353" lon="2.91517">
        <ele>857.7</ele>
        <time>2021-11-14T15:10:15Z</time>
      </trkpt>
      <trkpt lat="42.48355" lon="2.91515">
        <ele>857.9</ele>
        <time>2021-11-14T15:10:16Z</time>
      </trkpt>
      <trkpt lat="42.48357" lon="2.91511">
        <ele>858.1</ele>
        <time>2021-11-14T15:10:18Z</time>
      </trkpt>
      <trkpt lat="42.48359" lon="2.91508">
        <ele>858.3</ele>
        <time>2021-11-14T15:10:19Z</time>
      </trkpt>
      <trkpt lat="42.4836" lon="2.91506">
        <ele>858.5</ele>
        <time>2021-11-14T15:10:20Z</time>
      </trkpt>
      <trkpt lat="42.48362" lon="2.91502">
        <ele>858.7</ele>
        <time>2021-11-14T15:10:22Z</time>
      </trkpt>
      <trkpt lat="42.48364" lon="2.91499">
        <ele>858.9</ele>
        <time>2021-11-14T15:10:23Z</time>
      </trkpt>
      <trkpt lat="42.48366" lon="2.91496">
        <ele>859.2</ele>
        <time>2021-11-14T15:10:24Z</time>
      </trkpt>
      <trkpt lat="42.48369" lon="2.91494">
        <ele>859.4</ele>
        <time>2021-11-14T15:10:26Z</time>
      </trkpt>
      <trkpt lat="42.48372" lon="2.91491">
        <ele>859.7</ele>
        <time>2021-11-14T15:10:27Z</time>
      </trkpt>
      <trkpt lat="42.48374" lon="2.9149">
        <ele>859.9</ele>
        <time>2021-11-14T15:10:28Z</time>
      </trkpt>
      <trkpt lat="42.48377" lon="2.91488">
        <ele>860.1</ele>
        <time>2021-11-14T15:10:30Z</time>
      </trkpt>
      <trkpt lat="42.4838" lon="2.91488">
        <ele>860.3</ele>
        <time>2021-11-14T15:10:31Z</time>
      </trkpt>
      <trkpt lat="42.48383" lon="2.91489">
        <ele>860.6</ele>
        <time>2021-11-14T15:10:32Z</time>
      </trkpt>
      <trkpt lat="42.48385" lon="2.9149">
        <ele>860.7</ele>
        <time>2021-11-14T15:10:33Z</time>
      </trkpt>
      <trkpt lat="42.48388" lon="2.91493">
        <ele>861</ele>
        <time>2021-11-14T15:10:35Z</time>
      </trkpt>
      <trkpt lat="42.48389" lon="2.91498">
        <ele>861.2</ele>
        <time>2021-11-14T15:10:36Z</time>
      </trkpt>
      <trkpt lat="42.48389" lon="2.91503">
        <ele>861.4</ele>
        <time>2021-11-14T15:10:38Z</time>
      </trkpt>
      <trkpt lat="42.48389" lon="2.91507">
        <ele>861.6</ele>
        <time>2021-11-14T15:10:39Z</time>
      </trkpt>
      <trkpt lat="42.48387" lon="2.91512">
        <ele>861.8</ele>
        <time>2021-11-14T15:10:40Z</time>
      </trkpt>
      <trkpt lat="42.48384" lon="2.91516">
        <ele>862</ele>
        <time>2021-11-14T15:10:42Z</time>
      </trkpt>
      <trkpt lat="42.48382" lon="2.91519">
        <ele>862.1</ele>
        <time>2021-11-14T15:10:43Z</time>
      </trkpt>
      <trkpt lat="42.4838" lon="2.91522">
        <ele>862.2</ele>
        <time>2021-11-14T15:10:44Z</time>
      </trkpt>
      <trkpt lat="42.48376" lon="2.91526">
        <ele>862.4</ele>
        <time>2021-11-14T15:10:46Z</time>
      </trkpt>
      <trkpt lat="42.48373" lon="2.91528">
        <ele>862.6</ele>
        <time>2021-11-14T15:10:47Z</time>
      </trkpt>
      <trkpt lat="42.48369" lon="2.91532">
        <ele>862.7</ele>
        <time>2021-11-14T15:10:48Z</time>
      </trkpt>
      <trkpt lat="42.48366" lon="2.91534">
        <ele>862.8</ele>
        <time>2021-11-14T15:10:49Z</time>
      </trkpt>
      <trkpt lat="42.48363" lon="2.91538">
        <ele>863</ele>
        <time>2021-11-14T15:10:51Z</time>
      </trkpt>
      <trkpt lat="42.48359" lon="2.91542">
        <ele>863.1</ele>
        <time>2021-11-14T15:10:53Z</time>
      </trkpt>
      <trkpt lat="42.48356" lon="2.91546">
        <ele>863.3</ele>
        <time>2021-11-14T15:10:54Z</time>
      </trkpt>
      <trkpt lat="42.48352" lon="2.91551">
        <ele>863.4</ele>
        <time>2021-11-14T15:10:56Z</time>
      </trkpt>
      <trkpt lat="42.4835" lon="2.91556">
        <ele>863.5</ele>
        <time>2021-11-14T15:10:57Z</time>
      </trkpt>
      <trkpt lat="42.48348" lon="2.91559">
        <ele>863.5</ele>
        <time>2021-11-14T15:10:58Z</time>
      </trkpt>
      <trkpt lat="42.48344" lon="2.91563">
        <ele>863.7</ele>
        <time>2021-11-14T15:10:59Z</time>
      </trkpt>
      <trkpt lat="42.4834" lon="2.91568">
        <ele>863.8</ele>
        <time>2021-11-14T15:11:01Z</time>
      </trkpt>
      <trkpt lat="42.48338" lon="2.91571">
        <ele>863.9</ele>
        <time>2021-11-14T15:11:02Z</time>
      </trkpt>
      <trkpt lat="42.48335" lon="2.91577">
        <ele>864</ele>
        <time>2021-11-14T15:11:04Z</time>
      </trkpt>
      <trkpt lat="42.48333" lon="2.91581">
        <ele>864.1</ele>
        <time>2021-11-14T15:11:05Z</time>
      </trkpt>
      <trkpt lat="42.4833" lon="2.91586">
        <ele>864.3</ele>
        <time>2021-11-14T15:11:06Z</time>
      </trkpt>
      <trkpt lat="42.48327" lon="2.9159">
        <ele>864.4</ele>
        <time>2021-11-14T15:11:08Z</time>
      </trkpt>
      <trkpt lat="42.48324" lon="2.91593">
        <ele>864.5</ele>
        <time>2021-11-14T15:11:09Z</time>
      </trkpt>
      <trkpt lat="42.48322" lon="2.91597">
        <ele>864.7</ele>
        <time>2021-11-14T15:11:10Z</time>
      </trkpt>
      <trkpt lat="42.4832" lon="2.916">
        <ele>864.8</ele>
        <time>2021-11-14T15:11:11Z</time>
      </trkpt>
      <trkpt lat="42.48318" lon="2.91604">
        <ele>865</ele>
        <time>2021-11-14T15:11:13Z</time>
      </trkpt>
      <trkpt lat="42.48316" lon="2.91607">
        <ele>865.2</ele>
        <time>2021-11-14T15:11:14Z</time>
      </trkpt>
      <trkpt lat="42.48314" lon="2.9161">
        <ele>865.4</ele>
        <time>2021-11-14T15:11:15Z</time>
      </trkpt>
      <trkpt lat="42.48312" lon="2.91613">
        <ele>865.5</ele>
        <time>2021-11-14T15:11:16Z</time>
      </trkpt>
      <trkpt lat="42.48309" lon="2.91616">
        <ele>865.8</ele>
        <time>2021-11-14T15:11:18Z</time>
      </trkpt>
      <trkpt lat="42.48307" lon="2.91619">
        <ele>866.1</ele>
        <time>2021-11-14T15:11:19Z</time>
      </trkpt>
      <trkpt lat="42.48304" lon="2.91622">
        <ele>866.4</ele>
        <time>2021-11-14T15:11:20Z</time>
      </trkpt>
      <trkpt lat="42.48303" lon="2.91625">
        <ele>866.7</ele>
        <time>2021-11-14T15:11:22Z</time>
      </trkpt>
      <trkpt lat="42.48301" lon="2.91627">
        <ele>866.9</ele>
        <time>2021-11-14T15:11:23Z</time>
      </trkpt>
      <trkpt lat="42.48298" lon="2.9163">
        <ele>867.2</ele>
        <time>2021-11-14T15:11:25Z</time>
      </trkpt>
      <trkpt lat="42.48296" lon="2.91631">
        <ele>867.4</ele>
        <time>2021-11-14T15:11:26Z</time>
      </trkpt>
      <trkpt lat="42.48293" lon="2.91633">
        <ele>867.7</ele>
        <time>2021-11-14T15:11:28Z</time>
      </trkpt>
      <trkpt lat="42.48291" lon="2.91635">
        <ele>868</ele>
        <time>2021-11-14T15:11:29Z</time>
      </trkpt>
      <trkpt lat="42.48287" lon="2.91637">
        <ele>868.4</ele>
        <time>2021-11-14T15:11:30Z</time>
      </trkpt>
      <trkpt lat="42.48286" lon="2.91638">
        <ele>868.5</ele>
        <time>2021-11-14T15:11:31Z</time>
      </trkpt>
      <trkpt lat="42.48282" lon="2.9164">
        <ele>868.9</ele>
        <time>2021-11-14T15:11:33Z</time>
      </trkpt>
      <trkpt lat="42.4828" lon="2.91642">
        <ele>869.1</ele>
        <time>2021-11-14T15:11:34Z</time>
      </trkpt>
      <trkpt lat="42.48277" lon="2.91644">
        <ele>869.4</ele>
        <time>2021-11-14T15:11:35Z</time>
      </trkpt>
      <trkpt lat="42.48274" lon="2.91646">
        <ele>869.7</ele>
        <time>2021-11-14T15:11:37Z</time>
      </trkpt>
      <trkpt lat="42.4827" lon="2.91648">
        <ele>870</ele>
        <time>2021-11-14T15:11:38Z</time>
      </trkpt>
      <trkpt lat="42.48267" lon="2.91649">
        <ele>870.3</ele>
        <time>2021-11-14T15:11:40Z</time>
      </trkpt>
      <trkpt lat="42.48264" lon="2.91651">
        <ele>870.6</ele>
        <time>2021-11-14T15:11:42Z</time>
      </trkpt>
      <trkpt lat="42.48261" lon="2.91654">
        <ele>870.9</ele>
        <time>2021-11-14T15:11:43Z</time>
      </trkpt>
      <trkpt lat="42.48259" lon="2.91655">
        <ele>871.1</ele>
        <time>2021-11-14T15:11:44Z</time>
      </trkpt>
      <trkpt lat="42.48256" lon="2.91657">
        <ele>871.4</ele>
        <time>2021-11-14T15:11:46Z</time>
      </trkpt>
      <trkpt lat="42.48253" lon="2.91659">
        <ele>871.7</ele>
        <time>2021-11-14T15:11:47Z</time>
      </trkpt>
      <trkpt lat="42.4825" lon="2.9166">
        <ele>871.9</ele>
        <time>2021-11-14T15:11:49Z</time>
      </trkpt>
      <trkpt lat="42.48247" lon="2.91662">
        <ele>872.2</ele>
        <time>2021-11-14T15:11:50Z</time>
      </trkpt>
      <trkpt lat="42.48245" lon="2.91664">
        <ele>872.4</ele>
        <time>2021-11-14T15:11:51Z</time>
      </trkpt>
      <trkpt lat="42.48244" lon="2.91666">
        <ele>872.6</ele>
        <time>2021-11-14T15:11:53Z</time>
      </trkpt>
      <trkpt lat="42.48241" lon="2.91668">
        <ele>872.8</ele>
        <time>2021-11-14T15:11:55Z</time>
      </trkpt>
      <trkpt lat="42.48239" lon="2.91669">
        <ele>873</ele>
        <time>2021-11-14T15:11:56Z</time>
      </trkpt>
      <trkpt lat="42.48238" lon="2.9167">
        <ele>873.1</ele>
        <time>2021-11-14T15:11:57Z</time>
      </trkpt>
      <trkpt lat="42.48234" lon="2.91673">
        <ele>873.5</ele>
        <time>2021-11-14T15:11:59Z</time>
      </trkpt>
      <trkpt lat="42.48233" lon="2.91674">
        <ele>873.6</ele>
        <time>2021-11-14T15:12:00Z</time>
      </trkpt>
      <trkpt lat="42.48232" lon="2.91676">
        <ele>873.7</ele>
        <time>2021-11-14T15:12:01Z</time>
      </trkpt>
      <trkpt lat="42.48228" lon="2.9168">
        <ele>874.1</ele>
        <time>2021-11-14T15:12:03Z</time>
      </trkpt>
      <trkpt lat="42.48226" lon="2.91682">
        <ele>874.3</ele>
        <time>2021-11-14T15:12:04Z</time>
      </trkpt>
      <trkpt lat="42.48223" lon="2.91685">
        <ele>874.6</ele>
        <time>2021-11-14T15:12:06Z</time>
      </trkpt>
      <trkpt lat="42.48221" lon="2.91688">
        <ele>874.8</ele>
        <time>2021-11-14T15:12:07Z</time>
      </trkpt>
      <trkpt lat="42.48218" lon="2.91691">
        <ele>875.1</ele>
        <time>2021-11-14T15:12:09Z</time>
      </trkpt>
      <trkpt lat="42.48216" lon="2.91694">
        <ele>875.4</ele>
        <time>2021-11-14T15:12:10Z</time>
      </trkpt>
      <trkpt lat="42.48212" lon="2.91699">
        <ele>875.8</ele>
        <time>2021-11-14T15:12:12Z</time>
      </trkpt>
      <trkpt lat="42.4821" lon="2.91703">
        <ele>876</ele>
        <time>2021-11-14T15:12:13Z</time>
      </trkpt>
      <trkpt lat="42.48208" lon="2.91705">
        <ele>876.2</ele>
        <time>2021-11-14T15:12:14Z</time>
      </trkpt>
      <trkpt lat="42.48207" lon="2.91709">
        <ele>876.5</ele>
        <time>2021-11-14T15:12:16Z</time>
      </trkpt>
      <trkpt lat="42.48204" lon="2.91713">
        <ele>876.8</ele>
        <time>2021-11-14T15:12:17Z</time>
      </trkpt>
      <trkpt lat="42.48202" lon="2.91718">
        <ele>877.2</ele>
        <time>2021-11-14T15:12:19Z</time>
      </trkpt>
      <trkpt lat="42.48201" lon="2.9172">
        <ele>877.3</ele>
        <time>2021-11-14T15:12:20Z</time>
      </trkpt>
      <trkpt lat="42.482" lon="2.91722">
        <ele>877.5</ele>
        <time>2021-11-14T15:12:21Z</time>
      </trkpt>
      <trkpt lat="42.48198" lon="2.91725">
        <ele>877.7</ele>
        <time>2021-11-14T15:12:23Z</time>
      </trkpt>
      <trkpt lat="42.48197" lon="2.91726">
        <ele>877.9</ele>
        <time>2021-11-14T15:12:24Z</time>
      </trkpt>
      <trkpt lat="42.48195" lon="2.9173">
        <ele>878.2</ele>
        <time>2021-11-14T15:12:25Z</time>
      </trkpt>
      <trkpt lat="42.48193" lon="2.91733">
        <ele>878.4</ele>
        <time>2021-11-14T15:12:26Z</time>
      </trkpt>
      <trkpt lat="42.48192" lon="2.91735">
        <ele>878.6</ele>
        <time>2021-11-14T15:12:28Z</time>
      </trkpt>
      <trkpt lat="42.4819" lon="2.91738">
        <ele>878.9</ele>
        <time>2021-11-14T15:12:29Z</time>
      </trkpt>
      <trkpt lat="42.48188" lon="2.91741">
        <ele>879.1</ele>
        <time>2021-11-14T15:12:30Z</time>
      </trkpt>
      <trkpt lat="42.48186" lon="2.91743">
        <ele>879.4</ele>
        <time>2021-11-14T15:12:32Z</time>
      </trkpt>
      <trkpt lat="42.48184" lon="2.91748">
        <ele>879.7</ele>
        <time>2021-11-14T15:12:33Z</time>
      </trkpt>
      <trkpt lat="42.48184" lon="2.91749">
        <ele>879.8</ele>
        <time>2021-11-14T15:12:34Z</time>
      </trkpt>
      <trkpt lat="42.48182" lon="2.91751">
        <ele>880.1</ele>
        <time>2021-11-14T15:12:36Z</time>
      </trkpt>
      <trkpt lat="42.48179" lon="2.91754">
        <ele>880.4</ele>
        <time>2021-11-14T15:12:37Z</time>
      </trkpt>
      <trkpt lat="42.48177" lon="2.91757">
        <ele>880.6</ele>
        <time>2021-11-14T15:12:39Z</time>
      </trkpt>
      <trkpt lat="42.48175" lon="2.91759">
        <ele>880.9</ele>
        <time>2021-11-14T15:12:40Z</time>
      </trkpt>
      <trkpt lat="42.48172" lon="2.91762">
        <ele>881.2</ele>
        <time>2021-11-14T15:12:41Z</time>
      </trkpt>
      <trkpt lat="42.48171" lon="2.91763">
        <ele>881.3</ele>
        <time>2021-11-14T15:12:42Z</time>
      </trkpt>
      <trkpt lat="42.48169" lon="2.91765">
        <ele>881.5</ele>
        <time>2021-11-14T15:12:43Z</time>
      </trkpt>
      <trkpt lat="42.48167" lon="2.91768">
        <ele>881.9</ele>
        <time>2021-11-14T15:12:45Z</time>
      </trkpt>
      <trkpt lat="42.48165" lon="2.9177">
        <ele>882.1</ele>
        <time>2021-11-14T15:12:46Z</time>
      </trkpt>
      <trkpt lat="42.48162" lon="2.91774">
        <ele>882.5</ele>
        <time>2021-11-14T15:12:48Z</time>
      </trkpt>
      <trkpt lat="42.48158" lon="2.91776">
        <ele>882.8</ele>
        <time>2021-11-14T15:12:50Z</time>
      </trkpt>
      <trkpt lat="42.48157" lon="2.91777">
        <ele>882.9</ele>
        <time>2021-11-14T15:12:51Z</time>
      </trkpt>
      <trkpt lat="42.48155" lon="2.9178">
        <ele>883.2</ele>
        <time>2021-11-14T15:12:52Z</time>
      </trkpt>
      <trkpt lat="42.48154" lon="2.91781">
        <ele>883.3</ele>
        <time>2021-11-14T15:12:53Z</time>
      </trkpt>
      <trkpt lat="42.4815" lon="2.91786">
        <ele>883.8</ele>
        <time>2021-11-14T15:12:55Z</time>
      </trkpt>
      <trkpt lat="42.48148" lon="2.9179">
        <ele>884.1</ele>
        <time>2021-11-14T15:12:56Z</time>
      </trkpt>
      <trkpt lat="42.48147" lon="2.91791">
        <ele>884.2</ele>
        <time>2021-11-14T15:12:57Z</time>
      </trkpt>
      <trkpt lat="42.48143" lon="2.91796">
        <ele>884.6</ele>
        <time>2021-11-14T15:12:59Z</time>
      </trkpt>
      <trkpt lat="42.48142" lon="2.91797">
        <ele>884.7</ele>
        <time>2021-11-14T15:13:00Z</time>
      </trkpt>
      <trkpt lat="42.48141" lon="2.91798">
        <ele>884.8</ele>
        <time>2021-11-14T15:13:01Z</time>
      </trkpt>
      <trkpt lat="42.48138" lon="2.918">
        <ele>885.1</ele>
        <time>2021-11-14T15:13:03Z</time>
      </trkpt>
      <trkpt lat="42.48137" lon="2.91801">
        <ele>885.2</ele>
        <time>2021-11-14T15:13:04Z</time>
      </trkpt>
      <trkpt lat="42.48135" lon="2.91805">
        <ele>885.5</ele>
        <time>2021-11-14T15:13:06Z</time>
      </trkpt>
      <trkpt lat="42.48133" lon="2.91808">
        <ele>885.7</ele>
        <time>2021-11-14T15:13:07Z</time>
      </trkpt>
      <trkpt lat="42.48131" lon="2.91811">
        <ele>886</ele>
        <time>2021-11-14T15:13:08Z</time>
      </trkpt>
      <trkpt lat="42.4813" lon="2.91813">
        <ele>886.1</ele>
        <time>2021-11-14T15:13:09Z</time>
      </trkpt>
      <trkpt lat="42.48126" lon="2.91817">
        <ele>886.4</ele>
        <time>2021-11-14T15:13:10Z</time>
      </trkpt>
      <trkpt lat="42.48124" lon="2.91821">
        <ele>886.7</ele>
        <time>2021-11-14T15:13:12Z</time>
      </trkpt>
      <trkpt lat="42.4812" lon="2.91825">
        <ele>887.1</ele>
        <time>2021-11-14T15:13:14Z</time>
      </trkpt>
      <trkpt lat="42.48118" lon="2.91828">
        <ele>887.3</ele>
        <time>2021-11-14T15:13:15Z</time>
      </trkpt>
      <trkpt lat="42.48115" lon="2.91831">
        <ele>887.6</ele>
        <time>2021-11-14T15:13:17Z</time>
      </trkpt>
      <trkpt lat="42.48113" lon="2.91833">
        <ele>887.8</ele>
        <time>2021-11-14T15:13:18Z</time>
      </trkpt>
      <trkpt lat="42.48111" lon="2.91835">
        <ele>888</ele>
        <time>2021-11-14T15:13:19Z</time>
      </trkpt>
      <trkpt lat="42.48108" lon="2.91838">
        <ele>888.3</ele>
        <time>2021-11-14T15:13:21Z</time>
      </trkpt>
      <trkpt lat="42.48105" lon="2.91841">
        <ele>888.6</ele>
        <time>2021-11-14T15:13:22Z</time>
      </trkpt>
      <trkpt lat="42.48101" lon="2.91844">
        <ele>889</ele>
        <time>2021-11-14T15:13:23Z</time>
      </trkpt>
      <trkpt lat="42.481" lon="2.91846">
        <ele>889.2</ele>
        <time>2021-11-14T15:13:24Z</time>
      </trkpt>
      <trkpt lat="42.48097" lon="2.91847">
        <ele>889.5</ele>
        <time>2021-11-14T15:13:26Z</time>
      </trkpt>
      <trkpt lat="42.48093" lon="2.9185">
        <ele>889.9</ele>
        <time>2021-11-14T15:13:28Z</time>
      </trkpt>
      <trkpt lat="42.48091" lon="2.91852">
        <ele>890.2</ele>
        <time>2021-11-14T15:13:29Z</time>
      </trkpt>
      <trkpt lat="42.48088" lon="2.91855">
        <ele>890.4</ele>
        <time>2021-11-14T15:13:31Z</time>
      </trkpt>
      <trkpt lat="42.48087" lon="2.91855">
        <ele>890.5</ele>
        <time>2021-11-14T15:13:32Z</time>
      </trkpt>
      <trkpt lat="42.48085" lon="2.91856">
        <ele>890.7</ele>
        <time>2021-11-14T15:13:33Z</time>
      </trkpt>
      <trkpt lat="42.48083" lon="2.91858">
        <ele>890.9</ele>
        <time>2021-11-14T15:13:35Z</time>
      </trkpt>
      <trkpt lat="42.48079" lon="2.9186">
        <ele>891.3</ele>
        <time>2021-11-14T15:13:36Z</time>
      </trkpt>
      <trkpt lat="42.48078" lon="2.91861">
        <ele>891.4</ele>
        <time>2021-11-14T15:13:37Z</time>
      </trkpt>
      <trkpt lat="42.48075" lon="2.91864">
        <ele>891.7</ele>
        <time>2021-11-14T15:13:39Z</time>
      </trkpt>
      <trkpt lat="42.48074" lon="2.91865">
        <ele>891.8</ele>
        <time>2021-11-14T15:13:40Z</time>
      </trkpt>
      <trkpt lat="42.48072" lon="2.91868">
        <ele>892.1</ele>
        <time>2021-11-14T15:13:41Z</time>
      </trkpt>
      <trkpt lat="42.48071" lon="2.9187">
        <ele>892.3</ele>
        <time>2021-11-14T15:13:42Z</time>
      </trkpt>
      <trkpt lat="42.48068" lon="2.91873">
        <ele>892.6</ele>
        <time>2021-11-14T15:13:43Z</time>
      </trkpt>
      <trkpt lat="42.48068" lon="2.91875">
        <ele>892.7</ele>
        <time>2021-11-14T15:13:44Z</time>
      </trkpt>
      <trkpt lat="42.48065" lon="2.91879">
        <ele>893</ele>
        <time>2021-11-14T15:13:46Z</time>
      </trkpt>
      <trkpt lat="42.48065" lon="2.9188">
        <ele>893.1</ele>
        <time>2021-11-14T15:13:47Z</time>
      </trkpt>
      <trkpt lat="42.48063" lon="2.91884">
        <ele>893.4</ele>
        <time>2021-11-14T15:13:48Z</time>
      </trkpt>
      <trkpt lat="42.48061" lon="2.91888">
        <ele>893.7</ele>
        <time>2021-11-14T15:13:50Z</time>
      </trkpt>
      <trkpt lat="42.4806" lon="2.91889">
        <ele>893.8</ele>
        <time>2021-11-14T15:13:51Z</time>
      </trkpt>
      <trkpt lat="42.48058" lon="2.91894">
        <ele>894.1</ele>
        <time>2021-11-14T15:13:52Z</time>
      </trkpt>
      <trkpt lat="42.48057" lon="2.91896">
        <ele>894.3</ele>
        <time>2021-11-14T15:13:53Z</time>
      </trkpt>
      <trkpt lat="42.48056" lon="2.91901">
        <ele>894.6</ele>
        <time>2021-11-14T15:13:55Z</time>
      </trkpt>
      <trkpt lat="42.48054" lon="2.91904">
        <ele>894.8</ele>
        <time>2021-11-14T15:13:56Z</time>
      </trkpt>
      <trkpt lat="42.48052" lon="2.91909">
        <ele>895.2</ele>
        <time>2021-11-14T15:13:58Z</time>
      </trkpt>
      <trkpt lat="42.48051" lon="2.91912">
        <ele>895.4</ele>
        <time>2021-11-14T15:13:59Z</time>
      </trkpt>
      <trkpt lat="42.4805" lon="2.91915">
        <ele>895.6</ele>
        <time>2021-11-14T15:14:00Z</time>
      </trkpt>
      <trkpt lat="42.48048" lon="2.9192">
        <ele>896</ele>
        <time>2021-11-14T15:14:02Z</time>
      </trkpt>
      <trkpt lat="42.48046" lon="2.91924">
        <ele>896.3</ele>
        <time>2021-11-14T15:14:03Z</time>
      </trkpt>
      <trkpt lat="42.48046" lon="2.91926">
        <ele>896.4</ele>
        <time>2021-11-14T15:14:04Z</time>
      </trkpt>
      <trkpt lat="42.48044" lon="2.91928">
        <ele>896.6</ele>
        <time>2021-11-14T15:14:05Z</time>
      </trkpt>
      <trkpt lat="42.48042" lon="2.91933">
        <ele>896.9</ele>
        <time>2021-11-14T15:14:07Z</time>
      </trkpt>
      <trkpt lat="42.4804" lon="2.91936">
        <ele>897.2</ele>
        <time>2021-11-14T15:14:08Z</time>
      </trkpt>
      <trkpt lat="42.48039" lon="2.91938">
        <ele>897.3</ele>
        <time>2021-11-14T15:14:09Z</time>
      </trkpt>
      <trkpt lat="42.48036" lon="2.91941">
        <ele>897.6</ele>
        <time>2021-11-14T15:14:11Z</time>
      </trkpt>
      <trkpt lat="42.48035" lon="2.91942">
        <ele>897.7</ele>
        <time>2021-11-14T15:14:12Z</time>
      </trkpt>
      <trkpt lat="42.48033" lon="2.91946">
        <ele>898</ele>
        <time>2021-11-14T15:14:14Z</time>
      </trkpt>
      <trkpt lat="42.48032" lon="2.91947">
        <ele>898.1</ele>
        <time>2021-11-14T15:14:15Z</time>
      </trkpt>
      <trkpt lat="42.4803" lon="2.9195">
        <ele>898.4</ele>
        <time>2021-11-14T15:14:16Z</time>
      </trkpt>
      <trkpt lat="42.48028" lon="2.91952">
        <ele>898.6</ele>
        <time>2021-11-14T15:14:18Z</time>
      </trkpt>
      <trkpt lat="42.48027" lon="2.91954">
        <ele>898.8</ele>
        <time>2021-11-14T15:14:19Z</time>
      </trkpt>
      <trkpt lat="42.48024" lon="2.91957">
        <ele>899.1</ele>
        <time>2021-11-14T15:14:21Z</time>
      </trkpt>
      <trkpt lat="42.48021" lon="2.91959">
        <ele>899.5</ele>
        <time>2021-11-14T15:14:22Z</time>
      </trkpt>
      <trkpt lat="42.48019" lon="2.9196">
        <ele>899.6</ele>
        <time>2021-11-14T15:14:23Z</time>
      </trkpt>
      <trkpt lat="42.48016" lon="2.91964">
        <ele>900</ele>
        <time>2021-11-14T15:14:25Z</time>
      </trkpt>
      <trkpt lat="42.48015" lon="2.91965">
        <ele>900.2</ele>
        <time>2021-11-14T15:14:26Z</time>
      </trkpt>
      <trkpt lat="42.48014" lon="2.91967">
        <ele>900.3</ele>
        <time>2021-11-14T15:14:27Z</time>
      </trkpt>
      <trkpt lat="42.48012" lon="2.91968">
        <ele>900.5</ele>
        <time>2021-11-14T15:14:28Z</time>
      </trkpt>
      <trkpt lat="42.48009" lon="2.91971">
        <ele>900.7</ele>
        <time>2021-11-14T15:14:30Z</time>
      </trkpt>
      <trkpt lat="42.48006" lon="2.91975">
        <ele>901.1</ele>
        <time>2021-11-14T15:14:32Z</time>
      </trkpt>
      <trkpt lat="42.48005" lon="2.91976">
        <ele>901.3</ele>
        <time>2021-11-14T15:14:33Z</time>
      </trkpt>
      <trkpt lat="42.48004" lon="2.91977">
        <ele>901.4</ele>
        <time>2021-11-14T15:14:34Z</time>
      </trkpt>
      <trkpt lat="42.48002" lon="2.91979">
        <ele>901.6</ele>
        <time>2021-11-14T15:14:35Z</time>
      </trkpt>
      <trkpt lat="42.48001" lon="2.9198">
        <ele>901.7</ele>
        <time>2021-11-14T15:14:36Z</time>
      </trkpt>
      <trkpt lat="42.47999" lon="2.91982">
        <ele>901.9</ele>
        <time>2021-11-14T15:14:37Z</time>
      </trkpt>
      <trkpt lat="42.47997" lon="2.91984">
        <ele>902.1</ele>
        <time>2021-11-14T15:14:39Z</time>
      </trkpt>
      <trkpt lat="42.47994" lon="2.91986">
        <ele>902.4</ele>
        <time>2021-11-14T15:14:40Z</time>
      </trkpt>
      <trkpt lat="42.47993" lon="2.91987">
        <ele>902.5</ele>
        <time>2021-11-14T15:14:41Z</time>
      </trkpt>
      <trkpt lat="42.4799" lon="2.9199">
        <ele>902.8</ele>
        <time>2021-11-14T15:14:43Z</time>
      </trkpt>
      <trkpt lat="42.4799" lon="2.91991">
        <ele>902.9</ele>
        <time>2021-11-14T15:14:44Z</time>
      </trkpt>
      <trkpt lat="42.47987" lon="2.91994">
        <ele>903.2</ele>
        <time>2021-11-14T15:14:45Z</time>
      </trkpt>
      <trkpt lat="42.47986" lon="2.91995">
        <ele>903.2</ele>
        <time>2021-11-14T15:14:46Z</time>
      </trkpt>
      <trkpt lat="42.47983" lon="2.91999">
        <ele>903.6</ele>
        <time>2021-11-14T15:14:48Z</time>
      </trkpt>
      <trkpt lat="42.47982" lon="2.92">
        <ele>903.7</ele>
        <time>2021-11-14T15:14:49Z</time>
      </trkpt>
      <trkpt lat="42.47981" lon="2.92001">
        <ele>903.8</ele>
        <time>2021-11-14T15:14:50Z</time>
      </trkpt>
      <trkpt lat="42.47978" lon="2.92004">
        <ele>904.1</ele>
        <time>2021-11-14T15:14:52Z</time>
      </trkpt>
      <trkpt lat="42.47976" lon="2.92007">
        <ele>904.3</ele>
        <time>2021-11-14T15:14:53Z</time>
      </trkpt>
      <trkpt lat="42.47974" lon="2.92009">
        <ele>904.6</ele>
        <time>2021-11-14T15:14:54Z</time>
      </trkpt>
      <trkpt lat="42.4797" lon="2.92011">
        <ele>904.9</ele>
        <time>2021-11-14T15:14:56Z</time>
      </trkpt>
      <trkpt lat="42.47969" lon="2.92013">
        <ele>905</ele>
        <time>2021-11-14T15:14:57Z</time>
      </trkpt>
      <trkpt lat="42.47965" lon="2.92016">
        <ele>905.3</ele>
        <time>2021-11-14T15:14:59Z</time>
      </trkpt>
      <trkpt lat="42.47962" lon="2.92018">
        <ele>905.5</ele>
        <time>2021-11-14T15:15:00Z</time>
      </trkpt>
      <trkpt lat="42.47959" lon="2.92021">
        <ele>905.7</ele>
        <time>2021-11-14T15:15:02Z</time>
      </trkpt>
      <trkpt lat="42.47957" lon="2.92022">
        <ele>905.9</ele>
        <time>2021-11-14T15:15:03Z</time>
      </trkpt>
      <trkpt lat="42.47953" lon="2.92025">
        <ele>906.1</ele>
        <time>2021-11-14T15:15:05Z</time>
      </trkpt>
      <trkpt lat="42.47951" lon="2.92026">
        <ele>906.3</ele>
        <time>2021-11-14T15:15:06Z</time>
      </trkpt>
      <trkpt lat="42.47948" lon="2.92028">
        <ele>906.5</ele>
        <time>2021-11-14T15:15:08Z</time>
      </trkpt>
      <trkpt lat="42.47945" lon="2.92029">
        <ele>906.7</ele>
        <time>2021-11-14T15:15:09Z</time>
      </trkpt>
      <trkpt lat="42.47942" lon="2.92031">
        <ele>906.9</ele>
        <time>2021-11-14T15:15:10Z</time>
      </trkpt>
      <trkpt lat="42.47941" lon="2.92032">
        <ele>907</ele>
        <time>2021-11-14T15:15:11Z</time>
      </trkpt>
      <trkpt lat="42.47936" lon="2.92034">
        <ele>907.3</ele>
        <time>2021-11-14T15:15:13Z</time>
      </trkpt>
      <trkpt lat="42.47934" lon="2.92036">
        <ele>907.5</ele>
        <time>2021-11-14T15:15:14Z</time>
      </trkpt>
      <trkpt lat="42.4793" lon="2.92039">
        <ele>907.7</ele>
        <time>2021-11-14T15:15:15Z</time>
      </trkpt>
      <trkpt lat="42.47928" lon="2.92041">
        <ele>907.8</ele>
        <time>2021-11-14T15:15:16Z</time>
      </trkpt>
      <trkpt lat="42.47926" lon="2.92044">
        <ele>908</ele>
        <time>2021-11-14T15:15:18Z</time>
      </trkpt>
      <trkpt lat="42.47924" lon="2.92046">
        <ele>908.2</ele>
        <time>2021-11-14T15:15:19Z</time>
      </trkpt>
      <trkpt lat="42.47921" lon="2.9205">
        <ele>908.4</ele>
        <time>2021-11-14T15:15:20Z</time>
      </trkpt>
      <trkpt lat="42.47919" lon="2.92054">
        <ele>908.7</ele>
        <time>2021-11-14T15:15:21Z</time>
      </trkpt>
      <trkpt lat="42.47918" lon="2.92056">
        <ele>908.8</ele>
        <time>2021-11-14T15:15:22Z</time>
      </trkpt>
      <trkpt lat="42.47917" lon="2.92062">
        <ele>909</ele>
        <time>2021-11-14T15:15:24Z</time>
      </trkpt>
      <trkpt lat="42.47916" lon="2.92065">
        <ele>909.2</ele>
        <time>2021-11-14T15:15:25Z</time>
      </trkpt>
      <trkpt lat="42.47916" lon="2.92069">
        <ele>909.4</ele>
        <time>2021-11-14T15:15:26Z</time>
      </trkpt>
      <trkpt lat="42.47915" lon="2.92073">
        <ele>909.6</ele>
        <time>2021-11-14T15:15:27Z</time>
      </trkpt>
      <trkpt lat="42.47916" lon="2.9208">
        <ele>909.9</ele>
        <time>2021-11-14T15:15:29Z</time>
      </trkpt>
      <trkpt lat="42.47916" lon="2.92085">
        <ele>910.2</ele>
        <time>2021-11-14T15:15:30Z</time>
      </trkpt>
      <trkpt lat="42.47917" lon="2.92089">
        <ele>910.5</ele>
        <time>2021-11-14T15:15:31Z</time>
      </trkpt>
      <trkpt lat="42.47917" lon="2.92094">
        <ele>910.7</ele>
        <time>2021-11-14T15:15:33Z</time>
      </trkpt>
      <trkpt lat="42.47917" lon="2.92098">
        <ele>910.9</ele>
        <time>2021-11-14T15:15:34Z</time>
      </trkpt>
      <trkpt lat="42.47916" lon="2.92103">
        <ele>911.2</ele>
        <time>2021-11-14T15:15:36Z</time>
      </trkpt>
      <trkpt lat="42.47916" lon="2.92107">
        <ele>911.5</ele>
        <time>2021-11-14T15:15:37Z</time>
      </trkpt>
      <trkpt lat="42.47916" lon="2.92113">
        <ele>911.8</ele>
        <time>2021-11-14T15:15:39Z</time>
      </trkpt>
      <trkpt lat="42.47916" lon="2.92118">
        <ele>912.2</ele>
        <time>2021-11-14T15:15:40Z</time>
      </trkpt>
      <trkpt lat="42.47917" lon="2.92125">
        <ele>912.5</ele>
        <time>2021-11-14T15:15:41Z</time>
      </trkpt>
      <trkpt lat="42.47918" lon="2.92133">
        <ele>913.1</ele>
        <time>2021-11-14T15:15:43Z</time>
      </trkpt>
      <trkpt lat="42.47918" lon="2.92138">
        <ele>913.4</ele>
        <time>2021-11-14T15:15:44Z</time>
      </trkpt>
      <trkpt lat="42.47918" lon="2.92143">
        <ele>913.7</ele>
        <time>2021-11-14T15:15:46Z</time>
      </trkpt>
      <trkpt lat="42.47918" lon="2.92147">
        <ele>913.9</ele>
        <time>2021-11-14T15:15:47Z</time>
      </trkpt>
      <trkpt lat="42.47917" lon="2.92152">
        <ele>914.3</ele>
        <time>2021-11-14T15:15:49Z</time>
      </trkpt>
      <trkpt lat="42.47917" lon="2.92156">
        <ele>914.5</ele>
        <time>2021-11-14T15:15:50Z</time>
      </trkpt>
      <trkpt lat="42.47916" lon="2.92162">
        <ele>914.9</ele>
        <time>2021-11-14T15:15:52Z</time>
      </trkpt>
      <trkpt lat="42.47915" lon="2.92168">
        <ele>915.3</ele>
        <time>2021-11-14T15:15:54Z</time>
      </trkpt>
      <trkpt lat="42.47916" lon="2.92172">
        <ele>915.6</ele>
        <time>2021-11-14T15:15:55Z</time>
      </trkpt>
      <trkpt lat="42.47916" lon="2.92177">
        <ele>915.9</ele>
        <time>2021-11-14T15:15:57Z</time>
      </trkpt>
      <trkpt lat="42.47916" lon="2.9218">
        <ele>916.1</ele>
        <time>2021-11-14T15:15:58Z</time>
      </trkpt>
      <trkpt lat="42.47916" lon="2.92185">
        <ele>916.4</ele>
        <time>2021-11-14T15:16:00Z</time>
      </trkpt>
      <trkpt lat="42.47916" lon="2.92189">
        <ele>916.7</ele>
        <time>2021-11-14T15:16:01Z</time>
      </trkpt>
      <trkpt lat="42.47916" lon="2.92193">
        <ele>917</ele>
        <time>2021-11-14T15:16:03Z</time>
      </trkpt>
      <trkpt lat="42.47917" lon="2.92196">
        <ele>917.2</ele>
        <time>2021-11-14T15:16:04Z</time>
      </trkpt>
      <trkpt lat="42.47917" lon="2.92199">
        <ele>917.4</ele>
        <time>2021-11-14T15:16:06Z</time>
      </trkpt>
      <trkpt lat="42.47917" lon="2.92202">
        <ele>917.6</ele>
        <time>2021-11-14T15:16:07Z</time>
      </trkpt>
      <trkpt lat="42.47917" lon="2.92204">
        <ele>917.7</ele>
        <time>2021-11-14T15:16:08Z</time>
      </trkpt>
      <trkpt lat="42.47917" lon="2.92207">
        <ele>917.9</ele>
        <time>2021-11-14T15:16:10Z</time>
      </trkpt>
      <trkpt lat="42.47918" lon="2.92211">
        <ele>918.1</ele>
        <time>2021-11-14T15:16:12Z</time>
      </trkpt>
      <trkpt lat="42.47919" lon="2.92213">
        <ele>918.3</ele>
        <time>2021-11-14T15:16:13Z</time>
      </trkpt>
      <trkpt lat="42.4792" lon="2.92216">
        <ele>918.7</ele>
        <time>2021-11-14T15:16:15Z</time>
      </trkpt>
      <trkpt lat="42.47922" lon="2.9222">
        <ele>919</ele>
        <time>2021-11-14T15:16:17Z</time>
      </trkpt>
      <trkpt lat="42.47922" lon="2.92221">
        <ele>919.1</ele>
        <time>2021-11-14T15:16:18Z</time>
      </trkpt>
      <trkpt lat="42.47923" lon="2.92226">
        <ele>919.5</ele>
        <time>2021-11-14T15:16:20Z</time>
      </trkpt>
      <trkpt lat="42.47924" lon="2.92229">
        <ele>919.9</ele>
        <time>2021-11-14T15:16:22Z</time>
      </trkpt>
      <trkpt lat="42.47925" lon="2.92232">
        <ele>920.1</ele>
        <time>2021-11-14T15:16:23Z</time>
      </trkpt>
      <trkpt lat="42.47925" lon="2.92234">
        <ele>920.2</ele>
        <time>2021-11-14T15:16:24Z</time>
      </trkpt>
      <trkpt lat="42.47926" lon="2.92236">
        <ele>920.4</ele>
        <time>2021-11-14T15:16:25Z</time>
      </trkpt>
      <trkpt lat="42.47926" lon="2.92238">
        <ele>920.6</ele>
        <time>2021-11-14T15:16:26Z</time>
      </trkpt>
      <trkpt lat="42.47928" lon="2.92242">
        <ele>920.9</ele>
        <time>2021-11-14T15:16:28Z</time>
      </trkpt>
      <trkpt lat="42.47928" lon="2.92245">
        <ele>921.1</ele>
        <time>2021-11-14T15:16:29Z</time>
      </trkpt>
      <trkpt lat="42.47929" lon="2.92246">
        <ele>921.2</ele>
        <time>2021-11-14T15:16:30Z</time>
      </trkpt>
      <trkpt lat="42.47931" lon="2.92252">
        <ele>921.6</ele>
        <time>2021-11-14T15:16:32Z</time>
      </trkpt>
      <trkpt lat="42.47931" lon="2.92254">
        <ele>921.7</ele>
        <time>2021-11-14T15:16:33Z</time>
      </trkpt>
      <trkpt lat="42.47932" lon="2.92256">
        <ele>921.8</ele>
        <time>2021-11-14T15:16:34Z</time>
      </trkpt>
      <trkpt lat="42.47933" lon="2.92261">
        <ele>922.1</ele>
        <time>2021-11-14T15:16:36Z</time>
      </trkpt>
      <trkpt lat="42.47933" lon="2.92262">
        <ele>922.2</ele>
        <time>2021-11-14T15:16:37Z</time>
      </trkpt>
      <trkpt lat="42.47934" lon="2.92265">
        <ele>926.6</ele>
        <time>2021-11-14T15:16:38Z</time>
      </trkpt>
      <trkpt lat="42.47935" lon="2.92267">
        <ele>926.6</ele>
        <time>2021-11-14T15:16:40Z</time>
      </trkpt>
      <trkpt lat="42.47936" lon="2.92268">
        <ele>926.6</ele>
        <time>2021-11-14T15:16:41Z</time>
      </trkpt>
      <trkpt lat="42.47937" lon="2.92267">
        <ele>926.6</ele>
        <time>2021-11-14T15:16:42Z</time>
      </trkpt>
      <trkpt lat="42.47938" lon="2.92265">
        <ele>926.6</ele>
        <time>2021-11-14T15:16:43Z</time>
      </trkpt>
      <trkpt lat="42.47937" lon="2.92263">
        <ele>926.6</ele>
        <time>2021-11-14T15:16:45Z</time>
      </trkpt>
      <trkpt lat="42.47937" lon="2.92261">
        <ele>922.2</ele>
        <time>2021-11-14T15:16:46Z</time>
      </trkpt>
      <trkpt lat="42.47937" lon="2.92258">
        <ele>922.1</ele>
        <time>2021-11-14T15:16:48Z</time>
      </trkpt>
      <trkpt lat="42.47935" lon="2.92254">
        <ele>921.8</ele>
        <time>2021-11-14T15:16:50Z</time>
      </trkpt>
      <trkpt lat="42.47933" lon="2.92249">
        <ele>921.5</ele>
        <time>2021-11-14T15:16:51Z</time>
      </trkpt>
      <trkpt lat="42.47933" lon="2.92248">
        <ele>921.5</ele>
        <time>2021-11-14T15:16:52Z</time>
      </trkpt>
      <trkpt lat="42.47932" lon="2.92243">
        <ele>921.3</ele>
        <time>2021-11-14T15:16:54Z</time>
      </trkpt>
      <trkpt lat="42.47931" lon="2.9224">
        <ele>921.1</ele>
        <time>2021-11-14T15:16:55Z</time>
      </trkpt>
      <trkpt lat="42.4793" lon="2.92234">
        <ele>920.9</ele>
        <time>2021-11-14T15:16:57Z</time>
      </trkpt>
      <trkpt lat="42.47929" lon="2.92232">
        <ele>920.8</ele>
        <time>2021-11-14T15:16:58Z</time>
      </trkpt>
      <trkpt lat="42.47928" lon="2.92231">
        <ele>920.7</ele>
        <time>2021-11-14T15:16:59Z</time>
      </trkpt>
      <trkpt lat="42.47927" lon="2.92229">
        <ele>920.6</ele>
        <time>2021-11-14T15:17:00Z</time>
      </trkpt>
      <trkpt lat="42.47926" lon="2.92226">
        <ele>920.5</ele>
        <time>2021-11-14T15:17:02Z</time>
      </trkpt>
      <trkpt lat="42.47926" lon="2.92225">
        <ele>920.5</ele>
        <time>2021-11-14T15:17:04Z</time>
      </trkpt>
      <trkpt lat="42.47926" lon="2.92225">
        <ele>920.5</ele>
        <time>2021-11-14T15:17:05Z</time>
      </trkpt>
      <trkpt lat="42.47926" lon="2.92225">
        <ele>920.5</ele>
        <time>2021-11-14T15:17:07Z</time>
      </trkpt>
      <trkpt lat="42.47926" lon="2.92225">
        <ele>920.4</ele>
        <time>2021-11-14T15:17:09Z</time>
      </trkpt>
      <trkpt lat="42.47926" lon="2.92225">
        <ele>920.4</ele>
        <time>2021-11-14T15:17:11Z</time>
      </trkpt>
      <trkpt lat="42.47926" lon="2.92225">
        <ele>920.4</ele>
        <time>2021-11-14T15:17:12Z</time>
      </trkpt>
      <trkpt lat="42.47926" lon="2.92225">
        <ele>920.4</ele>
        <time>2021-11-14T15:17:13Z</time>
      </trkpt>
      <trkpt lat="42.47926" lon="2.92226">
        <ele>920.4</ele>
        <time>2021-11-14T15:17:15Z</time>
      </trkpt>
      <trkpt lat="42.47926" lon="2.92227">
        <ele>920.3</ele>
        <time>2021-11-14T15:17:16Z</time>
      </trkpt>
      <trkpt lat="42.47926" lon="2.92228">
        <ele>920.3</ele>
        <time>2021-11-14T15:17:17Z</time>
      </trkpt>
      <trkpt lat="42.47926" lon="2.92228">
        <ele>920.3</ele>
        <time>2021-11-14T15:17:19Z</time>
      </trkpt>
      <trkpt lat="42.47926" lon="2.92228">
        <ele>920.3</ele>
        <time>2021-11-14T15:17:20Z</time>
      </trkpt>
      <trkpt lat="42.47926" lon="2.92228">
        <ele>920.3</ele>
        <time>2021-11-14T15:17:21Z</time>
      </trkpt>
      <trkpt lat="42.47926" lon="2.92227">
        <ele>920.3</ele>
        <time>2021-11-14T15:17:23Z</time>
      </trkpt>
      <trkpt lat="42.47925" lon="2.92227">
        <ele>920.2</ele>
        <time>2021-11-14T15:17:24Z</time>
      </trkpt>
      <trkpt lat="42.47925" lon="2.92227">
        <ele>920.2</ele>
        <time>2021-11-14T15:17:26Z</time>
      </trkpt>
      <trkpt lat="42.47925" lon="2.92227">
        <ele>920.2</ele>
        <time>2021-11-14T15:17:28Z</time>
      </trkpt>
      <trkpt lat="42.47925" lon="2.92226">
        <ele>920.2</ele>
        <time>2021-11-14T15:17:29Z</time>
      </trkpt>
      <trkpt lat="42.47925" lon="2.92227">
        <ele>920.2</ele>
        <time>2021-11-14T15:17:31Z</time>
      </trkpt>
      <trkpt lat="42.47925" lon="2.92226">
        <ele>920.1</ele>
        <time>2021-11-14T15:17:33Z</time>
      </trkpt>
      <trkpt lat="42.47926" lon="2.92226">
        <ele>920.1</ele>
        <time>2021-11-14T15:17:35Z</time>
      </trkpt>
      <trkpt lat="42.47926" lon="2.92226">
        <ele>920.1</ele>
        <time>2021-11-14T15:17:37Z</time>
      </trkpt>
      <trkpt lat="42.47925" lon="2.92226">
        <ele>920.1</ele>
        <time>2021-11-14T15:17:39Z</time>
      </trkpt>
      <trkpt lat="42.47924" lon="2.92224">
        <ele>920</ele>
        <time>2021-11-14T15:17:41Z</time>
      </trkpt>
      <trkpt lat="42.47923" lon="2.92223">
        <ele>919.9</ele>
        <time>2021-11-14T15:17:43Z</time>
      </trkpt>
      <trkpt lat="42.47922" lon="2.92223">
        <ele>919.8</ele>
        <time>2021-11-14T15:17:45Z</time>
      </trkpt>
      <trkpt lat="42.47922" lon="2.92223">
        <ele>919.8</ele>
        <time>2021-11-14T15:17:46Z</time>
      </trkpt>
      <trkpt lat="42.47922" lon="2.92223">
        <ele>919.8</ele>
        <time>2021-11-14T15:17:47Z</time>
      </trkpt>
      <trkpt lat="42.47922" lon="2.92223">
        <ele>919.8</ele>
        <time>2021-11-14T15:17:48Z</time>
      </trkpt>
      <trkpt lat="42.47922" lon="2.92223">
        <ele>919.8</ele>
        <time>2021-11-14T15:17:50Z</time>
      </trkpt>
      <trkpt lat="42.47921" lon="2.92224">
        <ele>919.7</ele>
        <time>2021-11-14T15:17:52Z</time>
      </trkpt>
      <trkpt lat="42.47921" lon="2.92224">
        <ele>919.7</ele>
        <time>2021-11-14T15:17:54Z</time>
      </trkpt>
      <trkpt lat="42.47921" lon="2.92225">
        <ele>919.7</ele>
        <time>2021-11-14T15:17:56Z</time>
      </trkpt>
      <trkpt lat="42.47921" lon="2.92225">
        <ele>919.7</ele>
        <time>2021-11-14T15:17:57Z</time>
      </trkpt>
      <trkpt lat="42.47921" lon="2.92225">
        <ele>919.7</ele>
        <time>2021-11-14T15:17:58Z</time>
      </trkpt>
      <trkpt lat="42.47921" lon="2.92225">
        <ele>919.7</ele>
        <time>2021-11-14T15:17:59Z</time>
      </trkpt>
      <trkpt lat="42.47921" lon="2.92225">
        <ele>919.7</ele>
        <time>2021-11-14T15:18:00Z</time>
      </trkpt>
      <trkpt lat="42.47921" lon="2.92226">
        <ele>919.6</ele>
        <time>2021-11-14T15:18:02Z</time>
      </trkpt>
      <trkpt lat="42.47925" lon="2.92227">
        <ele>919.4</ele>
        <time>2021-11-14T15:20:28Z</time>
      </trkpt>
      <trkpt lat="42.47925" lon="2.92226">
        <ele>919.4</ele>
        <time>2021-11-14T15:20:30Z</time>
      </trkpt>
      <trkpt lat="42.47925" lon="2.92226">
        <ele>919.4</ele>
        <time>2021-11-14T15:20:32Z</time>
      </trkpt>
      <trkpt lat="42.47925" lon="2.92226">
        <ele>919.3</ele>
        <time>2021-11-14T15:20:33Z</time>
      </trkpt>
      <trkpt lat="42.47926" lon="2.92226">
        <ele>919.3</ele>
        <time>2021-11-14T15:20:34Z</time>
      </trkpt>
      <trkpt lat="42.47926" lon="2.92226">
        <ele>919.3</ele>
        <time>2021-11-14T15:20:36Z</time>
      </trkpt>
      <trkpt lat="42.47926" lon="2.92226">
        <ele>919.3</ele>
        <time>2021-11-14T15:20:38Z</time>
      </trkpt>
      <trkpt lat="42.47926" lon="2.92226">
        <ele>919.3</ele>
        <time>2021-11-14T15:20:39Z</time>
      </trkpt>
      <trkpt lat="42.47926" lon="2.92225">
        <ele>919.3</ele>
        <time>2021-11-14T15:20:41Z</time>
      </trkpt>
      <trkpt lat="42.47927" lon="2.92224">
        <ele>919.2</ele>
        <time>2021-11-14T15:20:55Z</time>
      </trkpt>
      <trkpt lat="42.47927" lon="2.92224">
        <ele>919.2</ele>
        <time>2021-11-14T15:20:57Z</time>
      </trkpt>
      <trkpt lat="42.47927" lon="2.92224">
        <ele>919.2</ele>
        <time>2021-11-14T15:20:59Z</time>
      </trkpt>
      <trkpt lat="42.47925" lon="2.92222">
        <ele>919</ele>
        <time>2021-11-14T15:21:01Z</time>
      </trkpt>
      <trkpt lat="42.47921" lon="2.92221">
        <ele>918.8</ele>
        <time>2021-11-14T15:21:03Z</time>
      </trkpt>
      <trkpt lat="42.47918" lon="2.9222">
        <ele>918.6</ele>
        <time>2021-11-14T15:21:04Z</time>
      </trkpt>
      <trkpt lat="42.47915" lon="2.92219">
        <ele>918.4</ele>
        <time>2021-11-14T15:21:06Z</time>
      </trkpt>
      <trkpt lat="42.47912" lon="2.9221">
        <ele>918</ele>
        <time>2021-11-14T15:21:07Z</time>
      </trkpt>
      <trkpt lat="42.47911" lon="2.92202">
        <ele>917.5</ele>
        <time>2021-11-14T15:21:08Z</time>
      </trkpt>
      <trkpt lat="42.47911" lon="2.92195">
        <ele>917.1</ele>
        <time>2021-11-14T15:21:09Z</time>
      </trkpt>
      <trkpt lat="42.47911" lon="2.92185">
        <ele>916.4</ele>
        <time>2021-11-14T15:21:10Z</time>
      </trkpt>
      <trkpt lat="42.47909" lon="2.92166">
        <ele>915.1</ele>
        <time>2021-11-14T15:21:12Z</time>
      </trkpt>
      <trkpt lat="42.47909" lon="2.92141">
        <ele>913.5</ele>
        <time>2021-11-14T15:21:14Z</time>
      </trkpt>
      <trkpt lat="42.47909" lon="2.92128">
        <ele>912.7</ele>
        <time>2021-11-14T15:21:15Z</time>
      </trkpt>
      <trkpt lat="42.47908" lon="2.92115">
        <ele>912</ele>
        <time>2021-11-14T15:21:16Z</time>
      </trkpt>
      <trkpt lat="42.4791" lon="2.92088">
        <ele>910.4</ele>
        <time>2021-11-14T15:21:18Z</time>
      </trkpt>
      <trkpt lat="42.47917" lon="2.92061">
        <ele>909</ele>
        <time>2021-11-14T15:21:20Z</time>
      </trkpt>
      <trkpt lat="42.47922" lon="2.9205">
        <ele>908.4</ele>
        <time>2021-11-14T15:21:21Z</time>
      </trkpt>
      <trkpt lat="42.47931" lon="2.92041">
        <ele>907.8</ele>
        <time>2021-11-14T15:21:22Z</time>
      </trkpt>
      <trkpt lat="42.47951" lon="2.92029">
        <ele>906.5</ele>
        <time>2021-11-14T15:21:24Z</time>
      </trkpt>
      <trkpt lat="42.47969" lon="2.92018">
        <ele>905.2</ele>
        <time>2021-11-14T15:21:26Z</time>
      </trkpt>
      <trkpt lat="42.47984" lon="2.92004">
        <ele>903.9</ele>
        <time>2021-11-14T15:21:28Z</time>
      </trkpt>
      <trkpt lat="42.47991" lon="2.91996">
        <ele>903.2</ele>
        <time>2021-11-14T15:21:29Z</time>
      </trkpt>
      <trkpt lat="42.47998" lon="2.91988">
        <ele>902.4</ele>
        <time>2021-11-14T15:21:30Z</time>
      </trkpt>
      <trkpt lat="42.48013" lon="2.91972">
        <ele>900.7</ele>
        <time>2021-11-14T15:21:32Z</time>
      </trkpt>
      <trkpt lat="42.48022" lon="2.91964">
        <ele>899.8</ele>
        <time>2021-11-14T15:21:33Z</time>
      </trkpt>
      <trkpt lat="42.4803" lon="2.91954">
        <ele>898.8</ele>
        <time>2021-11-14T15:21:34Z</time>
      </trkpt>
      <trkpt lat="42.48037" lon="2.91944">
        <ele>897.9</ele>
        <time>2021-11-14T15:21:35Z</time>
      </trkpt>
      <trkpt lat="42.48051" lon="2.91921">
        <ele>896.1</ele>
        <time>2021-11-14T15:21:37Z</time>
      </trkpt>
      <trkpt lat="42.48063" lon="2.91895">
        <ele>894.2</ele>
        <time>2021-11-14T15:21:39Z</time>
      </trkpt>
      <trkpt lat="42.48076" lon="2.9187">
        <ele>892.3</ele>
        <time>2021-11-14T15:21:41Z</time>
      </trkpt>
      <trkpt lat="42.48094" lon="2.9185">
        <ele>890.3</ele>
        <time>2021-11-14T15:21:43Z</time>
      </trkpt>
      <trkpt lat="42.48104" lon="2.91844">
        <ele>889.3</ele>
        <time>2021-11-14T15:21:44Z</time>
      </trkpt>
      <trkpt lat="42.48123" lon="2.91829">
        <ele>887.5</ele>
        <time>2021-11-14T15:21:46Z</time>
      </trkpt>
      <trkpt lat="42.48131" lon="2.91819">
        <ele>886.6</ele>
        <time>2021-11-14T15:21:47Z</time>
      </trkpt>
      <trkpt lat="42.48141" lon="2.91809">
        <ele>885.7</ele>
        <time>2021-11-14T15:21:48Z</time>
      </trkpt>
      <trkpt lat="42.48156" lon="2.91787">
        <ele>884</ele>
        <time>2021-11-14T15:21:50Z</time>
      </trkpt>
      <trkpt lat="42.48164" lon="2.91776">
        <ele>883</ele>
        <time>2021-11-14T15:21:51Z</time>
      </trkpt>
      <trkpt lat="42.48179" lon="2.91757">
        <ele>881.1</ele>
        <time>2021-11-14T15:21:53Z</time>
      </trkpt>
      <trkpt lat="42.48194" lon="2.91734">
        <ele>879.1</ele>
        <time>2021-11-14T15:21:55Z</time>
      </trkpt>
      <trkpt lat="42.48207" lon="2.9171">
        <ele>877.2</ele>
        <time>2021-11-14T15:21:57Z</time>
      </trkpt>
      <trkpt lat="42.48222" lon="2.91686">
        <ele>875.4</ele>
        <time>2021-11-14T15:21:59Z</time>
      </trkpt>
      <trkpt lat="42.48229" lon="2.91675">
        <ele>874.5</ele>
        <time>2021-11-14T15:22:00Z</time>
      </trkpt>
      <trkpt lat="42.48247" lon="2.91657">
        <ele>872.8</ele>
        <time>2021-11-14T15:22:02Z</time>
      </trkpt>
      <trkpt lat="42.48256" lon="2.91649">
        <ele>871.9</ele>
        <time>2021-11-14T15:22:03Z</time>
      </trkpt>
      <trkpt lat="42.48277" lon="2.91636">
        <ele>869.9</ele>
        <time>2021-11-14T15:22:05Z</time>
      </trkpt>
      <trkpt lat="42.48297" lon="2.91623">
        <ele>868</ele>
        <time>2021-11-14T15:22:07Z</time>
      </trkpt>
      <trkpt lat="42.48305" lon="2.91614">
        <ele>867</ele>
        <time>2021-11-14T15:22:08Z</time>
      </trkpt>
      <trkpt lat="42.48322" lon="2.91593">
        <ele>865.2</ele>
        <time>2021-11-14T15:22:10Z</time>
      </trkpt>
      <trkpt lat="42.4833" lon="2.91582">
        <ele>864.6</ele>
        <time>2021-11-14T15:22:11Z</time>
      </trkpt>
      <trkpt lat="42.48337" lon="2.91571">
        <ele>864.2</ele>
        <time>2021-11-14T15:22:12Z</time>
      </trkpt>
      <trkpt lat="42.48344" lon="2.9156">
        <ele>863.9</ele>
        <time>2021-11-14T15:22:13Z</time>
      </trkpt>
      <trkpt lat="42.48351" lon="2.91549">
        <ele>863.7</ele>
        <time>2021-11-14T15:22:14Z</time>
      </trkpt>
      <trkpt lat="42.48365" lon="2.9153">
        <ele>863.2</ele>
        <time>2021-11-14T15:22:16Z</time>
      </trkpt>
      <trkpt lat="42.48372" lon="2.91522">
        <ele>862.9</ele>
        <time>2021-11-14T15:22:17Z</time>
      </trkpt>
      <trkpt lat="42.48379" lon="2.91515">
        <ele>862.6</ele>
        <time>2021-11-14T15:22:18Z</time>
      </trkpt>
      <trkpt lat="42.48384" lon="2.91508">
        <ele>862.3</ele>
        <time>2021-11-14T15:22:19Z</time>
      </trkpt>
      <trkpt lat="42.48391" lon="2.91492">
        <ele>861.8</ele>
        <time>2021-11-14T15:22:21Z</time>
      </trkpt>
      <trkpt lat="42.48392" lon="2.91483">
        <ele>861.5</ele>
        <time>2021-11-14T15:22:22Z</time>
      </trkpt>
      <trkpt lat="42.48391" lon="2.91477">
        <ele>861.2</ele>
        <time>2021-11-14T15:22:23Z</time>
      </trkpt>
      <trkpt lat="42.48375" lon="2.91486">
        <ele>860</ele>
        <time>2021-11-14T15:22:25Z</time>
      </trkpt>
      <trkpt lat="42.4837" lon="2.91492">
        <ele>859.5</ele>
        <time>2021-11-14T15:22:26Z</time>
      </trkpt>
      <trkpt lat="42.48364" lon="2.91501">
        <ele>858.8</ele>
        <time>2021-11-14T15:22:28Z</time>
      </trkpt>
      <trkpt lat="42.48362" lon="2.91504">
        <ele>858.6</ele>
        <time>2021-11-14T15:22:29Z</time>
      </trkpt>
      <trkpt lat="42.48361" lon="2.91505">
        <ele>858.5</ele>
        <time>2021-11-14T15:22:30Z</time>
      </trkpt>
      <trkpt lat="42.48361" lon="2.91506">
        <ele>858.4</ele>
        <time>2021-11-14T15:22:31Z</time>
      </trkpt>
      <trkpt lat="42.48361" lon="2.91508">
        <ele>858.4</ele>
        <time>2021-11-14T15:22:32Z</time>
      </trkpt>
      <trkpt lat="42.48361" lon="2.91508">
        <ele>858.4</ele>
        <time>2021-11-14T15:22:34Z</time>
      </trkpt>
      <trkpt lat="42.48361" lon="2.91508">
        <ele>858.4</ele>
        <time>2021-11-14T15:22:35Z</time>
      </trkpt>
      <trkpt lat="42.48361" lon="2.91508">
        <ele>858.4</ele>
        <time>2021-11-14T15:22:36Z</time>
      </trkpt>
      <trkpt lat="42.48361" lon="2.91508">
        <ele>858.3</ele>
        <time>2021-11-14T15:22:37Z</time>
      </trkpt>
      <trkpt lat="42.48361" lon="2.91508">
        <ele>858.3</ele>
        <time>2021-11-14T15:22:38Z</time>
      </trkpt>
      <trkpt lat="42.48361" lon="2.91508">
        <ele>858.3</ele>
        <time>2021-11-14T15:22:39Z</time>
      </trkpt>
      <trkpt lat="42.48362" lon="2.91509">
        <ele>858.3</ele>
        <time>2021-11-14T15:22:41Z</time>
      </trkpt>
      <trkpt lat="42.48362" lon="2.91508">
        <ele>858.3</ele>
        <time>2021-11-14T15:22:42Z</time>
      </trkpt>
      <trkpt lat="42.48357" lon="2.91515">
        <ele>857.9</ele>
        <time>2021-11-14T15:23:36Z</time>
      </trkpt>
      <trkpt lat="42.48356" lon="2.91519">
        <ele>857.6</ele>
        <time>2021-11-14T15:23:37Z</time>
      </trkpt>
      <trkpt lat="42.48354" lon="2.91525">
        <ele>857.3</ele>
        <time>2021-11-14T15:23:38Z</time>
      </trkpt>
      <trkpt lat="42.48346" lon="2.91534">
        <ele>856.6</ele>
        <time>2021-11-14T15:23:40Z</time>
      </trkpt>
      <trkpt lat="42.48341" lon="2.91541">
        <ele>856.2</ele>
        <time>2021-11-14T15:23:41Z</time>
      </trkpt>
      <trkpt lat="42.48329" lon="2.91552">
        <ele>855.3</ele>
        <time>2021-11-14T15:23:43Z</time>
      </trkpt>
      <trkpt lat="42.48323" lon="2.91557">
        <ele>854.8</ele>
        <time>2021-11-14T15:23:44Z</time>
      </trkpt>
      <trkpt lat="42.48312" lon="2.91568">
        <ele>853.7</ele>
        <time>2021-11-14T15:23:46Z</time>
      </trkpt>
      <trkpt lat="42.48305" lon="2.91574">
        <ele>853.2</ele>
        <time>2021-11-14T15:23:47Z</time>
      </trkpt>
      <trkpt lat="42.48299" lon="2.91581">
        <ele>852.5</ele>
        <time>2021-11-14T15:23:48Z</time>
      </trkpt>
      <trkpt lat="42.48284" lon="2.91596">
        <ele>851.1</ele>
        <time>2021-11-14T15:23:50Z</time>
      </trkpt>
      <trkpt lat="42.48266" lon="2.91609">
        <ele>849.7</ele>
        <time>2021-11-14T15:23:52Z</time>
      </trkpt>
      <trkpt lat="42.48256" lon="2.91611">
        <ele>848.9</ele>
        <time>2021-11-14T15:23:53Z</time>
      </trkpt>
      <trkpt lat="42.48245" lon="2.91611">
        <ele>848.1</ele>
        <time>2021-11-14T15:23:54Z</time>
      </trkpt>
      <trkpt lat="42.48232" lon="2.91609">
        <ele>847.2</ele>
        <time>2021-11-14T15:23:55Z</time>
      </trkpt>
      <trkpt lat="42.48207" lon="2.91605">
        <ele>845.5</ele>
        <time>2021-11-14T15:23:57Z</time>
      </trkpt>
      <trkpt lat="42.48187" lon="2.91605">
        <ele>843.9</ele>
        <time>2021-11-14T15:23:59Z</time>
      </trkpt>
      <trkpt lat="42.48176" lon="2.91607">
        <ele>842.9</ele>
        <time>2021-11-14T15:24:00Z</time>
      </trkpt>
      <trkpt lat="42.48165" lon="2.91609">
        <ele>842</ele>
        <time>2021-11-14T15:24:01Z</time>
      </trkpt>
      <trkpt lat="42.48141" lon="2.91614">
        <ele>839.7</ele>
        <time>2021-11-14T15:24:03Z</time>
      </trkpt>
      <trkpt lat="42.4812" lon="2.91625">
        <ele>837.8</ele>
        <time>2021-11-14T15:24:05Z</time>
      </trkpt>
      <trkpt lat="42.48111" lon="2.91634">
        <ele>837</ele>
        <time>2021-11-14T15:24:06Z</time>
      </trkpt>
      <trkpt lat="42.48103" lon="2.91647">
        <ele>836</ele>
        <time>2021-11-14T15:24:07Z</time>
      </trkpt>
      <trkpt lat="42.48087" lon="2.91674">
        <ele>833.9</ele>
        <time>2021-11-14T15:24:09Z</time>
      </trkpt>
      <trkpt lat="42.48077" lon="2.91684">
        <ele>832.8</ele>
        <time>2021-11-14T15:24:10Z</time>
      </trkpt>
      <trkpt lat="42.48066" lon="2.91691">
        <ele>831.8</ele>
        <time>2021-11-14T15:24:11Z</time>
      </trkpt>
      <trkpt lat="42.48044" lon="2.91701">
        <ele>829.9</ele>
        <time>2021-11-14T15:24:13Z</time>
      </trkpt>
      <trkpt lat="42.48033" lon="2.91705">
        <ele>829.1</ele>
        <time>2021-11-14T15:24:14Z</time>
      </trkpt>
      <trkpt lat="42.48023" lon="2.9171">
        <ele>828.3</ele>
        <time>2021-11-14T15:24:15Z</time>
      </trkpt>
      <trkpt lat="42.48005" lon="2.91728">
        <ele>826.6</ele>
        <time>2021-11-14T15:24:17Z</time>
      </trkpt>
      <trkpt lat="42.47997" lon="2.91739">
        <ele>825.7</ele>
        <time>2021-11-14T15:24:18Z</time>
      </trkpt>
      <trkpt lat="42.47983" lon="2.91761">
        <ele>824</ele>
        <time>2021-11-14T15:24:20Z</time>
      </trkpt>
      <trkpt lat="42.47976" lon="2.91772">
        <ele>823.4</ele>
        <time>2021-11-14T15:24:21Z</time>
      </trkpt>
      <trkpt lat="42.47962" lon="2.91793">
        <ele>822.1</ele>
        <time>2021-11-14T15:24:23Z</time>
      </trkpt>
      <trkpt lat="42.47947" lon="2.91813">
        <ele>820.6</ele>
        <time>2021-11-14T15:24:25Z</time>
      </trkpt>
      <trkpt lat="42.47938" lon="2.91824">
        <ele>819.7</ele>
        <time>2021-11-14T15:24:26Z</time>
      </trkpt>
      <trkpt lat="42.47929" lon="2.91835">
        <ele>818.8</ele>
        <time>2021-11-14T15:24:27Z</time>
      </trkpt>
      <trkpt lat="42.4792" lon="2.91845">
        <ele>817.9</ele>
        <time>2021-11-14T15:24:28Z</time>
      </trkpt>
      <trkpt lat="42.47911" lon="2.91853">
        <ele>817.1</ele>
        <time>2021-11-14T15:24:29Z</time>
      </trkpt>
      <trkpt lat="42.47891" lon="2.91865">
        <ele>815.4</ele>
        <time>2021-11-14T15:24:31Z</time>
      </trkpt>
      <trkpt lat="42.47869" lon="2.91863">
        <ele>813.6</ele>
        <time>2021-11-14T15:24:33Z</time>
      </trkpt>
      <trkpt lat="42.4786" lon="2.91853">
        <ele>812.6</ele>
        <time>2021-11-14T15:24:34Z</time>
      </trkpt>
      <trkpt lat="42.47852" lon="2.9184">
        <ele>811.6</ele>
        <time>2021-11-14T15:24:35Z</time>
      </trkpt>
      <trkpt lat="42.47838" lon="2.91816">
        <ele>809.7</ele>
        <time>2021-11-14T15:24:37Z</time>
      </trkpt>
      <trkpt lat="42.47832" lon="2.91804">
        <ele>808.6</ele>
        <time>2021-11-14T15:24:38Z</time>
      </trkpt>
      <trkpt lat="42.47825" lon="2.91793">
        <ele>807.4</ele>
        <time>2021-11-14T15:24:39Z</time>
      </trkpt>
      <trkpt lat="42.47817" lon="2.91782">
        <ele>806.2</ele>
        <time>2021-11-14T15:24:40Z</time>
      </trkpt>
      <trkpt lat="42.47797" lon="2.91767">
        <ele>804.3</ele>
        <time>2021-11-14T15:24:42Z</time>
      </trkpt>
      <trkpt lat="42.47786" lon="2.91762">
        <ele>803.3</ele>
        <time>2021-11-14T15:24:43Z</time>
      </trkpt>
      <trkpt lat="42.47775" lon="2.91756">
        <ele>802.3</ele>
        <time>2021-11-14T15:24:44Z</time>
      </trkpt>
      <trkpt lat="42.47756" lon="2.91744">
        <ele>800.4</ele>
        <time>2021-11-14T15:24:46Z</time>
      </trkpt>
      <trkpt lat="42.47739" lon="2.91737">
        <ele>799</ele>
        <time>2021-11-14T15:24:48Z</time>
      </trkpt>
      <trkpt lat="42.47721" lon="2.91738">
        <ele>797.5</ele>
        <time>2021-11-14T15:24:50Z</time>
      </trkpt>
      <trkpt lat="42.47716" lon="2.91747">
        <ele>796.8</ele>
        <time>2021-11-14T15:24:51Z</time>
      </trkpt>
      <trkpt lat="42.47708" lon="2.91783">
        <ele>794.7</ele>
        <time>2021-11-14T15:24:53Z</time>
      </trkpt>
      <trkpt lat="42.47704" lon="2.91801">
        <ele>793.5</ele>
        <time>2021-11-14T15:24:54Z</time>
      </trkpt>
      <trkpt lat="42.47699" lon="2.91818">
        <ele>792.3</ele>
        <time>2021-11-14T15:24:55Z</time>
      </trkpt>
      <trkpt lat="42.47693" lon="2.91832">
        <ele>791.1</ele>
        <time>2021-11-14T15:24:56Z</time>
      </trkpt>
      <trkpt lat="42.47681" lon="2.91861">
        <ele>788.8</ele>
        <time>2021-11-14T15:24:58Z</time>
      </trkpt>
      <trkpt lat="42.47677" lon="2.91876">
        <ele>787.8</ele>
        <time>2021-11-14T15:24:59Z</time>
      </trkpt>
      <trkpt lat="42.47672" lon="2.91907">
        <ele>786.1</ele>
        <time>2021-11-14T15:25:01Z</time>
      </trkpt>
      <trkpt lat="42.47672" lon="2.91923">
        <ele>785.3</ele>
        <time>2021-11-14T15:25:02Z</time>
      </trkpt>
      <trkpt lat="42.47673" lon="2.91939">
        <ele>784.4</ele>
        <time>2021-11-14T15:25:03Z</time>
      </trkpt>
      <trkpt lat="42.47677" lon="2.91971">
        <ele>782.3</ele>
        <time>2021-11-14T15:25:05Z</time>
      </trkpt>
      <trkpt lat="42.47681" lon="2.91999">
        <ele>780.6</ele>
        <time>2021-11-14T15:25:07Z</time>
      </trkpt>
      <trkpt lat="42.47683" lon="2.92013">
        <ele>779.9</ele>
        <time>2021-11-14T15:25:08Z</time>
      </trkpt>
      <trkpt lat="42.47686" lon="2.92044">
        <ele>778.9</ele>
        <time>2021-11-14T15:25:10Z</time>
      </trkpt>
      <trkpt lat="42.47688" lon="2.92058">
        <ele>778.6</ele>
        <time>2021-11-14T15:25:11Z</time>
      </trkpt>
      <trkpt lat="42.47688" lon="2.92085">
        <ele>778.2</ele>
        <time>2021-11-14T15:25:13Z</time>
      </trkpt>
      <trkpt lat="42.47685" lon="2.92104">
        <ele>778.2</ele>
        <time>2021-11-14T15:25:15Z</time>
      </trkpt>
      <trkpt lat="42.47681" lon="2.92112">
        <ele>778.3</ele>
        <time>2021-11-14T15:25:16Z</time>
      </trkpt>
      <trkpt lat="42.47667" lon="2.92114">
        <ele>778.4</ele>
        <time>2021-11-14T15:25:18Z</time>
      </trkpt>
      <trkpt lat="42.4766" lon="2.92113">
        <ele>778.5</ele>
        <time>2021-11-14T15:25:19Z</time>
      </trkpt>
      <trkpt lat="42.47647" lon="2.92112">
        <ele>778.4</ele>
        <time>2021-11-14T15:25:21Z</time>
      </trkpt>
      <trkpt lat="42.4764" lon="2.92112">
        <ele>778.3</ele>
        <time>2021-11-14T15:25:22Z</time>
      </trkpt>
      <trkpt lat="42.47633" lon="2.92111">
        <ele>778</ele>
        <time>2021-11-14T15:25:23Z</time>
      </trkpt>
      <trkpt lat="42.47618" lon="2.92112">
        <ele>777.4</ele>
        <time>2021-11-14T15:25:25Z</time>
      </trkpt>
      <trkpt lat="42.47611" lon="2.92114">
        <ele>777.1</ele>
        <time>2021-11-14T15:25:26Z</time>
      </trkpt>
      <trkpt lat="42.47604" lon="2.92115">
        <ele>776.7</ele>
        <time>2021-11-14T15:25:27Z</time>
      </trkpt>
      <trkpt lat="42.47592" lon="2.9212">
        <ele>776.1</ele>
        <time>2021-11-14T15:25:29Z</time>
      </trkpt>
      <trkpt lat="42.4758" lon="2.92129">
        <ele>775.4</ele>
        <time>2021-11-14T15:25:31Z</time>
      </trkpt>
      <trkpt lat="42.47575" lon="2.92137">
        <ele>775</ele>
        <time>2021-11-14T15:25:32Z</time>
      </trkpt>
      <trkpt lat="42.4757" lon="2.92144">
        <ele>774.7</ele>
        <time>2021-11-14T15:25:33Z</time>
      </trkpt>
      <trkpt lat="42.47562" lon="2.9216">
        <ele>774</ele>
        <time>2021-11-14T15:25:35Z</time>
      </trkpt>
      <trkpt lat="42.47555" lon="2.92176">
        <ele>773.3</ele>
        <time>2021-11-14T15:25:37Z</time>
      </trkpt>
      <trkpt lat="42.47551" lon="2.92185">
        <ele>772.9</ele>
        <time>2021-11-14T15:25:38Z</time>
      </trkpt>
      <trkpt lat="42.47546" lon="2.92194">
        <ele>772.5</ele>
        <time>2021-11-14T15:25:39Z</time>
      </trkpt>
      <trkpt lat="42.47536" lon="2.92209">
        <ele>771.6</ele>
        <time>2021-11-14T15:25:41Z</time>
      </trkpt>
      <trkpt lat="42.47529" lon="2.92217">
        <ele>771.1</ele>
        <time>2021-11-14T15:25:42Z</time>
      </trkpt>
      <trkpt lat="42.47523" lon="2.92225">
        <ele>770.5</ele>
        <time>2021-11-14T15:25:43Z</time>
      </trkpt>
      <trkpt lat="42.47517" lon="2.92233">
        <ele>769.9</ele>
        <time>2021-11-14T15:25:44Z</time>
      </trkpt>
      <trkpt lat="42.47505" lon="2.92249">
        <ele>768.9</ele>
        <time>2021-11-14T15:25:46Z</time>
      </trkpt>
      <trkpt lat="42.47499" lon="2.92257">
        <ele>768.4</ele>
        <time>2021-11-14T15:25:47Z</time>
      </trkpt>
      <trkpt lat="42.47482" lon="2.92262">
        <ele>767.4</ele>
        <time>2021-11-14T15:25:49Z</time>
      </trkpt>
      <trkpt lat="42.47474" lon="2.92259">
        <ele>766.8</ele>
        <time>2021-11-14T15:25:50Z</time>
      </trkpt>
      <trkpt lat="42.47466" lon="2.92256">
        <ele>766.4</ele>
        <time>2021-11-14T15:25:51Z</time>
      </trkpt>
      <trkpt lat="42.47458" lon="2.92233">
        <ele>765.3</ele>
        <time>2021-11-14T15:25:53Z</time>
      </trkpt>
      <trkpt lat="42.47455" lon="2.92205">
        <ele>764</ele>
        <time>2021-11-14T15:25:55Z</time>
      </trkpt>
      <trkpt lat="42.47455" lon="2.92191">
        <ele>763.4</ele>
        <time>2021-11-14T15:25:56Z</time>
      </trkpt>
      <trkpt lat="42.47455" lon="2.92178">
        <ele>762.7</ele>
        <time>2021-11-14T15:25:57Z</time>
      </trkpt>
      <trkpt lat="42.47455" lon="2.92165">
        <ele>762.2</ele>
        <time>2021-11-14T15:25:58Z</time>
      </trkpt>
      <trkpt lat="42.47452" lon="2.92142">
        <ele>761.1</ele>
        <time>2021-11-14T15:26:00Z</time>
      </trkpt>
      <trkpt lat="42.47447" lon="2.92119">
        <ele>760</ele>
        <time>2021-11-14T15:26:02Z</time>
      </trkpt>
      <trkpt lat="42.47442" lon="2.92097">
        <ele>759</ele>
        <time>2021-11-14T15:26:04Z</time>
      </trkpt>
      <trkpt lat="42.47434" lon="2.92076">
        <ele>758.1</ele>
        <time>2021-11-14T15:26:06Z</time>
      </trkpt>
      <trkpt lat="42.4743" lon="2.92065">
        <ele>757.6</ele>
        <time>2021-11-14T15:26:07Z</time>
      </trkpt>
      <trkpt lat="42.47425" lon="2.92055">
        <ele>757</ele>
        <time>2021-11-14T15:26:08Z</time>
      </trkpt>
      <trkpt lat="42.47419" lon="2.92044">
        <ele>756.4</ele>
        <time>2021-11-14T15:26:09Z</time>
      </trkpt>
      <trkpt lat="42.47407" lon="2.92022">
        <ele>755</ele>
        <time>2021-11-14T15:26:11Z</time>
      </trkpt>
      <trkpt lat="42.47395" lon="2.92">
        <ele>753.5</ele>
        <time>2021-11-14T15:26:13Z</time>
      </trkpt>
      <trkpt lat="42.47385" lon="2.91974">
        <ele>751.8</ele>
        <time>2021-11-14T15:26:15Z</time>
      </trkpt>
      <trkpt lat="42.47375" lon="2.91947">
        <ele>750.1</ele>
        <time>2021-11-14T15:26:17Z</time>
      </trkpt>
      <trkpt lat="42.47362" lon="2.91927">
        <ele>748.7</ele>
        <time>2021-11-14T15:26:19Z</time>
      </trkpt>
      <trkpt lat="42.47353" lon="2.91918">
        <ele>748</ele>
        <time>2021-11-14T15:26:20Z</time>
      </trkpt>
      <trkpt lat="42.47336" lon="2.91905">
        <ele>746.6</ele>
        <time>2021-11-14T15:26:22Z</time>
      </trkpt>
      <trkpt lat="42.47326" lon="2.91899">
        <ele>745.9</ele>
        <time>2021-11-14T15:26:23Z</time>
      </trkpt>
      <trkpt lat="42.47305" lon="2.919">
        <ele>744.5</ele>
        <time>2021-11-14T15:26:25Z</time>
      </trkpt>
      <trkpt lat="42.47292" lon="2.91911">
        <ele>743.4</ele>
        <time>2021-11-14T15:26:26Z</time>
      </trkpt>
      <trkpt lat="42.47279" lon="2.91922">
        <ele>742.3</ele>
        <time>2021-11-14T15:26:27Z</time>
      </trkpt>
      <trkpt lat="42.47259" lon="2.91942">
        <ele>740.6</ele>
        <time>2021-11-14T15:26:29Z</time>
      </trkpt>
      <trkpt lat="42.47243" lon="2.91961">
        <ele>739.4</ele>
        <time>2021-11-14T15:26:31Z</time>
      </trkpt>
      <trkpt lat="42.47231" lon="2.91966">
        <ele>738.8</ele>
        <time>2021-11-14T15:26:33Z</time>
      </trkpt>
      <trkpt lat="42.47224" lon="2.91959">
        <ele>738.3</ele>
        <time>2021-11-14T15:26:34Z</time>
      </trkpt>
      <trkpt lat="42.47221" lon="2.91945">
        <ele>737.8</ele>
        <time>2021-11-14T15:26:35Z</time>
      </trkpt>
      <trkpt lat="42.47218" lon="2.91916">
        <ele>736.7</ele>
        <time>2021-11-14T15:26:37Z</time>
      </trkpt>
      <trkpt lat="42.47217" lon="2.91903">
        <ele>736.2</ele>
        <time>2021-11-14T15:26:38Z</time>
      </trkpt>
      <trkpt lat="42.47212" lon="2.91877">
        <ele>735</ele>
        <time>2021-11-14T15:26:40Z</time>
      </trkpt>
      <trkpt lat="42.47206" lon="2.91852">
        <ele>733.8</ele>
        <time>2021-11-14T15:26:42Z</time>
      </trkpt>
      <trkpt lat="42.47202" lon="2.91839">
        <ele>733.3</ele>
        <time>2021-11-14T15:26:43Z</time>
      </trkpt>
      <trkpt lat="42.47198" lon="2.91827">
        <ele>732.7</ele>
        <time>2021-11-14T15:26:44Z</time>
      </trkpt>
      <trkpt lat="42.4719" lon="2.91805">
        <ele>731.7</ele>
        <time>2021-11-14T15:26:46Z</time>
      </trkpt>
      <trkpt lat="42.47183" lon="2.9178">
        <ele>730.5</ele>
        <time>2021-11-14T15:26:48Z</time>
      </trkpt>
      <trkpt lat="42.47176" lon="2.91755">
        <ele>729.4</ele>
        <time>2021-11-14T15:26:50Z</time>
      </trkpt>
      <trkpt lat="42.47168" lon="2.91732">
        <ele>728.3</ele>
        <time>2021-11-14T15:26:52Z</time>
      </trkpt>
      <trkpt lat="42.47157" lon="2.9171">
        <ele>727.1</ele>
        <time>2021-11-14T15:26:54Z</time>
      </trkpt>
      <trkpt lat="42.47143" lon="2.91686">
        <ele>725.5</ele>
        <time>2021-11-14T15:26:56Z</time>
      </trkpt>
      <trkpt lat="42.47128" lon="2.91667">
        <ele>724.1</ele>
        <time>2021-11-14T15:26:58Z</time>
      </trkpt>
      <trkpt lat="42.47117" lon="2.9166">
        <ele>723.3</ele>
        <time>2021-11-14T15:26:59Z</time>
      </trkpt>
      <trkpt lat="42.47098" lon="2.91651">
        <ele>721.9</ele>
        <time>2021-11-14T15:27:01Z</time>
      </trkpt>
      <trkpt lat="42.47083" lon="2.91633">
        <ele>720.6</ele>
        <time>2021-11-14T15:27:03Z</time>
      </trkpt>
      <trkpt lat="42.4707" lon="2.9161">
        <ele>719.1</ele>
        <time>2021-11-14T15:27:05Z</time>
      </trkpt>
      <trkpt lat="42.47059" lon="2.91585">
        <ele>717.6</ele>
        <time>2021-11-14T15:27:07Z</time>
      </trkpt>
      <trkpt lat="42.47052" lon="2.91574">
        <ele>716.8</ele>
        <time>2021-11-14T15:27:08Z</time>
      </trkpt>
      <trkpt lat="42.47044" lon="2.91564">
        <ele>716.1</ele>
        <time>2021-11-14T15:27:09Z</time>
      </trkpt>
      <trkpt lat="42.47036" lon="2.91556">
        <ele>715.4</ele>
        <time>2021-11-14T15:27:10Z</time>
      </trkpt>
      <trkpt lat="42.47017" lon="2.91544">
        <ele>714.2</ele>
        <time>2021-11-14T15:27:12Z</time>
      </trkpt>
      <trkpt lat="42.47007" lon="2.91538">
        <ele>713.7</ele>
        <time>2021-11-14T15:27:13Z</time>
      </trkpt>
      <trkpt lat="42.46985" lon="2.91529">
        <ele>712.6</ele>
        <time>2021-11-14T15:27:15Z</time>
      </trkpt>
      <trkpt lat="42.46974" lon="2.91523">
        <ele>712</ele>
        <time>2021-11-14T15:27:16Z</time>
      </trkpt>
      <trkpt lat="42.46954" lon="2.91509">
        <ele>710.6</ele>
        <time>2021-11-14T15:27:18Z</time>
      </trkpt>
      <trkpt lat="42.46941" lon="2.91487">
        <ele>709.2</ele>
        <time>2021-11-14T15:27:20Z</time>
      </trkpt>
      <trkpt lat="42.46936" lon="2.91457">
        <ele>707.4</ele>
        <time>2021-11-14T15:27:22Z</time>
      </trkpt>
      <trkpt lat="42.46933" lon="2.91427">
        <ele>705.6</ele>
        <time>2021-11-14T15:27:24Z</time>
      </trkpt>
      <trkpt lat="42.4693" lon="2.91411">
        <ele>704.6</ele>
        <time>2021-11-14T15:27:25Z</time>
      </trkpt>
      <trkpt lat="42.4692" lon="2.91381">
        <ele>702.7</ele>
        <time>2021-11-14T15:27:27Z</time>
      </trkpt>
      <trkpt lat="42.46905" lon="2.91354">
        <ele>701.2</ele>
        <time>2021-11-14T15:27:29Z</time>
      </trkpt>
      <trkpt lat="42.46895" lon="2.91345">
        <ele>700.5</ele>
        <time>2021-11-14T15:27:30Z</time>
      </trkpt>
      <trkpt lat="42.46875" lon="2.91329">
        <ele>699.2</ele>
        <time>2021-11-14T15:27:32Z</time>
      </trkpt>
      <trkpt lat="42.46856" lon="2.9131">
        <ele>698.2</ele>
        <time>2021-11-14T15:27:34Z</time>
      </trkpt>
      <trkpt lat="42.46848" lon="2.91301">
        <ele>698.2</ele>
        <time>2021-11-14T15:27:35Z</time>
      </trkpt>
      <trkpt lat="42.46841" lon="2.91293">
        <ele>698.2</ele>
        <time>2021-11-14T15:27:36Z</time>
      </trkpt>
      <trkpt lat="42.46832" lon="2.91285">
        <ele>698.3</ele>
        <time>2021-11-14T15:27:38Z</time>
      </trkpt>
      <trkpt lat="42.46826" lon="2.91281">
        <ele>698.3</ele>
        <time>2021-11-14T15:27:40Z</time>
      </trkpt>
      <trkpt lat="42.46818" lon="2.91286">
        <ele>697.9</ele>
        <time>2021-11-14T15:27:42Z</time>
      </trkpt>
      <trkpt lat="42.46813" lon="2.91291">
        <ele>697.6</ele>
        <time>2021-11-14T15:27:43Z</time>
      </trkpt>
      <trkpt lat="42.46804" lon="2.913">
        <ele>697.1</ele>
        <time>2021-11-14T15:27:45Z</time>
      </trkpt>
      <trkpt lat="42.46793" lon="2.9131">
        <ele>696.5</ele>
        <time>2021-11-14T15:27:47Z</time>
      </trkpt>
      <trkpt lat="42.46787" lon="2.91315">
        <ele>696.2</ele>
        <time>2021-11-14T15:27:48Z</time>
      </trkpt>
      <trkpt lat="42.46774" lon="2.91324">
        <ele>695.6</ele>
        <time>2021-11-14T15:27:50Z</time>
      </trkpt>
      <trkpt lat="42.46757" lon="2.91333">
        <ele>694.8</ele>
        <time>2021-11-14T15:27:52Z</time>
      </trkpt>
      <trkpt lat="42.46751" lon="2.91338">
        <ele>694.4</ele>
        <time>2021-11-14T15:27:53Z</time>
      </trkpt>
      <trkpt lat="42.46744" lon="2.91343">
        <ele>694</ele>
        <time>2021-11-14T15:27:54Z</time>
      </trkpt>
      <trkpt lat="42.46732" lon="2.91352">
        <ele>693.3</ele>
        <time>2021-11-14T15:27:56Z</time>
      </trkpt>
      <trkpt lat="42.46724" lon="2.91356">
        <ele>692.8</ele>
        <time>2021-11-14T15:27:57Z</time>
      </trkpt>
      <trkpt lat="42.46709" lon="2.91365">
        <ele>691.8</ele>
        <time>2021-11-14T15:27:59Z</time>
      </trkpt>
      <trkpt lat="42.46702" lon="2.91371">
        <ele>691.2</ele>
        <time>2021-11-14T15:28:00Z</time>
      </trkpt>
      <trkpt lat="42.46689" lon="2.91387">
        <ele>690.2</ele>
        <time>2021-11-14T15:28:02Z</time>
      </trkpt>
      <trkpt lat="42.46684" lon="2.91396">
        <ele>689.8</ele>
        <time>2021-11-14T15:28:03Z</time>
      </trkpt>
      <trkpt lat="42.46674" lon="2.91417">
        <ele>688.9</ele>
        <time>2021-11-14T15:28:05Z</time>
      </trkpt>
      <trkpt lat="42.46671" lon="2.91428">
        <ele>688.6</ele>
        <time>2021-11-14T15:28:06Z</time>
      </trkpt>
      <trkpt lat="42.46662" lon="2.91442">
        <ele>688</ele>
        <time>2021-11-14T15:28:08Z</time>
      </trkpt>
      <trkpt lat="42.46656" lon="2.91448">
        <ele>687.7</ele>
        <time>2021-11-14T15:28:09Z</time>
      </trkpt>
      <trkpt lat="42.46646" lon="2.91452">
        <ele>687.1</ele>
        <time>2021-11-14T15:28:11Z</time>
      </trkpt>
      <trkpt lat="42.46649" lon="2.91441">
        <ele>686.6</ele>
        <time>2021-11-14T15:28:12Z</time>
      </trkpt>
      <trkpt lat="42.46661" lon="2.91412">
        <ele>685.1</ele>
        <time>2021-11-14T15:28:14Z</time>
      </trkpt>
      <trkpt lat="42.46666" lon="2.91401">
        <ele>684.6</ele>
        <time>2021-11-14T15:28:15Z</time>
      </trkpt>
      <trkpt lat="42.46671" lon="2.91391">
        <ele>684.2</ele>
        <time>2021-11-14T15:28:16Z</time>
      </trkpt>
      <trkpt lat="42.4668" lon="2.91374">
        <ele>683.4</ele>
        <time>2021-11-14T15:28:18Z</time>
      </trkpt>
      <trkpt lat="42.46685" lon="2.91366">
        <ele>683.1</ele>
        <time>2021-11-14T15:28:19Z</time>
      </trkpt>
      <trkpt lat="42.4669" lon="2.91359">
        <ele>682.7</ele>
        <time>2021-11-14T15:28:20Z</time>
      </trkpt>
      <trkpt lat="42.467" lon="2.91344">
        <ele>682.1</ele>
        <time>2021-11-14T15:28:22Z</time>
      </trkpt>
      <trkpt lat="42.46705" lon="2.91338">
        <ele>681.7</ele>
        <time>2021-11-14T15:28:23Z</time>
      </trkpt>
      <trkpt lat="42.46716" lon="2.91326">
        <ele>681</ele>
        <time>2021-11-14T15:28:25Z</time>
      </trkpt>
      <trkpt lat="42.46722" lon="2.9132">
        <ele>680.7</ele>
        <time>2021-11-14T15:28:26Z</time>
      </trkpt>
      <trkpt lat="42.46727" lon="2.91314">
        <ele>680.4</ele>
        <time>2021-11-14T15:28:27Z</time>
      </trkpt>
      <trkpt lat="42.46739" lon="2.913">
        <ele>679.7</ele>
        <time>2021-11-14T15:28:29Z</time>
      </trkpt>
      <trkpt lat="42.46751" lon="2.91285">
        <ele>679.1</ele>
        <time>2021-11-14T15:28:31Z</time>
      </trkpt>
      <trkpt lat="42.46757" lon="2.91277">
        <ele>678.8</ele>
        <time>2021-11-14T15:28:32Z</time>
      </trkpt>
      <trkpt lat="42.46765" lon="2.91257">
        <ele>678.2</ele>
        <time>2021-11-14T15:28:34Z</time>
      </trkpt>
      <trkpt lat="42.46767" lon="2.91246">
        <ele>677.9</ele>
        <time>2021-11-14T15:28:35Z</time>
      </trkpt>
      <trkpt lat="42.46765" lon="2.91224">
        <ele>677.3</ele>
        <time>2021-11-14T15:28:37Z</time>
      </trkpt>
      <trkpt lat="42.46766" lon="2.91205">
        <ele>676.6</ele>
        <time>2021-11-14T15:28:39Z</time>
      </trkpt>
      <trkpt lat="42.46769" lon="2.91188">
        <ele>675.8</ele>
        <time>2021-11-14T15:28:41Z</time>
      </trkpt>
      <trkpt lat="42.46778" lon="2.9117">
        <ele>674.7</ele>
        <time>2021-11-14T15:28:43Z</time>
      </trkpt>
      <trkpt lat="42.46787" lon="2.91151">
        <ele>673.4</ele>
        <time>2021-11-14T15:28:45Z</time>
      </trkpt>
      <trkpt lat="42.46792" lon="2.91142">
        <ele>672.7</ele>
        <time>2021-11-14T15:28:46Z</time>
      </trkpt>
      <trkpt lat="42.468" lon="2.91118">
        <ele>671.2</ele>
        <time>2021-11-14T15:28:48Z</time>
      </trkpt>
      <trkpt lat="42.46802" lon="2.91105">
        <ele>670.4</ele>
        <time>2021-11-14T15:28:49Z</time>
      </trkpt>
      <trkpt lat="42.46806" lon="2.91077">
        <ele>668.7</ele>
        <time>2021-11-14T15:28:51Z</time>
      </trkpt>
      <trkpt lat="42.46808" lon="2.91062">
        <ele>667.8</ele>
        <time>2021-11-14T15:28:52Z</time>
      </trkpt>
      <trkpt lat="42.4681" lon="2.91049">
        <ele>667.1</ele>
        <time>2021-11-14T15:28:53Z</time>
      </trkpt>
      <trkpt lat="42.46813" lon="2.91022">
        <ele>665.5</ele>
        <time>2021-11-14T15:28:55Z</time>
      </trkpt>
      <trkpt lat="42.46815" lon="2.91008">
        <ele>664.6</ele>
        <time>2021-11-14T15:28:56Z</time>
      </trkpt>
      <trkpt lat="42.46817" lon="2.90979">
        <ele>662.8</ele>
        <time>2021-11-14T15:28:58Z</time>
      </trkpt>
      <trkpt lat="42.46826" lon="2.90952">
        <ele>660.9</ele>
        <time>2021-11-14T15:29:00Z</time>
      </trkpt>
      <trkpt lat="42.46838" lon="2.90928">
        <ele>659</ele>
        <time>2021-11-14T15:29:02Z</time>
      </trkpt>
      <trkpt lat="42.4685" lon="2.90908">
        <ele>657.4</ele>
        <time>2021-11-14T15:29:04Z</time>
      </trkpt>
      <trkpt lat="42.46858" lon="2.90901">
        <ele>656.7</ele>
        <time>2021-11-14T15:29:05Z</time>
      </trkpt>
      <trkpt lat="42.46876" lon="2.90891">
        <ele>655.3</ele>
        <time>2021-11-14T15:29:07Z</time>
      </trkpt>
      <trkpt lat="42.46884" lon="2.90887">
        <ele>654.7</ele>
        <time>2021-11-14T15:29:08Z</time>
      </trkpt>
      <trkpt lat="42.46893" lon="2.90883">
        <ele>654.1</ele>
        <time>2021-11-14T15:29:09Z</time>
      </trkpt>
      <trkpt lat="42.46909" lon="2.90874">
        <ele>653.2</ele>
        <time>2021-11-14T15:29:11Z</time>
      </trkpt>
      <trkpt lat="42.46924" lon="2.90863">
        <ele>652.3</ele>
        <time>2021-11-14T15:29:13Z</time>
      </trkpt>
      <trkpt lat="42.46931" lon="2.90857">
        <ele>652</ele>
        <time>2021-11-14T15:29:14Z</time>
      </trkpt>
      <trkpt lat="42.46938" lon="2.90852">
        <ele>651.6</ele>
        <time>2021-11-14T15:29:15Z</time>
      </trkpt>
      <trkpt lat="42.46952" lon="2.9084">
        <ele>651</ele>
        <time>2021-11-14T15:29:17Z</time>
      </trkpt>
      <trkpt lat="42.46959" lon="2.90833">
        <ele>650.6</ele>
        <time>2021-11-14T15:29:18Z</time>
      </trkpt>
      <trkpt lat="42.46964" lon="2.90825">
        <ele>650.3</ele>
        <time>2021-11-14T15:29:19Z</time>
      </trkpt>
      <trkpt lat="42.46969" lon="2.90815">
        <ele>649.9</ele>
        <time>2021-11-14T15:29:20Z</time>
      </trkpt>
      <trkpt lat="42.46976" lon="2.90794">
        <ele>649.2</ele>
        <time>2021-11-14T15:29:22Z</time>
      </trkpt>
      <trkpt lat="42.46982" lon="2.90773">
        <ele>648.7</ele>
        <time>2021-11-14T15:29:24Z</time>
      </trkpt>
      <trkpt lat="42.46985" lon="2.90763">
        <ele>648.5</ele>
        <time>2021-11-14T15:29:25Z</time>
      </trkpt>
      <trkpt lat="42.46991" lon="2.90743">
        <ele>648.1</ele>
        <time>2021-11-14T15:29:27Z</time>
      </trkpt>
      <trkpt lat="42.46993" lon="2.90734">
        <ele>647.9</ele>
        <time>2021-11-14T15:29:28Z</time>
      </trkpt>
      <trkpt lat="42.46995" lon="2.90724">
        <ele>647.7</ele>
        <time>2021-11-14T15:29:29Z</time>
      </trkpt>
      <trkpt lat="42.46992" lon="2.90705">
        <ele>647</ele>
        <time>2021-11-14T15:29:31Z</time>
      </trkpt>
      <trkpt lat="42.4698" lon="2.90694">
        <ele>646.1</ele>
        <time>2021-11-14T15:29:33Z</time>
      </trkpt>
      <trkpt lat="42.46966" lon="2.90702">
        <ele>645</ele>
        <time>2021-11-14T15:29:35Z</time>
      </trkpt>
      <trkpt lat="42.4696" lon="2.90709">
        <ele>644.4</ele>
        <time>2021-11-14T15:29:36Z</time>
      </trkpt>
      <trkpt lat="42.46948" lon="2.90722">
        <ele>643.2</ele>
        <time>2021-11-14T15:29:38Z</time>
      </trkpt>
      <trkpt lat="42.46942" lon="2.90732">
        <ele>642.4</ele>
        <time>2021-11-14T15:29:39Z</time>
      </trkpt>
      <trkpt lat="42.46928" lon="2.90751">
        <ele>640.8</ele>
        <time>2021-11-14T15:29:41Z</time>
      </trkpt>
      <trkpt lat="42.46913" lon="2.90767">
        <ele>639.2</ele>
        <time>2021-11-14T15:29:43Z</time>
      </trkpt>
      <trkpt lat="42.46897" lon="2.90784">
        <ele>637.6</ele>
        <time>2021-11-14T15:29:45Z</time>
      </trkpt>
      <trkpt lat="42.46886" lon="2.90795">
        <ele>636.5</ele>
        <time>2021-11-14T15:29:46Z</time>
      </trkpt>
      <trkpt lat="42.46866" lon="2.90813">
        <ele>634.6</ele>
        <time>2021-11-14T15:29:48Z</time>
      </trkpt>
      <trkpt lat="42.46857" lon="2.9082">
        <ele>633.7</ele>
        <time>2021-11-14T15:29:49Z</time>
      </trkpt>
      <trkpt lat="42.46845" lon="2.90826">
        <ele>632.7</ele>
        <time>2021-11-14T15:29:50Z</time>
      </trkpt>
      <trkpt lat="42.4682" lon="2.9083">
        <ele>630.5</ele>
        <time>2021-11-14T15:29:52Z</time>
      </trkpt>
      <trkpt lat="42.46809" lon="2.90825">
        <ele>629.5</ele>
        <time>2021-11-14T15:29:53Z</time>
      </trkpt>
      <trkpt lat="42.46786" lon="2.90826">
        <ele>627.6</ele>
        <time>2021-11-14T15:29:55Z</time>
      </trkpt>
      <trkpt lat="42.46762" lon="2.90834">
        <ele>625.7</ele>
        <time>2021-11-14T15:29:57Z</time>
      </trkpt>
      <trkpt lat="42.46738" lon="2.90835">
        <ele>624</ele>
        <time>2021-11-14T15:29:59Z</time>
      </trkpt>
      <trkpt lat="42.46719" lon="2.90833">
        <ele>622.8</ele>
        <time>2021-11-14T15:30:01Z</time>
      </trkpt>
      <trkpt lat="42.46712" lon="2.90832">
        <ele>622.5</ele>
        <time>2021-11-14T15:30:02Z</time>
      </trkpt>
      <trkpt lat="42.46701" lon="2.90831">
        <ele>622</ele>
        <time>2021-11-14T15:30:04Z</time>
      </trkpt>
      <trkpt lat="42.46697" lon="2.90831">
        <ele>621.8</ele>
        <time>2021-11-14T15:30:05Z</time>
      </trkpt>
      <trkpt lat="42.46692" lon="2.9083">
        <ele>621.6</ele>
        <time>2021-11-14T15:30:07Z</time>
      </trkpt>
      <trkpt lat="42.46691" lon="2.90829">
        <ele>621.5</ele>
        <time>2021-11-14T15:30:08Z</time>
      </trkpt>
      <trkpt lat="42.46691" lon="2.90828">
        <ele>621.5</ele>
        <time>2021-11-14T15:30:09Z</time>
      </trkpt>
      <trkpt lat="42.46689" lon="2.90821">
        <ele>621.2</ele>
        <time>2021-11-14T15:30:11Z</time>
      </trkpt>
      <trkpt lat="42.46689" lon="2.90817">
        <ele>621.1</ele>
        <time>2021-11-14T15:30:12Z</time>
      </trkpt>
      <trkpt lat="42.46688" lon="2.90815">
        <ele>621</ele>
        <time>2021-11-14T15:30:13Z</time>
      </trkpt>
      <trkpt lat="42.46689" lon="2.90811">
        <ele>620.9</ele>
        <time>2021-11-14T15:30:15Z</time>
      </trkpt>
      <trkpt lat="42.4669" lon="2.90811">
        <ele>620.8</ele>
        <time>2021-11-14T15:30:16Z</time>
      </trkpt>
      <trkpt lat="42.46691" lon="2.9081">
        <ele>620.8</ele>
        <time>2021-11-14T15:30:17Z</time>
      </trkpt>
      <trkpt lat="42.46691" lon="2.90811">
        <ele>620.7</ele>
        <time>2021-11-14T15:30:18Z</time>
      </trkpt>
      <trkpt lat="42.46692" lon="2.90811">
        <ele>620.7</ele>
        <time>2021-11-14T15:30:19Z</time>
      </trkpt>
      <trkpt lat="42.46692" lon="2.90811">
        <ele>620.7</ele>
        <time>2021-11-14T15:30:20Z</time>
      </trkpt>
      <trkpt lat="42.46692" lon="2.90811">
        <ele>620.7</ele>
        <time>2021-11-14T15:30:22Z</time>
      </trkpt>
      <trkpt lat="42.46692" lon="2.90811">
        <ele>620.7</ele>
        <time>2021-11-14T15:30:23Z</time>
      </trkpt>
      <trkpt lat="42.46692" lon="2.90811">
        <ele>620.7</ele>
        <time>2021-11-14T15:30:25Z</time>
      </trkpt>
      <trkpt lat="42.46692" lon="2.90811">
        <ele>620.7</ele>
        <time>2021-11-14T15:30:27Z</time>
      </trkpt>
      <trkpt lat="42.46693" lon="2.90814">
        <ele>620.6</ele>
        <time>2021-11-14T15:31:20Z</time>
      </trkpt>
      <trkpt lat="42.46692" lon="2.90815">
        <ele>620.6</ele>
        <time>2021-11-14T15:31:22Z</time>
      </trkpt>
      <trkpt lat="42.46692" lon="2.90815">
        <ele>620.5</ele>
        <time>2021-11-14T15:31:24Z</time>
      </trkpt>
      <trkpt lat="42.46693" lon="2.90815">
        <ele>620.5</ele>
        <time>2021-11-14T15:31:25Z</time>
      </trkpt>
      <trkpt lat="42.46693" lon="2.90815">
        <ele>620.5</ele>
        <time>2021-11-14T15:31:26Z</time>
      </trkpt>
      <trkpt lat="42.46693" lon="2.90815">
        <ele>620.5</ele>
        <time>2021-11-14T15:31:27Z</time>
      </trkpt>
      <trkpt lat="42.46693" lon="2.90817">
        <ele>620.4</ele>
        <time>2021-11-14T15:31:28Z</time>
      </trkpt>
      <trkpt lat="42.46693" lon="2.90818">
        <ele>620.4</ele>
        <time>2021-11-14T15:31:29Z</time>
      </trkpt>
      <trkpt lat="42.46691" lon="2.9082">
        <ele>620.3</ele>
        <time>2021-11-14T15:31:31Z</time>
      </trkpt>
      <trkpt lat="42.4669" lon="2.90822">
        <ele>620.2</ele>
        <time>2021-11-14T15:31:32Z</time>
      </trkpt>
      <trkpt lat="42.46689" lon="2.90823">
        <ele>620.2</ele>
        <time>2021-11-14T15:31:33Z</time>
      </trkpt>
      <trkpt lat="42.46687" lon="2.90824">
        <ele>620.1</ele>
        <time>2021-11-14T15:31:34Z</time>
      </trkpt>
      <trkpt lat="42.46684" lon="2.90825">
        <ele>619.9</ele>
        <time>2021-11-14T15:31:36Z</time>
      </trkpt>
      <trkpt lat="42.46682" lon="2.90826">
        <ele>619.8</ele>
        <time>2021-11-14T15:31:37Z</time>
      </trkpt>
      <trkpt lat="42.46679" lon="2.9083">
        <ele>619.6</ele>
        <time>2021-11-14T15:31:39Z</time>
      </trkpt>
      <trkpt lat="42.46677" lon="2.90831">
        <ele>619.5</ele>
        <time>2021-11-14T15:31:40Z</time>
      </trkpt>
      <trkpt lat="42.46673" lon="2.90834">
        <ele>619.3</ele>
        <time>2021-11-14T15:31:42Z</time>
      </trkpt>
      <trkpt lat="42.4667" lon="2.90834">
        <ele>619.1</ele>
        <time>2021-11-14T15:31:43Z</time>
      </trkpt>
      <trkpt lat="42.46663" lon="2.90836">
        <ele>618.8</ele>
        <time>2021-11-14T15:31:45Z</time>
      </trkpt>
      <trkpt lat="42.46654" lon="2.90839">
        <ele>618.3</ele>
        <time>2021-11-14T15:31:46Z</time>
      </trkpt>
      <trkpt lat="42.46648" lon="2.90841">
        <ele>618</ele>
        <time>2021-11-14T15:31:47Z</time>
      </trkpt>
      <trkpt lat="42.46643" lon="2.90845">
        <ele>617.7</ele>
        <time>2021-11-14T15:31:48Z</time>
      </trkpt>
      <trkpt lat="42.46638" lon="2.90851">
        <ele>617.4</ele>
        <time>2021-11-14T15:31:49Z</time>
      </trkpt>
      <trkpt lat="42.4663" lon="2.90867">
        <ele>616.7</ele>
        <time>2021-11-14T15:31:51Z</time>
      </trkpt>
      <trkpt lat="42.46626" lon="2.90887">
        <ele>615.9</ele>
        <time>2021-11-14T15:31:53Z</time>
      </trkpt>
      <trkpt lat="42.46624" lon="2.9091">
        <ele>615.2</ele>
        <time>2021-11-14T15:31:55Z</time>
      </trkpt>
      <trkpt lat="42.46621" lon="2.90926">
        <ele>614.6</ele>
        <time>2021-11-14T15:31:57Z</time>
      </trkpt>
      <trkpt lat="42.46619" lon="2.90931">
        <ele>614</ele>
        <time>2021-11-14T15:31:58Z</time>
      </trkpt>
      <trkpt lat="42.46611" lon="2.90938">
        <ele>613.3</ele>
        <time>2021-11-14T15:32:00Z</time>
      </trkpt>
      <trkpt lat="42.466" lon="2.90937">
        <ele>612.6</ele>
        <time>2021-11-14T15:32:02Z</time>
      </trkpt>
      <trkpt lat="42.46595" lon="2.90929">
        <ele>612.1</ele>
        <time>2021-11-14T15:32:03Z</time>
      </trkpt>
      <trkpt lat="42.46587" lon="2.90916">
        <ele>611.4</ele>
        <time>2021-11-14T15:32:05Z</time>
      </trkpt>
      <trkpt lat="42.46576" lon="2.90901">
        <ele>610.4</ele>
        <time>2021-11-14T15:32:07Z</time>
      </trkpt>
      <trkpt lat="42.46565" lon="2.90879">
        <ele>609.1</ele>
        <time>2021-11-14T15:32:09Z</time>
      </trkpt>
      <trkpt lat="42.46564" lon="2.9087">
        <ele>608.7</ele>
        <time>2021-11-14T15:32:10Z</time>
      </trkpt>
      <trkpt lat="42.46568" lon="2.90853">
        <ele>607.6</ele>
        <time>2021-11-14T15:32:12Z</time>
      </trkpt>
      <trkpt lat="42.46575" lon="2.90829">
        <ele>606.2</ele>
        <time>2021-11-14T15:32:14Z</time>
      </trkpt>
      <trkpt lat="42.46584" lon="2.90806">
        <ele>604.7</ele>
        <time>2021-11-14T15:32:16Z</time>
      </trkpt>
      <trkpt lat="42.46587" lon="2.90795">
        <ele>604</ele>
        <time>2021-11-14T15:32:17Z</time>
      </trkpt>
      <trkpt lat="42.46592" lon="2.90784">
        <ele>603.3</ele>
        <time>2021-11-14T15:32:18Z</time>
      </trkpt>
      <trkpt lat="42.46601" lon="2.90762">
        <ele>601.9</ele>
        <time>2021-11-14T15:32:20Z</time>
      </trkpt>
      <trkpt lat="42.46613" lon="2.90742">
        <ele>600.5</ele>
        <time>2021-11-14T15:32:22Z</time>
      </trkpt>
      <trkpt lat="42.46621" lon="2.90733">
        <ele>599.8</ele>
        <time>2021-11-14T15:32:23Z</time>
      </trkpt>
      <trkpt lat="42.46638" lon="2.90719">
        <ele>598.4</ele>
        <time>2021-11-14T15:32:25Z</time>
      </trkpt>
      <trkpt lat="42.46646" lon="2.90713">
        <ele>597.7</ele>
        <time>2021-11-14T15:32:26Z</time>
      </trkpt>
      <trkpt lat="42.46653" lon="2.90706">
        <ele>597.1</ele>
        <time>2021-11-14T15:32:27Z</time>
      </trkpt>
      <trkpt lat="42.46669" lon="2.90692">
        <ele>595.7</ele>
        <time>2021-11-14T15:32:29Z</time>
      </trkpt>
      <trkpt lat="42.46677" lon="2.90685">
        <ele>595</ele>
        <time>2021-11-14T15:32:30Z</time>
      </trkpt>
      <trkpt lat="42.46693" lon="2.90672">
        <ele>593.8</ele>
        <time>2021-11-14T15:32:32Z</time>
      </trkpt>
      <trkpt lat="42.46701" lon="2.90668">
        <ele>593.2</ele>
        <time>2021-11-14T15:32:33Z</time>
      </trkpt>
      <trkpt lat="42.4672" lon="2.90667">
        <ele>591.8</ele>
        <time>2021-11-14T15:32:35Z</time>
      </trkpt>
      <trkpt lat="42.46735" lon="2.9068">
        <ele>590.6</ele>
        <time>2021-11-14T15:32:37Z</time>
      </trkpt>
      <trkpt lat="42.46742" lon="2.90691">
        <ele>590</ele>
        <time>2021-11-14T15:32:38Z</time>
      </trkpt>
      <trkpt lat="42.46754" lon="2.90709">
        <ele>589</ele>
        <time>2021-11-14T15:32:40Z</time>
      </trkpt>
      <trkpt lat="42.46758" lon="2.90716">
        <ele>588.5</ele>
        <time>2021-11-14T15:32:41Z</time>
      </trkpt>
      <trkpt lat="42.46761" lon="2.90718">
        <ele>588.2</ele>
        <time>2021-11-14T15:32:42Z</time>
      </trkpt>
      <trkpt lat="42.46772" lon="2.90718">
        <ele>587.2</ele>
        <time>2021-11-14T15:32:44Z</time>
      </trkpt>
      <trkpt lat="42.46778" lon="2.90716">
        <ele>586.7</ele>
        <time>2021-11-14T15:32:45Z</time>
      </trkpt>
      <trkpt lat="42.46785" lon="2.90711">
        <ele>586</ele>
        <time>2021-11-14T15:32:46Z</time>
      </trkpt>
      <trkpt lat="42.468" lon="2.90697">
        <ele>584.6</ele>
        <time>2021-11-14T15:32:48Z</time>
      </trkpt>
      <trkpt lat="42.46814" lon="2.90685">
        <ele>583.4</ele>
        <time>2021-11-14T15:32:50Z</time>
      </trkpt>
      <trkpt lat="42.46821" lon="2.90677">
        <ele>582.7</ele>
        <time>2021-11-14T15:32:51Z</time>
      </trkpt>
      <trkpt lat="42.4683" lon="2.90653">
        <ele>581.2</ele>
        <time>2021-11-14T15:32:53Z</time>
      </trkpt>
      <trkpt lat="42.46833" lon="2.90638">
        <ele>580.3</ele>
        <time>2021-11-14T15:32:54Z</time>
      </trkpt>
      <trkpt lat="42.46837" lon="2.90622">
        <ele>579.3</ele>
        <time>2021-11-14T15:32:55Z</time>
      </trkpt>
      <trkpt lat="42.46845" lon="2.90593">
        <ele>577.5</ele>
        <time>2021-11-14T15:32:57Z</time>
      </trkpt>
      <trkpt lat="42.46853" lon="2.90564">
        <ele>575.6</ele>
        <time>2021-11-14T15:32:59Z</time>
      </trkpt>
      <trkpt lat="42.46857" lon="2.90551">
        <ele>574.7</ele>
        <time>2021-11-14T15:33:00Z</time>
      </trkpt>
      <trkpt lat="42.46866" lon="2.90524">
        <ele>572.9</ele>
        <time>2021-11-14T15:33:02Z</time>
      </trkpt>
      <trkpt lat="42.46869" lon="2.90498">
        <ele>571.2</ele>
        <time>2021-11-14T15:33:04Z</time>
      </trkpt>
      <trkpt lat="42.46868" lon="2.90484">
        <ele>570.4</ele>
        <time>2021-11-14T15:33:05Z</time>
      </trkpt>
      <trkpt lat="42.46866" lon="2.90473">
        <ele>569.7</ele>
        <time>2021-11-14T15:33:06Z</time>
      </trkpt>
      <trkpt lat="42.46867" lon="2.90462">
        <ele>569.2</ele>
        <time>2021-11-14T15:33:07Z</time>
      </trkpt>
      <trkpt lat="42.46878" lon="2.9044">
        <ele>567.9</ele>
        <time>2021-11-14T15:33:09Z</time>
      </trkpt>
      <trkpt lat="42.46886" lon="2.9043">
        <ele>567.2</ele>
        <time>2021-11-14T15:33:10Z</time>
      </trkpt>
      <trkpt lat="42.46895" lon="2.90424">
        <ele>566.6</ele>
        <time>2021-11-14T15:33:11Z</time>
      </trkpt>
      <trkpt lat="42.46912" lon="2.90414">
        <ele>565.5</ele>
        <time>2021-11-14T15:33:13Z</time>
      </trkpt>
      <trkpt lat="42.46922" lon="2.90408">
        <ele>565</ele>
        <time>2021-11-14T15:33:14Z</time>
      </trkpt>
      <trkpt lat="42.46939" lon="2.90395">
        <ele>564</ele>
        <time>2021-11-14T15:33:16Z</time>
      </trkpt>
      <trkpt lat="42.46955" lon="2.90382">
        <ele>563.1</ele>
        <time>2021-11-14T15:33:18Z</time>
      </trkpt>
      <trkpt lat="42.46969" lon="2.90367">
        <ele>562.2</ele>
        <time>2021-11-14T15:33:20Z</time>
      </trkpt>
      <trkpt lat="42.46976" lon="2.90358">
        <ele>561.9</ele>
        <time>2021-11-14T15:33:21Z</time>
      </trkpt>
      <trkpt lat="42.46988" lon="2.90341">
        <ele>561.1</ele>
        <time>2021-11-14T15:33:23Z</time>
      </trkpt>
      <trkpt lat="42.46994" lon="2.90333">
        <ele>560.8</ele>
        <time>2021-11-14T15:33:24Z</time>
      </trkpt>
      <trkpt lat="42.47005" lon="2.90317">
        <ele>560.1</ele>
        <time>2021-11-14T15:33:26Z</time>
      </trkpt>
      <trkpt lat="42.47011" lon="2.90309">
        <ele>559.8</ele>
        <time>2021-11-14T15:33:27Z</time>
      </trkpt>
      <trkpt lat="42.47023" lon="2.90292">
        <ele>559.2</ele>
        <time>2021-11-14T15:33:29Z</time>
      </trkpt>
      <trkpt lat="42.47028" lon="2.90284">
        <ele>558.9</ele>
        <time>2021-11-14T15:33:30Z</time>
      </trkpt>
      <trkpt lat="42.47038" lon="2.90267">
        <ele>558.5</ele>
        <time>2021-11-14T15:33:32Z</time>
      </trkpt>
      <trkpt lat="42.47043" lon="2.90257">
        <ele>558.3</ele>
        <time>2021-11-14T15:33:33Z</time>
      </trkpt>
      <trkpt lat="42.47048" lon="2.90248">
        <ele>558</ele>
        <time>2021-11-14T15:33:34Z</time>
      </trkpt>
      <trkpt lat="42.47053" lon="2.90239">
        <ele>557.7</ele>
        <time>2021-11-14T15:33:35Z</time>
      </trkpt>
      <trkpt lat="42.47062" lon="2.90219">
        <ele>556.9</ele>
        <time>2021-11-14T15:33:37Z</time>
      </trkpt>
      <trkpt lat="42.47067" lon="2.9021">
        <ele>556.6</ele>
        <time>2021-11-14T15:33:38Z</time>
      </trkpt>
      <trkpt lat="42.47077" lon="2.9019">
        <ele>556.1</ele>
        <time>2021-11-14T15:33:40Z</time>
      </trkpt>
      <trkpt lat="42.47082" lon="2.9018">
        <ele>555.9</ele>
        <time>2021-11-14T15:33:41Z</time>
      </trkpt>
      <trkpt lat="42.47092" lon="2.90159">
        <ele>555.5</ele>
        <time>2021-11-14T15:33:43Z</time>
      </trkpt>
      <trkpt lat="42.47098" lon="2.90151">
        <ele>555.4</ele>
        <time>2021-11-14T15:33:44Z</time>
      </trkpt>
      <trkpt lat="42.47103" lon="2.90143">
        <ele>555.2</ele>
        <time>2021-11-14T15:33:45Z</time>
      </trkpt>
      <trkpt lat="42.47108" lon="2.90126">
        <ele>554.9</ele>
        <time>2021-11-14T15:33:47Z</time>
      </trkpt>
      <trkpt lat="42.47104" lon="2.90107">
        <ele>554.2</ele>
        <time>2021-11-14T15:33:49Z</time>
      </trkpt>
      <trkpt lat="42.47093" lon="2.90095">
        <ele>553.6</ele>
        <time>2021-11-14T15:33:51Z</time>
      </trkpt>
      <trkpt lat="42.47085" lon="2.90095">
        <ele>553.2</ele>
        <time>2021-11-14T15:33:52Z</time>
      </trkpt>
      <trkpt lat="42.47071" lon="2.9011">
        <ele>552.1</ele>
        <time>2021-11-14T15:33:54Z</time>
      </trkpt>
      <trkpt lat="42.47065" lon="2.90118">
        <ele>551.6</ele>
        <time>2021-11-14T15:33:55Z</time>
      </trkpt>
      <trkpt lat="42.4706" lon="2.90126">
        <ele>551.1</ele>
        <time>2021-11-14T15:33:56Z</time>
      </trkpt>
      <trkpt lat="42.47047" lon="2.90143">
        <ele>550</ele>
        <time>2021-11-14T15:33:58Z</time>
      </trkpt>
      <trkpt lat="42.47041" lon="2.90152">
        <ele>549.4</ele>
        <time>2021-11-14T15:33:59Z</time>
      </trkpt>
      <trkpt lat="42.47035" lon="2.9016">
        <ele>549</ele>
        <time>2021-11-14T15:34:00Z</time>
      </trkpt>
      <trkpt lat="42.47029" lon="2.90169">
        <ele>548.5</ele>
        <time>2021-11-14T15:34:01Z</time>
      </trkpt>
      <trkpt lat="42.47022" lon="2.90177">
        <ele>548.1</ele>
        <time>2021-11-14T15:34:02Z</time>
      </trkpt>
      <trkpt lat="42.47008" lon="2.90196">
        <ele>547.1</ele>
        <time>2021-11-14T15:34:04Z</time>
      </trkpt>
      <trkpt lat="42.46993" lon="2.90214">
        <ele>546.4</ele>
        <time>2021-11-14T15:34:06Z</time>
      </trkpt>
      <trkpt lat="42.46986" lon="2.90223">
        <ele>546</ele>
        <time>2021-11-14T15:34:07Z</time>
      </trkpt>
      <trkpt lat="42.46973" lon="2.9024">
        <ele>545.4</ele>
        <time>2021-11-14T15:34:09Z</time>
      </trkpt>
      <trkpt lat="42.46965" lon="2.90247">
        <ele>545</ele>
        <time>2021-11-14T15:34:10Z</time>
      </trkpt>
      <trkpt lat="42.46957" lon="2.90254">
        <ele>544.6</ele>
        <time>2021-11-14T15:34:11Z</time>
      </trkpt>
      <trkpt lat="42.46947" lon="2.90259">
        <ele>544.2</ele>
        <time>2021-11-14T15:34:12Z</time>
      </trkpt>
      <trkpt lat="42.46931" lon="2.9027">
        <ele>543.3</ele>
        <time>2021-11-14T15:34:14Z</time>
      </trkpt>
      <trkpt lat="42.46921" lon="2.90274">
        <ele>542.8</ele>
        <time>2021-11-14T15:34:15Z</time>
      </trkpt>
      <trkpt lat="42.46901" lon="2.90265">
        <ele>541.7</ele>
        <time>2021-11-14T15:34:17Z</time>
      </trkpt>
      <trkpt lat="42.46892" lon="2.90258">
        <ele>541.2</ele>
        <time>2021-11-14T15:34:18Z</time>
      </trkpt>
      <trkpt lat="42.46879" lon="2.90241">
        <ele>540.3</ele>
        <time>2021-11-14T15:34:20Z</time>
      </trkpt>
      <trkpt lat="42.46867" lon="2.90221">
        <ele>539.3</ele>
        <time>2021-11-14T15:34:22Z</time>
      </trkpt>
      <trkpt lat="42.46858" lon="2.90198">
        <ele>538.3</ele>
        <time>2021-11-14T15:34:24Z</time>
      </trkpt>
      <trkpt lat="42.46852" lon="2.90176">
        <ele>537.5</ele>
        <time>2021-11-14T15:34:26Z</time>
      </trkpt>
      <trkpt lat="42.46849" lon="2.90166">
        <ele>537.2</ele>
        <time>2021-11-14T15:34:27Z</time>
      </trkpt>
      <trkpt lat="42.46843" lon="2.90147">
        <ele>536.5</ele>
        <time>2021-11-14T15:34:29Z</time>
      </trkpt>
      <trkpt lat="42.46831" lon="2.90133">
        <ele>535.7</ele>
        <time>2021-11-14T15:34:31Z</time>
      </trkpt>
      <trkpt lat="42.46824" lon="2.90128">
        <ele>535.4</ele>
        <time>2021-11-14T15:34:32Z</time>
      </trkpt>
      <trkpt lat="42.46816" lon="2.90126">
        <ele>535</ele>
        <time>2021-11-14T15:34:33Z</time>
      </trkpt>
      <trkpt lat="42.46808" lon="2.90124">
        <ele>534.6</ele>
        <time>2021-11-14T15:34:34Z</time>
      </trkpt>
      <trkpt lat="42.46799" lon="2.90122">
        <ele>534</ele>
        <time>2021-11-14T15:34:35Z</time>
      </trkpt>
      <trkpt lat="42.4679" lon="2.90119">
        <ele>533.5</ele>
        <time>2021-11-14T15:34:36Z</time>
      </trkpt>
      <trkpt lat="42.46774" lon="2.90112">
        <ele>532.6</ele>
        <time>2021-11-14T15:34:38Z</time>
      </trkpt>
      <trkpt lat="42.46756" lon="2.90104">
        <ele>531.6</ele>
        <time>2021-11-14T15:34:40Z</time>
      </trkpt>
      <trkpt lat="42.46737" lon="2.90103">
        <ele>530.4</ele>
        <time>2021-11-14T15:34:42Z</time>
      </trkpt>
      <trkpt lat="42.46727" lon="2.90103">
        <ele>529.9</ele>
        <time>2021-11-14T15:34:43Z</time>
      </trkpt>
      <trkpt lat="42.4671" lon="2.90103">
        <ele>528.8</ele>
        <time>2021-11-14T15:34:45Z</time>
      </trkpt>
      <trkpt lat="42.46701" lon="2.90103">
        <ele>528.3</ele>
        <time>2021-11-14T15:34:46Z</time>
      </trkpt>
      <trkpt lat="42.46682" lon="2.90103">
        <ele>527.2</ele>
        <time>2021-11-14T15:34:48Z</time>
      </trkpt>
      <trkpt lat="42.46673" lon="2.90103">
        <ele>526.7</ele>
        <time>2021-11-14T15:34:49Z</time>
      </trkpt>
      <trkpt lat="42.46663" lon="2.90105">
        <ele>526.2</ele>
        <time>2021-11-14T15:34:50Z</time>
      </trkpt>
      <trkpt lat="42.46649" lon="2.90116">
        <ele>525.3</ele>
        <time>2021-11-14T15:34:52Z</time>
      </trkpt>
      <trkpt lat="42.4664" lon="2.90141">
        <ele>524.3</ele>
        <time>2021-11-14T15:34:54Z</time>
      </trkpt>
      <trkpt lat="42.46637" lon="2.90166">
        <ele>523.3</ele>
        <time>2021-11-14T15:34:56Z</time>
      </trkpt>
      <trkpt lat="42.46633" lon="2.90192">
        <ele>522.3</ele>
        <time>2021-11-14T15:34:58Z</time>
      </trkpt>
      <trkpt lat="42.46632" lon="2.90206">
        <ele>521.8</ele>
        <time>2021-11-14T15:34:59Z</time>
      </trkpt>
      <trkpt lat="42.46634" lon="2.90232">
        <ele>520.9</ele>
        <time>2021-11-14T15:35:01Z</time>
      </trkpt>
      <trkpt lat="42.46638" lon="2.90257">
        <ele>520</ele>
        <time>2021-11-14T15:35:03Z</time>
      </trkpt>
      <trkpt lat="42.46645" lon="2.90281">
        <ele>519.2</ele>
        <time>2021-11-14T15:35:05Z</time>
      </trkpt>
      <trkpt lat="42.46649" lon="2.90291">
        <ele>518.8</ele>
        <time>2021-11-14T15:35:06Z</time>
      </trkpt>
      <trkpt lat="42.46656" lon="2.9031">
        <ele>518.1</ele>
        <time>2021-11-14T15:35:08Z</time>
      </trkpt>
      <trkpt lat="42.46662" lon="2.90331">
        <ele>517.4</ele>
        <time>2021-11-14T15:35:10Z</time>
      </trkpt>
      <trkpt lat="42.46657" lon="2.90345">
        <ele>516.8</ele>
        <time>2021-11-14T15:35:12Z</time>
      </trkpt>
      <trkpt lat="42.46654" lon="2.9035">
        <ele>516.5</ele>
        <time>2021-11-14T15:35:13Z</time>
      </trkpt>
      <trkpt lat="42.46643" lon="2.90349">
        <ele>515.8</ele>
        <time>2021-11-14T15:35:15Z</time>
      </trkpt>
      <trkpt lat="42.46633" lon="2.9034">
        <ele>515</ele>
        <time>2021-11-14T15:35:16Z</time>
      </trkpt>
      <trkpt lat="42.46627" lon="2.90332">
        <ele>514.4</ele>
        <time>2021-11-14T15:35:17Z</time>
      </trkpt>
      <trkpt lat="42.46611" lon="2.90319">
        <ele>513</ele>
        <time>2021-11-14T15:35:19Z</time>
      </trkpt>
      <trkpt lat="42.46593" lon="2.9031">
        <ele>511.8</ele>
        <time>2021-11-14T15:35:21Z</time>
      </trkpt>
      <trkpt lat="42.46584" lon="2.90312">
        <ele>511.2</ele>
        <time>2021-11-14T15:35:22Z</time>
      </trkpt>
      <trkpt lat="42.46564" lon="2.90313">
        <ele>510.2</ele>
        <time>2021-11-14T15:35:24Z</time>
      </trkpt>
      <trkpt lat="42.46554" lon="2.90311">
        <ele>509.8</ele>
        <time>2021-11-14T15:35:25Z</time>
      </trkpt>
      <trkpt lat="42.46544" lon="2.90294">
        <ele>509.2</ele>
        <time>2021-11-14T15:35:27Z</time>
      </trkpt>
      <trkpt lat="42.46542" lon="2.90279">
        <ele>508.9</ele>
        <time>2021-11-14T15:35:28Z</time>
      </trkpt>
      <trkpt lat="42.4654" lon="2.90267">
        <ele>508.6</ele>
        <time>2021-11-14T15:35:29Z</time>
      </trkpt>
      <trkpt lat="42.46535" lon="2.90245">
        <ele>508</ele>
        <time>2021-11-14T15:35:31Z</time>
      </trkpt>
      <trkpt lat="42.46527" lon="2.90224">
        <ele>507.6</ele>
        <time>2021-11-14T15:35:33Z</time>
      </trkpt>
      <trkpt lat="42.46524" lon="2.90203">
        <ele>507.2</ele>
        <time>2021-11-14T15:35:35Z</time>
      </trkpt>
      <trkpt lat="42.46522" lon="2.90181">
        <ele>506.7</ele>
        <time>2021-11-14T15:35:37Z</time>
      </trkpt>
      <trkpt lat="42.46522" lon="2.90169">
        <ele>506.5</ele>
        <time>2021-11-14T15:35:38Z</time>
      </trkpt>
      <trkpt lat="42.46523" lon="2.90149">
        <ele>506</ele>
        <time>2021-11-14T15:35:40Z</time>
      </trkpt>
      <trkpt lat="42.46522" lon="2.90131">
        <ele>505.6</ele>
        <time>2021-11-14T15:35:42Z</time>
      </trkpt>
      <trkpt lat="42.46519" lon="2.9011">
        <ele>505.2</ele>
        <time>2021-11-14T15:35:44Z</time>
      </trkpt>
      <trkpt lat="42.46518" lon="2.90098">
        <ele>505</ele>
        <time>2021-11-14T15:35:45Z</time>
      </trkpt>
      <trkpt lat="42.46515" lon="2.90075">
        <ele>504.6</ele>
        <time>2021-11-14T15:35:47Z</time>
      </trkpt>
      <trkpt lat="42.46513" lon="2.90063">
        <ele>504.3</ele>
        <time>2021-11-14T15:35:48Z</time>
      </trkpt>
      <trkpt lat="42.46507" lon="2.90041">
        <ele>503.7</ele>
        <time>2021-11-14T15:35:50Z</time>
      </trkpt>
      <trkpt lat="42.46505" lon="2.9003">
        <ele>503.4</ele>
        <time>2021-11-14T15:35:51Z</time>
      </trkpt>
      <trkpt lat="42.46502" lon="2.90005">
        <ele>502.8</ele>
        <time>2021-11-14T15:35:53Z</time>
      </trkpt>
      <trkpt lat="42.46499" lon="2.89994">
        <ele>502.5</ele>
        <time>2021-11-14T15:35:54Z</time>
      </trkpt>
      <trkpt lat="42.46496" lon="2.89982">
        <ele>502.2</ele>
        <time>2021-11-14T15:35:55Z</time>
      </trkpt>
      <trkpt lat="42.46487" lon="2.89959">
        <ele>501.6</ele>
        <time>2021-11-14T15:35:57Z</time>
      </trkpt>
      <trkpt lat="42.46477" lon="2.89939">
        <ele>501.1</ele>
        <time>2021-11-14T15:35:59Z</time>
      </trkpt>
      <trkpt lat="42.4647" lon="2.89931">
        <ele>500.9</ele>
        <time>2021-11-14T15:36:00Z</time>
      </trkpt>
      <trkpt lat="42.46464" lon="2.89925">
        <ele>500.7</ele>
        <time>2021-11-14T15:36:01Z</time>
      </trkpt>
      <trkpt lat="42.46456" lon="2.89921">
        <ele>500.6</ele>
        <time>2021-11-14T15:36:02Z</time>
      </trkpt>
      <trkpt lat="42.46449" lon="2.89921">
        <ele>500.4</ele>
        <time>2021-11-14T15:36:03Z</time>
      </trkpt>
      <trkpt lat="42.46435" lon="2.89921">
        <ele>500.1</ele>
        <time>2021-11-14T15:36:05Z</time>
      </trkpt>
      <trkpt lat="42.4642" lon="2.89915">
        <ele>499.9</ele>
        <time>2021-11-14T15:36:07Z</time>
      </trkpt>
      <trkpt lat="42.46413" lon="2.8991">
        <ele>499.7</ele>
        <time>2021-11-14T15:36:08Z</time>
      </trkpt>
      <trkpt lat="42.46399" lon="2.89898">
        <ele>499.7</ele>
        <time>2021-11-14T15:36:10Z</time>
      </trkpt>
      <trkpt lat="42.46393" lon="2.89891">
        <ele>499.7</ele>
        <time>2021-11-14T15:36:11Z</time>
      </trkpt>
      <trkpt lat="42.46383" lon="2.89877">
        <ele>499.7</ele>
        <time>2021-11-14T15:36:13Z</time>
      </trkpt>
      <trkpt lat="42.46378" lon="2.8987">
        <ele>499.6</ele>
        <time>2021-11-14T15:36:14Z</time>
      </trkpt>
      <trkpt lat="42.46369" lon="2.8986">
        <ele>499.6</ele>
        <time>2021-11-14T15:36:16Z</time>
      </trkpt>
      <trkpt lat="42.46359" lon="2.89853">
        <ele>499.6</ele>
        <time>2021-11-14T15:36:18Z</time>
      </trkpt>
      <trkpt lat="42.46356" lon="2.8985">
        <ele>499.6</ele>
        <time>2021-11-14T15:36:19Z</time>
      </trkpt>
      <trkpt lat="42.46347" lon="2.89838">
        <ele>499.4</ele>
        <time>2021-11-14T15:36:21Z</time>
      </trkpt>
      <trkpt lat="42.46341" lon="2.89824">
        <ele>499.2</ele>
        <time>2021-11-14T15:36:23Z</time>
      </trkpt>
      <trkpt lat="42.46339" lon="2.89816">
        <ele>499</ele>
        <time>2021-11-14T15:36:24Z</time>
      </trkpt>
      <trkpt lat="42.46338" lon="2.89799">
        <ele>498.8</ele>
        <time>2021-11-14T15:36:26Z</time>
      </trkpt>
      <trkpt lat="42.46338" lon="2.89792">
        <ele>498.7</ele>
        <time>2021-11-14T15:36:27Z</time>
      </trkpt>
      <trkpt lat="42.46341" lon="2.89777">
        <ele>498.5</ele>
        <time>2021-11-14T15:36:29Z</time>
      </trkpt>
      <trkpt lat="42.46343" lon="2.89768">
        <ele>498.3</ele>
        <time>2021-11-14T15:36:30Z</time>
      </trkpt>
      <trkpt lat="42.46346" lon="2.8976">
        <ele>498.2</ele>
        <time>2021-11-14T15:36:31Z</time>
      </trkpt>
      <trkpt lat="42.4635" lon="2.89753">
        <ele>498</ele>
        <time>2021-11-14T15:36:32Z</time>
      </trkpt>
      <trkpt lat="42.46359" lon="2.89739">
        <ele>497.6</ele>
        <time>2021-11-14T15:36:34Z</time>
      </trkpt>
      <trkpt lat="42.46368" lon="2.89725">
        <ele>497.2</ele>
        <time>2021-11-14T15:36:36Z</time>
      </trkpt>
      <trkpt lat="42.4638" lon="2.89719">
        <ele>496.8</ele>
        <time>2021-11-14T15:36:38Z</time>
      </trkpt>
      <trkpt lat="42.46388" lon="2.89715">
        <ele>496.5</ele>
        <time>2021-11-14T15:36:39Z</time>
      </trkpt>
      <trkpt lat="42.46403" lon="2.89704">
        <ele>496.1</ele>
        <time>2021-11-14T15:36:41Z</time>
      </trkpt>
      <trkpt lat="42.46409" lon="2.89698">
        <ele>495.8</ele>
        <time>2021-11-14T15:36:42Z</time>
      </trkpt>
      <trkpt lat="42.46414" lon="2.89694">
        <ele>495.7</ele>
        <time>2021-11-14T15:36:43Z</time>
      </trkpt>
      <trkpt lat="42.46429" lon="2.89684">
        <ele>495.1</ele>
        <time>2021-11-14T15:36:45Z</time>
      </trkpt>
      <trkpt lat="42.46436" lon="2.89678">
        <ele>494.8</ele>
        <time>2021-11-14T15:36:46Z</time>
      </trkpt>
      <trkpt lat="42.46451" lon="2.89665">
        <ele>494.3</ele>
        <time>2021-11-14T15:36:48Z</time>
      </trkpt>
      <trkpt lat="42.46463" lon="2.8965">
        <ele>493.8</ele>
        <time>2021-11-14T15:36:50Z</time>
      </trkpt>
      <trkpt lat="42.46468" lon="2.89642">
        <ele>493.6</ele>
        <time>2021-11-14T15:36:51Z</time>
      </trkpt>
      <trkpt lat="42.46478" lon="2.89625">
        <ele>493</ele>
        <time>2021-11-14T15:36:53Z</time>
      </trkpt>
      <trkpt lat="42.46488" lon="2.89609">
        <ele>492.5</ele>
        <time>2021-11-14T15:36:55Z</time>
      </trkpt>
      <trkpt lat="42.46499" lon="2.89593">
        <ele>491.9</ele>
        <time>2021-11-14T15:36:57Z</time>
      </trkpt>
      <trkpt lat="42.46508" lon="2.89578">
        <ele>491.3</ele>
        <time>2021-11-14T15:36:59Z</time>
      </trkpt>
      <trkpt lat="42.46516" lon="2.89561">
        <ele>490.7</ele>
        <time>2021-11-14T15:37:01Z</time>
      </trkpt>
      <trkpt lat="42.46524" lon="2.89546">
        <ele>490.2</ele>
        <time>2021-11-14T15:37:03Z</time>
      </trkpt>
      <trkpt lat="42.46531" lon="2.89531">
        <ele>489.7</ele>
        <time>2021-11-14T15:37:05Z</time>
      </trkpt>
      <trkpt lat="42.46533" lon="2.89513">
        <ele>489.1</ele>
        <time>2021-11-14T15:37:07Z</time>
      </trkpt>
      <trkpt lat="42.46531" lon="2.89504">
        <ele>488.8</ele>
        <time>2021-11-14T15:37:08Z</time>
      </trkpt>
      <trkpt lat="42.46522" lon="2.89492">
        <ele>488.3</ele>
        <time>2021-11-14T15:37:10Z</time>
      </trkpt>
      <trkpt lat="42.46517" lon="2.89487">
        <ele>488.1</ele>
        <time>2021-11-14T15:37:11Z</time>
      </trkpt>
      <trkpt lat="42.46505" lon="2.89478">
        <ele>487.7</ele>
        <time>2021-11-14T15:37:13Z</time>
      </trkpt>
      <trkpt lat="42.46499" lon="2.89472">
        <ele>487.5</ele>
        <time>2021-11-14T15:37:14Z</time>
      </trkpt>
      <trkpt lat="42.46493" lon="2.89466">
        <ele>487.2</ele>
        <time>2021-11-14T15:37:15Z</time>
      </trkpt>
      <trkpt lat="42.46482" lon="2.89451">
        <ele>486.8</ele>
        <time>2021-11-14T15:37:17Z</time>
      </trkpt>
      <trkpt lat="42.46477" lon="2.89441">
        <ele>486.5</ele>
        <time>2021-11-14T15:37:18Z</time>
      </trkpt>
      <trkpt lat="42.46474" lon="2.89421">
        <ele>486</ele>
        <time>2021-11-14T15:37:20Z</time>
      </trkpt>
      <trkpt lat="42.46484" lon="2.89402">
        <ele>485.5</ele>
        <time>2021-11-14T15:37:22Z</time>
      </trkpt>
      <trkpt lat="42.46492" lon="2.89394">
        <ele>485.2</ele>
        <time>2021-11-14T15:37:23Z</time>
      </trkpt>
      <trkpt lat="42.46512" lon="2.89382">
        <ele>484.5</ele>
        <time>2021-11-14T15:37:25Z</time>
      </trkpt>
      <trkpt lat="42.46527" lon="2.89369">
        <ele>483.7</ele>
        <time>2021-11-14T15:37:27Z</time>
      </trkpt>
      <trkpt lat="42.46531" lon="2.8935">
        <ele>482.9</ele>
        <time>2021-11-14T15:37:29Z</time>
      </trkpt>
      <trkpt lat="42.46527" lon="2.8934">
        <ele>482.3</ele>
        <time>2021-11-14T15:37:30Z</time>
      </trkpt>
      <trkpt lat="42.46522" lon="2.89331">
        <ele>481.8</ele>
        <time>2021-11-14T15:37:31Z</time>
      </trkpt>
      <trkpt lat="42.46518" lon="2.89322">
        <ele>481.3</ele>
        <time>2021-11-14T15:37:32Z</time>
      </trkpt>
      <trkpt lat="42.46511" lon="2.89304">
        <ele>480.2</ele>
        <time>2021-11-14T15:37:34Z</time>
      </trkpt>
      <trkpt lat="42.46507" lon="2.89296">
        <ele>479.7</ele>
        <time>2021-11-14T15:37:35Z</time>
      </trkpt>
      <trkpt lat="42.46498" lon="2.89284">
        <ele>478.8</ele>
        <time>2021-11-14T15:37:37Z</time>
      </trkpt>
      <trkpt lat="42.46485" lon="2.89271">
        <ele>477.5</ele>
        <time>2021-11-14T15:37:39Z</time>
      </trkpt>
      <trkpt lat="42.46479" lon="2.8926">
        <ele>476.8</ele>
        <time>2021-11-14T15:37:40Z</time>
      </trkpt>
      <trkpt lat="42.46471" lon="2.89238">
        <ele>475.6</ele>
        <time>2021-11-14T15:37:42Z</time>
      </trkpt>
      <trkpt lat="42.46466" lon="2.89228">
        <ele>475</ele>
        <time>2021-11-14T15:37:43Z</time>
      </trkpt>
      <trkpt lat="42.46452" lon="2.89206">
        <ele>474</ele>
        <time>2021-11-14T15:37:45Z</time>
      </trkpt>
      <trkpt lat="42.46446" lon="2.89196">
        <ele>473.7</ele>
        <time>2021-11-14T15:37:46Z</time>
      </trkpt>
      <trkpt lat="42.46442" lon="2.89186">
        <ele>473.3</ele>
        <time>2021-11-14T15:37:47Z</time>
      </trkpt>
      <trkpt lat="42.4644" lon="2.89174">
        <ele>473</ele>
        <time>2021-11-14T15:37:48Z</time>
      </trkpt>
      <trkpt lat="42.46441" lon="2.89152">
        <ele>472.3</ele>
        <time>2021-11-14T15:37:50Z</time>
      </trkpt>
      <trkpt lat="42.46447" lon="2.89146">
        <ele>471.9</ele>
        <time>2021-11-14T15:37:51Z</time>
      </trkpt>
      <trkpt lat="42.46456" lon="2.8914">
        <ele>471.3</ele>
        <time>2021-11-14T15:37:52Z</time>
      </trkpt>
      <trkpt lat="42.46473" lon="2.89128">
        <ele>470.3</ele>
        <time>2021-11-14T15:37:54Z</time>
      </trkpt>
      <trkpt lat="42.46485" lon="2.89115">
        <ele>469.4</ele>
        <time>2021-11-14T15:37:56Z</time>
      </trkpt>
      <trkpt lat="42.46491" lon="2.89108">
        <ele>469.1</ele>
        <time>2021-11-14T15:37:57Z</time>
      </trkpt>
      <trkpt lat="42.46498" lon="2.89092">
        <ele>468.4</ele>
        <time>2021-11-14T15:37:59Z</time>
      </trkpt>
      <trkpt lat="42.46499" lon="2.89082">
        <ele>468.1</ele>
        <time>2021-11-14T15:38:00Z</time>
      </trkpt>
      <trkpt lat="42.46497" lon="2.89062">
        <ele>467.7</ele>
        <time>2021-11-14T15:38:02Z</time>
      </trkpt>
      <trkpt lat="42.4649" lon="2.89044">
        <ele>467.3</ele>
        <time>2021-11-14T15:38:04Z</time>
      </trkpt>
      <trkpt lat="42.46489" lon="2.89022">
        <ele>466.9</ele>
        <time>2021-11-14T15:38:06Z</time>
      </trkpt>
      <trkpt lat="42.46492" lon="2.89">
        <ele>466.4</ele>
        <time>2021-11-14T15:38:08Z</time>
      </trkpt>
      <trkpt lat="42.46494" lon="2.88993">
        <ele>466.3</ele>
        <time>2021-11-14T15:38:09Z</time>
      </trkpt>
      <trkpt lat="42.46511" lon="2.88994">
        <ele>465.6</ele>
        <time>2021-11-14T15:38:11Z</time>
      </trkpt>
      <trkpt lat="42.46523" lon="2.88994">
        <ele>465</ele>
        <time>2021-11-14T15:38:12Z</time>
      </trkpt>
      <trkpt lat="42.46544" lon="2.88999">
        <ele>464</ele>
        <time>2021-11-14T15:38:14Z</time>
      </trkpt>
      <trkpt lat="42.46561" lon="2.89006">
        <ele>463.1</ele>
        <time>2021-11-14T15:38:16Z</time>
      </trkpt>
      <trkpt lat="42.4657" lon="2.89005">
        <ele>462.6</ele>
        <time>2021-11-14T15:38:17Z</time>
      </trkpt>
      <trkpt lat="42.46578" lon="2.89">
        <ele>462</ele>
        <time>2021-11-14T15:38:18Z</time>
      </trkpt>
      <trkpt lat="42.4659" lon="2.88985">
        <ele>461.1</ele>
        <time>2021-11-14T15:38:20Z</time>
      </trkpt>
      <trkpt lat="42.46593" lon="2.88973">
        <ele>460.6</ele>
        <time>2021-11-14T15:38:21Z</time>
      </trkpt>
      <trkpt lat="42.46595" lon="2.88961">
        <ele>460.2</ele>
        <time>2021-11-14T15:38:22Z</time>
      </trkpt>
      <trkpt lat="42.46597" lon="2.8895">
        <ele>459.9</ele>
        <time>2021-11-14T15:38:23Z</time>
      </trkpt>
      <trkpt lat="42.466" lon="2.88939">
        <ele>459.6</ele>
        <time>2021-11-14T15:38:24Z</time>
      </trkpt>
      <trkpt lat="42.46608" lon="2.88926">
        <ele>459.2</ele>
        <time>2021-11-14T15:38:26Z</time>
      </trkpt>
      <trkpt lat="42.46631" lon="2.88929">
        <ele>458.2</ele>
        <time>2021-11-14T15:38:28Z</time>
      </trkpt>
      <trkpt lat="42.4664" lon="2.88927">
        <ele>457.7</ele>
        <time>2021-11-14T15:38:29Z</time>
      </trkpt>
      <trkpt lat="42.46648" lon="2.88923">
        <ele>457.2</ele>
        <time>2021-11-14T15:38:30Z</time>
      </trkpt>
      <trkpt lat="42.46662" lon="2.8891">
        <ele>456.3</ele>
        <time>2021-11-14T15:38:32Z</time>
      </trkpt>
      <trkpt lat="42.46675" lon="2.88894">
        <ele>455.3</ele>
        <time>2021-11-14T15:38:34Z</time>
      </trkpt>
      <trkpt lat="42.4669" lon="2.88884">
        <ele>454.4</ele>
        <time>2021-11-14T15:38:36Z</time>
      </trkpt>
      <trkpt lat="42.46708" lon="2.88877">
        <ele>453.3</ele>
        <time>2021-11-14T15:38:38Z</time>
      </trkpt>
      <trkpt lat="42.46723" lon="2.88865">
        <ele>452.1</ele>
        <time>2021-11-14T15:38:40Z</time>
      </trkpt>
      <trkpt lat="42.46738" lon="2.88849">
        <ele>450.9</ele>
        <time>2021-11-14T15:38:42Z</time>
      </trkpt>
      <trkpt lat="42.46745" lon="2.88841">
        <ele>450.4</ele>
        <time>2021-11-14T15:38:43Z</time>
      </trkpt>
      <trkpt lat="42.46754" lon="2.88836">
        <ele>449.8</ele>
        <time>2021-11-14T15:38:44Z</time>
      </trkpt>
      <trkpt lat="42.46763" lon="2.88833">
        <ele>449.2</ele>
        <time>2021-11-14T15:38:45Z</time>
      </trkpt>
      <trkpt lat="42.46779" lon="2.88824">
        <ele>448.1</ele>
        <time>2021-11-14T15:38:47Z</time>
      </trkpt>
      <trkpt lat="42.46793" lon="2.8881">
        <ele>447</ele>
        <time>2021-11-14T15:38:49Z</time>
      </trkpt>
      <trkpt lat="42.46798" lon="2.888">
        <ele>446.5</ele>
        <time>2021-11-14T15:38:50Z</time>
      </trkpt>
      <trkpt lat="42.46804" lon="2.88779">
        <ele>445.5</ele>
        <time>2021-11-14T15:38:52Z</time>
      </trkpt>
      <trkpt lat="42.46807" lon="2.88769">
        <ele>445</ele>
        <time>2021-11-14T15:38:53Z</time>
      </trkpt>
      <trkpt lat="42.46813" lon="2.88746">
        <ele>443.9</ele>
        <time>2021-11-14T15:38:55Z</time>
      </trkpt>
      <trkpt lat="42.4682" lon="2.88724">
        <ele>442.9</ele>
        <time>2021-11-14T15:38:57Z</time>
      </trkpt>
      <trkpt lat="42.46823" lon="2.88714">
        <ele>442.4</ele>
        <time>2021-11-14T15:38:58Z</time>
      </trkpt>
      <trkpt lat="42.46824" lon="2.88706">
        <ele>442.1</ele>
        <time>2021-11-14T15:38:59Z</time>
      </trkpt>
      <trkpt lat="42.46822" lon="2.88691">
        <ele>441.4</ele>
        <time>2021-11-14T15:39:01Z</time>
      </trkpt>
      <trkpt lat="42.46812" lon="2.88683">
        <ele>440.6</ele>
        <time>2021-11-14T15:39:03Z</time>
      </trkpt>
      <trkpt lat="42.46804" lon="2.88681">
        <ele>440.1</ele>
        <time>2021-11-14T15:39:04Z</time>
      </trkpt>
      <trkpt lat="42.46791" lon="2.88681">
        <ele>439.3</ele>
        <time>2021-11-14T15:39:06Z</time>
      </trkpt>
      <trkpt lat="42.46777" lon="2.88678">
        <ele>438.5</ele>
        <time>2021-11-14T15:39:08Z</time>
      </trkpt>
      <trkpt lat="42.4676" lon="2.88672">
        <ele>437.4</ele>
        <time>2021-11-14T15:39:10Z</time>
      </trkpt>
      <trkpt lat="42.4675" lon="2.8867">
        <ele>436.8</ele>
        <time>2021-11-14T15:39:11Z</time>
      </trkpt>
      <trkpt lat="42.4673" lon="2.88669">
        <ele>435.6</ele>
        <time>2021-11-14T15:39:13Z</time>
      </trkpt>
      <trkpt lat="42.46714" lon="2.88662">
        <ele>434.7</ele>
        <time>2021-11-14T15:39:15Z</time>
      </trkpt>
      <trkpt lat="42.46706" lon="2.88652">
        <ele>434</ele>
        <time>2021-11-14T15:39:16Z</time>
      </trkpt>
      <trkpt lat="42.46693" lon="2.88633">
        <ele>433</ele>
        <time>2021-11-14T15:39:18Z</time>
      </trkpt>
      <trkpt lat="42.46689" lon="2.88619">
        <ele>432.4</ele>
        <time>2021-11-14T15:39:19Z</time>
      </trkpt>
      <trkpt lat="42.46687" lon="2.88606">
        <ele>431.9</ele>
        <time>2021-11-14T15:39:20Z</time>
      </trkpt>
      <trkpt lat="42.46686" lon="2.88595">
        <ele>431.4</ele>
        <time>2021-11-14T15:39:21Z</time>
      </trkpt>
      <trkpt lat="42.46687" lon="2.88576">
        <ele>430.6</ele>
        <time>2021-11-14T15:39:23Z</time>
      </trkpt>
      <trkpt lat="42.46693" lon="2.88568">
        <ele>430.2</ele>
        <time>2021-11-14T15:39:24Z</time>
      </trkpt>
      <trkpt lat="42.46701" lon="2.88561">
        <ele>429.6</ele>
        <time>2021-11-14T15:39:25Z</time>
      </trkpt>
      <trkpt lat="42.46722" lon="2.88544">
        <ele>428.1</ele>
        <time>2021-11-14T15:39:27Z</time>
      </trkpt>
      <trkpt lat="42.46741" lon="2.88534">
        <ele>426.8</ele>
        <time>2021-11-14T15:39:29Z</time>
      </trkpt>
      <trkpt lat="42.46751" lon="2.88529">
        <ele>426.1</ele>
        <time>2021-11-14T15:39:30Z</time>
      </trkpt>
      <trkpt lat="42.46772" lon="2.88517">
        <ele>424.7</ele>
        <time>2021-11-14T15:39:32Z</time>
      </trkpt>
      <trkpt lat="42.46779" lon="2.88509">
        <ele>424.1</ele>
        <time>2021-11-14T15:39:33Z</time>
      </trkpt>
      <trkpt lat="42.46788" lon="2.88483">
        <ele>423.1</ele>
        <time>2021-11-14T15:39:35Z</time>
      </trkpt>
      <trkpt lat="42.46789" lon="2.88468">
        <ele>422.3</ele>
        <time>2021-11-14T15:39:36Z</time>
      </trkpt>
      <trkpt lat="42.46788" lon="2.88438">
        <ele>420.9</ele>
        <time>2021-11-14T15:39:38Z</time>
      </trkpt>
      <trkpt lat="42.46786" lon="2.88422">
        <ele>420.1</ele>
        <time>2021-11-14T15:39:39Z</time>
      </trkpt>
      <trkpt lat="42.4678" lon="2.88393">
        <ele>418.5</ele>
        <time>2021-11-14T15:39:41Z</time>
      </trkpt>
      <trkpt lat="42.46775" lon="2.88368">
        <ele>417.3</ele>
        <time>2021-11-14T15:39:43Z</time>
      </trkpt>
      <trkpt lat="42.46769" lon="2.88357">
        <ele>416.7</ele>
        <time>2021-11-14T15:39:44Z</time>
      </trkpt>
      <trkpt lat="42.46761" lon="2.88347">
        <ele>416.1</ele>
        <time>2021-11-14T15:39:45Z</time>
      </trkpt>
      <trkpt lat="42.46753" lon="2.88326">
        <ele>415</ele>
        <time>2021-11-14T15:39:47Z</time>
      </trkpt>
      <trkpt lat="42.46751" lon="2.88314">
        <ele>414.5</ele>
        <time>2021-11-14T15:39:48Z</time>
      </trkpt>
      <trkpt lat="42.46751" lon="2.88301">
        <ele>413.8</ele>
        <time>2021-11-14T15:39:49Z</time>
      </trkpt>
      <trkpt lat="42.46762" lon="2.88277">
        <ele>412.5</ele>
        <time>2021-11-14T15:39:51Z</time>
      </trkpt>
      <trkpt lat="42.46773" lon="2.88254">
        <ele>411.2</ele>
        <time>2021-11-14T15:39:53Z</time>
      </trkpt>
      <trkpt lat="42.46777" lon="2.88228">
        <ele>409.9</ele>
        <time>2021-11-14T15:39:55Z</time>
      </trkpt>
      <trkpt lat="42.46776" lon="2.88203">
        <ele>408.8</ele>
        <time>2021-11-14T15:39:57Z</time>
      </trkpt>
      <trkpt lat="42.46772" lon="2.88182">
        <ele>407.8</ele>
        <time>2021-11-14T15:39:59Z</time>
      </trkpt>
      <trkpt lat="42.46768" lon="2.88172">
        <ele>407.2</ele>
        <time>2021-11-14T15:40:00Z</time>
      </trkpt>
      <trkpt lat="42.46754" lon="2.88163">
        <ele>406.2</ele>
        <time>2021-11-14T15:40:02Z</time>
      </trkpt>
      <trkpt lat="42.46736" lon="2.88174">
        <ele>404.9</ele>
        <time>2021-11-14T15:40:04Z</time>
      </trkpt>
      <trkpt lat="42.46728" lon="2.88181">
        <ele>404.3</ele>
        <time>2021-11-14T15:40:05Z</time>
      </trkpt>
      <trkpt lat="42.46715" lon="2.88202">
        <ele>403</ele>
        <time>2021-11-14T15:40:07Z</time>
      </trkpt>
      <trkpt lat="42.46707" lon="2.88206">
        <ele>402.4</ele>
        <time>2021-11-14T15:40:08Z</time>
      </trkpt>
      <trkpt lat="42.46687" lon="2.88207">
        <ele>401.2</ele>
        <time>2021-11-14T15:40:10Z</time>
      </trkpt>
      <trkpt lat="42.46677" lon="2.88207">
        <ele>400.6</ele>
        <time>2021-11-14T15:40:11Z</time>
      </trkpt>
      <trkpt lat="42.46657" lon="2.88211">
        <ele>399.3</ele>
        <time>2021-11-14T15:40:13Z</time>
      </trkpt>
      <trkpt lat="42.46638" lon="2.88214">
        <ele>398.1</ele>
        <time>2021-11-14T15:40:15Z</time>
      </trkpt>
      <trkpt lat="42.46619" lon="2.88221">
        <ele>396.9</ele>
        <time>2021-11-14T15:40:17Z</time>
      </trkpt>
      <trkpt lat="42.46601" lon="2.8823">
        <ele>396</ele>
        <time>2021-11-14T15:40:19Z</time>
      </trkpt>
      <trkpt lat="42.46582" lon="2.8824">
        <ele>395.2</ele>
        <time>2021-11-14T15:40:21Z</time>
      </trkpt>
      <trkpt lat="42.46566" lon="2.88242">
        <ele>394.5</ele>
        <time>2021-11-14T15:40:23Z</time>
      </trkpt>
      <trkpt lat="42.46562" lon="2.88237">
        <ele>394.2</ele>
        <time>2021-11-14T15:40:24Z</time>
      </trkpt>
      <trkpt lat="42.46559" lon="2.88229">
        <ele>393.9</ele>
        <time>2021-11-14T15:40:25Z</time>
      </trkpt>
      <trkpt lat="42.46559" lon="2.88211">
        <ele>393.1</ele>
        <time>2021-11-14T15:40:27Z</time>
      </trkpt>
      <trkpt lat="42.46567" lon="2.88194">
        <ele>392.2</ele>
        <time>2021-11-14T15:40:29Z</time>
      </trkpt>
      <trkpt lat="42.46577" lon="2.88179">
        <ele>391.2</ele>
        <time>2021-11-14T15:40:31Z</time>
      </trkpt>
      <trkpt lat="42.46583" lon="2.88171">
        <ele>390.6</ele>
        <time>2021-11-14T15:40:32Z</time>
      </trkpt>
      <trkpt lat="42.46594" lon="2.88154">
        <ele>389.5</ele>
        <time>2021-11-14T15:40:34Z</time>
      </trkpt>
      <trkpt lat="42.46607" lon="2.88135">
        <ele>388.2</ele>
        <time>2021-11-14T15:40:36Z</time>
      </trkpt>
      <trkpt lat="42.46614" lon="2.88127">
        <ele>387.6</ele>
        <time>2021-11-14T15:40:37Z</time>
      </trkpt>
      <trkpt lat="42.46627" lon="2.88109">
        <ele>386.5</ele>
        <time>2021-11-14T15:40:39Z</time>
      </trkpt>
      <trkpt lat="42.46633" lon="2.88098">
        <ele>385.8</ele>
        <time>2021-11-14T15:40:40Z</time>
      </trkpt>
      <trkpt lat="42.46644" lon="2.88078">
        <ele>384.7</ele>
        <time>2021-11-14T15:40:42Z</time>
      </trkpt>
      <trkpt lat="42.46655" lon="2.88057">
        <ele>383.6</ele>
        <time>2021-11-14T15:40:44Z</time>
      </trkpt>
      <trkpt lat="42.46661" lon="2.88047">
        <ele>383.1</ele>
        <time>2021-11-14T15:40:45Z</time>
      </trkpt>
      <trkpt lat="42.46666" lon="2.88036">
        <ele>382.7</ele>
        <time>2021-11-14T15:40:46Z</time>
      </trkpt>
      <trkpt lat="42.46671" lon="2.8801">
        <ele>381.9</ele>
        <time>2021-11-14T15:40:48Z</time>
      </trkpt>
      <trkpt lat="42.46668" lon="2.87998">
        <ele>381.5</ele>
        <time>2021-11-14T15:40:49Z</time>
      </trkpt>
      <trkpt lat="42.46666" lon="2.87977">
        <ele>380.9</ele>
        <time>2021-11-14T15:40:51Z</time>
      </trkpt>
      <trkpt lat="42.46668" lon="2.87967">
        <ele>380.5</ele>
        <time>2021-11-14T15:40:52Z</time>
      </trkpt>
      <trkpt lat="42.46679" lon="2.87955">
        <ele>379.9</ele>
        <time>2021-11-14T15:40:54Z</time>
      </trkpt>
      <trkpt lat="42.46698" lon="2.87949">
        <ele>378.7</ele>
        <time>2021-11-14T15:40:56Z</time>
      </trkpt>
      <trkpt lat="42.46715" lon="2.8794">
        <ele>377.6</ele>
        <time>2021-11-14T15:40:58Z</time>
      </trkpt>
      <trkpt lat="42.46727" lon="2.87924">
        <ele>376.4</ele>
        <time>2021-11-14T15:41:00Z</time>
      </trkpt>
      <trkpt lat="42.46733" lon="2.87915">
        <ele>375.8</ele>
        <time>2021-11-14T15:41:01Z</time>
      </trkpt>
      <trkpt lat="42.46744" lon="2.87892">
        <ele>374.4</ele>
        <time>2021-11-14T15:41:03Z</time>
      </trkpt>
      <trkpt lat="42.46748" lon="2.87881">
        <ele>373.8</ele>
        <time>2021-11-14T15:41:04Z</time>
      </trkpt>
      <trkpt lat="42.46757" lon="2.87858">
        <ele>372.6</ele>
        <time>2021-11-14T15:41:06Z</time>
      </trkpt>
      <trkpt lat="42.46761" lon="2.87847">
        <ele>372</ele>
        <time>2021-11-14T15:41:07Z</time>
      </trkpt>
      <trkpt lat="42.46764" lon="2.87836">
        <ele>371.4</ele>
        <time>2021-11-14T15:41:08Z</time>
      </trkpt>
      <trkpt lat="42.4677" lon="2.87811">
        <ele>370.2</ele>
        <time>2021-11-14T15:41:10Z</time>
      </trkpt>
      <trkpt lat="42.46778" lon="2.87789">
        <ele>368.9</ele>
        <time>2021-11-14T15:41:12Z</time>
      </trkpt>
      <trkpt lat="42.46785" lon="2.8778">
        <ele>368.3</ele>
        <time>2021-11-14T15:41:13Z</time>
      </trkpt>
      <trkpt lat="42.46801" lon="2.87759">
        <ele>366.7</ele>
        <time>2021-11-14T15:41:15Z</time>
      </trkpt>
      <trkpt lat="42.46814" lon="2.87733">
        <ele>365.1</ele>
        <time>2021-11-14T15:41:17Z</time>
      </trkpt>
      <trkpt lat="42.46824" lon="2.87706">
        <ele>363.5</ele>
        <time>2021-11-14T15:41:19Z</time>
      </trkpt>
      <trkpt lat="42.46829" lon="2.87691">
        <ele>362.7</ele>
        <time>2021-11-14T15:41:20Z</time>
      </trkpt>
      <trkpt lat="42.46837" lon="2.87661">
        <ele>361.1</ele>
        <time>2021-11-14T15:41:22Z</time>
      </trkpt>
      <trkpt lat="42.4684" lon="2.87646">
        <ele>360.4</ele>
        <time>2021-11-14T15:41:23Z</time>
      </trkpt>
      <trkpt lat="42.46842" lon="2.87631">
        <ele>359.7</ele>
        <time>2021-11-14T15:41:24Z</time>
      </trkpt>
      <trkpt lat="42.46846" lon="2.87604">
        <ele>358.5</ele>
        <time>2021-11-14T15:41:26Z</time>
      </trkpt>
      <trkpt lat="42.46847" lon="2.87593">
        <ele>358</ele>
        <time>2021-11-14T15:41:27Z</time>
      </trkpt>
      <trkpt lat="42.46843" lon="2.87573">
        <ele>357.1</ele>
        <time>2021-11-14T15:41:29Z</time>
      </trkpt>
      <trkpt lat="42.4684" lon="2.87563">
        <ele>356.8</ele>
        <time>2021-11-14T15:41:30Z</time>
      </trkpt>
      <trkpt lat="42.46832" lon="2.87545">
        <ele>356.1</ele>
        <time>2021-11-14T15:41:32Z</time>
      </trkpt>
      <trkpt lat="42.46826" lon="2.87536">
        <ele>355.7</ele>
        <time>2021-11-14T15:41:33Z</time>
      </trkpt>
      <trkpt lat="42.4682" lon="2.87515">
        <ele>355</ele>
        <time>2021-11-14T15:41:35Z</time>
      </trkpt>
      <trkpt lat="42.46817" lon="2.87494">
        <ele>354.3</ele>
        <time>2021-11-14T15:41:37Z</time>
      </trkpt>
      <trkpt lat="42.46813" lon="2.87483">
        <ele>354</ele>
        <time>2021-11-14T15:41:38Z</time>
      </trkpt>
      <trkpt lat="42.46809" lon="2.87473">
        <ele>353.7</ele>
        <time>2021-11-14T15:41:39Z</time>
      </trkpt>
      <trkpt lat="42.46802" lon="2.87451">
        <ele>352.9</ele>
        <time>2021-11-14T15:41:41Z</time>
      </trkpt>
      <trkpt lat="42.46799" lon="2.87439">
        <ele>352.3</ele>
        <time>2021-11-14T15:41:42Z</time>
      </trkpt>
      <trkpt lat="42.46801" lon="2.87417">
        <ele>351.3</ele>
        <time>2021-11-14T15:41:44Z</time>
      </trkpt>
      <trkpt lat="42.46804" lon="2.87404">
        <ele>350.7</ele>
        <time>2021-11-14T15:41:45Z</time>
      </trkpt>
      <trkpt lat="42.46808" lon="2.87377">
        <ele>349.5</ele>
        <time>2021-11-14T15:41:47Z</time>
      </trkpt>
      <trkpt lat="42.46812" lon="2.8735">
        <ele>348.2</ele>
        <time>2021-11-14T15:41:49Z</time>
      </trkpt>
      <trkpt lat="42.46815" lon="2.87323">
        <ele>347</ele>
        <time>2021-11-14T15:41:51Z</time>
      </trkpt>
      <trkpt lat="42.46818" lon="2.8731">
        <ele>346.4</ele>
        <time>2021-11-14T15:41:52Z</time>
      </trkpt>
      <trkpt lat="42.46821" lon="2.87299">
        <ele>345.9</ele>
        <time>2021-11-14T15:41:53Z</time>
      </trkpt>
      <trkpt lat="42.46829" lon="2.87276">
        <ele>344.6</ele>
        <time>2021-11-14T15:41:55Z</time>
      </trkpt>
      <trkpt lat="42.46842" lon="2.87254">
        <ele>343.2</ele>
        <time>2021-11-14T15:41:57Z</time>
      </trkpt>
      <trkpt lat="42.46851" lon="2.87245">
        <ele>342.6</ele>
        <time>2021-11-14T15:41:58Z</time>
      </trkpt>
      <trkpt lat="42.4686" lon="2.87236">
        <ele>341.8</ele>
        <time>2021-11-14T15:41:59Z</time>
      </trkpt>
      <trkpt lat="42.4687" lon="2.87221">
        <ele>340.7</ele>
        <time>2021-11-14T15:42:01Z</time>
      </trkpt>
      <trkpt lat="42.46871" lon="2.8721">
        <ele>340.2</ele>
        <time>2021-11-14T15:42:02Z</time>
      </trkpt>
      <trkpt lat="42.46864" lon="2.8719">
        <ele>339.2</ele>
        <time>2021-11-14T15:42:04Z</time>
      </trkpt>
      <trkpt lat="42.46862" lon="2.8718">
        <ele>338.6</ele>
        <time>2021-11-14T15:42:05Z</time>
      </trkpt>
      <trkpt lat="42.46859" lon="2.87158">
        <ele>337.5</ele>
        <time>2021-11-14T15:42:07Z</time>
      </trkpt>
      <trkpt lat="42.4686" lon="2.87138">
        <ele>336.4</ele>
        <time>2021-11-14T15:42:09Z</time>
      </trkpt>
      <trkpt lat="42.46861" lon="2.87127">
        <ele>335.9</ele>
        <time>2021-11-14T15:42:10Z</time>
      </trkpt>
      <trkpt lat="42.46863" lon="2.87117">
        <ele>335.3</ele>
        <time>2021-11-14T15:42:11Z</time>
      </trkpt>
      <trkpt lat="42.46871" lon="2.87096">
        <ele>334.2</ele>
        <time>2021-11-14T15:42:13Z</time>
      </trkpt>
      <trkpt lat="42.46877" lon="2.87086">
        <ele>333.6</ele>
        <time>2021-11-14T15:42:14Z</time>
      </trkpt>
      <trkpt lat="42.46882" lon="2.87075">
        <ele>332.9</ele>
        <time>2021-11-14T15:42:15Z</time>
      </trkpt>
      <trkpt lat="42.46892" lon="2.87051">
        <ele>331.6</ele>
        <time>2021-11-14T15:42:17Z</time>
      </trkpt>
      <trkpt lat="42.46896" lon="2.87038">
        <ele>331</ele>
        <time>2021-11-14T15:42:18Z</time>
      </trkpt>
      <trkpt lat="42.469" lon="2.87026">
        <ele>330.3</ele>
        <time>2021-11-14T15:42:19Z</time>
      </trkpt>
      <trkpt lat="42.4691" lon="2.87001">
        <ele>328.9</ele>
        <time>2021-11-14T15:42:21Z</time>
      </trkpt>
      <trkpt lat="42.46915" lon="2.86989">
        <ele>328.2</ele>
        <time>2021-11-14T15:42:22Z</time>
      </trkpt>
      <trkpt lat="42.46929" lon="2.86968">
        <ele>326.8</ele>
        <time>2021-11-14T15:42:24Z</time>
      </trkpt>
      <trkpt lat="42.46942" lon="2.86947">
        <ele>325.4</ele>
        <time>2021-11-14T15:42:26Z</time>
      </trkpt>
      <trkpt lat="42.46949" lon="2.86936">
        <ele>324.6</ele>
        <time>2021-11-14T15:42:27Z</time>
      </trkpt>
      <trkpt lat="42.46961" lon="2.86916">
        <ele>323.4</ele>
        <time>2021-11-14T15:42:29Z</time>
      </trkpt>
      <trkpt lat="42.46965" lon="2.86907">
        <ele>322.9</ele>
        <time>2021-11-14T15:42:30Z</time>
      </trkpt>
      <trkpt lat="42.46972" lon="2.86886">
        <ele>321.8</ele>
        <time>2021-11-14T15:42:32Z</time>
      </trkpt>
      <trkpt lat="42.46974" lon="2.8686">
        <ele>320.5</ele>
        <time>2021-11-14T15:42:34Z</time>
      </trkpt>
      <trkpt lat="42.46974" lon="2.86836">
        <ele>319.4</ele>
        <time>2021-11-14T15:42:36Z</time>
      </trkpt>
      <trkpt lat="42.46974" lon="2.8681">
        <ele>318.1</ele>
        <time>2021-11-14T15:42:38Z</time>
      </trkpt>
      <trkpt lat="42.46976" lon="2.86797">
        <ele>317.4</ele>
        <time>2021-11-14T15:42:39Z</time>
      </trkpt>
      <trkpt lat="42.46978" lon="2.86783">
        <ele>316.7</ele>
        <time>2021-11-14T15:42:40Z</time>
      </trkpt>
      <trkpt lat="42.46985" lon="2.86757">
        <ele>315.2</ele>
        <time>2021-11-14T15:42:42Z</time>
      </trkpt>
      <trkpt lat="42.46997" lon="2.86741">
        <ele>314</ele>
        <time>2021-11-14T15:42:44Z</time>
      </trkpt>
      <trkpt lat="42.47001" lon="2.86734">
        <ele>313.6</ele>
        <time>2021-11-14T15:42:45Z</time>
      </trkpt>
      <trkpt lat="42.47001" lon="2.86715">
        <ele>312.7</ele>
        <time>2021-11-14T15:42:47Z</time>
      </trkpt>
      <trkpt lat="42.46989" lon="2.86705">
        <ele>311.8</ele>
        <time>2021-11-14T15:42:49Z</time>
      </trkpt>
      <trkpt lat="42.46981" lon="2.86705">
        <ele>311.3</ele>
        <time>2021-11-14T15:42:50Z</time>
      </trkpt>
      <trkpt lat="42.46965" lon="2.86702">
        <ele>310.4</ele>
        <time>2021-11-14T15:42:52Z</time>
      </trkpt>
      <trkpt lat="42.46957" lon="2.86699">
        <ele>309.8</ele>
        <time>2021-11-14T15:42:53Z</time>
      </trkpt>
      <trkpt lat="42.46949" lon="2.86695">
        <ele>309.2</ele>
        <time>2021-11-14T15:42:54Z</time>
      </trkpt>
      <trkpt lat="42.46932" lon="2.86688">
        <ele>307.9</ele>
        <time>2021-11-14T15:42:56Z</time>
      </trkpt>
      <trkpt lat="42.46923" lon="2.86687">
        <ele>307.2</ele>
        <time>2021-11-14T15:42:57Z</time>
      </trkpt>
      <trkpt lat="42.46914" lon="2.86687">
        <ele>306.5</ele>
        <time>2021-11-14T15:42:58Z</time>
      </trkpt>
      <trkpt lat="42.46904" lon="2.86686">
        <ele>305.7</ele>
        <time>2021-11-14T15:42:59Z</time>
      </trkpt>
      <trkpt lat="42.46884" lon="2.86686">
        <ele>304.3</ele>
        <time>2021-11-14T15:43:01Z</time>
      </trkpt>
      <trkpt lat="42.46865" lon="2.86682">
        <ele>303</ele>
        <time>2021-11-14T15:43:03Z</time>
      </trkpt>
      <trkpt lat="42.46856" lon="2.86679">
        <ele>302.3</ele>
        <time>2021-11-14T15:43:04Z</time>
      </trkpt>
      <trkpt lat="42.46838" lon="2.86674">
        <ele>301</ele>
        <time>2021-11-14T15:43:06Z</time>
      </trkpt>
      <trkpt lat="42.46829" lon="2.86673">
        <ele>300.4</ele>
        <time>2021-11-14T15:43:07Z</time>
      </trkpt>
      <trkpt lat="42.4682" lon="2.86675">
        <ele>299.8</ele>
        <time>2021-11-14T15:43:08Z</time>
      </trkpt>
      <trkpt lat="42.46811" lon="2.8668">
        <ele>299.2</ele>
        <time>2021-11-14T15:43:09Z</time>
      </trkpt>
      <trkpt lat="42.46802" lon="2.86683">
        <ele>298.6</ele>
        <time>2021-11-14T15:43:10Z</time>
      </trkpt>
      <trkpt lat="42.46787" lon="2.86683">
        <ele>297.5</ele>
        <time>2021-11-14T15:43:12Z</time>
      </trkpt>
      <trkpt lat="42.46773" lon="2.86676">
        <ele>296.4</ele>
        <time>2021-11-14T15:43:14Z</time>
      </trkpt>
      <trkpt lat="42.46758" lon="2.86663">
        <ele>295.2</ele>
        <time>2021-11-14T15:43:16Z</time>
      </trkpt>
      <trkpt lat="42.46749" lon="2.86659">
        <ele>294.6</ele>
        <time>2021-11-14T15:43:17Z</time>
      </trkpt>
      <trkpt lat="42.46739" lon="2.86656">
        <ele>294</ele>
        <time>2021-11-14T15:43:18Z</time>
      </trkpt>
      <trkpt lat="42.4673" lon="2.86654">
        <ele>293.4</ele>
        <time>2021-11-14T15:43:19Z</time>
      </trkpt>
      <trkpt lat="42.46712" lon="2.86651">
        <ele>292.4</ele>
        <time>2021-11-14T15:43:21Z</time>
      </trkpt>
      <trkpt lat="42.46693" lon="2.86648">
        <ele>291.2</ele>
        <time>2021-11-14T15:43:23Z</time>
      </trkpt>
      <trkpt lat="42.46681" lon="2.86644">
        <ele>290.5</ele>
        <time>2021-11-14T15:43:24Z</time>
      </trkpt>
      <trkpt lat="42.46671" lon="2.86637">
        <ele>289.8</ele>
        <time>2021-11-14T15:43:25Z</time>
      </trkpt>
      <trkpt lat="42.46652" lon="2.86625">
        <ele>288.5</ele>
        <time>2021-11-14T15:43:27Z</time>
      </trkpt>
      <trkpt lat="42.46644" lon="2.86617">
        <ele>287.9</ele>
        <time>2021-11-14T15:43:29Z</time>
      </trkpt>
      <trkpt lat="42.46642" lon="2.86609">
        <ele>287.5</ele>
        <time>2021-11-14T15:43:30Z</time>
      </trkpt>
      <trkpt lat="42.46642" lon="2.8659">
        <ele>286.6</ele>
        <time>2021-11-14T15:43:32Z</time>
      </trkpt>
      <trkpt lat="42.46645" lon="2.86579">
        <ele>286</ele>
        <time>2021-11-14T15:43:33Z</time>
      </trkpt>
      <trkpt lat="42.46652" lon="2.86557">
        <ele>285</ele>
        <time>2021-11-14T15:43:35Z</time>
      </trkpt>
      <trkpt lat="42.46655" lon="2.86545">
        <ele>284.4</ele>
        <time>2021-11-14T15:43:36Z</time>
      </trkpt>
      <trkpt lat="42.46662" lon="2.86523">
        <ele>283.2</ele>
        <time>2021-11-14T15:43:38Z</time>
      </trkpt>
      <trkpt lat="42.46665" lon="2.86513">
        <ele>282.7</ele>
        <time>2021-11-14T15:43:39Z</time>
      </trkpt>
      <trkpt lat="42.46671" lon="2.86496">
        <ele>281.7</ele>
        <time>2021-11-14T15:43:41Z</time>
      </trkpt>
      <trkpt lat="42.46672" lon="2.86487">
        <ele>281.2</ele>
        <time>2021-11-14T15:43:42Z</time>
      </trkpt>
      <trkpt lat="42.46672" lon="2.86478">
        <ele>280.8</ele>
        <time>2021-11-14T15:43:43Z</time>
      </trkpt>
      <trkpt lat="42.46674" lon="2.86454">
        <ele>279.6</ele>
        <time>2021-11-14T15:43:45Z</time>
      </trkpt>
      <trkpt lat="42.46675" lon="2.86442">
        <ele>278.9</ele>
        <time>2021-11-14T15:43:46Z</time>
      </trkpt>
      <trkpt lat="42.46678" lon="2.86417">
        <ele>277.7</ele>
        <time>2021-11-14T15:43:48Z</time>
      </trkpt>
      <trkpt lat="42.46684" lon="2.86393">
        <ele>276.7</ele>
        <time>2021-11-14T15:43:50Z</time>
      </trkpt>
      <trkpt lat="42.46691" lon="2.8637">
        <ele>275.8</ele>
        <time>2021-11-14T15:43:52Z</time>
      </trkpt>
      <trkpt lat="42.46692" lon="2.8636">
        <ele>275.4</ele>
        <time>2021-11-14T15:43:53Z</time>
      </trkpt>
      <trkpt lat="42.46689" lon="2.86351">
        <ele>275.1</ele>
        <time>2021-11-14T15:43:54Z</time>
      </trkpt>
      <trkpt lat="42.46679" lon="2.86337">
        <ele>274.8</ele>
        <time>2021-11-14T15:43:56Z</time>
      </trkpt>
      <trkpt lat="42.46672" lon="2.86332">
        <ele>274.7</ele>
        <time>2021-11-14T15:43:57Z</time>
      </trkpt>
      <trkpt lat="42.46665" lon="2.86328">
        <ele>274.6</ele>
        <time>2021-11-14T15:43:58Z</time>
      </trkpt>
      <trkpt lat="42.46655" lon="2.86322">
        <ele>274.4</ele>
        <time>2021-11-14T15:44:00Z</time>
      </trkpt>
      <trkpt lat="42.46651" lon="2.86319">
        <ele>274.4</ele>
        <time>2021-11-14T15:44:01Z</time>
      </trkpt>
      <trkpt lat="42.46651" lon="2.86317">
        <ele>274.3</ele>
        <time>2021-11-14T15:44:02Z</time>
      </trkpt>
      <trkpt lat="42.46653" lon="2.86312">
        <ele>274.3</ele>
        <time>2021-11-14T15:44:04Z</time>
      </trkpt>
      <trkpt lat="42.46656" lon="2.86312">
        <ele>274.3</ele>
        <time>2021-11-14T15:44:05Z</time>
      </trkpt>
      <trkpt lat="42.46661" lon="2.86317">
        <ele>274.2</ele>
        <time>2021-11-14T15:44:07Z</time>
      </trkpt>
      <trkpt lat="42.46664" lon="2.86317">
        <ele>274.2</ele>
        <time>2021-11-14T15:44:08Z</time>
      </trkpt>
      <trkpt lat="42.46668" lon="2.86317">
        <ele>274.3</ele>
        <time>2021-11-14T15:44:09Z</time>
      </trkpt>
      <trkpt lat="42.46675" lon="2.86317">
        <ele>274.3</ele>
        <time>2021-11-14T15:44:11Z</time>
      </trkpt>
      <trkpt lat="42.46678" lon="2.86317">
        <ele>274.3</ele>
        <time>2021-11-14T15:44:12Z</time>
      </trkpt>
      <trkpt lat="42.46683" lon="2.8632">
        <ele>274.4</ele>
        <time>2021-11-14T15:44:14Z</time>
      </trkpt>
      <trkpt lat="42.46689" lon="2.86324">
        <ele>274.4</ele>
        <time>2021-11-14T15:44:16Z</time>
      </trkpt>
      <trkpt lat="42.46691" lon="2.86325">
        <ele>274.5</ele>
        <time>2021-11-14T15:44:17Z</time>
      </trkpt>
      <trkpt lat="42.46695" lon="2.86326">
        <ele>274.5</ele>
        <time>2021-11-14T15:44:19Z</time>
      </trkpt>
      <trkpt lat="42.46698" lon="2.86324">
        <ele>274.5</ele>
        <time>2021-11-14T15:44:21Z</time>
      </trkpt>
      <trkpt lat="42.46697" lon="2.86323">
        <ele>274.5</ele>
        <time>2021-11-14T15:44:23Z</time>
      </trkpt>
      <trkpt lat="42.46697" lon="2.86323">
        <ele>274.5</ele>
        <time>2021-11-14T15:44:25Z</time>
      </trkpt>
      <trkpt lat="42.46697" lon="2.86322">
        <ele>274.6</ele>
        <time>2021-11-14T15:44:27Z</time>
      </trkpt>
      <trkpt lat="42.46697" lon="2.86322">
        <ele>274.6</ele>
        <time>2021-11-14T15:44:29Z</time>
      </trkpt>
      <trkpt lat="42.46695" lon="2.86325">
        <ele>274.6</ele>
        <time>2021-11-14T15:44:37Z</time>
      </trkpt>
      <trkpt lat="42.46695" lon="2.86324">
        <ele>274.6</ele>
        <time>2021-11-14T15:44:39Z</time>
      </trkpt>
      <trkpt lat="42.46695" lon="2.86323">
        <ele>274.6</ele>
        <time>2021-11-14T15:44:40Z</time>
      </trkpt>
      <trkpt lat="42.46695" lon="2.86323">
        <ele>274.6</ele>
        <time>2021-11-14T15:44:42Z</time>
      </trkpt>
      <trkpt lat="42.46695" lon="2.86323">
        <ele>274.6</ele>
        <time>2021-11-14T15:44:44Z</time>
      </trkpt>
      <trkpt lat="42.46695" lon="2.86323">
        <ele>274.6</ele>
        <time>2021-11-14T15:44:45Z</time>
      </trkpt>
      <trkpt lat="42.46695" lon="2.86323">
        <ele>274.6</ele>
        <time>2021-11-14T15:44:46Z</time>
      </trkpt>
      <trkpt lat="42.46694" lon="2.86322">
        <ele>274.6</ele>
        <time>2021-11-14T15:44:48Z</time>
      </trkpt>
      <trkpt lat="42.46694" lon="2.86321">
        <ele>274.6</ele>
        <time>2021-11-14T15:44:50Z</time>
      </trkpt>
      <trkpt lat="42.46694" lon="2.86318">
        <ele>274.6</ele>
        <time>2021-11-14T15:45:38Z</time>
      </trkpt>
      <trkpt lat="42.46693" lon="2.86318">
        <ele>274.6</ele>
        <time>2021-11-14T15:45:40Z</time>
      </trkpt>
      <trkpt lat="42.46693" lon="2.86318">
        <ele>274.6</ele>
        <time>2021-11-14T15:45:42Z</time>
      </trkpt>
      <trkpt lat="42.46693" lon="2.86318">
        <ele>274.6</ele>
        <time>2021-11-14T15:45:44Z</time>
      </trkpt>
      <trkpt lat="42.46693" lon="2.86317">
        <ele>274.7</ele>
        <time>2021-11-14T15:45:45Z</time>
      </trkpt>
      <trkpt lat="42.46693" lon="2.86317">
        <ele>274.7</ele>
        <time>2021-11-14T15:45:46Z</time>
      </trkpt>
      <trkpt lat="42.46694" lon="2.86317">
        <ele>274.7</ele>
        <time>2021-11-14T15:45:47Z</time>
      </trkpt>
      <trkpt lat="42.46694" lon="2.86317">
        <ele>274.7</ele>
        <time>2021-11-14T15:45:49Z</time>
      </trkpt>
      <trkpt lat="42.46694" lon="2.86317">
        <ele>274.7</ele>
        <time>2021-11-14T15:45:51Z</time>
      </trkpt>
      <trkpt lat="42.46694" lon="2.86317">
        <ele>274.7</ele>
        <time>2021-11-14T15:45:52Z</time>
      </trkpt>
      <trkpt lat="42.46694" lon="2.86317">
        <ele>274.7</ele>
        <time>2021-11-14T15:45:54Z</time>
      </trkpt>
      <trkpt lat="42.46695" lon="2.86317">
        <ele>274.7</ele>
        <time>2021-11-14T15:45:56Z</time>
      </trkpt>
      <trkpt lat="42.46695" lon="2.86317">
        <ele>274.7</ele>
        <time>2021-11-14T15:45:58Z</time>
      </trkpt>
      <trkpt lat="42.46695" lon="2.86317">
        <ele>274.7</ele>
        <time>2021-11-14T15:45:59Z</time>
      </trkpt>
      <trkpt lat="42.46695" lon="2.86318">
        <ele>274.7</ele>
        <time>2021-11-14T15:46:00Z</time>
      </trkpt>
      <trkpt lat="42.46695" lon="2.86318">
        <ele>274.7</ele>
        <time>2021-11-14T15:46:02Z</time>
      </trkpt>
      <trkpt lat="42.46695" lon="2.86318">
        <ele>274.7</ele>
        <time>2021-11-14T15:46:03Z</time>
      </trkpt>
      <trkpt lat="42.46695" lon="2.86318">
        <ele>274.7</ele>
        <time>2021-11-14T15:46:05Z</time>
      </trkpt>
      <trkpt lat="42.46695" lon="2.86318">
        <ele>274.7</ele>
        <time>2021-11-14T15:46:06Z</time>
      </trkpt>
      <trkpt lat="42.46695" lon="2.86317">
        <ele>274.7</ele>
        <time>2021-11-14T15:46:08Z</time>
      </trkpt>
      <trkpt lat="42.46695" lon="2.86317">
        <ele>274.7</ele>
        <time>2021-11-14T15:46:09Z</time>
      </trkpt>
      <trkpt lat="42.46695" lon="2.86317">
        <ele>274.7</ele>
        <time>2021-11-14T15:46:10Z</time>
      </trkpt>
      <trkpt lat="42.46695" lon="2.86317">
        <ele>274.7</ele>
        <time>2021-11-14T15:46:11Z</time>
      </trkpt>
      <trkpt lat="42.46695" lon="2.86317">
        <ele>274.7</ele>
        <time>2021-11-14T15:46:13Z</time>
      </trkpt>
      <trkpt lat="42.46695" lon="2.86316">
        <ele>274.7</ele>
        <time>2021-11-14T15:46:14Z</time>
      </trkpt>
      <trkpt lat="42.46695" lon="2.86316">
        <ele>274.7</ele>
        <time>2021-11-14T15:46:16Z</time>
      </trkpt>
      <trkpt lat="42.46695" lon="2.86317">
        <ele>274.7</ele>
        <time>2021-11-14T15:46:17Z</time>
      </trkpt>
      <trkpt lat="42.46695" lon="2.86317">
        <ele>274.7</ele>
        <time>2021-11-14T15:46:18Z</time>
      </trkpt>
      <trkpt lat="42.46695" lon="2.86317">
        <ele>274.7</ele>
        <time>2021-11-14T15:46:20Z</time>
      </trkpt>
      <trkpt lat="42.46695" lon="2.86317">
        <ele>274.7</ele>
        <time>2021-11-14T15:46:21Z</time>
      </trkpt>
      <trkpt lat="42.46695" lon="2.86317">
        <ele>274.7</ele>
        <time>2021-11-14T15:46:22Z</time>
      </trkpt>
      <trkpt lat="42.46696" lon="2.86317">
        <ele>274.7</ele>
        <time>2021-11-14T15:46:24Z</time>
      </trkpt>
      <trkpt lat="42.46696" lon="2.86317">
        <ele>274.7</ele>
        <time>2021-11-14T15:46:25Z</time>
      </trkpt>
      <trkpt lat="42.46696" lon="2.86317">
        <ele>274.7</ele>
        <time>2021-11-14T15:46:27Z</time>
      </trkpt>
      <trkpt lat="42.46696" lon="2.86318">
        <ele>274.7</ele>
        <time>2021-11-14T15:46:28Z</time>
      </trkpt>
      <trkpt lat="42.46695" lon="2.86319">
        <ele>274.7</ele>
        <time>2021-11-14T15:46:29Z</time>
      </trkpt>
      <trkpt lat="42.46695" lon="2.86321">
        <ele>274.7</ele>
        <time>2021-11-14T15:46:30Z</time>
      </trkpt>
      <trkpt lat="42.46694" lon="2.86322">
        <ele>274.8</ele>
        <time>2021-11-14T15:46:32Z</time>
      </trkpt>
      <trkpt lat="42.46694" lon="2.86322">
        <ele>274.8</ele>
        <time>2021-11-14T15:46:33Z</time>
      </trkpt>
      <trkpt lat="42.46693" lon="2.86321">
        <ele>274.8</ele>
        <time>2021-11-14T15:46:35Z</time>
      </trkpt>
      <trkpt lat="42.46693" lon="2.86321">
        <ele>274.8</ele>
        <time>2021-11-14T15:46:37Z</time>
      </trkpt>
      <trkpt lat="42.46693" lon="2.86321">
        <ele>274.8</ele>
        <time>2021-11-14T15:46:38Z</time>
      </trkpt>
      <trkpt lat="42.46693" lon="2.86321">
        <ele>274.8</ele>
        <time>2021-11-14T15:46:39Z</time>
      </trkpt>
      <trkpt lat="42.46693" lon="2.86321">
        <ele>274.8</ele>
        <time>2021-11-14T15:46:41Z</time>
      </trkpt>
      <trkpt lat="42.46693" lon="2.86321">
        <ele>274.8</ele>
        <time>2021-11-14T15:46:43Z</time>
      </trkpt>
    </trkseg>
  </trk>
</gpx>